<?xml version='1.0' encoding='UTF-8'?><gpx version="1.1" creator="JPX - https://github.com/jenetics/jpx" xmlns="http://www.topografix.com/GPX/1/1"><trk><trkseg><trkpt lat="43.463415" lon="11.4307933"><ele>347.0</ele><time>2026-04-18T07:50:48.112Z</time></trkpt><trkpt lat="43.4633333" lon="11.4307667"><ele>347.0</ele><time>2026-04-18T07:50:50.112Z</time></trkpt><trkpt lat="43.4633883" lon="11.430705"><ele>347.0</ele><time>2026-04-18T07:51:52.112Z</time></trkpt><trkpt lat="43.46348" lon="11.4308183"><ele>347.0</ele><time>2026-04-18T07:51:55.112Z</time></trkpt><trkpt lat="43.4635267" lon="11.4308933"><ele>347.0</ele><time>2026-04-18T07:51:56.111Z</time></trkpt><trkpt lat="43.4635717" lon="11.4309833"><ele>347.0</ele><time>2026-04-18T07:51:57.112Z</time></trkpt><trkpt lat="43.4636183" lon="11.4310833"><ele>347.0</ele><time>2026-04-18T07:51:58.111Z</time></trkpt><trkpt lat="43.4636617" lon="11.4311933"><ele>347.0</ele><time>2026-04-18T07:51:59.112Z</time></trkpt><trkpt lat="43.463705" lon="11.431315"><ele>347.0</ele><time>2026-04-18T07:52:00.111Z</time></trkpt><trkpt lat="43.4637533" lon="11.4314383"><ele>347.0</ele><time>2026-04-18T07:52:01.112Z</time></trkpt><trkpt lat="43.4638067" lon="11.4315817"><ele>347.0</ele><time>2026-04-18T07:52:02.111Z</time></trkpt><trkpt lat="43.4638583" lon="11.4317367"><ele>347.5</ele><time>2026-04-18T07:52:03.112Z</time></trkpt><trkpt lat="43.463915" lon="11.431895"><ele>348.0</ele><time>2026-04-18T07:52:04.111Z</time></trkpt><trkpt lat="43.4639783" lon="11.432045"><ele>348.5</ele><time>2026-04-18T07:52:05.112Z</time></trkpt><trkpt lat="43.464035" lon="11.4321867"><ele>349.0</ele><time>2026-04-18T07:52:06.112Z</time></trkpt><trkpt lat="43.4640883" lon="11.43233"><ele>349.0</ele><time>2026-04-18T07:52:07.112Z</time></trkpt><trkpt lat="43.464145" lon="11.432475"><ele>349.0</ele><time>2026-04-18T07:52:08.111Z</time></trkpt><trkpt lat="43.4642117" lon="11.432605"><ele>349.0</ele><time>2026-04-18T07:52:09.111Z</time></trkpt><trkpt lat="43.4642767" lon="11.4327283"><ele>349.0</ele><time>2026-04-18T07:52:10.111Z</time></trkpt><trkpt lat="43.464355" lon="11.4328267"><ele>349.0</ele><time>2026-04-18T07:52:11.111Z</time></trkpt><trkpt lat="43.4644433" lon="11.4329217"><ele>349.0</ele><time>2026-04-18T07:52:12.112Z</time></trkpt><trkpt lat="43.4645267" lon="11.4330067"><ele>349.0</ele><time>2026-04-18T07:52:13.111Z</time></trkpt><trkpt lat="43.4646217" lon="11.4330817"><ele>349.0</ele><time>2026-04-18T07:52:14.112Z</time></trkpt><trkpt lat="43.4647133" lon="11.4331433"><ele>349.0</ele><time>2026-04-18T07:52:15.111Z</time></trkpt><trkpt lat="43.4648067" lon="11.43319"><ele>348.8333333333333</ele><time>2026-04-18T07:52:16.111Z</time></trkpt><trkpt lat="43.4648833" lon="11.4332417"><ele>348.66666666666663</ele><time>2026-04-18T07:52:17.112Z</time></trkpt><trkpt lat="43.464955" lon="11.4332733"><ele>348.5</ele><time>2026-04-18T07:52:18.111Z</time></trkpt><trkpt lat="43.4650267" lon="11.433265"><ele>348.3333333333333</ele><time>2026-04-18T07:52:19.111Z</time></trkpt><trkpt lat="43.4650967" lon="11.433225"><ele>348.1666666666667</ele><time>2026-04-18T07:52:20.112Z</time></trkpt><trkpt lat="43.4651833" lon="11.43318"><ele>348.0</ele><time>2026-04-18T07:52:21.112Z</time></trkpt><trkpt lat="43.4652733" lon="11.4331667"><ele>348.0</ele><time>2026-04-18T07:52:22.111Z</time></trkpt><trkpt lat="43.4653717" lon="11.4332"><ele>348.0</ele><time>2026-04-18T07:52:23.111Z</time></trkpt><trkpt lat="43.4654717" lon="11.4332667"><ele>348.0</ele><time>2026-04-18T07:52:24.111Z</time></trkpt><trkpt lat="43.4655733" lon="11.4333183"><ele>348.0</ele><time>2026-04-18T07:52:25.112Z</time></trkpt><trkpt lat="43.46569" lon="11.4333567"><ele>348.0</ele><time>2026-04-18T07:52:26.111Z</time></trkpt><trkpt lat="43.4658067" lon="11.4333917"><ele>348.0</ele><time>2026-04-18T07:52:27.111Z</time></trkpt><trkpt lat="43.4659167" lon="11.4334233"><ele>348.0</ele><time>2026-04-18T07:52:28.111Z</time></trkpt><trkpt lat="43.466025" lon="11.4334467"><ele>348.0</ele><time>2026-04-18T07:52:29.111Z</time></trkpt><trkpt lat="43.4661383" lon="11.4334567"><ele>348.0</ele><time>2026-04-18T07:52:30.111Z</time></trkpt><trkpt lat="43.4662383" lon="11.43343"><ele>348.0</ele><time>2026-04-18T07:52:31.111Z</time></trkpt><trkpt lat="43.4663433" lon="11.4333867"><ele>349.0</ele><time>2026-04-18T07:52:32.111Z</time></trkpt><trkpt lat="43.466455" lon="11.43333"><ele>350.0</ele><time>2026-04-18T07:52:33.112Z</time></trkpt><trkpt lat="43.4665683" lon="11.4332567"><ele>351.0</ele><time>2026-04-18T07:52:34.111Z</time></trkpt><trkpt lat="43.46668" lon="11.433175"><ele>352.0</ele><time>2026-04-18T07:52:35.111Z</time></trkpt><trkpt lat="43.4668" lon="11.4330933"><ele>352.0</ele><time>2026-04-18T07:52:36.111Z</time></trkpt><trkpt lat="43.4669283" lon="11.433015"><ele>352.0</ele><time>2026-04-18T07:52:37.111Z</time></trkpt><trkpt lat="43.467055" lon="11.432935"><ele>352.0</ele><time>2026-04-18T07:52:38.111Z</time></trkpt><trkpt lat="43.46717" lon="11.432855"><ele>352.0</ele><time>2026-04-18T07:52:39.111Z</time></trkpt><trkpt lat="43.4672917" lon="11.43278"><ele>354.5</ele><time>2026-04-18T07:52:40.112Z</time></trkpt><trkpt lat="43.4674167" lon="11.4327"><ele>357.0</ele><time>2026-04-18T07:52:41.111Z</time></trkpt><trkpt lat="43.46753" lon="11.432625"><ele>359.5</ele><time>2026-04-18T07:52:42.112Z</time></trkpt><trkpt lat="43.4676233" lon="11.4325367"><ele>362.0</ele><time>2026-04-18T07:52:43.111Z</time></trkpt><trkpt lat="43.4677083" lon="11.4324667"><ele>362.0</ele><time>2026-04-18T07:52:44.111Z</time></trkpt><trkpt lat="43.46779" lon="11.43241"><ele>362.0</ele><time>2026-04-18T07:52:45.111Z</time></trkpt><trkpt lat="43.4678633" lon="11.432365"><ele>362.0</ele><time>2026-04-18T07:52:46.111Z</time></trkpt><trkpt lat="43.4679283" lon="11.432325"><ele>362.0</ele><time>2026-04-18T07:52:47.111Z</time></trkpt><trkpt lat="43.467995" lon="11.432255"><ele>362.0</ele><time>2026-04-18T07:52:49.112Z</time></trkpt><trkpt lat="43.4679917" lon="11.4321683"><ele>362.0</ele><time>2026-04-18T07:52:51.112Z</time></trkpt><trkpt lat="43.4678733" lon="11.432125"><ele>364.8</ele><time>2026-04-18T07:52:53.111Z</time></trkpt><trkpt lat="43.467785" lon="11.4320817"><ele>367.6</ele><time>2026-04-18T07:52:54.111Z</time></trkpt><trkpt lat="43.4676917" lon="11.43203"><ele>370.40000000000003</ele><time>2026-04-18T07:52:55.111Z</time></trkpt><trkpt lat="43.4675967" lon="11.431985"><ele>373.20000000000005</ele><time>2026-04-18T07:52:56.112Z</time></trkpt><trkpt lat="43.4675183" lon="11.4319467"><ele>376.0</ele><time>2026-04-18T07:52:57.111Z</time></trkpt><trkpt lat="43.4674367" lon="11.43192"><ele>376.0</ele><time>2026-04-18T07:52:58.112Z</time></trkpt><trkpt lat="43.46735" lon="11.431925"><ele>376.0</ele><time>2026-04-18T07:52:59.111Z</time></trkpt><trkpt lat="43.4672533" lon="11.43194"><ele>376.0</ele><time>2026-04-18T07:53:00.111Z</time></trkpt><trkpt lat="43.4671467" lon="11.431955"><ele>376.0</ele><time>2026-04-18T07:53:01.111Z</time></trkpt><trkpt lat="43.4670533" lon="11.43197"><ele>376.0</ele><time>2026-04-18T07:53:02.111Z</time></trkpt><trkpt lat="43.4669717" lon="11.4319767"><ele>375.8333333333333</ele><time>2026-04-18T07:53:03.112Z</time></trkpt><trkpt lat="43.466895" lon="11.431975"><ele>375.66666666666663</ele><time>2026-04-18T07:53:04.112Z</time></trkpt><trkpt lat="43.4668117" lon="11.4319767"><ele>375.5</ele><time>2026-04-18T07:53:05.111Z</time></trkpt><trkpt lat="43.4667283" lon="11.4319867"><ele>375.3333333333333</ele><time>2026-04-18T07:53:06.111Z</time></trkpt><trkpt lat="43.466655" lon="11.431985"><ele>375.1666666666667</ele><time>2026-04-18T07:53:07.111Z</time></trkpt><trkpt lat="43.46654" lon="11.4319667"><ele>375.0</ele><time>2026-04-18T07:53:09.111Z</time></trkpt><trkpt lat="43.46645" lon="11.4319517"><ele>375.0</ele><time>2026-04-18T07:53:11.111Z</time></trkpt><trkpt lat="43.4663567" lon="11.4319133"><ele>375.0</ele><time>2026-04-18T07:53:13.112Z</time></trkpt><trkpt lat="43.4662833" lon="11.431875"><ele>375.0</ele><time>2026-04-18T07:53:15.112Z</time></trkpt><trkpt lat="43.466375" lon="11.4318867"><ele>375.0</ele><time>2026-04-18T07:53:21.111Z</time></trkpt><trkpt lat="43.4664333" lon="11.4319367"><ele>375.0</ele><time>2026-04-18T07:53:22.112Z</time></trkpt><trkpt lat="43.4665117" lon="11.4319667"><ele>375.0</ele><time>2026-04-18T07:53:23.112Z</time></trkpt><trkpt lat="43.4666033" lon="11.4319917"><ele>375.0</ele><time>2026-04-18T07:53:24.112Z</time></trkpt><trkpt lat="43.4667067" lon="11.4319883"><ele>375.0</ele><time>2026-04-18T07:53:25.111Z</time></trkpt><trkpt lat="43.4668133" lon="11.4319917"><ele>375.0</ele><time>2026-04-18T07:53:26.111Z</time></trkpt><trkpt lat="43.4669233" lon="11.43199"><ele>375.0</ele><time>2026-04-18T07:53:27.112Z</time></trkpt><trkpt lat="43.4670383" lon="11.4319817"><ele>375.0</ele><time>2026-04-18T07:53:28.112Z</time></trkpt><trkpt lat="43.4671467" lon="11.43198"><ele>375.1666666666667</ele><time>2026-04-18T07:53:29.111Z</time></trkpt><trkpt lat="43.4672517" lon="11.4319783"><ele>375.3333333333333</ele><time>2026-04-18T07:53:30.111Z</time></trkpt><trkpt lat="43.46734" lon="11.4319683"><ele>375.5</ele><time>2026-04-18T07:53:31.112Z</time></trkpt><trkpt lat="43.4674217" lon="11.431965"><ele>375.66666666666663</ele><time>2026-04-18T07:53:32.112Z</time></trkpt><trkpt lat="43.4674883" lon="11.4319667"><ele>375.8333333333333</ele><time>2026-04-18T07:53:33.111Z</time></trkpt><trkpt lat="43.4675517" lon="11.431985"><ele>376.0</ele><time>2026-04-18T07:53:34.112Z</time></trkpt><trkpt lat="43.4676683" lon="11.432075"><ele>376.0</ele><time>2026-04-18T07:53:36.111Z</time></trkpt><trkpt lat="43.467745" lon="11.4321267"><ele>376.0</ele><time>2026-04-18T07:53:37.112Z</time></trkpt><trkpt lat="43.4678167" lon="11.4321717"><ele>376.0</ele><time>2026-04-18T07:53:38.111Z</time></trkpt><trkpt lat="43.4678783" lon="11.432215"><ele>376.0</ele><time>2026-04-18T07:53:39.111Z</time></trkpt><trkpt lat="43.467955" lon="11.4322633"><ele>376.0</ele><time>2026-04-18T07:53:41.111Z</time></trkpt><trkpt lat="43.46802" lon="11.432305"><ele>376.0</ele><time>2026-04-18T07:53:51.111Z</time></trkpt><trkpt lat="43.468105" lon="11.4322667"><ele>376.0</ele><time>2026-04-18T07:53:53.112Z</time></trkpt><trkpt lat="43.4681617" lon="11.4321667"><ele>376.0</ele><time>2026-04-18T07:53:56.112Z</time></trkpt><trkpt lat="43.468105" lon="11.4320533"><ele>376.0</ele><time>2026-04-18T07:53:58.111Z</time></trkpt><trkpt lat="43.4680467" lon="11.43198"><ele>376.0</ele><time>2026-04-18T07:53:59.112Z</time></trkpt><trkpt lat="43.4679533" lon="11.4318783"><ele>376.0</ele><time>2026-04-18T07:54:00.111Z</time></trkpt><trkpt lat="43.4678433" lon="11.4317733"><ele>376.0</ele><time>2026-04-18T07:54:01.112Z</time></trkpt><trkpt lat="43.46775" lon="11.43167"><ele>376.0</ele><time>2026-04-18T07:54:02.112Z</time></trkpt><trkpt lat="43.4676483" lon="11.4315733"><ele>376.0</ele><time>2026-04-18T07:54:03.111Z</time></trkpt><trkpt lat="43.46754" lon="11.431485"><ele>376.0</ele><time>2026-04-18T07:54:04.111Z</time></trkpt><trkpt lat="43.467415" lon="11.4314033"><ele>376.0</ele><time>2026-04-18T07:54:05.111Z</time></trkpt><trkpt lat="43.4672783" lon="11.4313583"><ele>376.0</ele><time>2026-04-18T07:54:06.111Z</time></trkpt><trkpt lat="43.467145" lon="11.431305"><ele>376.0</ele><time>2026-04-18T07:54:07.111Z</time></trkpt><trkpt lat="43.46702" lon="11.4312583"><ele>376.0</ele><time>2026-04-18T07:54:08.111Z</time></trkpt><trkpt lat="43.4669083" lon="11.4312"><ele>378.4</ele><time>2026-04-18T07:54:09.111Z</time></trkpt><trkpt lat="43.4668067" lon="11.4311167"><ele>380.8</ele><time>2026-04-18T07:54:10.111Z</time></trkpt><trkpt lat="43.4667133" lon="11.431015"><ele>383.2</ele><time>2026-04-18T07:54:11.112Z</time></trkpt><trkpt lat="43.4666467" lon="11.4309033"><ele>385.59999999999997</ele><time>2026-04-18T07:54:12.112Z</time></trkpt><trkpt lat="43.466605" lon="11.430815"><ele>388.0</ele><time>2026-04-18T07:54:13.111Z</time></trkpt><trkpt lat="43.466545" lon="11.4307033"><ele>388.00000000000006</ele><time>2026-04-18T07:54:15.112Z</time></trkpt><trkpt lat="43.4665017" lon="11.4306033"><ele>388.0</ele><time>2026-04-18T07:54:18.112Z</time></trkpt><trkpt lat="43.4665017" lon="11.43071"><ele>388.0</ele><time>2026-04-18T07:54:25.111Z</time></trkpt><trkpt lat="43.4665433" lon="11.4307783"><ele>388.0</ele><time>2026-04-18T07:54:27.112Z</time></trkpt><trkpt lat="43.4666133" lon="11.4308067"><ele>388.00000000000006</ele><time>2026-04-18T07:54:30.111Z</time></trkpt><trkpt lat="43.4667033" lon="11.4307333"><ele>388.0</ele><time>2026-04-18T07:54:32.112Z</time></trkpt><trkpt lat="43.4667667" lon="11.4306717"><ele>388.0</ele><time>2026-04-18T07:54:33.112Z</time></trkpt><trkpt lat="43.4668433" lon="11.430615"><ele>388.0</ele><time>2026-04-18T07:54:34.111Z</time></trkpt><trkpt lat="43.46694" lon="11.4305567"><ele>388.0</ele><time>2026-04-18T07:54:35.112Z</time></trkpt><trkpt lat="43.467045" lon="11.4304917"><ele>388.0</ele><time>2026-04-18T07:54:36.111Z</time></trkpt><trkpt lat="43.46715" lon="11.4304217"><ele>388.0</ele><time>2026-04-18T07:54:37.111Z</time></trkpt><trkpt lat="43.467265" lon="11.4303433"><ele>390.5</ele><time>2026-04-18T07:54:38.11Z</time></trkpt><trkpt lat="43.46738" lon="11.4302617"><ele>393.0</ele><time>2026-04-18T07:54:39.11Z</time></trkpt><trkpt lat="43.4675" lon="11.4301817"><ele>395.5</ele><time>2026-04-18T07:54:40.11Z</time></trkpt><trkpt lat="43.4676217" lon="11.430105"><ele>398.0</ele><time>2026-04-18T07:54:41.111Z</time></trkpt><trkpt lat="43.467735" lon="11.4300233"><ele>398.0</ele><time>2026-04-18T07:54:42.11Z</time></trkpt><trkpt lat="43.4678517" lon="11.42994"><ele>398.0</ele><time>2026-04-18T07:54:43.111Z</time></trkpt><trkpt lat="43.4679617" lon="11.4298633"><ele>398.0</ele><time>2026-04-18T07:54:44.111Z</time></trkpt><trkpt lat="43.4680683" lon="11.42978"><ele>398.0</ele><time>2026-04-18T07:54:45.11Z</time></trkpt><trkpt lat="43.468165" lon="11.4297117"><ele>399.25</ele><time>2026-04-18T07:54:46.111Z</time></trkpt><trkpt lat="43.4682667" lon="11.4296483"><ele>400.5</ele><time>2026-04-18T07:54:47.11Z</time></trkpt><trkpt lat="43.4683617" lon="11.4295633"><ele>401.75</ele><time>2026-04-18T07:54:48.111Z</time></trkpt><trkpt lat="43.468455" lon="11.4294533"><ele>403.0</ele><time>2026-04-18T07:54:49.11Z</time></trkpt><trkpt lat="43.4685467" lon="11.4293167"><ele>404.25</ele><time>2026-04-18T07:54:50.11Z</time></trkpt><trkpt lat="43.4686333" lon="11.4291617"><ele>405.5</ele><time>2026-04-18T07:54:51.11Z</time></trkpt><trkpt lat="43.46873" lon="11.4290083"><ele>406.75</ele><time>2026-04-18T07:54:52.111Z</time></trkpt><trkpt lat="43.4688283" lon="11.4288483"><ele>408.0</ele><time>2026-04-18T07:54:53.111Z</time></trkpt><trkpt lat="43.4689233" lon="11.4286833"><ele>412.33333333333337</ele><time>2026-04-18T07:54:54.11Z</time></trkpt><trkpt lat="43.46903" lon="11.4285217"><ele>416.6666666666667</ele><time>2026-04-18T07:54:55.11Z</time></trkpt><trkpt lat="43.46913" lon="11.4283633"><ele>421.0</ele><time>2026-04-18T07:54:56.11Z</time></trkpt><trkpt lat="43.4692317" lon="11.428205"><ele>421.0</ele><time>2026-04-18T07:54:57.11Z</time></trkpt><trkpt lat="43.469335" lon="11.4280417"><ele>421.0</ele><time>2026-04-18T07:54:58.11Z</time></trkpt><trkpt lat="43.46943" lon="11.4278883"><ele>421.0</ele><time>2026-04-18T07:54:59.11Z</time></trkpt><trkpt lat="43.4695233" lon="11.427735"><ele>421.0</ele><time>2026-04-18T07:55:00.11Z</time></trkpt><trkpt lat="43.4696133" lon="11.4275867"><ele>423.75</ele><time>2026-04-18T07:55:01.11Z</time></trkpt><trkpt lat="43.4696917" lon="11.4274233"><ele>426.5</ele><time>2026-04-18T07:55:02.11Z</time></trkpt><trkpt lat="43.469765" lon="11.4272567"><ele>429.25</ele><time>2026-04-18T07:55:03.11Z</time></trkpt><trkpt lat="43.4698133" lon="11.4270817"><ele>432.0</ele><time>2026-04-18T07:55:04.111Z</time></trkpt><trkpt lat="43.469845" lon="11.4269"><ele>434.0</ele><time>2026-04-18T07:55:05.111Z</time></trkpt><trkpt lat="43.469865" lon="11.4267167"><ele>436.0</ele><time>2026-04-18T07:55:06.111Z</time></trkpt><trkpt lat="43.469885" lon="11.4265267"><ele>438.0</ele><time>2026-04-18T07:55:07.11Z</time></trkpt><trkpt lat="43.469905" lon="11.4263417"><ele>440.0</ele><time>2026-04-18T07:55:08.111Z</time></trkpt><trkpt lat="43.4699183" lon="11.426155"><ele>442.0</ele><time>2026-04-18T07:55:09.11Z</time></trkpt><trkpt lat="43.4699233" lon="11.42597"><ele>444.0</ele><time>2026-04-18T07:55:10.11Z</time></trkpt><trkpt lat="43.4699133" lon="11.42578"><ele>446.0</ele><time>2026-04-18T07:55:11.11Z</time></trkpt><trkpt lat="43.4698983" lon="11.4255867"><ele>448.0</ele><time>2026-04-18T07:55:12.11Z</time></trkpt><trkpt lat="43.4698867" lon="11.425395"><ele>451.0</ele><time>2026-04-18T07:55:13.11Z</time></trkpt><trkpt lat="43.4698683" lon="11.4252167"><ele>454.0</ele><time>2026-04-18T07:55:14.111Z</time></trkpt><trkpt lat="43.4698533" lon="11.42505"><ele>457.0</ele><time>2026-04-18T07:55:15.11Z</time></trkpt><trkpt lat="43.469835" lon="11.4249017"><ele>460.0</ele><time>2026-04-18T07:55:16.11Z</time></trkpt><trkpt lat="43.4698067" lon="11.4247617"><ele>461.75</ele><time>2026-04-18T07:55:17.11Z</time></trkpt><trkpt lat="43.4697617" lon="11.4246333"><ele>463.5</ele><time>2026-04-18T07:55:18.11Z</time></trkpt><trkpt lat="43.4696733" lon="11.4245317"><ele>465.25</ele><time>2026-04-18T07:55:19.111Z</time></trkpt><trkpt lat="43.4695667" lon="11.4244333"><ele>467.0</ele><time>2026-04-18T07:55:20.111Z</time></trkpt><trkpt lat="43.46944" lon="11.4243667"><ele>467.0</ele><time>2026-04-18T07:55:21.11Z</time></trkpt><trkpt lat="43.4692967" lon="11.4243183"><ele>467.0</ele><time>2026-04-18T07:55:22.11Z</time></trkpt><trkpt lat="43.469155" lon="11.4242967"><ele>467.0</ele><time>2026-04-18T07:55:23.111Z</time></trkpt><trkpt lat="43.4690183" lon="11.424285"><ele>467.0</ele><time>2026-04-18T07:55:24.11Z</time></trkpt><trkpt lat="43.46889" lon="11.424265"><ele>467.5</ele><time>2026-04-18T07:55:25.11Z</time></trkpt><trkpt lat="43.4687667" lon="11.4242617"><ele>468.0</ele><time>2026-04-18T07:55:26.11Z</time></trkpt><trkpt lat="43.4686533" lon="11.424255"><ele>468.5</ele><time>2026-04-18T07:55:27.111Z</time></trkpt><trkpt lat="43.4685467" lon="11.424225"><ele>469.0</ele><time>2026-04-18T07:55:28.111Z</time></trkpt><trkpt lat="43.4684433" lon="11.424165"><ele>469.0</ele><time>2026-04-18T07:55:29.111Z</time></trkpt><trkpt lat="43.46835" lon="11.42408"><ele>469.0</ele><time>2026-04-18T07:55:30.111Z</time></trkpt><trkpt lat="43.4682533" lon="11.42399"><ele>469.0</ele><time>2026-04-18T07:55:31.11Z</time></trkpt><trkpt lat="43.4681583" lon="11.4239067"><ele>469.0</ele><time>2026-04-18T07:55:32.111Z</time></trkpt><trkpt lat="43.4680617" lon="11.4238217"><ele>471.0</ele><time>2026-04-18T07:55:33.11Z</time></trkpt><trkpt lat="43.467965" lon="11.4237467"><ele>473.0</ele><time>2026-04-18T07:55:34.11Z</time></trkpt><trkpt lat="43.4678767" lon="11.423675"><ele>475.0</ele><time>2026-04-18T07:55:35.111Z</time></trkpt><trkpt lat="43.4677983" lon="11.4236033"><ele>477.0</ele><time>2026-04-18T07:55:36.11Z</time></trkpt><trkpt lat="43.4677217" lon="11.4235117"><ele>479.0</ele><time>2026-04-18T07:55:37.11Z</time></trkpt><trkpt lat="43.4676767" lon="11.4234083"><ele>478.99999999999994</ele><time>2026-04-18T07:55:38.11Z</time></trkpt><trkpt lat="43.4676633" lon="11.4232967"><ele>479.0</ele><time>2026-04-18T07:55:39.11Z</time></trkpt><trkpt lat="43.467695" lon="11.4232"><ele>479.0</ele><time>2026-04-18T07:55:40.11Z</time></trkpt><trkpt lat="43.4677633" lon="11.42313"><ele>479.0</ele><time>2026-04-18T07:55:41.11Z</time></trkpt><trkpt lat="43.4678483" lon="11.4231017"><ele>478.99999999999994</ele><time>2026-04-18T07:55:42.11Z</time></trkpt><trkpt lat="43.46794" lon="11.423085"><ele>479.0</ele><time>2026-04-18T07:55:43.11Z</time></trkpt><trkpt lat="43.468035" lon="11.4230633"><ele>479.5</ele><time>2026-04-18T07:55:44.11Z</time></trkpt><trkpt lat="43.4681383" lon="11.42302"><ele>480.0</ele><time>2026-04-18T07:55:45.111Z</time></trkpt><trkpt lat="43.4682417" lon="11.4229617"><ele>480.5</ele><time>2026-04-18T07:55:46.11Z</time></trkpt><trkpt lat="43.4683483" lon="11.4228933"><ele>481.0</ele><time>2026-04-18T07:55:47.111Z</time></trkpt><trkpt lat="43.4684533" lon="11.4228133"><ele>479.75</ele><time>2026-04-18T07:55:48.11Z</time></trkpt><trkpt lat="43.4685717" lon="11.42272"><ele>478.5</ele><time>2026-04-18T07:55:49.11Z</time></trkpt><trkpt lat="43.4686933" lon="11.4226217"><ele>477.25</ele><time>2026-04-18T07:55:50.11Z</time></trkpt><trkpt lat="43.468815" lon="11.4225267"><ele>476.0</ele><time>2026-04-18T07:55:51.11Z</time></trkpt><trkpt lat="43.46893" lon="11.4224333"><ele>477.0</ele><time>2026-04-18T07:55:52.11Z</time></trkpt><trkpt lat="43.4690483" lon="11.4223433"><ele>478.0</ele><time>2026-04-18T07:55:53.11Z</time></trkpt><trkpt lat="43.4691667" lon="11.4222533"><ele>479.0</ele><time>2026-04-18T07:55:54.11Z</time></trkpt><trkpt lat="43.469285" lon="11.4221733"><ele>480.0</ele><time>2026-04-18T07:55:55.11Z</time></trkpt><trkpt lat="43.469415" lon="11.4220867"><ele>480.0</ele><time>2026-04-18T07:55:56.111Z</time></trkpt><trkpt lat="43.469535" lon="11.4219983"><ele>480.0</ele><time>2026-04-18T07:55:57.111Z</time></trkpt><trkpt lat="43.4696567" lon="11.421915"><ele>480.0</ele><time>2026-04-18T07:55:58.11Z</time></trkpt><trkpt lat="43.469775" lon="11.4218283"><ele>480.0</ele><time>2026-04-18T07:55:59.111Z</time></trkpt><trkpt lat="43.4699017" lon="11.4217383"><ele>483.25</ele><time>2026-04-18T07:56:00.111Z</time></trkpt><trkpt lat="43.470025" lon="11.4216467"><ele>486.5</ele><time>2026-04-18T07:56:01.11Z</time></trkpt><trkpt lat="43.4701383" lon="11.4215667"><ele>489.75</ele><time>2026-04-18T07:56:02.11Z</time></trkpt><trkpt lat="43.47023" lon="11.421495"><ele>493.0</ele><time>2026-04-18T07:56:03.111Z</time></trkpt><trkpt lat="43.4703033" lon="11.4214"><ele>492.4</ele><time>2026-04-18T07:56:04.11Z</time></trkpt><trkpt lat="43.4703583" lon="11.421285"><ele>491.79999999999995</ele><time>2026-04-18T07:56:05.11Z</time></trkpt><trkpt lat="43.470375" lon="11.4211467"><ele>491.2</ele><time>2026-04-18T07:56:06.11Z</time></trkpt><trkpt lat="43.4703483" lon="11.4210017"><ele>490.6</ele><time>2026-04-18T07:56:07.111Z</time></trkpt><trkpt lat="43.4702967" lon="11.42085"><ele>490.0</ele><time>2026-04-18T07:56:08.111Z</time></trkpt><trkpt lat="43.47022" lon="11.420695"><ele>490.0</ele><time>2026-04-18T07:56:09.11Z</time></trkpt><trkpt lat="43.4701383" lon="11.4205433"><ele>490.0</ele><time>2026-04-18T07:56:10.11Z</time></trkpt><trkpt lat="43.4700617" lon="11.4203933"><ele>490.0</ele><time>2026-04-18T07:56:11.11Z</time></trkpt><trkpt lat="43.4699917" lon="11.4202367"><ele>490.0</ele><time>2026-04-18T07:56:12.111Z</time></trkpt><trkpt lat="43.4699233" lon="11.420085"><ele>492.2</ele><time>2026-04-18T07:56:13.111Z</time></trkpt><trkpt lat="43.4698567" lon="11.4199433"><ele>494.4</ele><time>2026-04-18T07:56:14.111Z</time></trkpt><trkpt lat="43.469795" lon="11.4198167"><ele>496.6</ele><time>2026-04-18T07:56:15.111Z</time></trkpt><trkpt lat="43.4697433" lon="11.4197"><ele>498.8</ele><time>2026-04-18T07:56:16.11Z</time></trkpt><trkpt lat="43.4697133" lon="11.419585"><ele>501.0</ele><time>2026-04-18T07:56:17.11Z</time></trkpt><trkpt lat="43.469685" lon="11.4194717"><ele>501.5</ele><time>2026-04-18T07:56:18.11Z</time></trkpt><trkpt lat="43.4696933" lon="11.4193733"><ele>502.0</ele><time>2026-04-18T07:56:19.11Z</time></trkpt><trkpt lat="43.4697283" lon="11.4192783"><ele>502.5</ele><time>2026-04-18T07:56:20.111Z</time></trkpt><trkpt lat="43.469785" lon="11.4191933"><ele>503.0</ele><time>2026-04-18T07:56:21.11Z</time></trkpt><trkpt lat="43.4698533" lon="11.4190967"><ele>503.5</ele><time>2026-04-18T07:56:22.111Z</time></trkpt><trkpt lat="43.4699217" lon="11.41898"><ele>504.0</ele><time>2026-04-18T07:56:23.111Z</time></trkpt><trkpt lat="43.4699933" lon="11.4188833"><ele>503.6</ele><time>2026-04-18T07:56:24.111Z</time></trkpt><trkpt lat="43.4700517" lon="11.41878"><ele>503.2</ele><time>2026-04-18T07:56:25.111Z</time></trkpt><trkpt lat="43.4701083" lon="11.4186933"><ele>502.80000000000007</ele><time>2026-04-18T07:56:26.111Z</time></trkpt><trkpt lat="43.4701517" lon="11.4186267"><ele>502.40000000000003</ele><time>2026-04-18T07:56:27.111Z</time></trkpt><trkpt lat="43.4702383" lon="11.4185367"><ele>502.0</ele><time>2026-04-18T07:56:29.111Z</time></trkpt><trkpt lat="43.4703383" lon="11.418595"><ele>502.0</ele><time>2026-04-18T07:56:31.11Z</time></trkpt><trkpt lat="43.4703783" lon="11.4186717"><ele>502.00000000000006</ele><time>2026-04-18T07:56:32.11Z</time></trkpt><trkpt lat="43.47043" lon="11.4187617"><ele>502.00000000000006</ele><time>2026-04-18T07:56:33.11Z</time></trkpt><trkpt lat="43.4704833" lon="11.4188967"><ele>502.0</ele><time>2026-04-18T07:56:34.11Z</time></trkpt><trkpt lat="43.47055" lon="11.4190333"><ele>502.0</ele><time>2026-04-18T07:56:35.11Z</time></trkpt><trkpt lat="43.4706267" lon="11.4191683"><ele>503.0</ele><time>2026-04-18T07:56:36.111Z</time></trkpt><trkpt lat="43.470705" lon="11.4192983"><ele>504.0</ele><time>2026-04-18T07:56:37.111Z</time></trkpt><trkpt lat="43.470785" lon="11.4194267"><ele>505.0</ele><time>2026-04-18T07:56:38.11Z</time></trkpt><trkpt lat="43.470865" lon="11.419555"><ele>506.0</ele><time>2026-04-18T07:56:39.11Z</time></trkpt><trkpt lat="43.470955" lon="11.4196767"><ele>507.75</ele><time>2026-04-18T07:56:40.111Z</time></trkpt><trkpt lat="43.47104" lon="11.4198033"><ele>509.5</ele><time>2026-04-18T07:56:41.11Z</time></trkpt><trkpt lat="43.47112" lon="11.4199383"><ele>511.25</ele><time>2026-04-18T07:56:42.111Z</time></trkpt><trkpt lat="43.4712" lon="11.4200717"><ele>513.0</ele><time>2026-04-18T07:56:43.111Z</time></trkpt><trkpt lat="43.471275" lon="11.4202183"><ele>514.25</ele><time>2026-04-18T07:56:44.11Z</time></trkpt><trkpt lat="43.4713517" lon="11.4203633"><ele>515.5</ele><time>2026-04-18T07:56:45.111Z</time></trkpt><trkpt lat="43.4714267" lon="11.4204917"><ele>516.75</ele><time>2026-04-18T07:56:46.11Z</time></trkpt><trkpt lat="43.471495" lon="11.420615"><ele>518.0</ele><time>2026-04-18T07:56:47.111Z</time></trkpt><trkpt lat="43.4715717" lon="11.4207167"><ele>518.8</ele><time>2026-04-18T07:56:48.11Z</time></trkpt><trkpt lat="43.471655" lon="11.4208267"><ele>519.5999999999999</ele><time>2026-04-18T07:56:49.11Z</time></trkpt><trkpt lat="43.47174" lon="11.4209333"><ele>520.4000000000001</ele><time>2026-04-18T07:56:50.11Z</time></trkpt><trkpt lat="43.4718217" lon="11.4210267"><ele>521.2</ele><time>2026-04-18T07:56:51.11Z</time></trkpt><trkpt lat="43.4719083" lon="11.421105"><ele>522.0</ele><time>2026-04-18T07:56:52.11Z</time></trkpt><trkpt lat="43.4720083" lon="11.421165"><ele>522.0</ele><time>2026-04-18T07:56:53.11Z</time></trkpt><trkpt lat="43.4720967" lon="11.4212133"><ele>522.0</ele><time>2026-04-18T07:56:54.11Z</time></trkpt><trkpt lat="43.4721883" lon="11.4212533"><ele>522.0</ele><time>2026-04-18T07:56:55.11Z</time></trkpt><trkpt lat="43.472275" lon="11.4212917"><ele>522.0</ele><time>2026-04-18T07:56:56.11Z</time></trkpt><trkpt lat="43.472355" lon="11.4213367"><ele>522.0</ele><time>2026-04-18T07:56:57.11Z</time></trkpt><trkpt lat="43.4724217" lon="11.421375"><ele>522.0</ele><time>2026-04-18T07:56:58.111Z</time></trkpt><trkpt lat="43.4724883" lon="11.4214267"><ele>521.1666666666666</ele><time>2026-04-18T07:56:59.111Z</time></trkpt><trkpt lat="43.47255" lon="11.421465"><ele>520.3333333333334</ele><time>2026-04-18T07:57:00.11Z</time></trkpt><trkpt lat="43.4726" lon="11.4215183"><ele>519.5</ele><time>2026-04-18T07:57:01.111Z</time></trkpt><trkpt lat="43.4726767" lon="11.4216083"><ele>518.6666666666667</ele><time>2026-04-18T07:57:03.11Z</time></trkpt><trkpt lat="43.4727267" lon="11.4216883"><ele>517.8333333333334</ele><time>2026-04-18T07:57:06.11Z</time></trkpt><trkpt lat="43.4728133" lon="11.4217833"><ele>517.0</ele><time>2026-04-18T07:57:20.11Z</time></trkpt><trkpt lat="43.4728733" lon="11.4218533"><ele>517.0</ele><time>2026-04-18T07:57:21.111Z</time></trkpt><trkpt lat="43.47293" lon="11.4219233"><ele>517.0</ele><time>2026-04-18T07:57:22.111Z</time></trkpt><trkpt lat="43.473015" lon="11.4220183"><ele>517.0</ele><time>2026-04-18T07:57:24.11Z</time></trkpt><trkpt lat="43.4730783" lon="11.4220967"><ele>517.0</ele><time>2026-04-18T07:57:27.111Z</time></trkpt><trkpt lat="43.4731267" lon="11.4221717"><ele>517.0</ele><time>2026-04-18T07:59:11.109Z</time></trkpt><trkpt lat="43.4732267" lon="11.4222033"><ele>517.0</ele><time>2026-04-18T07:59:13.109Z</time></trkpt><trkpt lat="43.4733017" lon="11.42223"><ele>517.2</ele><time>2026-04-18T07:59:14.11Z</time></trkpt><trkpt lat="43.4733883" lon="11.4222667"><ele>517.4000000000001</ele><time>2026-04-18T07:59:15.109Z</time></trkpt><trkpt lat="43.47349" lon="11.4223083"><ele>517.5999999999999</ele><time>2026-04-18T07:59:16.109Z</time></trkpt><trkpt lat="43.4735933" lon="11.4223417"><ele>517.8</ele><time>2026-04-18T07:59:17.11Z</time></trkpt><trkpt lat="43.4736933" lon="11.422375"><ele>518.0</ele><time>2026-04-18T07:59:18.109Z</time></trkpt><trkpt lat="43.4737983" lon="11.4224033"><ele>518.5</ele><time>2026-04-18T07:59:19.109Z</time></trkpt><trkpt lat="43.4739133" lon="11.4224283"><ele>519.0</ele><time>2026-04-18T07:59:20.11Z</time></trkpt><trkpt lat="43.4740317" lon="11.422445"><ele>519.5</ele><time>2026-04-18T07:59:21.109Z</time></trkpt><trkpt lat="43.47415" lon="11.4224533"><ele>520.0</ele><time>2026-04-18T07:59:22.11Z</time></trkpt><trkpt lat="43.4742683" lon="11.4224833"><ele>520.0</ele><time>2026-04-18T07:59:23.109Z</time></trkpt><trkpt lat="43.4743783" lon="11.4225233"><ele>520.0</ele><time>2026-04-18T07:59:24.109Z</time></trkpt><trkpt lat="43.474485" lon="11.422565"><ele>520.0</ele><time>2026-04-18T07:59:25.11Z</time></trkpt><trkpt lat="43.4745933" lon="11.4226"><ele>520.0</ele><time>2026-04-18T07:59:26.109Z</time></trkpt><trkpt lat="43.4746967" lon="11.422625"><ele>520.0</ele><time>2026-04-18T07:59:27.11Z</time></trkpt><trkpt lat="43.4748" lon="11.4226383"><ele>519.25</ele><time>2026-04-18T07:59:28.109Z</time></trkpt><trkpt lat="43.4749167" lon="11.4226417"><ele>518.5</ele><time>2026-04-18T07:59:29.109Z</time></trkpt><trkpt lat="43.47504" lon="11.4226067"><ele>517.75</ele><time>2026-04-18T07:59:30.109Z</time></trkpt><trkpt lat="43.4751667" lon="11.4225483"><ele>517.0</ele><time>2026-04-18T07:59:31.11Z</time></trkpt><trkpt lat="43.4752883" lon="11.4224783"><ele>517.0</ele><time>2026-04-18T07:59:32.11Z</time></trkpt><trkpt lat="43.4754033" lon="11.4224217"><ele>517.0</ele><time>2026-04-18T07:59:33.109Z</time></trkpt><trkpt lat="43.475525" lon="11.4223783"><ele>517.0</ele><time>2026-04-18T07:59:34.109Z</time></trkpt><trkpt lat="43.4756367" lon="11.4223683"><ele>517.0</ele><time>2026-04-18T07:59:35.11Z</time></trkpt><trkpt lat="43.475745" lon="11.422365"><ele>514.25</ele><time>2026-04-18T07:59:36.109Z</time></trkpt><trkpt lat="43.4758683" lon="11.4224017"><ele>511.5</ele><time>2026-04-18T07:59:37.109Z</time></trkpt><trkpt lat="43.4760033" lon="11.422485"><ele>508.75</ele><time>2026-04-18T07:59:38.109Z</time></trkpt><trkpt lat="43.4761367" lon="11.42257"><ele>506.0</ele><time>2026-04-18T07:59:39.11Z</time></trkpt><trkpt lat="43.4762733" lon="11.4226517"><ele>505.5</ele><time>2026-04-18T07:59:40.11Z</time></trkpt><trkpt lat="43.4764083" lon="11.4227317"><ele>505.0</ele><time>2026-04-18T07:59:41.11Z</time></trkpt><trkpt lat="43.476535" lon="11.4228033"><ele>504.5</ele><time>2026-04-18T07:59:42.109Z</time></trkpt><trkpt lat="43.47665" lon="11.422885"><ele>504.0</ele><time>2026-04-18T07:59:43.109Z</time></trkpt><trkpt lat="43.4767533" lon="11.4229633"><ele>504.5</ele><time>2026-04-18T07:59:44.11Z</time></trkpt><trkpt lat="43.47685" lon="11.42306"><ele>505.0</ele><time>2026-04-18T07:59:45.109Z</time></trkpt><trkpt lat="43.47694" lon="11.4231633"><ele>505.5</ele><time>2026-04-18T07:59:46.109Z</time></trkpt><trkpt lat="43.47702" lon="11.4232683"><ele>506.0</ele><time>2026-04-18T07:59:47.109Z</time></trkpt><trkpt lat="43.4770983" lon="11.4233717"><ele>506.3333333333333</ele><time>2026-04-18T07:59:48.11Z</time></trkpt><trkpt lat="43.4771667" lon="11.4234717"><ele>506.66666666666663</ele><time>2026-04-18T07:59:49.109Z</time></trkpt><trkpt lat="43.4772333" lon="11.4235617"><ele>507.0</ele><time>2026-04-18T07:59:50.11Z</time></trkpt><trkpt lat="43.47729" lon="11.4236483"><ele>507.33333333333337</ele><time>2026-04-18T07:59:51.11Z</time></trkpt><trkpt lat="43.4773433" lon="11.4237233"><ele>507.6666666666667</ele><time>2026-04-18T07:59:52.11Z</time></trkpt><trkpt lat="43.4773917" lon="11.42379"><ele>508.0</ele><time>2026-04-18T07:59:53.11Z</time></trkpt><trkpt lat="43.47744" lon="11.4238583"><ele>508.00000000000006</ele><time>2026-04-18T07:59:54.109Z</time></trkpt><trkpt lat="43.4774883" lon="11.4239283"><ele>508.0</ele><time>2026-04-18T07:59:55.109Z</time></trkpt><trkpt lat="43.47754" lon="11.4240117"><ele>508.0</ele><time>2026-04-18T07:59:56.109Z</time></trkpt><trkpt lat="43.4776033" lon="11.4241"><ele>508.0</ele><time>2026-04-18T07:59:57.11Z</time></trkpt><trkpt lat="43.4776717" lon="11.4241917"><ele>508.00000000000006</ele><time>2026-04-18T07:59:58.11Z</time></trkpt><trkpt lat="43.47774" lon="11.4242933"><ele>508.0</ele><time>2026-04-18T07:59:59.109Z</time></trkpt><trkpt lat="43.4778033" lon="11.4243967"><ele>508.00000000000006</ele><time>2026-04-18T08:00:00.109Z</time></trkpt><trkpt lat="43.4778583" lon="11.4244833"><ele>508.0</ele><time>2026-04-18T08:00:01.11Z</time></trkpt><trkpt lat="43.4779017" lon="11.4245633"><ele>508.0</ele><time>2026-04-18T08:00:02.109Z</time></trkpt><trkpt lat="43.4779517" lon="11.4246333"><ele>508.0</ele><time>2026-04-18T08:00:03.109Z</time></trkpt><trkpt lat="43.4780383" lon="11.4247"><ele>508.00000000000006</ele><time>2026-04-18T08:00:05.109Z</time></trkpt><trkpt lat="43.47814" lon="11.4247"><ele>508.0</ele><time>2026-04-18T08:00:07.109Z</time></trkpt><trkpt lat="43.4782617" lon="11.42463"><ele>510.79999999999995</ele><time>2026-04-18T08:00:09.11Z</time></trkpt><trkpt lat="43.4783317" lon="11.4245767"><ele>513.5999999999999</ele><time>2026-04-18T08:00:10.11Z</time></trkpt><trkpt lat="43.4784" lon="11.424515"><ele>516.4000000000001</ele><time>2026-04-18T08:00:11.109Z</time></trkpt><trkpt lat="43.4784767" lon="11.4244467"><ele>519.2</ele><time>2026-04-18T08:00:12.109Z</time></trkpt><trkpt lat="43.4785733" lon="11.4243783"><ele>522.0</ele><time>2026-04-18T08:00:13.109Z</time></trkpt><trkpt lat="43.47868" lon="11.4243067"><ele>523.2</ele><time>2026-04-18T08:00:14.11Z</time></trkpt><trkpt lat="43.4787867" lon="11.424245"><ele>524.4000000000001</ele><time>2026-04-18T08:00:15.109Z</time></trkpt><trkpt lat="43.4788783" lon="11.4241717"><ele>525.5999999999999</ele><time>2026-04-18T08:00:16.11Z</time></trkpt><trkpt lat="43.47896" lon="11.42409"><ele>526.8</ele><time>2026-04-18T08:00:17.11Z</time></trkpt><trkpt lat="43.4790417" lon="11.4239867"><ele>528.0</ele><time>2026-04-18T08:00:18.109Z</time></trkpt><trkpt lat="43.479115" lon="11.423875"><ele>529.5</ele><time>2026-04-18T08:00:19.109Z</time></trkpt><trkpt lat="43.4791883" lon="11.4237683"><ele>531.0</ele><time>2026-04-18T08:00:20.109Z</time></trkpt><trkpt lat="43.479265" lon="11.4236533"><ele>532.5</ele><time>2026-04-18T08:00:21.109Z</time></trkpt><trkpt lat="43.4793317" lon="11.4235233"><ele>534.0</ele><time>2026-04-18T08:00:22.11Z</time></trkpt><trkpt lat="43.4794033" lon="11.4234"><ele>534.0</ele><time>2026-04-18T08:00:23.109Z</time></trkpt><trkpt lat="43.4794733" lon="11.4232717"><ele>534.0</ele><time>2026-04-18T08:00:24.109Z</time></trkpt><trkpt lat="43.47955" lon="11.4231417"><ele>534.0</ele><time>2026-04-18T08:00:25.109Z</time></trkpt><trkpt lat="43.4796333" lon="11.423015"><ele>534.0</ele><time>2026-04-18T08:00:26.109Z</time></trkpt><trkpt lat="43.4797167" lon="11.4229017"><ele>533.75</ele><time>2026-04-18T08:00:27.11Z</time></trkpt><trkpt lat="43.4798117" lon="11.42278"><ele>533.5</ele><time>2026-04-18T08:00:28.11Z</time></trkpt><trkpt lat="43.4799067" lon="11.4226683"><ele>533.25</ele><time>2026-04-18T08:00:29.109Z</time></trkpt><trkpt lat="43.4800017" lon="11.4225617"><ele>533.0</ele><time>2026-04-18T08:00:30.109Z</time></trkpt><trkpt lat="43.4800967" lon="11.422455"><ele>533.0</ele><time>2026-04-18T08:00:31.109Z</time></trkpt><trkpt lat="43.4801983" lon="11.422345"><ele>533.0</ele><time>2026-04-18T08:00:32.11Z</time></trkpt><trkpt lat="43.4803033" lon="11.4222533"><ele>533.0</ele><time>2026-04-18T08:00:33.11Z</time></trkpt><trkpt lat="43.48041" lon="11.4221817"><ele>533.0</ele><time>2026-04-18T08:00:34.109Z</time></trkpt><trkpt lat="43.4805183" lon="11.4220983"><ele>534.25</ele><time>2026-04-18T08:00:35.109Z</time></trkpt><trkpt lat="43.4806283" lon="11.422015"><ele>535.5</ele><time>2026-04-18T08:00:36.11Z</time></trkpt><trkpt lat="43.48075" lon="11.4219267"><ele>536.75</ele><time>2026-04-18T08:00:37.109Z</time></trkpt><trkpt lat="43.4808617" lon="11.4218367"><ele>538.0</ele><time>2026-04-18T08:00:38.11Z</time></trkpt><trkpt lat="43.4809817" lon="11.4217383"><ele>538.0</ele><time>2026-04-18T08:00:39.11Z</time></trkpt><trkpt lat="43.4811017" lon="11.4216433"><ele>538.0</ele><time>2026-04-18T08:00:40.109Z</time></trkpt><trkpt lat="43.4812167" lon="11.4215417"><ele>538.0</ele><time>2026-04-18T08:00:41.11Z</time></trkpt><trkpt lat="43.4813417" lon="11.4214317"><ele>538.0</ele><time>2026-04-18T08:00:42.109Z</time></trkpt><trkpt lat="43.4814717" lon="11.4213233"><ele>537.6666666666667</ele><time>2026-04-18T08:00:43.11Z</time></trkpt><trkpt lat="43.4816017" lon="11.4212217"><ele>537.3333333333334</ele><time>2026-04-18T08:00:44.109Z</time></trkpt><trkpt lat="43.4817317" lon="11.42112"><ele>537.0</ele><time>2026-04-18T08:00:45.11Z</time></trkpt><trkpt lat="43.48187" lon="11.4210133"><ele>537.0</ele><time>2026-04-18T08:00:46.109Z</time></trkpt><trkpt lat="43.4820183" lon="11.4209"><ele>537.0</ele><time>2026-04-18T08:00:47.109Z</time></trkpt><trkpt lat="43.4821817" lon="11.420775"><ele>537.0</ele><time>2026-04-18T08:00:48.11Z</time></trkpt><trkpt lat="43.4823567" lon="11.4206483"><ele>536.6666666666666</ele><time>2026-04-18T08:00:49.109Z</time></trkpt><trkpt lat="43.4825333" lon="11.4205167"><ele>536.3333333333333</ele><time>2026-04-18T08:00:50.11Z</time></trkpt><trkpt lat="43.4827167" lon="11.420385"><ele>536.0</ele><time>2026-04-18T08:00:51.109Z</time></trkpt><trkpt lat="43.4829067" lon="11.4202583"><ele>540.5</ele><time>2026-04-18T08:00:52.11Z</time></trkpt><trkpt lat="43.4831083" lon="11.42012"><ele>545.0</ele><time>2026-04-18T08:00:53.109Z</time></trkpt><trkpt lat="43.483315" lon="11.4199883"><ele>545.0</ele><time>2026-04-18T08:00:54.11Z</time></trkpt><trkpt lat="43.4834983" lon="11.4198767"><ele>545.0</ele><time>2026-04-18T08:00:55.11Z</time></trkpt><trkpt lat="43.4836683" lon="11.41977"><ele>545.0</ele><time>2026-04-18T08:00:56.109Z</time></trkpt><trkpt lat="43.483825" lon="11.4196817"><ele>545.75</ele><time>2026-04-18T08:00:57.11Z</time></trkpt><trkpt lat="43.483955" lon="11.4196033"><ele>546.5</ele><time>2026-04-18T08:00:58.11Z</time></trkpt><trkpt lat="43.484065" lon="11.4195417"><ele>547.25</ele><time>2026-04-18T08:00:59.109Z</time></trkpt><trkpt lat="43.48417" lon="11.4194967"><ele>548.0</ele><time>2026-04-18T08:01:00.109Z</time></trkpt><trkpt lat="43.4842617" lon="11.419475"><ele>548.0</ele><time>2026-04-18T08:01:01.11Z</time></trkpt><trkpt lat="43.4843583" lon="11.4194667"><ele>548.0</ele><time>2026-04-18T08:01:02.109Z</time></trkpt><trkpt lat="43.48445" lon="11.4194767"><ele>548.0</ele><time>2026-04-18T08:01:03.11Z</time></trkpt><trkpt lat="43.48455" lon="11.4194967"><ele>548.0</ele><time>2026-04-18T08:01:04.11Z</time></trkpt><trkpt lat="43.4846567" lon="11.4195333"><ele>548.0</ele><time>2026-04-18T08:01:05.109Z</time></trkpt><trkpt lat="43.4847617" lon="11.41959"><ele>549.5</ele><time>2026-04-18T08:01:06.109Z</time></trkpt><trkpt lat="43.4848683" lon="11.419655"><ele>551.0</ele><time>2026-04-18T08:01:07.109Z</time></trkpt><trkpt lat="43.4849733" lon="11.4197183"><ele>552.5</ele><time>2026-04-18T08:01:08.109Z</time></trkpt><trkpt lat="43.4850817" lon="11.4197733"><ele>554.0</ele><time>2026-04-18T08:01:09.11Z</time></trkpt><trkpt lat="43.4851933" lon="11.4198333"><ele>554.0</ele><time>2026-04-18T08:01:10.109Z</time></trkpt><trkpt lat="43.4852967" lon="11.4198867"><ele>554.0</ele><time>2026-04-18T08:01:11.11Z</time></trkpt><trkpt lat="43.4854033" lon="11.4199433"><ele>554.0</ele><time>2026-04-18T08:01:12.11Z</time></trkpt><trkpt lat="43.4855033" lon="11.42"><ele>554.0</ele><time>2026-04-18T08:01:13.109Z</time></trkpt><trkpt lat="43.4856" lon="11.420055"><ele>554.0</ele><time>2026-04-18T08:01:14.109Z</time></trkpt><trkpt lat="43.4857" lon="11.42012"><ele>552.25</ele><time>2026-04-18T08:01:15.109Z</time></trkpt><trkpt lat="43.4858" lon="11.420175"><ele>550.5</ele><time>2026-04-18T08:01:16.109Z</time></trkpt><trkpt lat="43.485905" lon="11.4202367"><ele>548.75</ele><time>2026-04-18T08:01:17.109Z</time></trkpt><trkpt lat="43.4860083" lon="11.4203083"><ele>547.0</ele><time>2026-04-18T08:01:18.109Z</time></trkpt><trkpt lat="43.48611" lon="11.4203817"><ele>547.0</ele><time>2026-04-18T08:01:19.11Z</time></trkpt><trkpt lat="43.4862067" lon="11.4204533"><ele>547.0</ele><time>2026-04-18T08:01:20.109Z</time></trkpt><trkpt lat="43.4863033" lon="11.4205283"><ele>547.0</ele><time>2026-04-18T08:01:21.11Z</time></trkpt><trkpt lat="43.4863883" lon="11.42061"><ele>547.0</ele><time>2026-04-18T08:01:22.109Z</time></trkpt><trkpt lat="43.486475" lon="11.4207117"><ele>547.0</ele><time>2026-04-18T08:01:23.11Z</time></trkpt><trkpt lat="43.4865517" lon="11.4208317"><ele>546.0</ele><time>2026-04-18T08:01:24.109Z</time></trkpt><trkpt lat="43.486625" lon="11.42096"><ele>545.0</ele><time>2026-04-18T08:01:25.109Z</time></trkpt><trkpt lat="43.48669" lon="11.4210917"><ele>544.0</ele><time>2026-04-18T08:01:26.11Z</time></trkpt><trkpt lat="43.4867567" lon="11.4212183"><ele>543.0</ele><time>2026-04-18T08:01:27.109Z</time></trkpt><trkpt lat="43.4868233" lon="11.4213467"><ele>543.0</ele><time>2026-04-18T08:01:28.11Z</time></trkpt><trkpt lat="43.4868933" lon="11.4214667"><ele>543.0</ele><time>2026-04-18T08:01:29.109Z</time></trkpt><trkpt lat="43.48696" lon="11.421595"><ele>543.0</ele><time>2026-04-18T08:01:30.109Z</time></trkpt><trkpt lat="43.4870217" lon="11.421725"><ele>543.0</ele><time>2026-04-18T08:01:31.11Z</time></trkpt><trkpt lat="43.4870933" lon="11.4218533"><ele>542.5</ele><time>2026-04-18T08:01:32.109Z</time></trkpt><trkpt lat="43.4871733" lon="11.4219683"><ele>542.0</ele><time>2026-04-18T08:01:33.109Z</time></trkpt><trkpt lat="43.4872617" lon="11.4220767"><ele>541.5</ele><time>2026-04-18T08:01:34.11Z</time></trkpt><trkpt lat="43.487355" lon="11.4221733"><ele>541.0</ele><time>2026-04-18T08:01:35.109Z</time></trkpt><trkpt lat="43.4874667" lon="11.4222783"><ele>544.25</ele><time>2026-04-18T08:01:36.11Z</time></trkpt><trkpt lat="43.4875783" lon="11.4223883"><ele>547.5</ele><time>2026-04-18T08:01:37.109Z</time></trkpt><trkpt lat="43.4876783" lon="11.422485"><ele>550.75</ele><time>2026-04-18T08:01:38.11Z</time></trkpt><trkpt lat="43.4877767" lon="11.4225617"><ele>554.0</ele><time>2026-04-18T08:01:39.109Z</time></trkpt><trkpt lat="43.4878567" lon="11.422645"><ele>554.6666666666666</ele><time>2026-04-18T08:01:40.109Z</time></trkpt><trkpt lat="43.4879333" lon="11.4227133"><ele>555.3333333333333</ele><time>2026-04-18T08:01:41.11Z</time></trkpt><trkpt lat="43.4880017" lon="11.42277"><ele>556.0</ele><time>2026-04-18T08:01:42.11Z</time></trkpt><trkpt lat="43.4880717" lon="11.4228133"><ele>556.6666666666666</ele><time>2026-04-18T08:01:43.109Z</time></trkpt><trkpt lat="43.4881383" lon="11.4228333"><ele>557.3333333333334</ele><time>2026-04-18T08:01:44.109Z</time></trkpt><trkpt lat="43.4882067" lon="11.42279"><ele>558.0</ele><time>2026-04-18T08:01:45.109Z</time></trkpt><trkpt lat="43.48826" lon="11.4227217"><ele>558.0</ele><time>2026-04-18T08:01:46.109Z</time></trkpt><trkpt lat="43.4883033" lon="11.4226283"><ele>558.0</ele><time>2026-04-18T08:01:47.109Z</time></trkpt><trkpt lat="43.4883317" lon="11.422485"><ele>558.0</ele><time>2026-04-18T08:01:48.11Z</time></trkpt><trkpt lat="43.48836" lon="11.4223417"><ele>558.0</ele><time>2026-04-18T08:01:49.109Z</time></trkpt><trkpt lat="43.4883967" lon="11.422215"><ele>558.0</ele><time>2026-04-18T08:01:50.109Z</time></trkpt><trkpt lat="43.4884583" lon="11.422115"><ele>556.8</ele><time>2026-04-18T08:01:51.109Z</time></trkpt><trkpt lat="43.4885283" lon="11.4220533"><ele>555.5999999999999</ele><time>2026-04-18T08:01:52.11Z</time></trkpt><trkpt lat="43.4886283" lon="11.4219983"><ele>554.4000000000001</ele><time>2026-04-18T08:01:53.108Z</time></trkpt><trkpt lat="43.4887367" lon="11.4219633"><ele>553.2</ele><time>2026-04-18T08:01:54.108Z</time></trkpt><trkpt lat="43.4888483" lon="11.42194"><ele>552.0</ele><time>2026-04-18T08:01:55.108Z</time></trkpt><trkpt lat="43.4889617" lon="11.4219233"><ele>552.0</ele><time>2026-04-18T08:01:56.108Z</time></trkpt><trkpt lat="43.4890733" lon="11.4219167"><ele>552.0</ele><time>2026-04-18T08:01:57.109Z</time></trkpt><trkpt lat="43.4891733" lon="11.4219083"><ele>552.0</ele><time>2026-04-18T08:01:58.108Z</time></trkpt><trkpt lat="43.4892667" lon="11.4218933"><ele>552.0</ele><time>2026-04-18T08:01:59.109Z</time></trkpt><trkpt lat="43.4893567" lon="11.4218467"><ele>552.0</ele><time>2026-04-18T08:02:00.108Z</time></trkpt><trkpt lat="43.489445" lon="11.4217883"><ele>552.0</ele><time>2026-04-18T08:02:01.108Z</time></trkpt><trkpt lat="43.4895333" lon="11.4217333"><ele>552.0</ele><time>2026-04-18T08:02:02.108Z</time></trkpt><trkpt lat="43.4896233" lon="11.42168"><ele>552.0</ele><time>2026-04-18T08:02:03.109Z</time></trkpt><trkpt lat="43.4897117" lon="11.4216383"><ele>552.0</ele><time>2026-04-18T08:02:04.108Z</time></trkpt><trkpt lat="43.489795" lon="11.4215983"><ele>552.0</ele><time>2026-04-18T08:02:05.108Z</time></trkpt><trkpt lat="43.489875" lon="11.4215783"><ele>554.6666666666666</ele><time>2026-04-18T08:02:06.109Z</time></trkpt><trkpt lat="43.4899567" lon="11.4215533"><ele>557.3333333333334</ele><time>2026-04-18T08:02:07.108Z</time></trkpt><trkpt lat="43.490045" lon="11.42152"><ele>560.0</ele><time>2026-04-18T08:02:08.109Z</time></trkpt><trkpt lat="43.4901367" lon="11.421485"><ele>562.6666666666667</ele><time>2026-04-18T08:02:09.108Z</time></trkpt><trkpt lat="43.4902233" lon="11.4214567"><ele>565.3333333333334</ele><time>2026-04-18T08:02:10.108Z</time></trkpt><trkpt lat="43.4903067" lon="11.42143"><ele>568.0</ele><time>2026-04-18T08:02:11.108Z</time></trkpt><trkpt lat="43.4903983" lon="11.421405"><ele>569.3333333333334</ele><time>2026-04-18T08:02:12.109Z</time></trkpt><trkpt lat="43.4904867" lon="11.4213817"><ele>570.6666666666667</ele><time>2026-04-18T08:02:13.109Z</time></trkpt><trkpt lat="43.49058" lon="11.4213533"><ele>572.0</ele><time>2026-04-18T08:02:14.108Z</time></trkpt><trkpt lat="43.4906667" lon="11.4213283"><ele>573.3333333333334</ele><time>2026-04-18T08:02:15.109Z</time></trkpt><trkpt lat="43.4907517" lon="11.4213067"><ele>574.6666666666666</ele><time>2026-04-18T08:02:16.108Z</time></trkpt><trkpt lat="43.4908333" lon="11.42128"><ele>576.0</ele><time>2026-04-18T08:02:17.109Z</time></trkpt><trkpt lat="43.4909083" lon="11.421255"><ele>573.3333333333334</ele><time>2026-04-18T08:02:18.108Z</time></trkpt><trkpt lat="43.4909783" lon="11.42123"><ele>570.6666666666666</ele><time>2026-04-18T08:02:19.109Z</time></trkpt><trkpt lat="43.491085" lon="11.4212"><ele>568.0</ele><time>2026-04-18T08:02:21.108Z</time></trkpt><trkpt lat="43.4911633" lon="11.4211983"><ele>565.3333333333333</ele><time>2026-04-18T08:02:23.108Z</time></trkpt><trkpt lat="43.4912333" lon="11.4211967"><ele>562.6666666666666</ele><time>2026-04-18T08:02:26.109Z</time></trkpt><trkpt lat="43.4913033" lon="11.4211583"><ele>560.0</ele><time>2026-04-18T08:02:35.108Z</time></trkpt><trkpt lat="43.491335" lon="11.4209817"><ele>560.0</ele><time>2026-04-18T08:02:37.108Z</time></trkpt><trkpt lat="43.491325" lon="11.420855"><ele>560.0</ele><time>2026-04-18T08:02:38.109Z</time></trkpt><trkpt lat="43.4913017" lon="11.4207083"><ele>560.0</ele><time>2026-04-18T08:02:39.108Z</time></trkpt><trkpt lat="43.4912683" lon="11.4205417"><ele>560.0</ele><time>2026-04-18T08:02:40.109Z</time></trkpt><trkpt lat="43.4912383" lon="11.4203667"><ele>559.25</ele><time>2026-04-18T08:02:41.108Z</time></trkpt><trkpt lat="43.4912083" lon="11.42019"><ele>558.5</ele><time>2026-04-18T08:02:42.109Z</time></trkpt><trkpt lat="43.49118" lon="11.4200083"><ele>557.75</ele><time>2026-04-18T08:02:43.108Z</time></trkpt><trkpt lat="43.49115" lon="11.4198267"><ele>557.0</ele><time>2026-04-18T08:02:44.109Z</time></trkpt><trkpt lat="43.4911217" lon="11.4196417"><ele>558.5</ele><time>2026-04-18T08:02:45.108Z</time></trkpt><trkpt lat="43.4910867" lon="11.419455"><ele>560.0</ele><time>2026-04-18T08:02:46.108Z</time></trkpt><trkpt lat="43.491045" lon="11.41926"><ele>561.5</ele><time>2026-04-18T08:02:47.108Z</time></trkpt><trkpt lat="43.49101" lon="11.4190717"><ele>563.0</ele><time>2026-04-18T08:02:48.109Z</time></trkpt><trkpt lat="43.4909883" lon="11.4188767"><ele>564.25</ele><time>2026-04-18T08:02:49.108Z</time></trkpt><trkpt lat="43.490985" lon="11.418685"><ele>565.5</ele><time>2026-04-18T08:02:50.108Z</time></trkpt><trkpt lat="43.490985" lon="11.4185083"><ele>566.75</ele><time>2026-04-18T08:02:51.109Z</time></trkpt><trkpt lat="43.49097" lon="11.4183517"><ele>568.0</ele><time>2026-04-18T08:02:52.108Z</time></trkpt><trkpt lat="43.4909133" lon="11.4182167"><ele>568.0</ele><time>2026-04-18T08:02:53.108Z</time></trkpt><trkpt lat="43.490815" lon="11.4181133"><ele>568.0</ele><time>2026-04-18T08:02:54.108Z</time></trkpt><trkpt lat="43.4906983" lon="11.4180383"><ele>568.0</ele><time>2026-04-18T08:02:55.108Z</time></trkpt><trkpt lat="43.4905767" lon="11.4179717"><ele>568.0</ele><time>2026-04-18T08:02:56.109Z</time></trkpt><trkpt lat="43.490465" lon="11.4178867"><ele>567.5</ele><time>2026-04-18T08:02:57.108Z</time></trkpt><trkpt lat="43.4903667" lon="11.4177817"><ele>567.0</ele><time>2026-04-18T08:02:58.109Z</time></trkpt><trkpt lat="43.49029" lon="11.417645"><ele>566.5</ele><time>2026-04-18T08:02:59.109Z</time></trkpt><trkpt lat="43.4902267" lon="11.4174883"><ele>566.0</ele><time>2026-04-18T08:03:00.108Z</time></trkpt><trkpt lat="43.490175" lon="11.4173083"><ele>565.0</ele><time>2026-04-18T08:03:01.108Z</time></trkpt><trkpt lat="43.4901283" lon="11.41713"><ele>564.0</ele><time>2026-04-18T08:03:02.108Z</time></trkpt><trkpt lat="43.4900967" lon="11.416945"><ele>563.0</ele><time>2026-04-18T08:03:03.108Z</time></trkpt><trkpt lat="43.49008" lon="11.4167583"><ele>562.0</ele><time>2026-04-18T08:03:04.108Z</time></trkpt><trkpt lat="43.49008" lon="11.416565"><ele>562.0</ele><time>2026-04-18T08:03:05.109Z</time></trkpt><trkpt lat="43.4901033" lon="11.4163683"><ele>562.0</ele><time>2026-04-18T08:03:06.108Z</time></trkpt><trkpt lat="43.4901417" lon="11.4161783"><ele>562.0</ele><time>2026-04-18T08:03:07.108Z</time></trkpt><trkpt lat="43.490185" lon="11.4159817"><ele>562.0</ele><time>2026-04-18T08:03:08.109Z</time></trkpt><trkpt lat="43.4902283" lon="11.415785"><ele>560.5</ele><time>2026-04-18T08:03:09.109Z</time></trkpt><trkpt lat="43.490275" lon="11.4156"><ele>559.0</ele><time>2026-04-18T08:03:10.109Z</time></trkpt><trkpt lat="43.490315" lon="11.4154167"><ele>557.5</ele><time>2026-04-18T08:03:11.109Z</time></trkpt><trkpt lat="43.4903467" lon="11.4152333"><ele>556.0</ele><time>2026-04-18T08:03:12.109Z</time></trkpt><trkpt lat="43.4903783" lon="11.4150483"><ele>555.5</ele><time>2026-04-18T08:03:13.108Z</time></trkpt><trkpt lat="43.4904133" lon="11.4148583"><ele>555.0</ele><time>2026-04-18T08:03:14.108Z</time></trkpt><trkpt lat="43.4904433" lon="11.4146667"><ele>554.5</ele><time>2026-04-18T08:03:15.108Z</time></trkpt><trkpt lat="43.4904783" lon="11.41447"><ele>554.0</ele><time>2026-04-18T08:03:16.109Z</time></trkpt><trkpt lat="43.490505" lon="11.41428"><ele>553.75</ele><time>2026-04-18T08:03:17.108Z</time></trkpt><trkpt lat="43.4905367" lon="11.414085"><ele>553.5</ele><time>2026-04-18T08:03:18.109Z</time></trkpt><trkpt lat="43.490575" lon="11.413885"><ele>553.25</ele><time>2026-04-18T08:03:19.109Z</time></trkpt><trkpt lat="43.49061" lon="11.4136867"><ele>553.0</ele><time>2026-04-18T08:03:20.108Z</time></trkpt><trkpt lat="43.49062" lon="11.413485"><ele>552.25</ele><time>2026-04-18T08:03:21.108Z</time></trkpt><trkpt lat="43.4906033" lon="11.41329"><ele>551.5</ele><time>2026-04-18T08:03:22.109Z</time></trkpt><trkpt lat="43.4905583" lon="11.4131033"><ele>550.75</ele><time>2026-04-18T08:03:23.108Z</time></trkpt><trkpt lat="43.49048" lon="11.412935"><ele>550.0</ele><time>2026-04-18T08:03:24.109Z</time></trkpt><trkpt lat="43.49037" lon="11.4127767"><ele>552.6666666666667</ele><time>2026-04-18T08:03:25.109Z</time></trkpt><trkpt lat="43.4902467" lon="11.412635"><ele>555.3333333333334</ele><time>2026-04-18T08:03:26.108Z</time></trkpt><trkpt lat="43.4901283" lon="11.4124883"><ele>558.0</ele><time>2026-04-18T08:03:27.108Z</time></trkpt><trkpt lat="43.4899983" lon="11.412355"><ele>558.0</ele><time>2026-04-18T08:03:28.109Z</time></trkpt><trkpt lat="43.48987" lon="11.412225"><ele>558.0</ele><time>2026-04-18T08:03:29.108Z</time></trkpt><trkpt lat="43.48975" lon="11.4120983"><ele>558.0</ele><time>2026-04-18T08:03:30.109Z</time></trkpt><trkpt lat="43.4896517" lon="11.4119567"><ele>556.5</ele><time>2026-04-18T08:03:31.109Z</time></trkpt><trkpt lat="43.4895667" lon="11.4118"><ele>555.0</ele><time>2026-04-18T08:03:32.108Z</time></trkpt><trkpt lat="43.4895067" lon="11.4116217"><ele>553.5</ele><time>2026-04-18T08:03:33.108Z</time></trkpt><trkpt lat="43.4894633" lon="11.411445"><ele>552.0</ele><time>2026-04-18T08:03:34.109Z</time></trkpt><trkpt lat="43.48944" lon="11.4112767"><ele>551.25</ele><time>2026-04-18T08:03:35.109Z</time></trkpt><trkpt lat="43.489445" lon="11.4111083"><ele>550.5</ele><time>2026-04-18T08:03:36.108Z</time></trkpt><trkpt lat="43.489495" lon="11.4109383"><ele>549.75</ele><time>2026-04-18T08:03:37.109Z</time></trkpt><trkpt lat="43.4895733" lon="11.4107683"><ele>549.0</ele><time>2026-04-18T08:03:38.108Z</time></trkpt><trkpt lat="43.4896767" lon="11.410595"><ele>548.6666666666666</ele><time>2026-04-18T08:03:39.108Z</time></trkpt><trkpt lat="43.4897767" lon="11.410425"><ele>548.3333333333333</ele><time>2026-04-18T08:03:40.109Z</time></trkpt><trkpt lat="43.4898717" lon="11.41025"><ele>548.0</ele><time>2026-04-18T08:03:41.108Z</time></trkpt><trkpt lat="43.4899533" lon="11.41005"><ele>548.0</ele><time>2026-04-18T08:03:42.109Z</time></trkpt><trkpt lat="43.4900033" lon="11.4098283"><ele>548.0</ele><time>2026-04-18T08:03:43.108Z</time></trkpt><trkpt lat="43.4900267" lon="11.409595"><ele>548.0</ele><time>2026-04-18T08:03:44.108Z</time></trkpt><trkpt lat="43.4900467" lon="11.4093633"><ele>547.3333333333333</ele><time>2026-04-18T08:03:45.108Z</time></trkpt><trkpt lat="43.49006" lon="11.4091183"><ele>546.6666666666666</ele><time>2026-04-18T08:03:46.108Z</time></trkpt><trkpt lat="43.490065" lon="11.4088767"><ele>546.0</ele><time>2026-04-18T08:03:47.108Z</time></trkpt><trkpt lat="43.49006" lon="11.4086367"><ele>544.6666666666666</ele><time>2026-04-18T08:03:48.108Z</time></trkpt><trkpt lat="43.4900517" lon="11.408405"><ele>543.3333333333333</ele><time>2026-04-18T08:03:49.108Z</time></trkpt><trkpt lat="43.4900333" lon="11.4081683"><ele>542.0</ele><time>2026-04-18T08:03:50.108Z</time></trkpt><trkpt lat="43.490005" lon="11.4079467"><ele>541.3333333333333</ele><time>2026-04-18T08:03:51.108Z</time></trkpt><trkpt lat="43.4899767" lon="11.407735"><ele>540.6666666666666</ele><time>2026-04-18T08:03:52.108Z</time></trkpt><trkpt lat="43.4899267" lon="11.4075383"><ele>540.0</ele><time>2026-04-18T08:03:53.109Z</time></trkpt><trkpt lat="43.4898467" lon="11.4073517"><ele>540.0</ele><time>2026-04-18T08:03:54.108Z</time></trkpt><trkpt lat="43.489745" lon="11.407175"><ele>540.0</ele><time>2026-04-18T08:03:55.109Z</time></trkpt><trkpt lat="43.489625" lon="11.407"><ele>540.0</ele><time>2026-04-18T08:03:56.109Z</time></trkpt><trkpt lat="43.4895033" lon="11.4068183"><ele>538.0</ele><time>2026-04-18T08:03:57.108Z</time></trkpt><trkpt lat="43.48938" lon="11.4066367"><ele>536.0</ele><time>2026-04-18T08:03:58.108Z</time></trkpt><trkpt lat="43.4892717" lon="11.40646"><ele>534.0</ele><time>2026-04-18T08:03:59.108Z</time></trkpt><trkpt lat="43.489175" lon="11.4062633"><ele>534.0</ele><time>2026-04-18T08:04:00.108Z</time></trkpt><trkpt lat="43.4891067" lon="11.4060567"><ele>534.0</ele><time>2026-04-18T08:04:01.108Z</time></trkpt><trkpt lat="43.4890517" lon="11.405835"><ele>534.0</ele><time>2026-04-18T08:04:02.109Z</time></trkpt><trkpt lat="43.489005" lon="11.4056083"><ele>531.3333333333334</ele><time>2026-04-18T08:04:03.108Z</time></trkpt><trkpt lat="43.4889683" lon="11.405375"><ele>528.6666666666667</ele><time>2026-04-18T08:04:04.108Z</time></trkpt><trkpt lat="43.4889183" lon="11.4051367"><ele>526.0</ele><time>2026-04-18T08:04:05.108Z</time></trkpt><trkpt lat="43.4888567" lon="11.404925"><ele>526.0</ele><time>2026-04-18T08:04:06.108Z</time></trkpt><trkpt lat="43.4887833" lon="11.4047317"><ele>526.0</ele><time>2026-04-18T08:04:07.108Z</time></trkpt><trkpt lat="43.4887183" lon="11.4045283"><ele>526.0</ele><time>2026-04-18T08:04:08.108Z</time></trkpt><trkpt lat="43.48869" lon="11.4043083"><ele>530.0</ele><time>2026-04-18T08:04:09.108Z</time></trkpt><trkpt lat="43.4886917" lon="11.404095"><ele>534.0</ele><time>2026-04-18T08:04:10.108Z</time></trkpt><trkpt lat="43.4887183" lon="11.4038767"><ele>538.0</ele><time>2026-04-18T08:04:11.108Z</time></trkpt><trkpt lat="43.4887533" lon="11.4036467"><ele>538.0</ele><time>2026-04-18T08:04:12.108Z</time></trkpt><trkpt lat="43.4887717" lon="11.4034117"><ele>538.0</ele><time>2026-04-18T08:04:13.108Z</time></trkpt><trkpt lat="43.4887583" lon="11.403185"><ele>538.0</ele><time>2026-04-18T08:04:14.108Z</time></trkpt><trkpt lat="43.4887617" lon="11.4029483"><ele>529.6666666666667</ele><time>2026-04-18T08:04:15.108Z</time></trkpt><trkpt lat="43.4887733" lon="11.4027217"><ele>521.3333333333334</ele><time>2026-04-18T08:04:16.108Z</time></trkpt><trkpt lat="43.4887917" lon="11.4025017"><ele>513.0</ele><time>2026-04-18T08:04:17.108Z</time></trkpt><trkpt lat="43.4888117" lon="11.4022833"><ele>512.75</ele><time>2026-04-18T08:04:18.108Z</time></trkpt><trkpt lat="43.48884" lon="11.4020883"><ele>512.5</ele><time>2026-04-18T08:04:19.108Z</time></trkpt><trkpt lat="43.4888833" lon="11.4019017"><ele>512.25</ele><time>2026-04-18T08:04:20.108Z</time></trkpt><trkpt lat="43.48893" lon="11.4017267"><ele>512.0</ele><time>2026-04-18T08:04:21.108Z</time></trkpt><trkpt lat="43.488955" lon="11.4015567"><ele>512.0</ele><time>2026-04-18T08:04:22.108Z</time></trkpt><trkpt lat="43.4889383" lon="11.401395"><ele>512.0</ele><time>2026-04-18T08:04:23.108Z</time></trkpt><trkpt lat="43.488865" lon="11.4012583"><ele>512.0</ele><time>2026-04-18T08:04:24.108Z</time></trkpt><trkpt lat="43.48876" lon="11.40114"><ele>512.0</ele><time>2026-04-18T08:04:25.109Z</time></trkpt><trkpt lat="43.488635" lon="11.401025"><ele>512.25</ele><time>2026-04-18T08:04:26.108Z</time></trkpt><trkpt lat="43.4884967" lon="11.4009183"><ele>512.5</ele><time>2026-04-18T08:04:27.108Z</time></trkpt><trkpt lat="43.4883717" lon="11.4008267"><ele>512.75</ele><time>2026-04-18T08:04:28.108Z</time></trkpt><trkpt lat="43.488255" lon="11.4007483"><ele>513.0</ele><time>2026-04-18T08:04:29.108Z</time></trkpt><trkpt lat="43.488145" lon="11.4006933"><ele>513.0</ele><time>2026-04-18T08:04:30.109Z</time></trkpt><trkpt lat="43.4880333" lon="11.4006767"><ele>513.0</ele><time>2026-04-18T08:04:31.108Z</time></trkpt><trkpt lat="43.4879267" lon="11.40073"><ele>513.0</ele><time>2026-04-18T08:04:32.108Z</time></trkpt><trkpt lat="43.4878383" lon="11.4008333"><ele>513.0</ele><time>2026-04-18T08:04:33.109Z</time></trkpt><trkpt lat="43.48777" lon="11.4009683"><ele>511.4</ele><time>2026-04-18T08:04:34.109Z</time></trkpt><trkpt lat="43.48771" lon="11.4010783"><ele>509.79999999999995</ele><time>2026-04-18T08:04:35.108Z</time></trkpt><trkpt lat="43.487655" lon="11.4011617"><ele>508.2</ele><time>2026-04-18T08:04:36.108Z</time></trkpt><trkpt lat="43.487545" lon="11.4012"><ele>506.6</ele><time>2026-04-18T08:04:38.109Z</time></trkpt><trkpt lat="43.4874917" lon="11.4010783"><ele>505.0</ele><time>2026-04-18T08:04:40.108Z</time></trkpt><trkpt lat="43.48754" lon="11.4008917"><ele>505.0</ele><time>2026-04-18T08:04:41.109Z</time></trkpt><trkpt lat="43.4875767" lon="11.400695"><ele>505.0</ele><time>2026-04-18T08:04:42.108Z</time></trkpt><trkpt lat="43.4875933" lon="11.400515"><ele>505.0</ele><time>2026-04-18T08:04:43.108Z</time></trkpt><trkpt lat="43.4876033" lon="11.40034"><ele>505.0</ele><time>2026-04-18T08:04:44.108Z</time></trkpt><trkpt lat="43.4875933" lon="11.4001667"><ele>504.2</ele><time>2026-04-18T08:04:45.108Z</time></trkpt><trkpt lat="43.4876033" lon="11.400015"><ele>503.4</ele><time>2026-04-18T08:04:46.109Z</time></trkpt><trkpt lat="43.48763" lon="11.3998983"><ele>502.6</ele><time>2026-04-18T08:04:47.108Z</time></trkpt><trkpt lat="43.4876883" lon="11.3998167"><ele>501.8</ele><time>2026-04-18T08:04:48.109Z</time></trkpt><trkpt lat="43.4877733" lon="11.3997717"><ele>501.0</ele><time>2026-04-18T08:04:49.109Z</time></trkpt><trkpt lat="43.4878933" lon="11.3997567"><ele>501.25</ele><time>2026-04-18T08:04:50.109Z</time></trkpt><trkpt lat="43.4880183" lon="11.39974"><ele>501.5</ele><time>2026-04-18T08:04:51.108Z</time></trkpt><trkpt lat="43.4881417" lon="11.3997017"><ele>501.75</ele><time>2026-04-18T08:04:52.108Z</time></trkpt><trkpt lat="43.4882583" lon="11.39965"><ele>502.0</ele><time>2026-04-18T08:04:53.108Z</time></trkpt><trkpt lat="43.4883667" lon="11.399555"><ele>501.5</ele><time>2026-04-18T08:04:54.108Z</time></trkpt><trkpt lat="43.4884567" lon="11.39943"><ele>501.0</ele><time>2026-04-18T08:04:55.108Z</time></trkpt><trkpt lat="43.4885417" lon="11.3992883"><ele>500.5</ele><time>2026-04-18T08:04:56.108Z</time></trkpt><trkpt lat="43.4886117" lon="11.3991233"><ele>500.0</ele><time>2026-04-18T08:04:57.108Z</time></trkpt><trkpt lat="43.4886933" lon="11.3989417"><ele>494.66666666666663</ele><time>2026-04-18T08:04:58.108Z</time></trkpt><trkpt lat="43.4887817" lon="11.3987617"><ele>489.33333333333337</ele><time>2026-04-18T08:04:59.108Z</time></trkpt><trkpt lat="43.488865" lon="11.3985767"><ele>484.0</ele><time>2026-04-18T08:05:00.108Z</time></trkpt><trkpt lat="43.4889533" lon="11.3983883"><ele>484.0</ele><time>2026-04-18T08:05:01.108Z</time></trkpt><trkpt lat="43.4890417" lon="11.3982"><ele>484.0</ele><time>2026-04-18T08:05:02.108Z</time></trkpt><trkpt lat="43.48913" lon="11.398015"><ele>484.0</ele><time>2026-04-18T08:05:03.108Z</time></trkpt><trkpt lat="43.4892183" lon="11.397815"><ele>486.0</ele><time>2026-04-18T08:05:04.108Z</time></trkpt><trkpt lat="43.48931" lon="11.397635"><ele>488.0</ele><time>2026-04-18T08:05:05.108Z</time></trkpt><trkpt lat="43.4893917" lon="11.3974533"><ele>490.0</ele><time>2026-04-18T08:05:06.108Z</time></trkpt><trkpt lat="43.489475" lon="11.397275"><ele>489.5</ele><time>2026-04-18T08:05:07.109Z</time></trkpt><trkpt lat="43.4895583" lon="11.3971033"><ele>489.0</ele><time>2026-04-18T08:05:08.108Z</time></trkpt><trkpt lat="43.4896317" lon="11.3969433"><ele>488.5</ele><time>2026-04-18T08:05:09.109Z</time></trkpt><trkpt lat="43.4897067" lon="11.396785"><ele>488.0</ele><time>2026-04-18T08:05:10.108Z</time></trkpt><trkpt lat="43.4897983" lon="11.3966433"><ele>484.25</ele><time>2026-04-18T08:05:11.109Z</time></trkpt><trkpt lat="43.4899" lon="11.3965333"><ele>480.5</ele><time>2026-04-18T08:05:12.109Z</time></trkpt><trkpt lat="43.489985" lon="11.3964033"><ele>476.75</ele><time>2026-04-18T08:05:13.108Z</time></trkpt><trkpt lat="43.4900533" lon="11.3962583"><ele>473.0</ele><time>2026-04-18T08:05:14.108Z</time></trkpt><trkpt lat="43.4900917" lon="11.3960617"><ele>473.0</ele><time>2026-04-18T08:05:15.108Z</time></trkpt><trkpt lat="43.4901233" lon="11.395855"><ele>473.0</ele><time>2026-04-18T08:05:16.108Z</time></trkpt><trkpt lat="43.4901433" lon="11.3956483"><ele>473.0</ele><time>2026-04-18T08:05:17.108Z</time></trkpt><trkpt lat="43.49015" lon="11.3954517"><ele>473.0</ele><time>2026-04-18T08:05:18.109Z</time></trkpt><trkpt lat="43.4901433" lon="11.3952633"><ele>472.0</ele><time>2026-04-18T08:05:19.108Z</time></trkpt><trkpt lat="43.4901367" lon="11.3950733"><ele>471.0</ele><time>2026-04-18T08:05:20.109Z</time></trkpt><trkpt lat="43.4901217" lon="11.394875"><ele>470.0</ele><time>2026-04-18T08:05:21.109Z</time></trkpt><trkpt lat="43.4901083" lon="11.3946883"><ele>469.0</ele><time>2026-04-18T08:05:22.108Z</time></trkpt><trkpt lat="43.4901183" lon="11.3945083"><ele>467.75</ele><time>2026-04-18T08:05:23.108Z</time></trkpt><trkpt lat="43.4901483" lon="11.39434"><ele>466.5</ele><time>2026-04-18T08:05:24.108Z</time></trkpt><trkpt lat="43.490195" lon="11.3941817"><ele>465.25</ele><time>2026-04-18T08:05:25.108Z</time></trkpt><trkpt lat="43.4902583" lon="11.3940133"><ele>464.0</ele><time>2026-04-18T08:05:26.108Z</time></trkpt><trkpt lat="43.490325" lon="11.3938367"><ele>463.0</ele><time>2026-04-18T08:05:27.108Z</time></trkpt><trkpt lat="43.4903817" lon="11.3936683"><ele>462.0</ele><time>2026-04-18T08:05:28.108Z</time></trkpt><trkpt lat="43.4904183" lon="11.3934967"><ele>461.0</ele><time>2026-04-18T08:05:29.108Z</time></trkpt><trkpt lat="43.490435" lon="11.3933183"><ele>460.0</ele><time>2026-04-18T08:05:30.108Z</time></trkpt><trkpt lat="43.490435" lon="11.39314"><ele>459.25</ele><time>2026-04-18T08:05:31.108Z</time></trkpt><trkpt lat="43.490395" lon="11.3929567"><ele>458.5</ele><time>2026-04-18T08:05:32.108Z</time></trkpt><trkpt lat="43.4903283" lon="11.3927717"><ele>457.75</ele><time>2026-04-18T08:05:33.108Z</time></trkpt><trkpt lat="43.490275" lon="11.392585"><ele>457.0</ele><time>2026-04-18T08:05:34.108Z</time></trkpt><trkpt lat="43.4902367" lon="11.3923783"><ele>456.75</ele><time>2026-04-18T08:05:35.108Z</time></trkpt><trkpt lat="43.4902067" lon="11.3921717"><ele>456.5</ele><time>2026-04-18T08:05:36.109Z</time></trkpt><trkpt lat="43.4902033" lon="11.391965"><ele>456.25</ele><time>2026-04-18T08:05:37.108Z</time></trkpt><trkpt lat="43.4902183" lon="11.3917717"><ele>456.0</ele><time>2026-04-18T08:05:38.108Z</time></trkpt><trkpt lat="43.4902283" lon="11.3915867"><ele>456.0</ele><time>2026-04-18T08:05:39.108Z</time></trkpt><trkpt lat="43.4902233" lon="11.3914133"><ele>456.0</ele><time>2026-04-18T08:05:40.108Z</time></trkpt><trkpt lat="43.490185" lon="11.3912533"><ele>456.0</ele><time>2026-04-18T08:05:41.109Z</time></trkpt><trkpt lat="43.4901117" lon="11.391095"><ele>456.0</ele><time>2026-04-18T08:05:42.108Z</time></trkpt><trkpt lat="43.4900167" lon="11.390955"><ele>456.75</ele><time>2026-04-18T08:05:43.108Z</time></trkpt><trkpt lat="43.489915" lon="11.390825"><ele>457.5</ele><time>2026-04-18T08:05:44.108Z</time></trkpt><trkpt lat="43.4898167" lon="11.39068"><ele>458.25</ele><time>2026-04-18T08:05:45.109Z</time></trkpt><trkpt lat="43.489735" lon="11.3905183"><ele>459.0</ele><time>2026-04-18T08:05:46.108Z</time></trkpt><trkpt lat="43.489665" lon="11.3903533"><ele>460.5</ele><time>2026-04-18T08:05:47.108Z</time></trkpt><trkpt lat="43.489605" lon="11.3901933"><ele>462.0</ele><time>2026-04-18T08:05:48.109Z</time></trkpt><trkpt lat="43.4895417" lon="11.390025"><ele>463.5</ele><time>2026-04-18T08:05:49.109Z</time></trkpt><trkpt lat="43.4894867" lon="11.3898517"><ele>465.0</ele><time>2026-04-18T08:05:50.108Z</time></trkpt><trkpt lat="43.48943" lon="11.38969"><ele>462.5</ele><time>2026-04-18T08:05:51.109Z</time></trkpt><trkpt lat="43.4893733" lon="11.389525"><ele>460.0</ele><time>2026-04-18T08:05:52.109Z</time></trkpt><trkpt lat="43.4893233" lon="11.3893633"><ele>457.5</ele><time>2026-04-18T08:05:53.108Z</time></trkpt><trkpt lat="43.4892917" lon="11.3892083"><ele>455.0</ele><time>2026-04-18T08:05:54.108Z</time></trkpt><trkpt lat="43.489295" lon="11.389065"><ele>455.0</ele><time>2026-04-18T08:05:55.109Z</time></trkpt><trkpt lat="43.4893283" lon="11.3889133"><ele>455.0</ele><time>2026-04-18T08:05:56.108Z</time></trkpt><trkpt lat="43.4893617" lon="11.388755"><ele>455.0</ele><time>2026-04-18T08:05:57.109Z</time></trkpt><trkpt lat="43.4894017" lon="11.3885817"><ele>455.0</ele><time>2026-04-18T08:05:58.108Z</time></trkpt><trkpt lat="43.48943" lon="11.3883833"><ele>454.0</ele><time>2026-04-18T08:05:59.108Z</time></trkpt><trkpt lat="43.4894583" lon="11.388185"><ele>453.0</ele><time>2026-04-18T08:06:00.108Z</time></trkpt><trkpt lat="43.489485" lon="11.3879833"><ele>452.0</ele><time>2026-04-18T08:06:01.108Z</time></trkpt><trkpt lat="43.4895" lon="11.3877883"><ele>451.0</ele><time>2026-04-18T08:06:02.108Z</time></trkpt><trkpt lat="43.4895233" lon="11.3875917"><ele>450.25</ele><time>2026-04-18T08:06:03.108Z</time></trkpt><trkpt lat="43.4895417" lon="11.3873983"><ele>449.5</ele><time>2026-04-18T08:06:04.108Z</time></trkpt><trkpt lat="43.48956" lon="11.3872083"><ele>448.75</ele><time>2026-04-18T08:06:05.108Z</time></trkpt><trkpt lat="43.489575" lon="11.3870283"><ele>448.0</ele><time>2026-04-18T08:06:06.108Z</time></trkpt><trkpt lat="43.489595" lon="11.3868733"><ele>451.0</ele><time>2026-04-18T08:06:07.108Z</time></trkpt><trkpt lat="43.4896283" lon="11.3867433"><ele>453.99999999999994</ele><time>2026-04-18T08:06:08.108Z</time></trkpt><trkpt lat="43.489665" lon="11.386645"><ele>456.99999999999994</ele><time>2026-04-18T08:06:09.107Z</time></trkpt><trkpt lat="43.4896967" lon="11.3865683"><ele>460.0</ele><time>2026-04-18T08:06:10.108Z</time></trkpt><trkpt lat="43.4897733" lon="11.3864583"><ele>463.0</ele><time>2026-04-18T08:06:12.107Z</time></trkpt><trkpt lat="43.48984" lon="11.38635"><ele>462.33333333333337</ele><time>2026-04-18T08:06:14.107Z</time></trkpt><trkpt lat="43.4898367" lon="11.3861867"><ele>461.6666666666667</ele><time>2026-04-18T08:06:16.107Z</time></trkpt><trkpt lat="43.4898233" lon="11.3860933"><ele>461.0</ele><time>2026-04-18T08:06:17.108Z</time></trkpt><trkpt lat="43.4898233" lon="11.3859867"><ele>460.33333333333337</ele><time>2026-04-18T08:06:18.108Z</time></trkpt><trkpt lat="43.4898367" lon="11.3858817"><ele>459.6666666666667</ele><time>2026-04-18T08:06:19.108Z</time></trkpt><trkpt lat="43.489865" lon="11.38576"><ele>459.0</ele><time>2026-04-18T08:06:20.107Z</time></trkpt><trkpt lat="43.4899017" lon="11.3856217"><ele>458.79999999999995</ele><time>2026-04-18T08:06:21.107Z</time></trkpt><trkpt lat="43.48994" lon="11.3854867"><ele>458.59999999999997</ele><time>2026-04-18T08:06:22.108Z</time></trkpt><trkpt lat="43.4899817" lon="11.3853583"><ele>458.4</ele><time>2026-04-18T08:06:23.107Z</time></trkpt><trkpt lat="43.4900383" lon="11.38523"><ele>458.2</ele><time>2026-04-18T08:06:24.107Z</time></trkpt><trkpt lat="43.4901217" lon="11.3851183"><ele>458.0</ele><time>2026-04-18T08:06:25.107Z</time></trkpt><trkpt lat="43.4902067" lon="11.385015"><ele>458.0</ele><time>2026-04-18T08:06:26.108Z</time></trkpt><trkpt lat="43.490295" lon="11.3849117"><ele>458.0</ele><time>2026-04-18T08:06:27.107Z</time></trkpt><trkpt lat="43.49039" lon="11.384805"><ele>458.0</ele><time>2026-04-18T08:06:28.107Z</time></trkpt><trkpt lat="43.4904933" lon="11.3846983"><ele>458.0</ele><time>2026-04-18T08:06:29.108Z</time></trkpt><trkpt lat="43.4905833" lon="11.3845817"><ele>457.75</ele><time>2026-04-18T08:06:30.107Z</time></trkpt><trkpt lat="43.4906783" lon="11.3844767"><ele>457.5</ele><time>2026-04-18T08:06:31.107Z</time></trkpt><trkpt lat="43.4907967" lon="11.3843817"><ele>457.25</ele><time>2026-04-18T08:06:32.107Z</time></trkpt><trkpt lat="43.4908883" lon="11.384275"><ele>457.0</ele><time>2026-04-18T08:06:33.107Z</time></trkpt><trkpt lat="43.49098" lon="11.384165"><ele>457.0</ele><time>2026-04-18T08:06:34.107Z</time></trkpt><trkpt lat="43.4910633" lon="11.3840417"><ele>457.0</ele><time>2026-04-18T08:06:35.108Z</time></trkpt><trkpt lat="43.49114" lon="11.3839017"><ele>457.0</ele><time>2026-04-18T08:06:36.107Z</time></trkpt><trkpt lat="43.4912167" lon="11.3837367"><ele>457.0</ele><time>2026-04-18T08:06:37.107Z</time></trkpt><trkpt lat="43.4912883" lon="11.3835517"><ele>451.25</ele><time>2026-04-18T08:06:38.108Z</time></trkpt><trkpt lat="43.491325" lon="11.3833517"><ele>445.5</ele><time>2026-04-18T08:06:39.108Z</time></trkpt><trkpt lat="43.4913367" lon="11.38316"><ele>439.75</ele><time>2026-04-18T08:06:40.107Z</time></trkpt><trkpt lat="43.49134" lon="11.3829817"><ele>434.0</ele><time>2026-04-18T08:06:41.107Z</time></trkpt><trkpt lat="43.4913083" lon="11.382805"><ele>436.75</ele><time>2026-04-18T08:06:42.107Z</time></trkpt><trkpt lat="43.4912433" lon="11.382645"><ele>439.5</ele><time>2026-04-18T08:06:43.108Z</time></trkpt><trkpt lat="43.4911483" lon="11.3825167"><ele>442.25</ele><time>2026-04-18T08:06:44.107Z</time></trkpt><trkpt lat="43.4910367" lon="11.382415"><ele>445.0</ele><time>2026-04-18T08:06:45.108Z</time></trkpt><trkpt lat="43.49092" lon="11.382335"><ele>445.0</ele><time>2026-04-18T08:06:46.107Z</time></trkpt><trkpt lat="43.4908133" lon="11.38223"><ele>445.0</ele><time>2026-04-18T08:06:47.107Z</time></trkpt><trkpt lat="43.490715" lon="11.3820767"><ele>445.0</ele><time>2026-04-18T08:06:48.107Z</time></trkpt><trkpt lat="43.490635" lon="11.3819067"><ele>445.0</ele><time>2026-04-18T08:06:49.107Z</time></trkpt><trkpt lat="43.490565" lon="11.38173"><ele>444.75</ele><time>2026-04-18T08:06:50.108Z</time></trkpt><trkpt lat="43.4904983" lon="11.3815433"><ele>444.5</ele><time>2026-04-18T08:06:51.107Z</time></trkpt><trkpt lat="43.49043" lon="11.3813683"><ele>444.25</ele><time>2026-04-18T08:06:52.107Z</time></trkpt><trkpt lat="43.49035" lon="11.3811983"><ele>444.0</ele><time>2026-04-18T08:06:53.107Z</time></trkpt><trkpt lat="43.4902733" lon="11.3810133"><ele>444.0</ele><time>2026-04-18T08:06:54.107Z</time></trkpt><trkpt lat="43.4902233" lon="11.38083"><ele>444.0</ele><time>2026-04-18T08:06:55.107Z</time></trkpt><trkpt lat="43.4901967" lon="11.3806467"><ele>444.0</ele><time>2026-04-18T08:06:56.107Z</time></trkpt><trkpt lat="43.4902117" lon="11.3804533"><ele>444.0</ele><time>2026-04-18T08:06:57.108Z</time></trkpt><trkpt lat="43.4902667" lon="11.380245"><ele>442.66666666666663</ele><time>2026-04-18T08:06:58.108Z</time></trkpt><trkpt lat="43.4903383" lon="11.380045"><ele>441.3333333333333</ele><time>2026-04-18T08:06:59.108Z</time></trkpt><trkpt lat="43.4904117" lon="11.3798583"><ele>440.0</ele><time>2026-04-18T08:07:00.108Z</time></trkpt><trkpt lat="43.4904983" lon="11.3796817"><ele>436.5</ele><time>2026-04-18T08:07:01.108Z</time></trkpt><trkpt lat="43.4905917" lon="11.3795217"><ele>433.0</ele><time>2026-04-18T08:07:02.107Z</time></trkpt><trkpt lat="43.49068" lon="11.37936"><ele>429.5</ele><time>2026-04-18T08:07:03.107Z</time></trkpt><trkpt lat="43.4907467" lon="11.3791967"><ele>426.0</ele><time>2026-04-18T08:07:04.107Z</time></trkpt><trkpt lat="43.4907933" lon="11.379025"><ele>425.75</ele><time>2026-04-18T08:07:05.108Z</time></trkpt><trkpt lat="43.490815" lon="11.3788317"><ele>425.5</ele><time>2026-04-18T08:07:06.107Z</time></trkpt><trkpt lat="43.4908083" lon="11.3786333"><ele>425.25</ele><time>2026-04-18T08:07:07.107Z</time></trkpt><trkpt lat="43.490785" lon="11.3784217"><ele>425.0</ele><time>2026-04-18T08:07:08.107Z</time></trkpt><trkpt lat="43.49075" lon="11.3782183"><ele>423.3333333333333</ele><time>2026-04-18T08:07:09.107Z</time></trkpt><trkpt lat="43.4907167" lon="11.3780017"><ele>421.66666666666663</ele><time>2026-04-18T08:07:10.107Z</time></trkpt><trkpt lat="43.4906883" lon="11.3777967"><ele>420.0</ele><time>2026-04-18T08:07:11.107Z</time></trkpt><trkpt lat="43.490655" lon="11.3775967"><ele>420.0</ele><time>2026-04-18T08:07:12.107Z</time></trkpt><trkpt lat="43.490625" lon="11.37739"><ele>420.0</ele><time>2026-04-18T08:07:13.108Z</time></trkpt><trkpt lat="43.4905983" lon="11.3771833"><ele>420.0</ele><time>2026-04-18T08:07:14.107Z</time></trkpt><trkpt lat="43.490575" lon="11.3769717"><ele>418.33333333333337</ele><time>2026-04-18T08:07:15.107Z</time></trkpt><trkpt lat="43.49055" lon="11.3767617"><ele>416.6666666666667</ele><time>2026-04-18T08:07:16.108Z</time></trkpt><trkpt lat="43.4905217" lon="11.3765533"><ele>415.0</ele><time>2026-04-18T08:07:17.108Z</time></trkpt><trkpt lat="43.49049" lon="11.3763417"><ele>413.5</ele><time>2026-04-18T08:07:18.108Z</time></trkpt><trkpt lat="43.4904583" lon="11.3761367"><ele>412.0</ele><time>2026-04-18T08:07:19.107Z</time></trkpt><trkpt lat="43.4904417" lon="11.3759383"><ele>410.5</ele><time>2026-04-18T08:07:20.107Z</time></trkpt><trkpt lat="43.4904233" lon="11.3757367"><ele>409.0</ele><time>2026-04-18T08:07:21.107Z</time></trkpt><trkpt lat="43.4904183" lon="11.3755433"><ele>408.75</ele><time>2026-04-18T08:07:22.107Z</time></trkpt><trkpt lat="43.490415" lon="11.375355"><ele>408.5</ele><time>2026-04-18T08:07:23.107Z</time></trkpt><trkpt lat="43.4904167" lon="11.3751733"><ele>408.25</ele><time>2026-04-18T08:07:24.108Z</time></trkpt><trkpt lat="43.4904333" lon="11.3749933"><ele>408.0</ele><time>2026-04-18T08:07:25.107Z</time></trkpt><trkpt lat="43.490455" lon="11.3748117"><ele>408.0</ele><time>2026-04-18T08:07:26.108Z</time></trkpt><trkpt lat="43.4904733" lon="11.3746367"><ele>408.0</ele><time>2026-04-18T08:07:27.108Z</time></trkpt><trkpt lat="43.4904917" lon="11.3744667"><ele>408.0</ele><time>2026-04-18T08:07:28.107Z</time></trkpt><trkpt lat="43.490525" lon="11.3742917"><ele>408.0</ele><time>2026-04-18T08:07:29.107Z</time></trkpt><trkpt lat="43.4905717" lon="11.3741183"><ele>408.0</ele><time>2026-04-18T08:07:30.108Z</time></trkpt><trkpt lat="43.4906233" lon="11.37395"><ele>408.0</ele><time>2026-04-18T08:07:31.107Z</time></trkpt><trkpt lat="43.4906717" lon="11.373795"><ele>408.0</ele><time>2026-04-18T08:07:32.107Z</time></trkpt><trkpt lat="43.4907233" lon="11.3736433"><ele>408.0</ele><time>2026-04-18T08:07:33.107Z</time></trkpt><trkpt lat="43.4907767" lon="11.3735"><ele>408.0</ele><time>2026-04-18T08:07:34.107Z</time></trkpt><trkpt lat="43.4908167" lon="11.3733633"><ele>408.0</ele><time>2026-04-18T08:07:35.107Z</time></trkpt><trkpt lat="43.4908317" lon="11.3732167"><ele>408.0</ele><time>2026-04-18T08:07:36.108Z</time></trkpt><trkpt lat="43.4908233" lon="11.3730617"><ele>408.0</ele><time>2026-04-18T08:07:37.107Z</time></trkpt><trkpt lat="43.4908" lon="11.37291"><ele>408.0</ele><time>2026-04-18T08:07:38.108Z</time></trkpt><trkpt lat="43.4907617" lon="11.3727583"><ele>406.5</ele><time>2026-04-18T08:07:39.108Z</time></trkpt><trkpt lat="43.490715" lon="11.3726117"><ele>405.0</ele><time>2026-04-18T08:07:40.108Z</time></trkpt><trkpt lat="43.4906567" lon="11.372475"><ele>403.5</ele><time>2026-04-18T08:07:41.108Z</time></trkpt><trkpt lat="43.4905967" lon="11.372345"><ele>402.0</ele><time>2026-04-18T08:07:42.108Z</time></trkpt><trkpt lat="43.490535" lon="11.3722183"><ele>401.6</ele><time>2026-04-18T08:07:43.108Z</time></trkpt><trkpt lat="43.4904733" lon="11.3720983"><ele>401.20000000000005</ele><time>2026-04-18T08:07:44.107Z</time></trkpt><trkpt lat="43.4904167" lon="11.3719717"><ele>400.8</ele><time>2026-04-18T08:07:45.107Z</time></trkpt><trkpt lat="43.4903783" lon="11.3718517"><ele>400.4</ele><time>2026-04-18T08:07:46.107Z</time></trkpt><trkpt lat="43.4903667" lon="11.3717233"><ele>400.0</ele><time>2026-04-18T08:07:47.107Z</time></trkpt><trkpt lat="43.4903817" lon="11.3716"><ele>400.0</ele><time>2026-04-18T08:07:48.108Z</time></trkpt><trkpt lat="43.4904167" lon="11.3715"><ele>400.0</ele><time>2026-04-18T08:07:49.108Z</time></trkpt><trkpt lat="43.4904983" lon="11.37144"><ele>400.0</ele><time>2026-04-18T08:07:50.107Z</time></trkpt><trkpt lat="43.4905933" lon="11.3714117"><ele>400.0</ele><time>2026-04-18T08:07:51.108Z</time></trkpt><trkpt lat="43.490695" lon="11.3713967"><ele>400.0</ele><time>2026-04-18T08:07:52.107Z</time></trkpt><trkpt lat="43.490795" lon="11.3714"><ele>400.0</ele><time>2026-04-18T08:07:53.108Z</time></trkpt><trkpt lat="43.4908933" lon="11.3714017"><ele>400.0</ele><time>2026-04-18T08:07:54.107Z</time></trkpt><trkpt lat="43.4909933" lon="11.3713883"><ele>400.0</ele><time>2026-04-18T08:07:55.108Z</time></trkpt><trkpt lat="43.491085" lon="11.3713583"><ele>400.0</ele><time>2026-04-18T08:07:56.107Z</time></trkpt><trkpt lat="43.4911783" lon="11.3713167"><ele>400.0</ele><time>2026-04-18T08:07:57.108Z</time></trkpt><trkpt lat="43.4912717" lon="11.3712567"><ele>399.2</ele><time>2026-04-18T08:07:58.107Z</time></trkpt><trkpt lat="43.4913617" lon="11.3711867"><ele>398.4</ele><time>2026-04-18T08:07:59.108Z</time></trkpt><trkpt lat="43.491445" lon="11.3711"><ele>397.6</ele><time>2026-04-18T08:08:00.107Z</time></trkpt><trkpt lat="43.4915133" lon="11.3709983"><ele>396.8</ele><time>2026-04-18T08:08:01.108Z</time></trkpt><trkpt lat="43.4915733" lon="11.3708783"><ele>396.0</ele><time>2026-04-18T08:08:02.107Z</time></trkpt><trkpt lat="43.4916283" lon="11.3707517"><ele>396.0</ele><time>2026-04-18T08:08:03.107Z</time></trkpt><trkpt lat="43.4916783" lon="11.3706183"><ele>396.0</ele><time>2026-04-18T08:08:04.108Z</time></trkpt><trkpt lat="43.491725" lon="11.3704783"><ele>396.0</ele><time>2026-04-18T08:08:05.108Z</time></trkpt><trkpt lat="43.4917667" lon="11.3703467"><ele>396.0</ele><time>2026-04-18T08:08:06.108Z</time></trkpt><trkpt lat="43.4917967" lon="11.370215"><ele>396.0</ele><time>2026-04-18T08:08:07.108Z</time></trkpt><trkpt lat="43.4918283" lon="11.3700883"><ele>396.20000000000005</ele><time>2026-04-18T08:08:08.107Z</time></trkpt><trkpt lat="43.4918483" lon="11.36996"><ele>396.40000000000003</ele><time>2026-04-18T08:08:09.108Z</time></trkpt><trkpt lat="43.4918533" lon="11.3698267"><ele>396.6</ele><time>2026-04-18T08:08:10.107Z</time></trkpt><trkpt lat="43.4918433" lon="11.369695"><ele>396.8</ele><time>2026-04-18T08:08:11.107Z</time></trkpt><trkpt lat="43.491815" lon="11.36956"><ele>397.0</ele><time>2026-04-18T08:08:12.107Z</time></trkpt><trkpt lat="43.4917767" lon="11.3694283"><ele>397.0</ele><time>2026-04-18T08:08:13.107Z</time></trkpt><trkpt lat="43.4917217" lon="11.3692967"><ele>397.0</ele><time>2026-04-18T08:08:14.107Z</time></trkpt><trkpt lat="43.4916567" lon="11.3691617"><ele>397.0</ele><time>2026-04-18T08:08:15.107Z</time></trkpt><trkpt lat="43.49159" lon="11.36903"><ele>397.0</ele><time>2026-04-18T08:08:16.107Z</time></trkpt><trkpt lat="43.491525" lon="11.3689017"><ele>396.8</ele><time>2026-04-18T08:08:17.107Z</time></trkpt><trkpt lat="43.4914533" lon="11.3687717"><ele>396.6</ele><time>2026-04-18T08:08:18.108Z</time></trkpt><trkpt lat="43.4913833" lon="11.3686467"><ele>396.40000000000003</ele><time>2026-04-18T08:08:19.107Z</time></trkpt><trkpt lat="43.4913167" lon="11.3685367"><ele>396.20000000000005</ele><time>2026-04-18T08:08:20.108Z</time></trkpt><trkpt lat="43.49124" lon="11.3684317"><ele>396.0</ele><time>2026-04-18T08:08:21.107Z</time></trkpt><trkpt lat="43.491165" lon="11.3683383"><ele>396.0</ele><time>2026-04-18T08:08:22.107Z</time></trkpt><trkpt lat="43.49108" lon="11.3682617"><ele>396.0</ele><time>2026-04-18T08:08:23.107Z</time></trkpt><trkpt lat="43.4909933" lon="11.368205"><ele>396.0</ele><time>2026-04-18T08:08:24.108Z</time></trkpt><trkpt lat="43.4909133" lon="11.3681683"><ele>396.0</ele><time>2026-04-18T08:08:25.107Z</time></trkpt><trkpt lat="43.4908317" lon="11.36814"><ele>396.0</ele><time>2026-04-18T08:08:26.107Z</time></trkpt><trkpt lat="43.4907517" lon="11.36811"><ele>396.0</ele><time>2026-04-18T08:08:27.108Z</time></trkpt><trkpt lat="43.490675" lon="11.36807"><ele>396.14285714285717</ele><time>2026-04-18T08:08:28.108Z</time></trkpt><trkpt lat="43.4906033" lon="11.3680233"><ele>396.2857142857143</ele><time>2026-04-18T08:08:29.108Z</time></trkpt><trkpt lat="43.49054" lon="11.3679617"><ele>396.42857142857144</ele><time>2026-04-18T08:08:30.107Z</time></trkpt><trkpt lat="43.4905117" lon="11.367875"><ele>396.57142857142856</ele><time>2026-04-18T08:08:31.107Z</time></trkpt><trkpt lat="43.490505" lon="11.367785"><ele>396.71428571428567</ele><time>2026-04-18T08:08:32.108Z</time></trkpt><trkpt lat="43.4905267" lon="11.3676983"><ele>396.85714285714283</ele><time>2026-04-18T08:08:33.107Z</time></trkpt><trkpt lat="43.4905817" lon="11.3676467"><ele>397.0</ele><time>2026-04-18T08:08:34.107Z</time></trkpt><trkpt lat="43.4906617" lon="11.3676317"><ele>397.0</ele><time>2026-04-18T08:08:35.108Z</time></trkpt><trkpt lat="43.4907433" lon="11.3676217"><ele>397.0</ele><time>2026-04-18T08:08:36.108Z</time></trkpt><trkpt lat="43.4908383" lon="11.3676117"><ele>397.0</ele><time>2026-04-18T08:08:37.107Z</time></trkpt><trkpt lat="43.4909517" lon="11.3676067"><ele>397.0</ele><time>2026-04-18T08:08:38.108Z</time></trkpt><trkpt lat="43.4910767" lon="11.3676183"><ele>397.0</ele><time>2026-04-18T08:08:39.108Z</time></trkpt><trkpt lat="43.4911967" lon="11.36764"><ele>396.75</ele><time>2026-04-18T08:08:40.108Z</time></trkpt><trkpt lat="43.49131" lon="11.36768"><ele>396.5</ele><time>2026-04-18T08:08:41.108Z</time></trkpt><trkpt lat="43.491425" lon="11.36776"><ele>396.25</ele><time>2026-04-18T08:08:42.108Z</time></trkpt><trkpt lat="43.4915383" lon="11.3678667"><ele>396.0</ele><time>2026-04-18T08:08:43.107Z</time></trkpt><trkpt lat="43.4916467" lon="11.36798"><ele>393.25</ele><time>2026-04-18T08:08:44.107Z</time></trkpt><trkpt lat="43.4917567" lon="11.3681"><ele>390.5</ele><time>2026-04-18T08:08:45.107Z</time></trkpt><trkpt lat="43.4918683" lon="11.3682133"><ele>387.75</ele><time>2026-04-18T08:08:46.107Z</time></trkpt><trkpt lat="43.4919783" lon="11.3683283"><ele>385.0</ele><time>2026-04-18T08:08:47.108Z</time></trkpt><trkpt lat="43.492085" lon="11.3684367"><ele>382.5</ele><time>2026-04-18T08:08:48.107Z</time></trkpt><trkpt lat="43.4922017" lon="11.3685433"><ele>380.0</ele><time>2026-04-18T08:08:49.107Z</time></trkpt><trkpt lat="43.49231" lon="11.36865"><ele>377.5</ele><time>2026-04-18T08:08:50.107Z</time></trkpt><trkpt lat="43.4924333" lon="11.3687383"><ele>375.0</ele><time>2026-04-18T08:08:51.107Z</time></trkpt><trkpt lat="43.4925633" lon="11.3688117"><ele>374.0</ele><time>2026-04-18T08:08:52.108Z</time></trkpt><trkpt lat="43.4926917" lon="11.3688767"><ele>373.0</ele><time>2026-04-18T08:08:53.107Z</time></trkpt><trkpt lat="43.492825" lon="11.368935"><ele>372.0</ele><time>2026-04-18T08:08:54.107Z</time></trkpt><trkpt lat="43.4929717" lon="11.36898"><ele>371.0</ele><time>2026-04-18T08:08:55.107Z</time></trkpt><trkpt lat="43.4931183" lon="11.36903"><ele>368.0</ele><time>2026-04-18T08:08:56.107Z</time></trkpt><trkpt lat="43.4932617" lon="11.36908"><ele>365.0</ele><time>2026-04-18T08:08:57.107Z</time></trkpt><trkpt lat="43.4934133" lon="11.36911"><ele>362.0</ele><time>2026-04-18T08:08:58.107Z</time></trkpt><trkpt lat="43.493555" lon="11.3691467"><ele>359.0</ele><time>2026-04-18T08:08:59.108Z</time></trkpt><trkpt lat="43.493695" lon="11.3691767"><ele>356.25</ele><time>2026-04-18T08:09:00.108Z</time></trkpt><trkpt lat="43.49383" lon="11.3692117"><ele>353.5</ele><time>2026-04-18T08:09:01.107Z</time></trkpt><trkpt lat="43.4939633" lon="11.3692433"><ele>350.75</ele><time>2026-04-18T08:09:02.107Z</time></trkpt><trkpt lat="43.4940933" lon="11.3692783"><ele>348.0</ele><time>2026-04-18T08:09:03.108Z</time></trkpt><trkpt lat="43.4942217" lon="11.36932"><ele>348.0</ele><time>2026-04-18T08:09:04.108Z</time></trkpt><trkpt lat="43.49434" lon="11.36936"><ele>348.0</ele><time>2026-04-18T08:09:05.108Z</time></trkpt><trkpt lat="43.4944567" lon="11.3693917"><ele>348.0</ele><time>2026-04-18T08:09:06.108Z</time></trkpt><trkpt lat="43.49458" lon="11.3694167"><ele>348.0</ele><time>2026-04-18T08:09:07.108Z</time></trkpt><trkpt lat="43.4946967" lon="11.3694517"><ele>347.0</ele><time>2026-04-18T08:09:08.108Z</time></trkpt><trkpt lat="43.4948133" lon="11.369505"><ele>346.0</ele><time>2026-04-18T08:09:09.108Z</time></trkpt><trkpt lat="43.494925" lon="11.3695767"><ele>345.0</ele><time>2026-04-18T08:09:10.108Z</time></trkpt><trkpt lat="43.49503" lon="11.369675"><ele>344.0</ele><time>2026-04-18T08:09:11.108Z</time></trkpt><trkpt lat="43.4951317" lon="11.36978"><ele>344.0</ele><time>2026-04-18T08:09:12.107Z</time></trkpt><trkpt lat="43.4952267" lon="11.3699017"><ele>344.0</ele><time>2026-04-18T08:09:13.107Z</time></trkpt><trkpt lat="43.4953233" lon="11.3700183"><ele>344.0</ele><time>2026-04-18T08:09:14.108Z</time></trkpt><trkpt lat="43.49542" lon="11.37013"><ele>344.0</ele><time>2026-04-18T08:09:15.108Z</time></trkpt><trkpt lat="43.49552" lon="11.3702333"><ele>345.4</ele><time>2026-04-18T08:09:16.107Z</time></trkpt><trkpt lat="43.495615" lon="11.37033"><ele>346.79999999999995</ele><time>2026-04-18T08:09:17.107Z</time></trkpt><trkpt lat="43.495695" lon="11.3704283"><ele>348.20000000000005</ele><time>2026-04-18T08:09:18.107Z</time></trkpt><trkpt lat="43.4957617" lon="11.3705233"><ele>349.6</ele><time>2026-04-18T08:09:19.108Z</time></trkpt><trkpt lat="43.4958" lon="11.37063"><ele>351.0</ele><time>2026-04-18T08:09:20.108Z</time></trkpt><trkpt lat="43.4958233" lon="11.3707383"><ele>351.75</ele><time>2026-04-18T08:09:21.107Z</time></trkpt><trkpt lat="43.49583" lon="11.3708567"><ele>352.5</ele><time>2026-04-18T08:09:22.107Z</time></trkpt><trkpt lat="43.495805" lon="11.370995"><ele>353.25</ele><time>2026-04-18T08:09:23.108Z</time></trkpt><trkpt lat="43.49576" lon="11.3711583"><ele>354.0</ele><time>2026-04-18T08:09:24.108Z</time></trkpt><trkpt lat="43.495705" lon="11.3713283"><ele>354.0</ele><time>2026-04-18T08:09:25.107Z</time></trkpt><trkpt lat="43.4956517" lon="11.371495"><ele>354.0</ele><time>2026-04-18T08:09:26.107Z</time></trkpt><trkpt lat="43.4956" lon="11.3716533"><ele>354.0</ele><time>2026-04-18T08:09:27.108Z</time></trkpt><trkpt lat="43.495555" lon="11.371815"><ele>354.0</ele><time>2026-04-18T08:09:28.107Z</time></trkpt><trkpt lat="43.4955117" lon="11.3719717"><ele>354.0</ele><time>2026-04-18T08:09:29.107Z</time></trkpt><trkpt lat="43.4954733" lon="11.3721217"><ele>354.0</ele><time>2026-04-18T08:09:30.108Z</time></trkpt><trkpt lat="43.4954483" lon="11.3722883"><ele>354.0</ele><time>2026-04-18T08:09:31.108Z</time></trkpt><trkpt lat="43.4954467" lon="11.3724517"><ele>354.0</ele><time>2026-04-18T08:09:32.108Z</time></trkpt><trkpt lat="43.4954633" lon="11.3726267"><ele>355.0</ele><time>2026-04-18T08:09:33.108Z</time></trkpt><trkpt lat="43.4955067" lon="11.3727883"><ele>356.0</ele><time>2026-04-18T08:09:34.108Z</time></trkpt><trkpt lat="43.4955583" lon="11.3729433"><ele>357.0</ele><time>2026-04-18T08:09:35.108Z</time></trkpt><trkpt lat="43.49563" lon="11.3730883"><ele>358.0</ele><time>2026-04-18T08:09:36.108Z</time></trkpt><trkpt lat="43.4957283" lon="11.3732033"><ele>358.0</ele><time>2026-04-18T08:09:37.108Z</time></trkpt><trkpt lat="43.4958417" lon="11.3732933"><ele>358.0</ele><time>2026-04-18T08:09:38.108Z</time></trkpt><trkpt lat="43.4959633" lon="11.37337"><ele>358.0</ele><time>2026-04-18T08:09:39.107Z</time></trkpt><trkpt lat="43.4960767" lon="11.37346"><ele>358.0</ele><time>2026-04-18T08:09:40.107Z</time></trkpt><trkpt lat="43.4961583" lon="11.373585"><ele>358.0</ele><time>2026-04-18T08:09:41.107Z</time></trkpt><trkpt lat="43.4962267" lon="11.3737267"><ele>358.0</ele><time>2026-04-18T08:09:42.108Z</time></trkpt><trkpt lat="43.49628" lon="11.3738867"><ele>358.0</ele><time>2026-04-18T08:09:43.108Z</time></trkpt><trkpt lat="43.4963333" lon="11.3740517"><ele>358.0</ele><time>2026-04-18T08:09:44.108Z</time></trkpt><trkpt lat="43.4964067" lon="11.3741783"><ele>360.5</ele><time>2026-04-18T08:09:45.108Z</time></trkpt><trkpt lat="43.4965067" lon="11.3742917"><ele>363.0</ele><time>2026-04-18T08:09:46.108Z</time></trkpt><trkpt lat="43.49661" lon="11.374395"><ele>365.5</ele><time>2026-04-18T08:09:47.107Z</time></trkpt><trkpt lat="43.4967133" lon="11.37452"><ele>368.0</ele><time>2026-04-18T08:09:48.108Z</time></trkpt><trkpt lat="43.4967917" lon="11.3746483"><ele>366.5</ele><time>2026-04-18T08:09:49.108Z</time></trkpt><trkpt lat="43.4968567" lon="11.3748017"><ele>365.0</ele><time>2026-04-18T08:09:50.107Z</time></trkpt><trkpt lat="43.49693" lon="11.3749633"><ele>363.5</ele><time>2026-04-18T08:09:51.107Z</time></trkpt><trkpt lat="43.4970067" lon="11.3751233"><ele>362.0</ele><time>2026-04-18T08:09:52.107Z</time></trkpt><trkpt lat="43.497095" lon="11.3752767"><ele>364.5</ele><time>2026-04-18T08:09:53.107Z</time></trkpt><trkpt lat="43.4971817" lon="11.37543"><ele>367.0</ele><time>2026-04-18T08:09:54.107Z</time></trkpt><trkpt lat="43.4972783" lon="11.3755683"><ele>369.5</ele><time>2026-04-18T08:09:55.107Z</time></trkpt><trkpt lat="43.4973717" lon="11.3757017"><ele>372.0</ele><time>2026-04-18T08:09:56.107Z</time></trkpt><trkpt lat="43.4974733" lon="11.3758233"><ele>372.0</ele><time>2026-04-18T08:09:57.107Z</time></trkpt><trkpt lat="43.4975883" lon="11.3759317"><ele>372.0</ele><time>2026-04-18T08:09:58.107Z</time></trkpt><trkpt lat="43.4977183" lon="11.376025"><ele>372.0</ele><time>2026-04-18T08:09:59.107Z</time></trkpt><trkpt lat="43.497845" lon="11.3761133"><ele>372.0</ele><time>2026-04-18T08:10:00.107Z</time></trkpt><trkpt lat="43.4979617" lon="11.3761917"><ele>374.0</ele><time>2026-04-18T08:10:01.108Z</time></trkpt><trkpt lat="43.4980767" lon="11.376265"><ele>376.0</ele><time>2026-04-18T08:10:02.108Z</time></trkpt><trkpt lat="43.498185" lon="11.3763333"><ele>378.0</ele><time>2026-04-18T08:10:03.107Z</time></trkpt><trkpt lat="43.498275" lon="11.3764"><ele>380.0</ele><time>2026-04-18T08:10:04.107Z</time></trkpt><trkpt lat="43.49835" lon="11.3764667"><ele>382.0</ele><time>2026-04-18T08:10:05.108Z</time></trkpt><trkpt lat="43.4984233" lon="11.3764933"><ele>382.0</ele><time>2026-04-18T08:10:06.107Z</time></trkpt><trkpt lat="43.4984833" lon="11.376465"><ele>382.0</ele><time>2026-04-18T08:10:07.107Z</time></trkpt><trkpt lat="43.4985267" lon="11.37639"><ele>382.0</ele><time>2026-04-18T08:10:08.108Z</time></trkpt><trkpt lat="43.4985483" lon="11.376295"><ele>382.0</ele><time>2026-04-18T08:10:09.108Z</time></trkpt><trkpt lat="43.4985383" lon="11.3761683"><ele>382.0</ele><time>2026-04-18T08:10:10.108Z</time></trkpt><trkpt lat="43.4985" lon="11.376025"><ele>382.0</ele><time>2026-04-18T08:10:11.107Z</time></trkpt><trkpt lat="43.4984583" lon="11.3758817"><ele>382.8</ele><time>2026-04-18T08:10:12.107Z</time></trkpt><trkpt lat="43.4984133" lon="11.3757417"><ele>383.6</ele><time>2026-04-18T08:10:13.107Z</time></trkpt><trkpt lat="43.4983883" lon="11.3756133"><ele>384.40000000000003</ele><time>2026-04-18T08:10:14.107Z</time></trkpt><trkpt lat="43.4983983" lon="11.3754933"><ele>385.20000000000005</ele><time>2026-04-18T08:10:15.108Z</time></trkpt><trkpt lat="43.498435" lon="11.3753933"><ele>386.0</ele><time>2026-04-18T08:10:16.107Z</time></trkpt><trkpt lat="43.4984917" lon="11.3753267"><ele>386.5</ele><time>2026-04-18T08:10:17.107Z</time></trkpt><trkpt lat="43.4985817" lon="11.3752867"><ele>387.0</ele><time>2026-04-18T08:10:18.108Z</time></trkpt><trkpt lat="43.4987" lon="11.3752567"><ele>387.5</ele><time>2026-04-18T08:10:19.107Z</time></trkpt><trkpt lat="43.4988317" lon="11.3752233"><ele>388.0</ele><time>2026-04-18T08:10:20.107Z</time></trkpt><trkpt lat="43.4989567" lon="11.3751933"><ele>388.75</ele><time>2026-04-18T08:10:21.108Z</time></trkpt><trkpt lat="43.4990867" lon="11.3751767"><ele>389.5</ele><time>2026-04-18T08:10:22.107Z</time></trkpt><trkpt lat="43.4992267" lon="11.3751717"><ele>390.25</ele><time>2026-04-18T08:10:23.107Z</time></trkpt><trkpt lat="43.499365" lon="11.37518"><ele>391.0</ele><time>2026-04-18T08:10:24.108Z</time></trkpt><trkpt lat="43.4995183" lon="11.3752"><ele>392.33333333333337</ele><time>2026-04-18T08:10:25.107Z</time></trkpt><trkpt lat="43.49967" lon="11.37523"><ele>393.66666666666663</ele><time>2026-04-18T08:10:26.108Z</time></trkpt><trkpt lat="43.4998183" lon="11.3752717"><ele>395.0</ele><time>2026-04-18T08:10:27.108Z</time></trkpt><trkpt lat="43.4999733" lon="11.3753083"><ele>395.0</ele><time>2026-04-18T08:10:28.107Z</time></trkpt><trkpt lat="43.5001033" lon="11.3753433"><ele>395.0</ele><time>2026-04-18T08:10:29.106Z</time></trkpt><trkpt lat="43.500255" lon="11.3753717"><ele>395.0</ele><time>2026-04-18T08:10:30.106Z</time></trkpt><trkpt lat="43.50041" lon="11.3753983"><ele>395.0</ele><time>2026-04-18T08:10:31.106Z</time></trkpt><trkpt lat="43.5005583" lon="11.37543"><ele>395.25</ele><time>2026-04-18T08:10:32.106Z</time></trkpt><trkpt lat="43.5007" lon="11.3754533"><ele>395.5</ele><time>2026-04-18T08:10:33.106Z</time></trkpt><trkpt lat="43.5008367" lon="11.3754733"><ele>395.75</ele><time>2026-04-18T08:10:34.106Z</time></trkpt><trkpt lat="43.5009633" lon="11.3755083"><ele>396.0</ele><time>2026-04-18T08:10:35.106Z</time></trkpt><trkpt lat="43.5010683" lon="11.3755583"><ele>397.0</ele><time>2026-04-18T08:10:36.107Z</time></trkpt><trkpt lat="43.5011517" lon="11.3756433"><ele>398.0</ele><time>2026-04-18T08:10:37.106Z</time></trkpt><trkpt lat="43.5012267" lon="11.3757717"><ele>399.0</ele><time>2026-04-18T08:10:38.107Z</time></trkpt><trkpt lat="43.5012883" lon="11.3759283"><ele>400.0</ele><time>2026-04-18T08:10:39.106Z</time></trkpt><trkpt lat="43.501325" lon="11.37611"><ele>400.0</ele><time>2026-04-18T08:10:40.107Z</time></trkpt><trkpt lat="43.50135" lon="11.376295"><ele>400.0</ele><time>2026-04-18T08:10:41.107Z</time></trkpt><trkpt lat="43.5013617" lon="11.37649"><ele>400.0</ele><time>2026-04-18T08:10:42.107Z</time></trkpt><trkpt lat="43.5013767" lon="11.3766817"><ele>400.0</ele><time>2026-04-18T08:10:43.107Z</time></trkpt><trkpt lat="43.5014033" lon="11.376875"><ele>401.75</ele><time>2026-04-18T08:10:44.106Z</time></trkpt><trkpt lat="43.5014567" lon="11.3770483"><ele>403.5</ele><time>2026-04-18T08:10:45.106Z</time></trkpt><trkpt lat="43.501535" lon="11.3772067"><ele>405.25</ele><time>2026-04-18T08:10:46.106Z</time></trkpt><trkpt lat="43.5016367" lon="11.3773483"><ele>407.0</ele><time>2026-04-18T08:10:47.106Z</time></trkpt><trkpt lat="43.5017467" lon="11.377485"><ele>408.5</ele><time>2026-04-18T08:10:48.106Z</time></trkpt><trkpt lat="43.5018583" lon="11.3776083"><ele>410.0</ele><time>2026-04-18T08:10:49.106Z</time></trkpt><trkpt lat="43.50198" lon="11.3777117"><ele>411.5</ele><time>2026-04-18T08:10:50.106Z</time></trkpt><trkpt lat="43.5021217" lon="11.3777867"><ele>413.0</ele><time>2026-04-18T08:10:51.106Z</time></trkpt><trkpt lat="43.5022683" lon="11.3778517"><ele>413.0</ele><time>2026-04-18T08:10:52.107Z</time></trkpt><trkpt lat="43.5024083" lon="11.3779133"><ele>413.0</ele><time>2026-04-18T08:10:53.107Z</time></trkpt><trkpt lat="43.50256" lon="11.3779467"><ele>413.0</ele><time>2026-04-18T08:10:54.107Z</time></trkpt><trkpt lat="43.5027183" lon="11.3779733"><ele>413.0</ele><time>2026-04-18T08:10:55.106Z</time></trkpt><trkpt lat="43.5028667" lon="11.3779817"><ele>413.0</ele><time>2026-04-18T08:10:56.106Z</time></trkpt><trkpt lat="43.5030167" lon="11.3779917"><ele>413.0</ele><time>2026-04-18T08:10:57.107Z</time></trkpt><trkpt lat="43.5031617" lon="11.378"><ele>413.0</ele><time>2026-04-18T08:10:58.106Z</time></trkpt><trkpt lat="43.5033017" lon="11.3780067"><ele>415.0</ele><time>2026-04-18T08:10:59.107Z</time></trkpt><trkpt lat="43.5034417" lon="11.378045"><ele>417.0</ele><time>2026-04-18T08:11:00.106Z</time></trkpt><trkpt lat="43.5035767" lon="11.3781067"><ele>419.0</ele><time>2026-04-18T08:11:01.107Z</time></trkpt><trkpt lat="43.5037017" lon="11.3781967"><ele>421.0</ele><time>2026-04-18T08:11:02.106Z</time></trkpt><trkpt lat="43.50384" lon="11.3782733"><ele>425.0</ele><time>2026-04-18T08:11:03.107Z</time></trkpt><trkpt lat="43.5039883" lon="11.37833"><ele>429.0</ele><time>2026-04-18T08:11:04.106Z</time></trkpt><trkpt lat="43.504145" lon="11.3783767"><ele>433.0</ele><time>2026-04-18T08:11:05.106Z</time></trkpt><trkpt lat="43.5042867" lon="11.3784217"><ele>433.0</ele><time>2026-04-18T08:11:06.106Z</time></trkpt><trkpt lat="43.5044317" lon="11.3784667"><ele>433.0</ele><time>2026-04-18T08:11:07.107Z</time></trkpt><trkpt lat="43.504565" lon="11.3785217"><ele>433.0</ele><time>2026-04-18T08:11:08.106Z</time></trkpt><trkpt lat="43.5047017" lon="11.37857"><ele>433.0</ele><time>2026-04-18T08:11:09.106Z</time></trkpt><trkpt lat="43.5048267" lon="11.3786417"><ele>435.75</ele><time>2026-04-18T08:11:10.106Z</time></trkpt><trkpt lat="43.5049567" lon="11.3787133"><ele>438.5</ele><time>2026-04-18T08:11:11.106Z</time></trkpt><trkpt lat="43.5050617" lon="11.378835"><ele>441.25</ele><time>2026-04-18T08:11:12.107Z</time></trkpt><trkpt lat="43.5051767" lon="11.3789833"><ele>444.0</ele><time>2026-04-18T08:11:13.107Z</time></trkpt><trkpt lat="43.5052633" lon="11.3791583"><ele>444.0</ele><time>2026-04-18T08:11:14.106Z</time></trkpt><trkpt lat="43.505345" lon="11.379315"><ele>444.0</ele><time>2026-04-18T08:11:15.106Z</time></trkpt><trkpt lat="43.5054217" lon="11.379435"><ele>444.0</ele><time>2026-04-18T08:11:16.106Z</time></trkpt><trkpt lat="43.5055" lon="11.3795133"><ele>444.0</ele><time>2026-04-18T08:11:17.107Z</time></trkpt><trkpt lat="43.5055833" lon="11.3795283"><ele>444.0</ele><time>2026-04-18T08:11:18.106Z</time></trkpt><trkpt lat="43.5056517" lon="11.379495"><ele>447.0</ele><time>2026-04-18T08:11:19.107Z</time></trkpt><trkpt lat="43.5056883" lon="11.379405"><ele>450.0</ele><time>2026-04-18T08:11:20.106Z</time></trkpt><trkpt lat="43.5056833" lon="11.3792883"><ele>453.0</ele><time>2026-04-18T08:11:21.107Z</time></trkpt><trkpt lat="43.5056467" lon="11.379145"><ele>456.0</ele><time>2026-04-18T08:11:22.106Z</time></trkpt><trkpt lat="43.5056017" lon="11.3789917"><ele>459.0</ele><time>2026-04-18T08:11:23.106Z</time></trkpt><trkpt lat="43.5055667" lon="11.3788317"><ele>459.0</ele><time>2026-04-18T08:11:24.106Z</time></trkpt><trkpt lat="43.5055533" lon="11.378665"><ele>459.0</ele><time>2026-04-18T08:11:25.106Z</time></trkpt><trkpt lat="43.5055533" lon="11.3785117"><ele>459.0</ele><time>2026-04-18T08:11:26.106Z</time></trkpt><trkpt lat="43.5055717" lon="11.3783983"><ele>459.0</ele><time>2026-04-18T08:11:27.107Z</time></trkpt><trkpt lat="43.5056033" lon="11.3783"><ele>459.0</ele><time>2026-04-18T08:11:28.106Z</time></trkpt><trkpt lat="43.5056817" lon="11.3782617"><ele>459.0</ele><time>2026-04-18T08:11:29.107Z</time></trkpt><trkpt lat="43.5057683" lon="11.378265"><ele>459.0</ele><time>2026-04-18T08:11:30.106Z</time></trkpt><trkpt lat="43.505865" lon="11.3783067"><ele>459.0</ele><time>2026-04-18T08:11:31.107Z</time></trkpt><trkpt lat="43.50595" lon="11.3783833"><ele>459.0</ele><time>2026-04-18T08:11:32.106Z</time></trkpt><trkpt lat="43.506045" lon="11.3785"><ele>459.0</ele><time>2026-04-18T08:11:33.106Z</time></trkpt><trkpt lat="43.5061283" lon="11.3786467"><ele>459.0</ele><time>2026-04-18T08:11:34.106Z</time></trkpt><trkpt lat="43.5062017" lon="11.3788067"><ele>459.0</ele><time>2026-04-18T08:11:35.107Z</time></trkpt><trkpt lat="43.5062717" lon="11.3789467"><ele>459.0</ele><time>2026-04-18T08:11:36.106Z</time></trkpt><trkpt lat="43.5063717" lon="11.3790383"><ele>459.0</ele><time>2026-04-18T08:11:37.106Z</time></trkpt><trkpt lat="43.5064833" lon="11.3791067"><ele>461.25</ele><time>2026-04-18T08:11:38.106Z</time></trkpt><trkpt lat="43.5066017" lon="11.3791767"><ele>463.5</ele><time>2026-04-18T08:11:39.106Z</time></trkpt><trkpt lat="43.5067317" lon="11.3792383"><ele>465.75</ele><time>2026-04-18T08:11:40.106Z</time></trkpt><trkpt lat="43.50686" lon="11.3793033"><ele>468.0</ele><time>2026-04-18T08:11:41.106Z</time></trkpt><trkpt lat="43.5069917" lon="11.379365"><ele>470.75</ele><time>2026-04-18T08:11:42.107Z</time></trkpt><trkpt lat="43.5071183" lon="11.37943"><ele>473.5</ele><time>2026-04-18T08:11:43.107Z</time></trkpt><trkpt lat="43.5072467" lon="11.3794917"><ele>476.25</ele><time>2026-04-18T08:11:44.107Z</time></trkpt><trkpt lat="43.5073717" lon="11.3795533"><ele>479.0</ele><time>2026-04-18T08:11:45.106Z</time></trkpt><trkpt lat="43.5075017" lon="11.379595"><ele>479.0</ele><time>2026-04-18T08:11:46.107Z</time></trkpt><trkpt lat="43.5076433" lon="11.379615"><ele>479.0</ele><time>2026-04-18T08:11:47.106Z</time></trkpt><trkpt lat="43.5077783" lon="11.3796367"><ele>479.0</ele><time>2026-04-18T08:11:48.106Z</time></trkpt><trkpt lat="43.5079167" lon="11.3796483"><ele>479.0</ele><time>2026-04-18T08:11:49.106Z</time></trkpt><trkpt lat="43.5080567" lon="11.37968"><ele>481.25</ele><time>2026-04-18T08:11:50.107Z</time></trkpt><trkpt lat="43.5081833" lon="11.3797333"><ele>483.5</ele><time>2026-04-18T08:11:51.107Z</time></trkpt><trkpt lat="43.50832" lon="11.3797933"><ele>485.75</ele><time>2026-04-18T08:11:52.106Z</time></trkpt><trkpt lat="43.508455" lon="11.3798667"><ele>488.0</ele><time>2026-04-18T08:11:53.106Z</time></trkpt><trkpt lat="43.508595" lon="11.3799417"><ele>488.0</ele><time>2026-04-18T08:11:54.106Z</time></trkpt><trkpt lat="43.50874" lon="11.3800233"><ele>488.0</ele><time>2026-04-18T08:11:55.106Z</time></trkpt><trkpt lat="43.5088783" lon="11.380105"><ele>488.0</ele><time>2026-04-18T08:11:56.106Z</time></trkpt><trkpt lat="43.5090233" lon="11.38017"><ele>491.0</ele><time>2026-04-18T08:11:57.107Z</time></trkpt><trkpt lat="43.5091717" lon="11.3802167"><ele>494.0</ele><time>2026-04-18T08:11:58.106Z</time></trkpt><trkpt lat="43.50932" lon="11.3802517"><ele>497.0</ele><time>2026-04-18T08:11:59.107Z</time></trkpt><trkpt lat="43.5094567" lon="11.380255"><ele>500.0</ele><time>2026-04-18T08:12:00.107Z</time></trkpt><trkpt lat="43.5095783" lon="11.3802267"><ele>501.2</ele><time>2026-04-18T08:12:01.107Z</time></trkpt><trkpt lat="43.5096767" lon="11.38015"><ele>502.4</ele><time>2026-04-18T08:12:02.107Z</time></trkpt><trkpt lat="43.5097617" lon="11.3800483"><ele>503.6</ele><time>2026-04-18T08:12:03.106Z</time></trkpt><trkpt lat="43.50985" lon="11.37997"><ele>504.8</ele><time>2026-04-18T08:12:04.106Z</time></trkpt><trkpt lat="43.5099517" lon="11.3799433"><ele>506.0</ele><time>2026-04-18T08:12:05.106Z</time></trkpt><trkpt lat="43.5100617" lon="11.379965"><ele>506.0</ele><time>2026-04-18T08:12:06.106Z</time></trkpt><trkpt lat="43.5101733" lon="11.380025"><ele>506.0</ele><time>2026-04-18T08:12:07.107Z</time></trkpt><trkpt lat="43.51028" lon="11.3801267"><ele>506.0</ele><time>2026-04-18T08:12:08.106Z</time></trkpt><trkpt lat="43.51038" lon="11.3802383"><ele>506.0</ele><time>2026-04-18T08:12:09.107Z</time></trkpt><trkpt lat="43.5105033" lon="11.3803367"><ele>508.75</ele><time>2026-04-18T08:12:10.106Z</time></trkpt><trkpt lat="43.5106417" lon="11.380395"><ele>511.5</ele><time>2026-04-18T08:12:11.107Z</time></trkpt><trkpt lat="43.5107717" lon="11.3803967"><ele>514.25</ele><time>2026-04-18T08:12:12.106Z</time></trkpt><trkpt lat="43.5108767" lon="11.3803333"><ele>517.0</ele><time>2026-04-18T08:12:13.106Z</time></trkpt><trkpt lat="43.5109733" lon="11.38023"><ele>517.0</ele><time>2026-04-18T08:12:14.107Z</time></trkpt><trkpt lat="43.511065" lon="11.380145"><ele>517.0</ele><time>2026-04-18T08:12:15.107Z</time></trkpt><trkpt lat="43.511155" lon="11.3801283"><ele>517.0</ele><time>2026-04-18T08:12:16.107Z</time></trkpt><trkpt lat="43.511235" lon="11.380175"><ele>517.0</ele><time>2026-04-18T08:12:17.107Z</time></trkpt><trkpt lat="43.5113017" lon="11.3802683"><ele>517.0</ele><time>2026-04-18T08:12:18.107Z</time></trkpt><trkpt lat="43.5113683" lon="11.3803833"><ele>519.0</ele><time>2026-04-18T08:12:19.106Z</time></trkpt><trkpt lat="43.5114533" lon="11.3804983"><ele>521.0</ele><time>2026-04-18T08:12:20.107Z</time></trkpt><trkpt lat="43.51156" lon="11.3805983"><ele>523.0</ele><time>2026-04-18T08:12:21.106Z</time></trkpt><trkpt lat="43.5116783" lon="11.3806733"><ele>525.0</ele><time>2026-04-18T08:12:22.106Z</time></trkpt><trkpt lat="43.51177" lon="11.38077"><ele>526.75</ele><time>2026-04-18T08:12:23.106Z</time></trkpt><trkpt lat="43.5118267" lon="11.3809017"><ele>528.5</ele><time>2026-04-18T08:12:24.106Z</time></trkpt><trkpt lat="43.5118533" lon="11.3810683"><ele>530.25</ele><time>2026-04-18T08:12:25.106Z</time></trkpt><trkpt lat="43.511885" lon="11.3812467"><ele>532.0</ele><time>2026-04-18T08:12:26.106Z</time></trkpt><trkpt lat="43.51195" lon="11.38141"><ele>532.5</ele><time>2026-04-18T08:12:27.107Z</time></trkpt><trkpt lat="43.5120167" lon="11.3815583"><ele>533.0</ele><time>2026-04-18T08:12:28.106Z</time></trkpt><trkpt lat="43.5120583" lon="11.3817167"><ele>533.5</ele><time>2026-04-18T08:12:29.106Z</time></trkpt><trkpt lat="43.51205" lon="11.3818783"><ele>534.0</ele><time>2026-04-18T08:12:30.107Z</time></trkpt><trkpt lat="43.5120033" lon="11.3820467"><ele>535.2</ele><time>2026-04-18T08:12:31.107Z</time></trkpt><trkpt lat="43.51195" lon="11.38221"><ele>536.4</ele><time>2026-04-18T08:12:32.106Z</time></trkpt><trkpt lat="43.511905" lon="11.382365"><ele>537.6</ele><time>2026-04-18T08:12:33.106Z</time></trkpt><trkpt lat="43.5118817" lon="11.3825033"><ele>538.8</ele><time>2026-04-18T08:12:34.107Z</time></trkpt><trkpt lat="43.51188" lon="11.382615"><ele>540.0</ele><time>2026-04-18T08:12:35.106Z</time></trkpt><trkpt lat="43.511915" lon="11.3827233"><ele>540.0</ele><time>2026-04-18T08:12:36.107Z</time></trkpt><trkpt lat="43.5119683" lon="11.3827933"><ele>540.0</ele><time>2026-04-18T08:12:37.106Z</time></trkpt><trkpt lat="43.5120517" lon="11.3828117"><ele>540.0</ele><time>2026-04-18T08:12:38.106Z</time></trkpt><trkpt lat="43.5121383" lon="11.382795"><ele>540.0</ele><time>2026-04-18T08:12:39.106Z</time></trkpt><trkpt lat="43.5122317" lon="11.3827583"><ele>540.0</ele><time>2026-04-18T08:12:40.107Z</time></trkpt><trkpt lat="43.512335" lon="11.3827067"><ele>542.2</ele><time>2026-04-18T08:12:41.106Z</time></trkpt><trkpt lat="43.5124383" lon="11.3826583"><ele>544.4</ele><time>2026-04-18T08:12:42.106Z</time></trkpt><trkpt lat="43.51254" lon="11.3826117"><ele>546.6</ele><time>2026-04-18T08:12:43.106Z</time></trkpt><trkpt lat="43.51265" lon="11.3825717"><ele>548.8</ele><time>2026-04-18T08:12:44.106Z</time></trkpt><trkpt lat="43.5127583" lon="11.3825233"><ele>551.0</ele><time>2026-04-18T08:12:45.107Z</time></trkpt><trkpt lat="43.5128683" lon="11.38248"><ele>552.75</ele><time>2026-04-18T08:12:46.106Z</time></trkpt><trkpt lat="43.51298" lon="11.3824483"><ele>554.5</ele><time>2026-04-18T08:12:47.107Z</time></trkpt><trkpt lat="43.5130933" lon="11.38242"><ele>556.25</ele><time>2026-04-18T08:12:48.106Z</time></trkpt><trkpt lat="43.51321" lon="11.3824033"><ele>558.0</ele><time>2026-04-18T08:12:49.107Z</time></trkpt><trkpt lat="43.51333" lon="11.382395"><ele>558.0</ele><time>2026-04-18T08:12:50.107Z</time></trkpt><trkpt lat="43.5134567" lon="11.3823917"><ele>558.0</ele><time>2026-04-18T08:12:51.106Z</time></trkpt><trkpt lat="43.513575" lon="11.3823933"><ele>558.0</ele><time>2026-04-18T08:12:52.106Z</time></trkpt><trkpt lat="43.5136967" lon="11.3823883"><ele>558.0</ele><time>2026-04-18T08:12:53.107Z</time></trkpt><trkpt lat="43.5138267" lon="11.38238"><ele>559.75</ele><time>2026-04-18T08:12:54.106Z</time></trkpt><trkpt lat="43.5139533" lon="11.38237"><ele>561.5</ele><time>2026-04-18T08:12:55.107Z</time></trkpt><trkpt lat="43.51409" lon="11.3823533"><ele>563.25</ele><time>2026-04-18T08:12:56.107Z</time></trkpt><trkpt lat="43.51422" lon="11.38234"><ele>565.0</ele><time>2026-04-18T08:12:57.107Z</time></trkpt><trkpt lat="43.5143517" lon="11.3823133"><ele>565.0</ele><time>2026-04-18T08:12:58.106Z</time></trkpt><trkpt lat="43.514485" lon="11.38228"><ele>565.0</ele><time>2026-04-18T08:12:59.106Z</time></trkpt><trkpt lat="43.514615" lon="11.3822417"><ele>565.0</ele><time>2026-04-18T08:13:00.107Z</time></trkpt><trkpt lat="43.5147367" lon="11.3822033"><ele>565.0</ele><time>2026-04-18T08:13:01.107Z</time></trkpt><trkpt lat="43.51487" lon="11.38219"><ele>566.75</ele><time>2026-04-18T08:13:02.107Z</time></trkpt><trkpt lat="43.5149983" lon="11.3821917"><ele>568.5</ele><time>2026-04-18T08:13:03.106Z</time></trkpt><trkpt lat="43.515125" lon="11.3821717"><ele>570.25</ele><time>2026-04-18T08:13:04.107Z</time></trkpt><trkpt lat="43.5152417" lon="11.382125"><ele>572.0</ele><time>2026-04-18T08:13:05.106Z</time></trkpt><trkpt lat="43.5153517" lon="11.3820467"><ele>578.0</ele><time>2026-04-18T08:13:06.106Z</time></trkpt><trkpt lat="43.515455" lon="11.3819867"><ele>584.0</ele><time>2026-04-18T08:13:07.106Z</time></trkpt><trkpt lat="43.5155617" lon="11.3819667"><ele>590.0</ele><time>2026-04-18T08:13:08.106Z</time></trkpt><trkpt lat="43.5156733" lon="11.3820033"><ele>596.0</ele><time>2026-04-18T08:13:09.107Z</time></trkpt><trkpt lat="43.5157833" lon="11.3820533"><ele>596.0</ele><time>2026-04-18T08:13:10.106Z</time></trkpt><trkpt lat="43.5158917" lon="11.3820917"><ele>596.0</ele><time>2026-04-18T08:13:11.106Z</time></trkpt><trkpt lat="43.516" lon="11.3821133"><ele>596.0</ele><time>2026-04-18T08:13:12.106Z</time></trkpt><trkpt lat="43.51611" lon="11.38212"><ele>596.0</ele><time>2026-04-18T08:13:13.106Z</time></trkpt><trkpt lat="43.5162267" lon="11.3821217"><ele>596.0</ele><time>2026-04-18T08:13:14.107Z</time></trkpt><trkpt lat="43.5163433" lon="11.3821233"><ele>598.4</ele><time>2026-04-18T08:13:15.106Z</time></trkpt><trkpt lat="43.5164633" lon="11.3821183"><ele>600.8</ele><time>2026-04-18T08:13:16.106Z</time></trkpt><trkpt lat="43.5165817" lon="11.3820967"><ele>603.1999999999999</ele><time>2026-04-18T08:13:17.107Z</time></trkpt><trkpt lat="43.5166883" lon="11.3820783"><ele>605.6</ele><time>2026-04-18T08:13:18.106Z</time></trkpt><trkpt lat="43.5167783" lon="11.3820567"><ele>608.0</ele><time>2026-04-18T08:13:19.107Z</time></trkpt><trkpt lat="43.5168617" lon="11.3820233"><ele>608.0</ele><time>2026-04-18T08:13:20.107Z</time></trkpt><trkpt lat="43.5169217" lon="11.3819767"><ele>608.0</ele><time>2026-04-18T08:13:21.107Z</time></trkpt><trkpt lat="43.516935" lon="11.381835"><ele>608.0</ele><time>2026-04-18T08:13:23.106Z</time></trkpt><trkpt lat="43.5168483" lon="11.3817283"><ele>608.0</ele><time>2026-04-18T08:13:25.106Z</time></trkpt><trkpt lat="43.5167817" lon="11.3817117"><ele>608.0</ele><time>2026-04-18T08:13:26.106Z</time></trkpt><trkpt lat="43.5167033" lon="11.3817167"><ele>608.0</ele><time>2026-04-18T08:13:27.106Z</time></trkpt><trkpt lat="43.51663" lon="11.3817417"><ele>608.0</ele><time>2026-04-18T08:13:28.106Z</time></trkpt><trkpt lat="43.51655" lon="11.38174"><ele>608.0</ele><time>2026-04-18T08:13:29.106Z</time></trkpt><trkpt lat="43.5164517" lon="11.3816767"><ele>608.0</ele><time>2026-04-18T08:13:31.107Z</time></trkpt><trkpt lat="43.5164617" lon="11.3815167"><ele>608.0</ele><time>2026-04-18T08:13:33.106Z</time></trkpt><trkpt lat="43.5165183" lon="11.3813617"><ele>608.0</ele><time>2026-04-18T08:13:35.106Z</time></trkpt><trkpt lat="43.5165733" lon="11.381235"><ele>608.0</ele><time>2026-04-18T08:13:37.106Z</time></trkpt><trkpt lat="43.5166317" lon="11.38117"><ele>608.0</ele><time>2026-04-18T08:13:40.107Z</time></trkpt><trkpt lat="43.5166833" lon="11.3812467"><ele>608.0</ele><time>2026-04-18T08:13:42.106Z</time></trkpt><trkpt lat="43.5167567" lon="11.3813617"><ele>608.0</ele><time>2026-04-18T08:13:44.107Z</time></trkpt><trkpt lat="43.5168083" lon="11.3814167"><ele>608.0</ele><time>2026-04-18T08:13:45.107Z</time></trkpt><trkpt lat="43.5169233" lon="11.381445"><ele>608.0</ele><time>2026-04-18T08:13:47.106Z</time></trkpt><trkpt lat="43.5170517" lon="11.3814217"><ele>608.6666666666666</ele><time>2026-04-18T08:13:49.106Z</time></trkpt><trkpt lat="43.5171283" lon="11.3814133"><ele>609.3333333333333</ele><time>2026-04-18T08:13:50.107Z</time></trkpt><trkpt lat="43.5172067" lon="11.381405"><ele>610.0</ele><time>2026-04-18T08:13:51.106Z</time></trkpt><trkpt lat="43.51729" lon="11.3813967"><ele>610.6666666666666</ele><time>2026-04-18T08:13:52.107Z</time></trkpt><trkpt lat="43.517365" lon="11.381375"><ele>611.3333333333334</ele><time>2026-04-18T08:13:53.106Z</time></trkpt><trkpt lat="43.5174417" lon="11.38138"><ele>612.0</ele><time>2026-04-18T08:13:54.106Z</time></trkpt><trkpt lat="43.5175133" lon="11.381395"><ele>612.0</ele><time>2026-04-18T08:13:55.106Z</time></trkpt><trkpt lat="43.517585" lon="11.3813917"><ele>612.0</ele><time>2026-04-18T08:13:56.106Z</time></trkpt><trkpt lat="43.51765" lon="11.3813967"><ele>612.0</ele><time>2026-04-18T08:13:57.106Z</time></trkpt><trkpt lat="43.517715" lon="11.3813917"><ele>612.0</ele><time>2026-04-18T08:13:58.107Z</time></trkpt><trkpt lat="43.51778" lon="11.38142"><ele>612.0</ele><time>2026-04-18T08:13:59.107Z</time></trkpt><trkpt lat="43.517845" lon="11.38148"><ele>612.0</ele><time>2026-04-18T08:14:00.106Z</time></trkpt><trkpt lat="43.5179133" lon="11.3815483"><ele>612.0</ele><time>2026-04-18T08:14:01.106Z</time></trkpt><trkpt lat="43.51798" lon="11.381615"><ele>613.6666666666666</ele><time>2026-04-18T08:14:02.107Z</time></trkpt><trkpt lat="43.5180583" lon="11.381675"><ele>615.3333333333334</ele><time>2026-04-18T08:14:03.106Z</time></trkpt><trkpt lat="43.51814" lon="11.381725"><ele>617.0</ele><time>2026-04-18T08:14:04.106Z</time></trkpt><trkpt lat="43.5182217" lon="11.38177"><ele>618.6666666666667</ele><time>2026-04-18T08:14:05.107Z</time></trkpt><trkpt lat="43.5183" lon="11.3818"><ele>620.3333333333334</ele><time>2026-04-18T08:14:06.107Z</time></trkpt><trkpt lat="43.5183833" lon="11.3818033"><ele>622.0</ele><time>2026-04-18T08:14:07.106Z</time></trkpt><trkpt lat="43.518465" lon="11.3818033"><ele>622.0</ele><time>2026-04-18T08:14:08.106Z</time></trkpt><trkpt lat="43.5185567" lon="11.381785"><ele>622.0</ele><time>2026-04-18T08:14:09.106Z</time></trkpt><trkpt lat="43.518655" lon="11.3817633"><ele>622.0</ele><time>2026-04-18T08:14:10.106Z</time></trkpt><trkpt lat="43.5187483" lon="11.381745"><ele>622.0</ele><time>2026-04-18T08:14:11.107Z</time></trkpt><trkpt lat="43.5188367" lon="11.381735"><ele>622.0</ele><time>2026-04-18T08:14:12.107Z</time></trkpt><trkpt lat="43.518905" lon="11.38175"><ele>622.0</ele><time>2026-04-18T08:14:13.106Z</time></trkpt><trkpt lat="43.518965" lon="11.3817833"><ele>624.3333333333334</ele><time>2026-04-18T08:14:14.107Z</time></trkpt><trkpt lat="43.5190583" lon="11.3818767"><ele>626.6666666666667</ele><time>2026-04-18T08:14:16.107Z</time></trkpt><trkpt lat="43.51911" lon="11.3819383"><ele>629.0</ele><time>2026-04-18T08:14:17.106Z</time></trkpt><trkpt lat="43.5191633" lon="11.38201"><ele>631.3333333333334</ele><time>2026-04-18T08:14:18.106Z</time></trkpt><trkpt lat="43.5192217" lon="11.3820833"><ele>633.6666666666666</ele><time>2026-04-18T08:14:19.107Z</time></trkpt><trkpt lat="43.5192833" lon="11.3821567"><ele>636.0</ele><time>2026-04-18T08:14:20.106Z</time></trkpt><trkpt lat="43.519335" lon="11.382225"><ele>636.6666666666666</ele><time>2026-04-18T08:14:21.107Z</time></trkpt><trkpt lat="43.5193667" lon="11.3823017"><ele>637.3333333333334</ele><time>2026-04-18T08:14:22.106Z</time></trkpt><trkpt lat="43.5193883" lon="11.3823917"><ele>638.0</ele><time>2026-04-18T08:14:23.107Z</time></trkpt><trkpt lat="43.5194083" lon="11.38251"><ele>638.6666666666667</ele><time>2026-04-18T08:14:24.107Z</time></trkpt><trkpt lat="43.5194417" lon="11.3826117"><ele>639.3333333333334</ele><time>2026-04-18T08:14:25.106Z</time></trkpt><trkpt lat="43.519475" lon="11.3827117"><ele>640.0</ele><time>2026-04-18T08:14:26.107Z</time></trkpt><trkpt lat="43.5195233" lon="11.38279"><ele>642.3333333333334</ele><time>2026-04-18T08:14:27.107Z</time></trkpt><trkpt lat="43.519575" lon="11.3828483"><ele>644.6666666666667</ele><time>2026-04-18T08:14:28.106Z</time></trkpt><trkpt lat="43.5196383" lon="11.38289"><ele>647.0</ele><time>2026-04-18T08:14:29.106Z</time></trkpt><trkpt lat="43.519715" lon="11.382925"><ele>649.3333333333334</ele><time>2026-04-18T08:14:30.106Z</time></trkpt><trkpt lat="43.519805" lon="11.3829483"><ele>651.6666666666666</ele><time>2026-04-18T08:14:31.106Z</time></trkpt><trkpt lat="43.51991" lon="11.3829667"><ele>654.0</ele><time>2026-04-18T08:14:32.107Z</time></trkpt><trkpt lat="43.520015" lon="11.3829867"><ele>654.0</ele><time>2026-04-18T08:14:33.106Z</time></trkpt><trkpt lat="43.5201317" lon="11.3830133"><ele>654.0</ele><time>2026-04-18T08:14:34.107Z</time></trkpt><trkpt lat="43.5202467" lon="11.3830383"><ele>654.0</ele><time>2026-04-18T08:14:35.107Z</time></trkpt><trkpt lat="43.5203567" lon="11.3831"><ele>654.0</ele><time>2026-04-18T08:14:36.106Z</time></trkpt><trkpt lat="43.5204417" lon="11.383185"><ele>655.8000000000001</ele><time>2026-04-18T08:14:37.106Z</time></trkpt><trkpt lat="43.520505" lon="11.3832733"><ele>657.6</ele><time>2026-04-18T08:14:38.106Z</time></trkpt><trkpt lat="43.5205517" lon="11.3833733"><ele>659.4</ele><time>2026-04-18T08:14:39.106Z</time></trkpt><trkpt lat="43.520585" lon="11.38349"><ele>661.2</ele><time>2026-04-18T08:14:40.106Z</time></trkpt><trkpt lat="43.5206067" lon="11.3836117"><ele>663.0</ele><time>2026-04-18T08:14:41.107Z</time></trkpt><trkpt lat="43.5206133" lon="11.3837617"><ele>664.8</ele><time>2026-04-18T08:14:42.106Z</time></trkpt><trkpt lat="43.5206083" lon="11.3839267"><ele>666.5999999999999</ele><time>2026-04-18T08:14:43.107Z</time></trkpt><trkpt lat="43.5206" lon="11.3840767"><ele>668.4000000000001</ele><time>2026-04-18T08:14:44.106Z</time></trkpt><trkpt lat="43.52061" lon="11.3842083"><ele>670.2</ele><time>2026-04-18T08:14:45.106Z</time></trkpt><trkpt lat="43.520635" lon="11.3843317"><ele>672.0</ele><time>2026-04-18T08:14:46.107Z</time></trkpt><trkpt lat="43.52068" lon="11.38444"><ele>672.0</ele><time>2026-04-18T08:14:47.106Z</time></trkpt><trkpt lat="43.5207233" lon="11.3845733"><ele>672.0</ele><time>2026-04-18T08:14:48.107Z</time></trkpt><trkpt lat="43.5207633" lon="11.3847"><ele>672.0</ele><time>2026-04-18T08:14:49.107Z</time></trkpt><trkpt lat="43.5208183" lon="11.3848317"><ele>672.0</ele><time>2026-04-18T08:14:50.107Z</time></trkpt><trkpt lat="43.52087" lon="11.38496"><ele>672.0</ele><time>2026-04-18T08:14:51.106Z</time></trkpt><trkpt lat="43.5209317" lon="11.3850867"><ele>672.5</ele><time>2026-04-18T08:14:52.106Z</time></trkpt><trkpt lat="43.521005" lon="11.3852017"><ele>673.0</ele><time>2026-04-18T08:14:53.106Z</time></trkpt><trkpt lat="43.5210983" lon="11.385285"><ele>673.5</ele><time>2026-04-18T08:14:54.106Z</time></trkpt><trkpt lat="43.5211933" lon="11.385375"><ele>674.0</ele><time>2026-04-18T08:14:55.106Z</time></trkpt><trkpt lat="43.5212867" lon="11.385465"><ele>677.4000000000001</ele><time>2026-04-18T08:14:56.106Z</time></trkpt><trkpt lat="43.521385" lon="11.3855517"><ele>680.8</ele><time>2026-04-18T08:14:57.106Z</time></trkpt><trkpt lat="43.5214828" lon="11.3856399"><ele>684.2</ele><time>2026-04-18T08:14:58.106Z</time></trkpt><trkpt lat="43.5215784" lon="11.3857264"><ele>687.5999999999999</ele><time>2026-04-18T08:14:59.106Z</time></trkpt><trkpt lat="43.521658" lon="11.3858097"><ele>691.0</ele><time>2026-04-18T08:15:00.105Z</time></trkpt><trkpt lat="43.5217235" lon="11.385908"><ele>691.0</ele><time>2026-04-18T08:15:01.105Z</time></trkpt><trkpt lat="43.521765" lon="11.3860267"><ele>691.0</ele><time>2026-04-18T08:15:02.106Z</time></trkpt><trkpt lat="43.5217867" lon="11.3861617"><ele>691.0</ele><time>2026-04-18T08:15:03.105Z</time></trkpt><trkpt lat="43.52179" lon="11.3863017"><ele>691.0</ele><time>2026-04-18T08:15:04.105Z</time></trkpt><trkpt lat="43.5217683" lon="11.3864233"><ele>691.0</ele><time>2026-04-18T08:15:05.106Z</time></trkpt><trkpt lat="43.5217317" lon="11.386535"><ele>691.0</ele><time>2026-04-18T08:15:06.105Z</time></trkpt><trkpt lat="43.5217117" lon="11.3866433"><ele>691.0</ele><time>2026-04-18T08:15:07.105Z</time></trkpt><trkpt lat="43.5217167" lon="11.386755"><ele>691.0</ele><time>2026-04-18T08:15:08.105Z</time></trkpt><trkpt lat="43.52174" lon="11.3868633"><ele>691.0</ele><time>2026-04-18T08:15:09.105Z</time></trkpt><trkpt lat="43.521785" lon="11.3869717"><ele>691.0</ele><time>2026-04-18T08:15:10.105Z</time></trkpt><trkpt lat="43.5218533" lon="11.3870683"><ele>691.0</ele><time>2026-04-18T08:15:11.106Z</time></trkpt><trkpt lat="43.521935" lon="11.3871533"><ele>691.75</ele><time>2026-04-18T08:15:12.105Z</time></trkpt><trkpt lat="43.5220433" lon="11.38722"><ele>692.5</ele><time>2026-04-18T08:15:13.106Z</time></trkpt><trkpt lat="43.5221517" lon="11.3872733"><ele>693.25</ele><time>2026-04-18T08:15:14.106Z</time></trkpt><trkpt lat="43.5222783" lon="11.38728"><ele>694.0</ele><time>2026-04-18T08:15:15.105Z</time></trkpt><trkpt lat="43.5223833" lon="11.3872917"><ele>694.0</ele><time>2026-04-18T08:15:16.106Z</time></trkpt><trkpt lat="43.5225133" lon="11.38728"><ele>694.0</ele><time>2026-04-18T08:15:17.105Z</time></trkpt><trkpt lat="43.5226433" lon="11.387265"><ele>694.0</ele><time>2026-04-18T08:15:18.105Z</time></trkpt><trkpt lat="43.5227683" lon="11.3872467"><ele>694.0</ele><time>2026-04-18T08:15:19.105Z</time></trkpt><trkpt lat="43.5228867" lon="11.38722"><ele>697.5</ele><time>2026-04-18T08:15:20.106Z</time></trkpt><trkpt lat="43.5230017" lon="11.3871733"><ele>701.0</ele><time>2026-04-18T08:15:21.106Z</time></trkpt><trkpt lat="43.5231067" lon="11.3871083"><ele>704.5</ele><time>2026-04-18T08:15:22.105Z</time></trkpt><trkpt lat="43.5232183" lon="11.3870417"><ele>708.0</ele><time>2026-04-18T08:15:23.106Z</time></trkpt><trkpt lat="43.5233367" lon="11.3869767"><ele>708.0</ele><time>2026-04-18T08:15:24.105Z</time></trkpt><trkpt lat="43.523445" lon="11.3869083"><ele>708.0</ele><time>2026-04-18T08:15:25.105Z</time></trkpt><trkpt lat="43.5235617" lon="11.3868383"><ele>708.0</ele><time>2026-04-18T08:15:26.106Z</time></trkpt><trkpt lat="43.523675" lon="11.3867617"><ele>708.0</ele><time>2026-04-18T08:15:27.105Z</time></trkpt><trkpt lat="43.5237883" lon="11.3866817"><ele>707.5</ele><time>2026-04-18T08:15:28.106Z</time></trkpt><trkpt lat="43.5238967" lon="11.3865917"><ele>707.0</ele><time>2026-04-18T08:15:29.105Z</time></trkpt><trkpt lat="43.5240067" lon="11.386505"><ele>706.5</ele><time>2026-04-18T08:15:30.105Z</time></trkpt><trkpt lat="43.5241167" lon="11.38645"><ele>706.0</ele><time>2026-04-18T08:15:31.106Z</time></trkpt><trkpt lat="43.524235" lon="11.3864133"><ele>706.0</ele><time>2026-04-18T08:15:32.105Z</time></trkpt><trkpt lat="43.524345" lon="11.3863933"><ele>706.0</ele><time>2026-04-18T08:15:33.105Z</time></trkpt><trkpt lat="43.524465" lon="11.3864017"><ele>706.0</ele><time>2026-04-18T08:15:34.105Z</time></trkpt><trkpt lat="43.5245817" lon="11.3864"><ele>706.0</ele><time>2026-04-18T08:15:35.106Z</time></trkpt><trkpt lat="43.5246867" lon="11.3863917"><ele>705.5</ele><time>2026-04-18T08:15:36.105Z</time></trkpt><trkpt lat="43.52477" lon="11.3863633"><ele>705.0</ele><time>2026-04-18T08:15:37.105Z</time></trkpt><trkpt lat="43.5248383" lon="11.3863183"><ele>704.5</ele><time>2026-04-18T08:15:38.105Z</time></trkpt><trkpt lat="43.5248917" lon="11.38625"><ele>704.0</ele><time>2026-04-18T08:15:39.105Z</time></trkpt><trkpt lat="43.5249433" lon="11.3861467"><ele>703.5</ele><time>2026-04-18T08:15:40.105Z</time></trkpt><trkpt lat="43.5249833" lon="11.38601"><ele>703.0</ele><time>2026-04-18T08:15:41.105Z</time></trkpt><trkpt lat="43.525025" lon="11.3858583"><ele>705.0</ele><time>2026-04-18T08:15:42.106Z</time></trkpt><trkpt lat="43.52507" lon="11.3857317"><ele>707.0</ele><time>2026-04-18T08:15:43.106Z</time></trkpt><trkpt lat="43.5251317" lon="11.3856033"><ele>709.0</ele><time>2026-04-18T08:15:44.105Z</time></trkpt><trkpt lat="43.52523" lon="11.38547"><ele>711.0</ele><time>2026-04-18T08:15:45.105Z</time></trkpt><trkpt lat="43.52533" lon="11.385355"><ele>712.25</ele><time>2026-04-18T08:15:46.105Z</time></trkpt><trkpt lat="43.5254283" lon="11.3852617"><ele>713.5</ele><time>2026-04-18T08:15:47.105Z</time></trkpt><trkpt lat="43.5255333" lon="11.3851933"><ele>714.75</ele><time>2026-04-18T08:15:48.105Z</time></trkpt><trkpt lat="43.5256533" lon="11.3851217"><ele>716.0</ele><time>2026-04-18T08:15:49.105Z</time></trkpt><trkpt lat="43.52577" lon="11.3850467"><ele>716.0</ele><time>2026-04-18T08:15:50.105Z</time></trkpt><trkpt lat="43.525865" lon="11.3849817"><ele>716.0</ele><time>2026-04-18T08:15:51.105Z</time></trkpt><trkpt lat="43.525945" lon="11.3849033"><ele>716.0</ele><time>2026-04-18T08:15:52.105Z</time></trkpt><trkpt lat="43.52601" lon="11.3848"><ele>716.0</ele><time>2026-04-18T08:15:53.105Z</time></trkpt><trkpt lat="43.526065" lon="11.3846733"><ele>716.0</ele><time>2026-04-18T08:15:54.106Z</time></trkpt><trkpt lat="43.5261067" lon="11.3845167"><ele>715.75</ele><time>2026-04-18T08:15:55.105Z</time></trkpt><trkpt lat="43.5261367" lon="11.3843467"><ele>715.5</ele><time>2026-04-18T08:15:56.106Z</time></trkpt><trkpt lat="43.5261583" lon="11.3841567"><ele>715.25</ele><time>2026-04-18T08:15:57.106Z</time></trkpt><trkpt lat="43.5261733" lon="11.3839617"><ele>715.0</ele><time>2026-04-18T08:15:58.105Z</time></trkpt><trkpt lat="43.52618" lon="11.3837767"><ele>715.6</ele><time>2026-04-18T08:15:59.106Z</time></trkpt><trkpt lat="43.52619" lon="11.3836167"><ele>716.2</ele><time>2026-04-18T08:16:00.105Z</time></trkpt><trkpt lat="43.52621" lon="11.3834933"><ele>716.8</ele><time>2026-04-18T08:16:01.105Z</time></trkpt><trkpt lat="43.52624" lon="11.3833917"><ele>717.4</ele><time>2026-04-18T08:16:02.106Z</time></trkpt><trkpt lat="43.5262933" lon="11.3833117"><ele>718.0</ele><time>2026-04-18T08:16:03.106Z</time></trkpt><trkpt lat="43.5264067" lon="11.3832833"><ele>718.0</ele><time>2026-04-18T08:16:05.106Z</time></trkpt><trkpt lat="43.5264933" lon="11.3833283"><ele>718.0</ele><time>2026-04-18T08:16:06.105Z</time></trkpt><trkpt lat="43.5266" lon="11.3833883"><ele>718.0</ele><time>2026-04-18T08:16:07.105Z</time></trkpt><trkpt lat="43.526725" lon="11.3834583"><ele>718.0</ele><time>2026-04-18T08:16:08.105Z</time></trkpt><trkpt lat="43.52686" lon="11.3835017"><ele>718.0</ele><time>2026-04-18T08:16:09.105Z</time></trkpt><trkpt lat="43.5269833" lon="11.383525"><ele>718.0</ele><time>2026-04-18T08:16:10.105Z</time></trkpt><trkpt lat="43.52711" lon="11.3835133"><ele>718.0</ele><time>2026-04-18T08:16:11.106Z</time></trkpt><trkpt lat="43.527215" lon="11.3834767"><ele>718.0</ele><time>2026-04-18T08:16:12.105Z</time></trkpt><trkpt lat="43.527315" lon="11.3834017"><ele>719.0</ele><time>2026-04-18T08:16:13.105Z</time></trkpt><trkpt lat="43.5273867" lon="11.3832883"><ele>720.0</ele><time>2026-04-18T08:16:14.106Z</time></trkpt><trkpt lat="43.5274317" lon="11.38317"><ele>721.0</ele><time>2026-04-18T08:16:15.105Z</time></trkpt><trkpt lat="43.5274467" lon="11.3830583"><ele>722.0</ele><time>2026-04-18T08:16:16.105Z</time></trkpt><trkpt lat="43.5274383" lon="11.3829583"><ele>723.0</ele><time>2026-04-18T08:16:17.106Z</time></trkpt><trkpt lat="43.5274217" lon="11.3828383"><ele>723.3333333333334</ele><time>2026-04-18T08:16:18.106Z</time></trkpt><trkpt lat="43.52738" lon="11.382715"><ele>723.6666666666666</ele><time>2026-04-18T08:16:19.105Z</time></trkpt><trkpt lat="43.5273317" lon="11.3825833"><ele>724.0</ele><time>2026-04-18T08:16:20.106Z</time></trkpt><trkpt lat="43.5273033" lon="11.382455"><ele>724.3333333333333</ele><time>2026-04-18T08:16:21.105Z</time></trkpt><trkpt lat="43.5273017" lon="11.3823583"><ele>724.6666666666666</ele><time>2026-04-18T08:16:22.106Z</time></trkpt><trkpt lat="43.5273283" lon="11.3822633"><ele>725.0</ele><time>2026-04-18T08:16:23.106Z</time></trkpt><trkpt lat="43.52739" lon="11.3821617"><ele>725.0</ele><time>2026-04-18T08:16:24.106Z</time></trkpt><trkpt lat="43.5274733" lon="11.3820567"><ele>725.0</ele><time>2026-04-18T08:16:25.106Z</time></trkpt><trkpt lat="43.527575" lon="11.38193"><ele>725.0</ele><time>2026-04-18T08:16:26.106Z</time></trkpt><trkpt lat="43.527675" lon="11.3818033"><ele>725.0</ele><time>2026-04-18T08:16:27.105Z</time></trkpt><trkpt lat="43.5277617" lon="11.3816633"><ele>725.0</ele><time>2026-04-18T08:16:28.105Z</time></trkpt><trkpt lat="43.52784" lon="11.3815283"><ele>725.0</ele><time>2026-04-18T08:16:29.105Z</time></trkpt><trkpt lat="43.5279167" lon="11.3814033"><ele>725.0</ele><time>2026-04-18T08:16:30.106Z</time></trkpt><trkpt lat="43.5279967" lon="11.3812683"><ele>725.0</ele><time>2026-04-18T08:16:31.105Z</time></trkpt><trkpt lat="43.5280683" lon="11.3811233"><ele>729.75</ele><time>2026-04-18T08:16:32.106Z</time></trkpt><trkpt lat="43.5281417" lon="11.3809867"><ele>734.5</ele><time>2026-04-18T08:16:33.105Z</time></trkpt><trkpt lat="43.52821" lon="11.38086"><ele>739.25</ele><time>2026-04-18T08:16:34.105Z</time></trkpt><trkpt lat="43.528295" lon="11.380755"><ele>744.0</ele><time>2026-04-18T08:16:35.106Z</time></trkpt><trkpt lat="43.5283883" lon="11.380675"><ele>744.0</ele><time>2026-04-18T08:16:36.105Z</time></trkpt><trkpt lat="43.5284933" lon="11.380625"><ele>744.0</ele><time>2026-04-18T08:16:37.106Z</time></trkpt><trkpt lat="43.5285983" lon="11.3805933"><ele>744.0</ele><time>2026-04-18T08:16:38.106Z</time></trkpt><trkpt lat="43.5286867" lon="11.38059"><ele>744.0</ele><time>2026-04-18T08:16:39.106Z</time></trkpt><trkpt lat="43.528755" lon="11.3805633"><ele>744.0</ele><time>2026-04-18T08:16:40.106Z</time></trkpt><trkpt lat="43.528815" lon="11.3804433"><ele>746.2</ele><time>2026-04-18T08:16:42.105Z</time></trkpt><trkpt lat="43.5287733" lon="11.3802933"><ele>748.4000000000001</ele><time>2026-04-18T08:16:44.105Z</time></trkpt><trkpt lat="43.5287233" lon="11.3802067"><ele>750.6</ele><time>2026-04-18T08:16:45.105Z</time></trkpt><trkpt lat="43.5286567" lon="11.38011"><ele>752.8</ele><time>2026-04-18T08:16:46.105Z</time></trkpt><trkpt lat="43.5285467" lon="11.3799933"><ele>755.0</ele><time>2026-04-18T08:16:47.105Z</time></trkpt><trkpt lat="43.528425" lon="11.3799"><ele>755.0</ele><time>2026-04-18T08:16:48.106Z</time></trkpt><trkpt lat="43.52831" lon="11.379835"><ele>755.0</ele><time>2026-04-18T08:16:49.105Z</time></trkpt><trkpt lat="43.528185" lon="11.3798067"><ele>755.0</ele><time>2026-04-18T08:16:50.105Z</time></trkpt><trkpt lat="43.528065" lon="11.3797983"><ele>755.0</ele><time>2026-04-18T08:16:51.105Z</time></trkpt><trkpt lat="43.5279417" lon="11.3797867"><ele>754.3333333333333</ele><time>2026-04-18T08:16:52.105Z</time></trkpt><trkpt lat="43.5278333" lon="11.3797483"><ele>753.6666666666666</ele><time>2026-04-18T08:16:53.105Z</time></trkpt><trkpt lat="43.5277367" lon="11.3796917"><ele>753.0</ele><time>2026-04-18T08:16:54.105Z</time></trkpt><trkpt lat="43.52766" lon="11.37965"><ele>752.3333333333334</ele><time>2026-04-18T08:16:55.106Z</time></trkpt><trkpt lat="43.5275817" lon="11.3796467"><ele>751.6666666666667</ele><time>2026-04-18T08:16:56.105Z</time></trkpt><trkpt lat="43.5275117" lon="11.3796667"><ele>751.0</ele><time>2026-04-18T08:16:57.106Z</time></trkpt><trkpt lat="43.5274367" lon="11.37969"><ele>751.0</ele><time>2026-04-18T08:16:58.105Z</time></trkpt><trkpt lat="43.5273683" lon="11.379695"><ele>751.0</ele><time>2026-04-18T08:16:59.106Z</time></trkpt><trkpt lat="43.5273017" lon="11.379675"><ele>751.0</ele><time>2026-04-18T08:17:00.105Z</time></trkpt><trkpt lat="43.5272433" lon="11.37962"><ele>751.0</ele><time>2026-04-18T08:17:01.105Z</time></trkpt><trkpt lat="43.52719" lon="11.379525"><ele>751.0</ele><time>2026-04-18T08:17:02.106Z</time></trkpt><trkpt lat="43.5271467" lon="11.37939"><ele>751.0</ele><time>2026-04-18T08:17:03.105Z</time></trkpt><trkpt lat="43.5270933" lon="11.3792283"><ele>750.75</ele><time>2026-04-18T08:17:04.106Z</time></trkpt><trkpt lat="43.5270567" lon="11.3790633"><ele>750.5</ele><time>2026-04-18T08:17:05.106Z</time></trkpt><trkpt lat="43.52703" lon="11.3788967"><ele>750.25</ele><time>2026-04-18T08:17:06.106Z</time></trkpt><trkpt lat="43.5270083" lon="11.3787267"><ele>750.0</ele><time>2026-04-18T08:17:07.105Z</time></trkpt><trkpt lat="43.52698" lon="11.378565"><ele>752.75</ele><time>2026-04-18T08:17:08.105Z</time></trkpt><trkpt lat="43.5269383" lon="11.37841"><ele>755.5</ele><time>2026-04-18T08:17:09.105Z</time></trkpt><trkpt lat="43.526875" lon="11.3782583"><ele>758.25</ele><time>2026-04-18T08:17:10.105Z</time></trkpt><trkpt lat="43.526795" lon="11.3781183"><ele>761.0</ele><time>2026-04-18T08:17:11.106Z</time></trkpt><trkpt lat="43.5267383" lon="11.37798"><ele>761.0</ele><time>2026-04-18T08:17:12.105Z</time></trkpt><trkpt lat="43.5266967" lon="11.377865"><ele>761.0</ele><time>2026-04-18T08:17:13.105Z</time></trkpt><trkpt lat="43.5266767" lon="11.3777533"><ele>761.0</ele><time>2026-04-18T08:17:14.106Z</time></trkpt><trkpt lat="43.52668" lon="11.3776467"><ele>761.0</ele><time>2026-04-18T08:17:15.105Z</time></trkpt><trkpt lat="43.526705" lon="11.37755"><ele>761.0</ele><time>2026-04-18T08:17:16.106Z</time></trkpt><trkpt lat="43.5267717" lon="11.37745"><ele>761.0</ele><time>2026-04-18T08:17:17.105Z</time></trkpt><trkpt lat="43.5268667" lon="11.37734"><ele>761.0</ele><time>2026-04-18T08:17:18.106Z</time></trkpt><trkpt lat="43.526965" lon="11.3772"><ele>761.0</ele><time>2026-04-18T08:17:19.105Z</time></trkpt><trkpt lat="43.5270483" lon="11.3770517"><ele>761.0</ele><time>2026-04-18T08:17:20.106Z</time></trkpt><trkpt lat="43.5271233" lon="11.37691"><ele>761.0</ele><time>2026-04-18T08:17:21.106Z</time></trkpt><trkpt lat="43.5271967" lon="11.3768117"><ele>761.6666666666666</ele><time>2026-04-18T08:17:22.105Z</time></trkpt><trkpt lat="43.52727" lon="11.3767583"><ele>762.3333333333333</ele><time>2026-04-18T08:17:23.105Z</time></trkpt><trkpt lat="43.52732" lon="11.3766667"><ele>763.0</ele><time>2026-04-18T08:17:24.106Z</time></trkpt><trkpt lat="43.5273517" lon="11.3765683"><ele>763.6666666666666</ele><time>2026-04-18T08:17:25.105Z</time></trkpt><trkpt lat="43.5273383" lon="11.3764483"><ele>764.3333333333334</ele><time>2026-04-18T08:17:26.106Z</time></trkpt><trkpt lat="43.5273" lon="11.3763383"><ele>765.0</ele><time>2026-04-18T08:17:27.105Z</time></trkpt><trkpt lat="43.5272233" lon="11.3762183"><ele>765.0</ele><time>2026-04-18T08:17:28.105Z</time></trkpt><trkpt lat="43.52713" lon="11.3761083"><ele>765.0</ele><time>2026-04-18T08:17:29.106Z</time></trkpt><trkpt lat="43.527025" lon="11.3760017"><ele>765.0</ele><time>2026-04-18T08:17:30.105Z</time></trkpt><trkpt lat="43.5269267" lon="11.3759117"><ele>765.0</ele><time>2026-04-18T08:17:31.105Z</time></trkpt><trkpt lat="43.5268383" lon="11.3758267"><ele>763.5</ele><time>2026-04-18T08:17:32.106Z</time></trkpt><trkpt lat="43.5267667" lon="11.3757467"><ele>762.0</ele><time>2026-04-18T08:17:33.105Z</time></trkpt><trkpt lat="43.52671" lon="11.375645"><ele>760.5</ele><time>2026-04-18T08:17:34.106Z</time></trkpt><trkpt lat="43.5266783" lon="11.375545"><ele>759.0</ele><time>2026-04-18T08:17:35.106Z</time></trkpt><trkpt lat="43.526675" lon="11.3754383"><ele>757.5</ele><time>2026-04-18T08:17:36.106Z</time></trkpt><trkpt lat="43.5266933" lon="11.3753417"><ele>756.0</ele><time>2026-04-18T08:17:37.105Z</time></trkpt><trkpt lat="43.5267467" lon="11.3752383"><ele>755.5999999999999</ele><time>2026-04-18T08:17:38.105Z</time></trkpt><trkpt lat="43.5268267" lon="11.375155"><ele>755.2</ele><time>2026-04-18T08:17:39.105Z</time></trkpt><trkpt lat="43.52693" lon="11.3751133"><ele>754.8</ele><time>2026-04-18T08:17:40.106Z</time></trkpt><trkpt lat="43.527025" lon="11.3750983"><ele>754.4000000000001</ele><time>2026-04-18T08:17:41.106Z</time></trkpt><trkpt lat="43.52713" lon="11.3751067"><ele>754.0</ele><time>2026-04-18T08:17:42.105Z</time></trkpt><trkpt lat="43.5272467" lon="11.37515"><ele>753.25</ele><time>2026-04-18T08:17:43.105Z</time></trkpt><trkpt lat="43.5273683" lon="11.3752267"><ele>752.5</ele><time>2026-04-18T08:17:44.106Z</time></trkpt><trkpt lat="43.5274917" lon="11.3753083"><ele>751.75</ele><time>2026-04-18T08:17:45.105Z</time></trkpt><trkpt lat="43.5276233" lon="11.3753717"><ele>751.0</ele><time>2026-04-18T08:17:46.105Z</time></trkpt><trkpt lat="43.5277617" lon="11.3754083"><ele>751.0</ele><time>2026-04-18T08:17:47.105Z</time></trkpt><trkpt lat="43.5278767" lon="11.3754367"><ele>751.0</ele><time>2026-04-18T08:17:48.106Z</time></trkpt><trkpt lat="43.527985" lon="11.375485"><ele>751.0</ele><time>2026-04-18T08:17:49.105Z</time></trkpt><trkpt lat="43.528085" lon="11.3755433"><ele>751.0</ele><time>2026-04-18T08:17:50.106Z</time></trkpt><trkpt lat="43.52817" lon="11.3756083"><ele>751.0</ele><time>2026-04-18T08:17:51.106Z</time></trkpt><trkpt lat="43.528245" lon="11.37566"><ele>752.5999999999999</ele><time>2026-04-18T08:17:52.105Z</time></trkpt><trkpt lat="43.52832" lon="11.3756867"><ele>754.2</ele><time>2026-04-18T08:17:53.105Z</time></trkpt><trkpt lat="43.5284467" lon="11.3756267"><ele>755.8</ele><time>2026-04-18T08:17:55.105Z</time></trkpt><trkpt lat="43.5284867" lon="11.37553"><ele>757.4000000000001</ele><time>2026-04-18T08:17:56.105Z</time></trkpt><trkpt lat="43.5284867" lon="11.3754233"><ele>759.0</ele><time>2026-04-18T08:17:57.105Z</time></trkpt><trkpt lat="43.5284483" lon="11.37531"><ele>759.0</ele><time>2026-04-18T08:17:58.105Z</time></trkpt><trkpt lat="43.528385" lon="11.37518"><ele>759.0</ele><time>2026-04-18T08:17:59.105Z</time></trkpt><trkpt lat="43.52831" lon="11.37504"><ele>759.0</ele><time>2026-04-18T08:18:00.105Z</time></trkpt><trkpt lat="43.5282383" lon="11.3748983"><ele>759.0</ele><time>2026-04-18T08:18:01.105Z</time></trkpt><trkpt lat="43.5281733" lon="11.37476"><ele>760.25</ele><time>2026-04-18T08:18:02.105Z</time></trkpt><trkpt lat="43.5281267" lon="11.3746033"><ele>761.5</ele><time>2026-04-18T08:18:03.105Z</time></trkpt><trkpt lat="43.5280883" lon="11.374425"><ele>762.75</ele><time>2026-04-18T08:18:04.106Z</time></trkpt><trkpt lat="43.5280383" lon="11.37425"><ele>764.0</ele><time>2026-04-18T08:18:05.105Z</time></trkpt><trkpt lat="43.52798" lon="11.3740833"><ele>764.0</ele><time>2026-04-18T08:18:06.106Z</time></trkpt><trkpt lat="43.527925" lon="11.3739167"><ele>764.0</ele><time>2026-04-18T08:18:07.105Z</time></trkpt><trkpt lat="43.5278767" lon="11.3737467"><ele>764.0</ele><time>2026-04-18T08:18:08.105Z</time></trkpt><trkpt lat="43.52783" lon="11.373575"><ele>764.0</ele><time>2026-04-18T08:18:09.105Z</time></trkpt><trkpt lat="43.5277717" lon="11.373415"><ele>761.25</ele><time>2026-04-18T08:18:10.105Z</time></trkpt><trkpt lat="43.5277167" lon="11.373265"><ele>758.5</ele><time>2026-04-18T08:18:11.105Z</time></trkpt><trkpt lat="43.527665" lon="11.37312"><ele>755.75</ele><time>2026-04-18T08:18:12.105Z</time></trkpt><trkpt lat="43.52764" lon="11.3729517"><ele>753.0</ele><time>2026-04-18T08:18:13.105Z</time></trkpt><trkpt lat="43.5276283" lon="11.37279"><ele>753.0</ele><time>2026-04-18T08:18:14.105Z</time></trkpt><trkpt lat="43.52761" lon="11.37263"><ele>753.0</ele><time>2026-04-18T08:18:15.106Z</time></trkpt><trkpt lat="43.5275783" lon="11.3724883"><ele>753.0</ele><time>2026-04-18T08:18:16.105Z</time></trkpt><trkpt lat="43.5275167" lon="11.3723517"><ele>753.0</ele><time>2026-04-18T08:18:17.106Z</time></trkpt><trkpt lat="43.5274267" lon="11.3722267"><ele>752.75</ele><time>2026-04-18T08:18:18.105Z</time></trkpt><trkpt lat="43.52732" lon="11.3721083"><ele>752.5</ele><time>2026-04-18T08:18:19.105Z</time></trkpt><trkpt lat="43.5272133" lon="11.372005"><ele>752.25</ele><time>2026-04-18T08:18:20.105Z</time></trkpt><trkpt lat="43.52712" lon="11.371915"><ele>752.0</ele><time>2026-04-18T08:18:21.105Z</time></trkpt><trkpt lat="43.5270483" lon="11.3718317"><ele>750.5</ele><time>2026-04-18T08:18:22.106Z</time></trkpt><trkpt lat="43.5269933" lon="11.371745"><ele>749.0</ele><time>2026-04-18T08:18:23.105Z</time></trkpt><trkpt lat="43.52696" lon="11.3716517"><ele>747.5</ele><time>2026-04-18T08:18:24.105Z</time></trkpt><trkpt lat="43.5269317" lon="11.3715433"><ele>746.0</ele><time>2026-04-18T08:18:25.105Z</time></trkpt><trkpt lat="43.526955" lon="11.3714283"><ele>744.5</ele><time>2026-04-18T08:18:26.106Z</time></trkpt><trkpt lat="43.5269967" lon="11.3713083"><ele>743.0</ele><time>2026-04-18T08:18:27.105Z</time></trkpt><trkpt lat="43.5270617" lon="11.3711767"><ele>743.0</ele><time>2026-04-18T08:18:28.106Z</time></trkpt><trkpt lat="43.5271383" lon="11.3710383"><ele>743.0</ele><time>2026-04-18T08:18:29.105Z</time></trkpt><trkpt lat="43.52721" lon="11.3709183"><ele>743.0</ele><time>2026-04-18T08:18:30.105Z</time></trkpt><trkpt lat="43.5272567" lon="11.3708017"><ele>743.0</ele><time>2026-04-18T08:18:31.106Z</time></trkpt><trkpt lat="43.527285" lon="11.3706817"><ele>743.0</ele><time>2026-04-18T08:18:32.106Z</time></trkpt><trkpt lat="43.527295" lon="11.3705667"><ele>740.75</ele><time>2026-04-18T08:18:33.106Z</time></trkpt><trkpt lat="43.5272617" lon="11.37044"><ele>738.5</ele><time>2026-04-18T08:18:34.106Z</time></trkpt><trkpt lat="43.5271917" lon="11.3703033"><ele>736.25</ele><time>2026-04-18T08:18:35.105Z</time></trkpt><trkpt lat="43.5271033" lon="11.370195"><ele>734.0</ele><time>2026-04-18T08:18:36.105Z</time></trkpt><trkpt lat="43.52699" lon="11.3701183"><ele>734.0</ele><time>2026-04-18T08:18:37.105Z</time></trkpt><trkpt lat="43.5268783" lon="11.37004"><ele>734.0</ele><time>2026-04-18T08:18:38.105Z</time></trkpt><trkpt lat="43.5267833" lon="11.3699667"><ele>734.0</ele><time>2026-04-18T08:18:39.105Z</time></trkpt><trkpt lat="43.5266983" lon="11.3698833"><ele>734.0</ele><time>2026-04-18T08:18:40.106Z</time></trkpt><trkpt lat="43.5266283" lon="11.3697867"><ele>734.0</ele><time>2026-04-18T08:18:41.105Z</time></trkpt><trkpt lat="43.5265733" lon="11.3696467"><ele>732.5</ele><time>2026-04-18T08:18:42.106Z</time></trkpt><trkpt lat="43.52652" lon="11.369475"><ele>731.0</ele><time>2026-04-18T08:18:43.105Z</time></trkpt><trkpt lat="43.526475" lon="11.3692733"><ele>729.5</ele><time>2026-04-18T08:18:44.105Z</time></trkpt><trkpt lat="43.5264233" lon="11.3690817"><ele>728.0</ele><time>2026-04-18T08:18:45.105Z</time></trkpt><trkpt lat="43.5263783" lon="11.3689183"><ele>725.5</ele><time>2026-04-18T08:18:46.105Z</time></trkpt><trkpt lat="43.52631" lon="11.3687583"><ele>723.0</ele><time>2026-04-18T08:18:47.105Z</time></trkpt><trkpt lat="43.5262333" lon="11.3686067"><ele>720.5</ele><time>2026-04-18T08:18:48.105Z</time></trkpt><trkpt lat="43.5261267" lon="11.36848"><ele>718.0</ele><time>2026-04-18T08:18:49.106Z</time></trkpt><trkpt lat="43.526015" lon="11.368355"><ele>717.5</ele><time>2026-04-18T08:18:50.106Z</time></trkpt><trkpt lat="43.5259" lon="11.368245"><ele>717.0</ele><time>2026-04-18T08:18:51.106Z</time></trkpt><trkpt lat="43.5258017" lon="11.368135"><ele>716.5</ele><time>2026-04-18T08:18:52.106Z</time></trkpt><trkpt lat="43.525715" lon="11.3680417"><ele>716.0</ele><time>2026-04-18T08:18:53.105Z</time></trkpt><trkpt lat="43.52564" lon="11.3679517"><ele>715.8333333333333</ele><time>2026-04-18T08:18:54.105Z</time></trkpt><trkpt lat="43.5255767" lon="11.367865"><ele>715.6666666666666</ele><time>2026-04-18T08:18:55.105Z</time></trkpt><trkpt lat="43.5255233" lon="11.3677717"><ele>715.5</ele><time>2026-04-18T08:18:56.105Z</time></trkpt><trkpt lat="43.525495" lon="11.3676633"><ele>715.3333333333334</ele><time>2026-04-18T08:18:57.105Z</time></trkpt><trkpt lat="43.525495" lon="11.3675467"><ele>715.1666666666667</ele><time>2026-04-18T08:18:58.105Z</time></trkpt><trkpt lat="43.5255317" lon="11.367435"><ele>715.0</ele><time>2026-04-18T08:18:59.105Z</time></trkpt><trkpt lat="43.5255867" lon="11.3673417"><ele>715.0</ele><time>2026-04-18T08:19:00.105Z</time></trkpt><trkpt lat="43.5256583" lon="11.3672817"><ele>715.0</ele><time>2026-04-18T08:19:01.105Z</time></trkpt><trkpt lat="43.525745" lon="11.3672567"><ele>715.0</ele><time>2026-04-18T08:19:02.105Z</time></trkpt><trkpt lat="43.5258383" lon="11.3672667"><ele>715.0</ele><time>2026-04-18T08:19:03.105Z</time></trkpt><trkpt lat="43.5259583" lon="11.36734"><ele>715.0</ele><time>2026-04-18T08:19:04.106Z</time></trkpt><trkpt lat="43.526075" lon="11.3674583"><ele>715.0</ele><time>2026-04-18T08:19:05.105Z</time></trkpt><trkpt lat="43.5261933" lon="11.3675917"><ele>715.0</ele><time>2026-04-18T08:19:06.105Z</time></trkpt><trkpt lat="43.5263017" lon="11.3677167"><ele>715.0</ele><time>2026-04-18T08:19:07.105Z</time></trkpt><trkpt lat="43.5263983" lon="11.3678167"><ele>715.0</ele><time>2026-04-18T08:19:08.106Z</time></trkpt><trkpt lat="43.526475" lon="11.3678867"><ele>714.1666666666667</ele><time>2026-04-18T08:19:09.105Z</time></trkpt><trkpt lat="43.526545" lon="11.3679433"><ele>713.3333333333334</ele><time>2026-04-18T08:19:10.106Z</time></trkpt><trkpt lat="43.526625" lon="11.3679633"><ele>712.5</ele><time>2026-04-18T08:19:11.105Z</time></trkpt><trkpt lat="43.5267067" lon="11.3679533"><ele>711.6666666666666</ele><time>2026-04-18T08:19:12.105Z</time></trkpt><trkpt lat="43.5268" lon="11.3678967"><ele>710.8333333333333</ele><time>2026-04-18T08:19:13.105Z</time></trkpt><trkpt lat="43.5268783" lon="11.3678117"><ele>710.0</ele><time>2026-04-18T08:19:14.106Z</time></trkpt><trkpt lat="43.5269367" lon="11.3677033"><ele>710.0</ele><time>2026-04-18T08:19:15.105Z</time></trkpt><trkpt lat="43.5269533" lon="11.3675767"><ele>710.0</ele><time>2026-04-18T08:19:16.106Z</time></trkpt><trkpt lat="43.52694" lon="11.3674567"><ele>710.0</ele><time>2026-04-18T08:19:17.106Z</time></trkpt><trkpt lat="43.5268933" lon="11.367315"><ele>710.0</ele><time>2026-04-18T08:19:18.105Z</time></trkpt><trkpt lat="43.52683" lon="11.367175"><ele>710.0</ele><time>2026-04-18T08:19:19.106Z</time></trkpt><trkpt lat="43.5267417" lon="11.3670333"><ele>709.5</ele><time>2026-04-18T08:19:20.105Z</time></trkpt><trkpt lat="43.52665" lon="11.36687"><ele>709.0</ele><time>2026-04-18T08:19:21.106Z</time></trkpt><trkpt lat="43.5265667" lon="11.3667133"><ele>708.5</ele><time>2026-04-18T08:19:22.105Z</time></trkpt><trkpt lat="43.5264783" lon="11.3665483"><ele>708.0</ele><time>2026-04-18T08:19:23.106Z</time></trkpt><trkpt lat="43.5264133" lon="11.3664067"><ele>707.25</ele><time>2026-04-18T08:19:24.105Z</time></trkpt><trkpt lat="43.52638" lon="11.36627"><ele>706.5</ele><time>2026-04-18T08:19:25.104Z</time></trkpt><trkpt lat="43.526375" lon="11.3661283"><ele>705.75</ele><time>2026-04-18T08:19:26.104Z</time></trkpt><trkpt lat="43.5263933" lon="11.3659767"><ele>705.0</ele><time>2026-04-18T08:19:27.104Z</time></trkpt><trkpt lat="43.5264333" lon="11.3658033"><ele>705.0</ele><time>2026-04-18T08:19:28.104Z</time></trkpt><trkpt lat="43.5264817" lon="11.3656133"><ele>705.0</ele><time>2026-04-18T08:19:29.105Z</time></trkpt><trkpt lat="43.526535" lon="11.3654383"><ele>705.0</ele><time>2026-04-18T08:19:30.104Z</time></trkpt><trkpt lat="43.526575" lon="11.3652817"><ele>705.0</ele><time>2026-04-18T08:19:31.104Z</time></trkpt><trkpt lat="43.5265933" lon="11.3651417"><ele>704.2</ele><time>2026-04-18T08:19:32.104Z</time></trkpt><trkpt lat="43.526595" lon="11.3650083"><ele>703.4</ele><time>2026-04-18T08:19:33.104Z</time></trkpt><trkpt lat="43.52657" lon="11.364875"><ele>702.5999999999999</ele><time>2026-04-18T08:19:34.104Z</time></trkpt><trkpt lat="43.52653" lon="11.364745"><ele>701.8</ele><time>2026-04-18T08:19:35.105Z</time></trkpt><trkpt lat="43.5264617" lon="11.3645967"><ele>701.0</ele><time>2026-04-18T08:19:36.104Z</time></trkpt><trkpt lat="43.5263633" lon="11.3644433"><ele>699.0</ele><time>2026-04-18T08:19:37.105Z</time></trkpt><trkpt lat="43.526265" lon="11.3642767"><ele>697.0</ele><time>2026-04-18T08:19:38.104Z</time></trkpt><trkpt lat="43.5261817" lon="11.3641217"><ele>695.0</ele><time>2026-04-18T08:19:39.105Z</time></trkpt><trkpt lat="43.5261117" lon="11.3639517"><ele>693.0</ele><time>2026-04-18T08:19:40.104Z</time></trkpt><trkpt lat="43.526065" lon="11.36376"><ele>693.0</ele><time>2026-04-18T08:19:41.105Z</time></trkpt><trkpt lat="43.52603" lon="11.36354"><ele>693.0</ele><time>2026-04-18T08:19:42.104Z</time></trkpt><trkpt lat="43.52599" lon="11.3632783"><ele>693.0</ele><time>2026-04-18T08:19:43.105Z</time></trkpt><trkpt lat="43.5259583" lon="11.3629917"><ele>694.0</ele><time>2026-04-18T08:19:44.104Z</time></trkpt><trkpt lat="43.5259217" lon="11.36273"><ele>695.0</ele><time>2026-04-18T08:19:45.105Z</time></trkpt><trkpt lat="43.5259017" lon="11.36248"><ele>696.0</ele><time>2026-04-18T08:19:46.104Z</time></trkpt><trkpt lat="43.52588" lon="11.3622383"><ele>695.0</ele><time>2026-04-18T08:19:47.105Z</time></trkpt><trkpt lat="43.5258567" lon="11.362005"><ele>694.0</ele><time>2026-04-18T08:19:48.105Z</time></trkpt><trkpt lat="43.5258283" lon="11.3617917"><ele>693.0</ele><time>2026-04-18T08:19:49.104Z</time></trkpt><trkpt lat="43.5258096" lon="11.3615869"><ele>693.0</ele><time>2026-04-18T08:19:50.104Z</time></trkpt><trkpt lat="43.5257956" lon="11.3613884"><ele>693.0</ele><time>2026-04-18T08:19:51.104Z</time></trkpt><trkpt lat="43.5257881" lon="11.3611967"><ele>693.0</ele><time>2026-04-18T08:19:52.104Z</time></trkpt><trkpt lat="43.5257887" lon="11.361029"><ele>693.0</ele><time>2026-04-18T08:19:53.104Z</time></trkpt><trkpt lat="43.5258167" lon="11.360875"><ele>692.25</ele><time>2026-04-18T08:19:54.105Z</time></trkpt><trkpt lat="43.52586" lon="11.3607167"><ele>691.5</ele><time>2026-04-18T08:19:55.104Z</time></trkpt><trkpt lat="43.5259383" lon="11.3605533"><ele>690.75</ele><time>2026-04-18T08:19:56.104Z</time></trkpt><trkpt lat="43.52604" lon="11.3603883"><ele>690.0</ele><time>2026-04-18T08:19:57.104Z</time></trkpt><trkpt lat="43.5261783" lon="11.3602083"><ele>688.3333333333334</ele><time>2026-04-18T08:19:58.104Z</time></trkpt><trkpt lat="43.5263117" lon="11.3600033"><ele>686.6666666666667</ele><time>2026-04-18T08:19:59.105Z</time></trkpt><trkpt lat="43.5264383" lon="11.3598133"><ele>685.0</ele><time>2026-04-18T08:20:00.104Z</time></trkpt><trkpt lat="43.5265717" lon="11.3596333"><ele>688.6666666666667</ele><time>2026-04-18T08:20:01.104Z</time></trkpt><trkpt lat="43.526705" lon="11.3594633"><ele>692.3333333333334</ele><time>2026-04-18T08:20:02.105Z</time></trkpt><trkpt lat="43.5268483" lon="11.3593117"><ele>696.0</ele><time>2026-04-18T08:20:03.104Z</time></trkpt><trkpt lat="43.5269767" lon="11.3591867"><ele>691.5</ele><time>2026-04-18T08:20:04.104Z</time></trkpt><trkpt lat="43.5270967" lon="11.3590833"><ele>687.0</ele><time>2026-04-18T08:20:05.104Z</time></trkpt><trkpt lat="43.5272117" lon="11.3589783"><ele>682.5</ele><time>2026-04-18T08:20:06.104Z</time></trkpt><trkpt lat="43.527315" lon="11.3588433"><ele>678.0</ele><time>2026-04-18T08:20:07.104Z</time></trkpt><trkpt lat="43.5274067" lon="11.358705"><ele>678.0</ele><time>2026-04-18T08:20:08.104Z</time></trkpt><trkpt lat="43.527475" lon="11.35857"><ele>678.0</ele><time>2026-04-18T08:20:09.105Z</time></trkpt><trkpt lat="43.5275233" lon="11.35844"><ele>678.0</ele><time>2026-04-18T08:20:10.105Z</time></trkpt><trkpt lat="43.5275633" lon="11.3583033"><ele>678.0</ele><time>2026-04-18T08:20:11.104Z</time></trkpt><trkpt lat="43.5275733" lon="11.3581583"><ele>678.0</ele><time>2026-04-18T08:20:12.104Z</time></trkpt><trkpt lat="43.5275667" lon="11.35801"><ele>677.8</ele><time>2026-04-18T08:20:13.104Z</time></trkpt><trkpt lat="43.52755" lon="11.3578617"><ele>677.5999999999999</ele><time>2026-04-18T08:20:14.104Z</time></trkpt><trkpt lat="43.5275367" lon="11.3577283"><ele>677.4000000000001</ele><time>2026-04-18T08:20:15.104Z</time></trkpt><trkpt lat="43.527525" lon="11.357605"><ele>677.2</ele><time>2026-04-18T08:20:16.104Z</time></trkpt><trkpt lat="43.5275233" lon="11.3574817"><ele>677.0</ele><time>2026-04-18T08:20:17.105Z</time></trkpt><trkpt lat="43.5275417" lon="11.3573617"><ele>677.0</ele><time>2026-04-18T08:20:18.104Z</time></trkpt><trkpt lat="43.5275717" lon="11.3572417"><ele>677.0</ele><time>2026-04-18T08:20:19.104Z</time></trkpt><trkpt lat="43.5276167" lon="11.3571183"><ele>677.0</ele><time>2026-04-18T08:20:20.105Z</time></trkpt><trkpt lat="43.527675" lon="11.3569983"><ele>677.0</ele><time>2026-04-18T08:20:21.105Z</time></trkpt><trkpt lat="43.5277367" lon="11.3568717"><ele>677.0</ele><time>2026-04-18T08:20:22.104Z</time></trkpt><trkpt lat="43.5278" lon="11.3567367"><ele>676.5</ele><time>2026-04-18T08:20:23.105Z</time></trkpt><trkpt lat="43.5278667" lon="11.3565967"><ele>676.0</ele><time>2026-04-18T08:20:24.105Z</time></trkpt><trkpt lat="43.52793" lon="11.3564567"><ele>675.5</ele><time>2026-04-18T08:20:25.105Z</time></trkpt><trkpt lat="43.5279967" lon="11.3563117"><ele>675.0</ele><time>2026-04-18T08:20:26.104Z</time></trkpt><trkpt lat="43.5280533" lon="11.3561733"><ele>672.8</ele><time>2026-04-18T08:20:27.104Z</time></trkpt><trkpt lat="43.528115" lon="11.3560383"><ele>670.6</ele><time>2026-04-18T08:20:28.104Z</time></trkpt><trkpt lat="43.528175" lon="11.35592"><ele>668.4000000000001</ele><time>2026-04-18T08:20:29.104Z</time></trkpt><trkpt lat="43.5282317" lon="11.3558217"><ele>666.2</ele><time>2026-04-18T08:20:30.104Z</time></trkpt><trkpt lat="43.528285" lon="11.355745"><ele>664.0</ele><time>2026-04-18T08:20:31.104Z</time></trkpt><trkpt lat="43.52835" lon="11.35568"><ele>664.0</ele><time>2026-04-18T08:20:32.105Z</time></trkpt><trkpt lat="43.5284333" lon="11.35562"><ele>664.0</ele><time>2026-04-18T08:20:33.105Z</time></trkpt><trkpt lat="43.5285133" lon="11.3555767"><ele>664.0</ele><time>2026-04-18T08:20:34.105Z</time></trkpt><trkpt lat="43.5285933" lon="11.355525"><ele>664.0</ele><time>2026-04-18T08:20:35.104Z</time></trkpt><trkpt lat="43.528665" lon="11.3554783"><ele>664.0</ele><time>2026-04-18T08:20:36.105Z</time></trkpt><trkpt lat="43.52873" lon="11.3554433"><ele>664.0</ele><time>2026-04-18T08:20:37.105Z</time></trkpt><trkpt lat="43.5288267" lon="11.355385"><ele>662.6666666666667</ele><time>2026-04-18T08:20:39.105Z</time></trkpt><trkpt lat="43.5289" lon="11.3553467"><ele>661.3333333333334</ele><time>2026-04-18T08:20:41.105Z</time></trkpt><trkpt lat="43.52897" lon="11.3553217"><ele>660.0</ele><time>2026-04-18T08:20:43.104Z</time></trkpt><trkpt lat="43.52904" lon="11.35532"><ele>658.6666666666666</ele><time>2026-04-18T08:20:46.104Z</time></trkpt><trkpt lat="43.5291067" lon="11.3553483"><ele>657.3333333333333</ele><time>2026-04-18T08:21:43.104Z</time></trkpt><trkpt lat="43.5292233" lon="11.3553833"><ele>656.0</ele><time>2026-04-18T08:21:45.105Z</time></trkpt><trkpt lat="43.5293233" lon="11.3554117"><ele>656.0</ele><time>2026-04-18T08:21:46.104Z</time></trkpt><trkpt lat="43.529455" lon="11.3554433"><ele>656.0</ele><time>2026-04-18T08:21:47.105Z</time></trkpt><trkpt lat="43.5296" lon="11.3554817"><ele>656.0</ele><time>2026-04-18T08:21:48.105Z</time></trkpt><trkpt lat="43.5297283" lon="11.3555217"><ele>656.0</ele><time>2026-04-18T08:21:49.105Z</time></trkpt><trkpt lat="43.5298617" lon="11.355565"><ele>658.5</ele><time>2026-04-18T08:21:50.104Z</time></trkpt><trkpt lat="43.5299783" lon="11.3556167"><ele>661.0</ele><time>2026-04-18T08:21:51.104Z</time></trkpt><trkpt lat="43.5300883" lon="11.3556833"><ele>663.5</ele><time>2026-04-18T08:21:52.104Z</time></trkpt><trkpt lat="43.5301933" lon="11.35575"><ele>666.0</ele><time>2026-04-18T08:21:53.104Z</time></trkpt><trkpt lat="43.5303" lon="11.3558117"><ele>665.5999999999999</ele><time>2026-04-18T08:21:54.104Z</time></trkpt><trkpt lat="43.5303967" lon="11.3558417"><ele>665.2</ele><time>2026-04-18T08:21:55.104Z</time></trkpt><trkpt lat="43.53048" lon="11.35586"><ele>664.8</ele><time>2026-04-18T08:21:56.105Z</time></trkpt><trkpt lat="43.5305667" lon="11.3558567"><ele>664.4000000000001</ele><time>2026-04-18T08:21:57.105Z</time></trkpt><trkpt lat="43.5306517" lon="11.3558267"><ele>664.0</ele><time>2026-04-18T08:21:58.104Z</time></trkpt><trkpt lat="43.530735" lon="11.3557667"><ele>664.0</ele><time>2026-04-18T08:21:59.104Z</time></trkpt><trkpt lat="43.5308233" lon="11.3556583"><ele>664.0</ele><time>2026-04-18T08:22:00.105Z</time></trkpt><trkpt lat="43.5309067" lon="11.3555267"><ele>664.0</ele><time>2026-04-18T08:22:01.104Z</time></trkpt><trkpt lat="43.530995" lon="11.355345"><ele>664.0</ele><time>2026-04-18T08:22:02.105Z</time></trkpt><trkpt lat="43.53108" lon="11.3551333"><ele>663.3333333333334</ele><time>2026-04-18T08:22:03.105Z</time></trkpt><trkpt lat="43.5311617" lon="11.354905"><ele>662.6666666666666</ele><time>2026-04-18T08:22:04.104Z</time></trkpt><trkpt lat="43.5312333" lon="11.3546717"><ele>662.0</ele><time>2026-04-18T08:22:05.105Z</time></trkpt><trkpt lat="43.5312933" lon="11.3544583"><ele>662.0</ele><time>2026-04-18T08:22:06.104Z</time></trkpt><trkpt lat="43.5313467" lon="11.354265"><ele>662.0</ele><time>2026-04-18T08:22:07.104Z</time></trkpt><trkpt lat="43.5313917" lon="11.3540667"><ele>662.0</ele><time>2026-04-18T08:22:08.105Z</time></trkpt><trkpt lat="43.5314333" lon="11.3538667"><ele>663.0</ele><time>2026-04-18T08:22:09.104Z</time></trkpt><trkpt lat="43.5314583" lon="11.3536583"><ele>664.0</ele><time>2026-04-18T08:22:10.104Z</time></trkpt><trkpt lat="43.5314783" lon="11.3534467"><ele>665.0</ele><time>2026-04-18T08:22:11.105Z</time></trkpt><trkpt lat="43.5315017" lon="11.35323"><ele>666.0</ele><time>2026-04-18T08:22:12.104Z</time></trkpt><trkpt lat="43.5315217" lon="11.3530067"><ele>667.0</ele><time>2026-04-18T08:22:13.105Z</time></trkpt><trkpt lat="43.5315467" lon="11.3527833"><ele>668.0</ele><time>2026-04-18T08:22:14.104Z</time></trkpt><trkpt lat="43.53158" lon="11.3525483"><ele>668.0</ele><time>2026-04-18T08:22:15.104Z</time></trkpt><trkpt lat="43.5316133" lon="11.3523067"><ele>668.0</ele><time>2026-04-18T08:22:16.105Z</time></trkpt><trkpt lat="43.5316433" lon="11.35206"><ele>668.0</ele><time>2026-04-18T08:22:17.104Z</time></trkpt><trkpt lat="43.5316733" lon="11.3518217"><ele>667.6666666666666</ele><time>2026-04-18T08:22:18.105Z</time></trkpt><trkpt lat="43.5317033" lon="11.3515917"><ele>667.3333333333334</ele><time>2026-04-18T08:22:19.104Z</time></trkpt><trkpt lat="43.531735" lon="11.351375"><ele>667.0</ele><time>2026-04-18T08:22:20.104Z</time></trkpt><trkpt lat="43.5317517" lon="11.3511567"><ele>665.75</ele><time>2026-04-18T08:22:21.104Z</time></trkpt><trkpt lat="43.5317667" lon="11.35094"><ele>664.5</ele><time>2026-04-18T08:22:22.104Z</time></trkpt><trkpt lat="43.5317983" lon="11.3507467"><ele>663.25</ele><time>2026-04-18T08:22:23.104Z</time></trkpt><trkpt lat="43.5318483" lon="11.3505583"><ele>662.0</ele><time>2026-04-18T08:22:24.104Z</time></trkpt><trkpt lat="43.5319167" lon="11.3503883"><ele>663.0</ele><time>2026-04-18T08:22:25.104Z</time></trkpt><trkpt lat="43.53199" lon="11.35024"><ele>664.0</ele><time>2026-04-18T08:22:26.105Z</time></trkpt><trkpt lat="43.5320717" lon="11.350115"><ele>665.0</ele><time>2026-04-18T08:22:27.104Z</time></trkpt><trkpt lat="43.5321667" lon="11.35"><ele>666.0</ele><time>2026-04-18T08:22:28.105Z</time></trkpt><trkpt lat="43.53228" lon="11.34988"><ele>666.0</ele><time>2026-04-18T08:22:29.105Z</time></trkpt><trkpt lat="43.5324267" lon="11.349755"><ele>666.0</ele><time>2026-04-18T08:22:30.104Z</time></trkpt><trkpt lat="43.5325917" lon="11.3496317"><ele>666.0</ele><time>2026-04-18T08:22:31.104Z</time></trkpt><trkpt lat="43.5327767" lon="11.3494833"><ele>662.5</ele><time>2026-04-18T08:22:32.105Z</time></trkpt><trkpt lat="43.5329683" lon="11.3493233"><ele>659.0</ele><time>2026-04-18T08:22:33.104Z</time></trkpt><trkpt lat="43.5331733" lon="11.3491517"><ele>659.0</ele><time>2026-04-18T08:22:34.104Z</time></trkpt><trkpt lat="43.5333833" lon="11.348985"><ele>659.0</ele><time>2026-04-18T08:22:35.104Z</time></trkpt><trkpt lat="43.5335783" lon="11.3488267"><ele>656.6666666666666</ele><time>2026-04-18T08:22:36.104Z</time></trkpt><trkpt lat="43.53376" lon="11.3486767"><ele>654.3333333333334</ele><time>2026-04-18T08:22:37.104Z</time></trkpt><trkpt lat="43.533935" lon="11.3485217"><ele>652.0</ele><time>2026-04-18T08:22:38.104Z</time></trkpt><trkpt lat="43.5341167" lon="11.3483683"><ele>652.0</ele><time>2026-04-18T08:22:39.104Z</time></trkpt><trkpt lat="43.534295" lon="11.3482183"><ele>652.0</ele><time>2026-04-18T08:22:40.104Z</time></trkpt><trkpt lat="43.5344568" lon="11.3480768"><ele>652.0</ele><time>2026-04-18T08:22:41.104Z</time></trkpt><trkpt lat="43.5346043" lon="11.3479563"><ele>652.75</ele><time>2026-04-18T08:22:42.104Z</time></trkpt><trkpt lat="43.5347388" lon="11.3478437"><ele>653.5</ele><time>2026-04-18T08:22:43.105Z</time></trkpt><trkpt lat="43.5348608" lon="11.3477463"><ele>654.25</ele><time>2026-04-18T08:22:44.105Z</time></trkpt><trkpt lat="43.5349784" lon="11.3476513"><ele>655.0</ele><time>2026-04-18T08:22:45.104Z</time></trkpt><trkpt lat="43.5350907" lon="11.3475524"><ele>655.0</ele><time>2026-04-18T08:22:46.105Z</time></trkpt><trkpt lat="43.5352068" lon="11.347449"><ele>655.0</ele><time>2026-04-18T08:22:47.105Z</time></trkpt><trkpt lat="43.5353226" lon="11.3473435"><ele>655.0</ele><time>2026-04-18T08:22:48.104Z</time></trkpt><trkpt lat="43.5354362" lon="11.3472382"><ele>655.0</ele><time>2026-04-18T08:22:49.104Z</time></trkpt><trkpt lat="43.5355499" lon="11.3471408"><ele>653.4</ele><time>2026-04-18T08:22:50.105Z</time></trkpt><trkpt lat="43.5356567" lon="11.347045"><ele>651.8</ele><time>2026-04-18T08:22:51.104Z</time></trkpt><trkpt lat="43.5357483" lon="11.3469583"><ele>650.2</ele><time>2026-04-18T08:22:52.104Z</time></trkpt><trkpt lat="43.535835" lon="11.3468767"><ele>648.6</ele><time>2026-04-18T08:22:53.104Z</time></trkpt><trkpt lat="43.535905" lon="11.3467817"><ele>647.0</ele><time>2026-04-18T08:22:54.104Z</time></trkpt><trkpt lat="43.535965" lon="11.346665"><ele>647.0</ele><time>2026-04-18T08:22:55.105Z</time></trkpt><trkpt lat="43.5360267" lon="11.3465033"><ele>647.0</ele><time>2026-04-18T08:22:56.104Z</time></trkpt><trkpt lat="43.5361017" lon="11.3462817"><ele>647.0</ele><time>2026-04-18T08:22:57.104Z</time></trkpt><trkpt lat="43.5361767" lon="11.34604"><ele>644.0</ele><time>2026-04-18T08:22:58.104Z</time></trkpt><trkpt lat="43.5362583" lon="11.34579"><ele>641.0</ele><time>2026-04-18T08:22:59.105Z</time></trkpt><trkpt lat="43.5363283" lon="11.345555"><ele>638.0</ele><time>2026-04-18T08:23:00.104Z</time></trkpt><trkpt lat="43.53639" lon="11.345335"><ele>638.0</ele><time>2026-04-18T08:23:01.104Z</time></trkpt><trkpt lat="43.5364667" lon="11.3451283"><ele>638.0</ele><time>2026-04-18T08:23:02.104Z</time></trkpt><trkpt lat="43.5365233" lon="11.3449317"><ele>638.0</ele><time>2026-04-18T08:23:03.104Z</time></trkpt><trkpt lat="43.5365867" lon="11.3447483"><ele>636.75</ele><time>2026-04-18T08:23:04.104Z</time></trkpt><trkpt lat="43.5366433" lon="11.344575"><ele>635.5</ele><time>2026-04-18T08:23:05.104Z</time></trkpt><trkpt lat="43.5366967" lon="11.344405"><ele>634.25</ele><time>2026-04-18T08:23:06.104Z</time></trkpt><trkpt lat="43.5367417" lon="11.3442467"><ele>633.0</ele><time>2026-04-18T08:23:07.104Z</time></trkpt><trkpt lat="43.5367883" lon="11.3441017"><ele>633.0</ele><time>2026-04-18T08:23:08.105Z</time></trkpt><trkpt lat="43.5368283" lon="11.343955"><ele>633.0</ele><time>2026-04-18T08:23:09.105Z</time></trkpt><trkpt lat="43.5368767" lon="11.343805"><ele>633.0</ele><time>2026-04-18T08:23:10.104Z</time></trkpt><trkpt lat="43.53692" lon="11.3436633"><ele>633.0</ele><time>2026-04-18T08:23:11.104Z</time></trkpt><trkpt lat="43.53696" lon="11.3435217"><ele>631.4</ele><time>2026-04-18T08:23:12.105Z</time></trkpt><trkpt lat="43.5369867" lon="11.3433967"><ele>629.8</ele><time>2026-04-18T08:23:13.105Z</time></trkpt><trkpt lat="43.537" lon="11.3432617"><ele>628.2</ele><time>2026-04-18T08:23:14.105Z</time></trkpt><trkpt lat="43.5370017" lon="11.3431017"><ele>626.6</ele><time>2026-04-18T08:23:15.104Z</time></trkpt><trkpt lat="43.5369933" lon="11.3429233"><ele>625.0</ele><time>2026-04-18T08:23:16.104Z</time></trkpt><trkpt lat="43.5369833" lon="11.342755"><ele>622.4</ele><time>2026-04-18T08:23:17.104Z</time></trkpt><trkpt lat="43.53698" lon="11.3425967"><ele>619.8</ele><time>2026-04-18T08:23:18.104Z</time></trkpt><trkpt lat="43.5369783" lon="11.34244"><ele>617.2</ele><time>2026-04-18T08:23:19.104Z</time></trkpt><trkpt lat="43.5369817" lon="11.3422867"><ele>614.6</ele><time>2026-04-18T08:23:20.104Z</time></trkpt><trkpt lat="43.5369817" lon="11.3421433"><ele>612.0</ele><time>2026-04-18T08:23:21.104Z</time></trkpt><trkpt lat="43.5369783" lon="11.3420033"><ele>611.8333333333334</ele><time>2026-04-18T08:23:22.105Z</time></trkpt><trkpt lat="43.5369717" lon="11.34188"><ele>611.6666666666666</ele><time>2026-04-18T08:23:23.104Z</time></trkpt><trkpt lat="43.5369667" lon="11.3417617"><ele>611.5</ele><time>2026-04-18T08:23:24.104Z</time></trkpt><trkpt lat="43.5369633" lon="11.3416483"><ele>611.3333333333333</ele><time>2026-04-18T08:23:25.104Z</time></trkpt><trkpt lat="43.53696" lon="11.34155"><ele>611.1666666666666</ele><time>2026-04-18T08:23:26.105Z</time></trkpt><trkpt lat="43.53695" lon="11.3414617"><ele>611.0</ele><time>2026-04-18T08:23:27.105Z</time></trkpt><trkpt lat="43.5368933" lon="11.3413217"><ele>611.0</ele><time>2026-04-18T08:23:29.105Z</time></trkpt><trkpt lat="43.5368383" lon="11.3412583"><ele>611.0</ele><time>2026-04-18T08:23:30.104Z</time></trkpt><trkpt lat="43.536765" lon="11.3412083"><ele>611.0</ele><time>2026-04-18T08:23:31.105Z</time></trkpt><trkpt lat="43.5366817" lon="11.3411717"><ele>611.0</ele><time>2026-04-18T08:23:32.104Z</time></trkpt><trkpt lat="43.5365967" lon="11.3411283"><ele>611.0</ele><time>2026-04-18T08:23:33.104Z</time></trkpt><trkpt lat="43.5365083" lon="11.3410783"><ele>611.0</ele><time>2026-04-18T08:23:34.105Z</time></trkpt><trkpt lat="43.5364233" lon="11.3410117"><ele>611.0</ele><time>2026-04-18T08:23:35.104Z</time></trkpt><trkpt lat="43.5363383" lon="11.3409333"><ele>611.0</ele><time>2026-04-18T08:23:36.104Z</time></trkpt><trkpt lat="43.5362483" lon="11.3408583"><ele>611.0</ele><time>2026-04-18T08:23:37.104Z</time></trkpt><trkpt lat="43.536155" lon="11.340775"><ele>611.0</ele><time>2026-04-18T08:23:38.104Z</time></trkpt><trkpt lat="43.5360517" lon="11.3407033"><ele>611.0</ele><time>2026-04-18T08:23:39.105Z</time></trkpt><trkpt lat="43.535945" lon="11.34064"><ele>609.5</ele><time>2026-04-18T08:23:40.104Z</time></trkpt><trkpt lat="43.5358417" lon="11.3405683"><ele>608.0</ele><time>2026-04-18T08:23:41.104Z</time></trkpt><trkpt lat="43.5357317" lon="11.3405"><ele>606.5</ele><time>2026-04-18T08:23:42.104Z</time></trkpt><trkpt lat="43.5356317" lon="11.3404217"><ele>605.0</ele><time>2026-04-18T08:23:43.104Z</time></trkpt><trkpt lat="43.5355417" lon="11.3403283"><ele>605.0</ele><time>2026-04-18T08:23:44.105Z</time></trkpt><trkpt lat="43.53545" lon="11.340245"><ele>605.0</ele><time>2026-04-18T08:23:45.104Z</time></trkpt><trkpt lat="43.53536" lon="11.3401633"><ele>605.0</ele><time>2026-04-18T08:23:46.104Z</time></trkpt><trkpt lat="43.5352717" lon="11.3400733"><ele>605.0</ele><time>2026-04-18T08:23:47.103Z</time></trkpt><trkpt lat="43.5351933" lon="11.3399817"><ele>605.0</ele><time>2026-04-18T08:23:48.103Z</time></trkpt><trkpt lat="43.5351217" lon="11.3398733"><ele>599.75</ele><time>2026-04-18T08:23:49.103Z</time></trkpt><trkpt lat="43.5350483" lon="11.3397417"><ele>594.5</ele><time>2026-04-18T08:23:50.103Z</time></trkpt><trkpt lat="43.5349819" lon="11.3396031"><ele>589.25</ele><time>2026-04-18T08:23:51.103Z</time></trkpt><trkpt lat="43.5349167" lon="11.3394617"><ele>584.0</ele><time>2026-04-18T08:23:52.104Z</time></trkpt><trkpt lat="43.5348647" lon="11.339324"><ele>584.0</ele><time>2026-04-18T08:23:53.104Z</time></trkpt><trkpt lat="43.5348129" lon="11.3391929"><ele>584.0</ele><time>2026-04-18T08:23:54.104Z</time></trkpt><trkpt lat="43.5347564" lon="11.3390617"><ele>584.0</ele><time>2026-04-18T08:23:55.104Z</time></trkpt><trkpt lat="43.5347039" lon="11.3389371"><ele>584.0</ele><time>2026-04-18T08:23:56.103Z</time></trkpt><trkpt lat="43.5346455" lon="11.338812"><ele>584.0</ele><time>2026-04-18T08:23:57.104Z</time></trkpt><trkpt lat="43.5345902" lon="11.3386944"><ele>578.4</ele><time>2026-04-18T08:23:58.103Z</time></trkpt><trkpt lat="43.5345336" lon="11.3385892"><ele>572.8</ele><time>2026-04-18T08:23:59.104Z</time></trkpt><trkpt lat="43.5344779" lon="11.338492"><ele>567.2</ele><time>2026-04-18T08:24:00.104Z</time></trkpt><trkpt lat="43.5344271" lon="11.3384036"><ele>561.6</ele><time>2026-04-18T08:24:01.104Z</time></trkpt><trkpt lat="43.5343814" lon="11.3383273"><ele>556.0</ele><time>2026-04-18T08:24:02.103Z</time></trkpt><trkpt lat="43.5343189" lon="11.3381999"><ele>556.0</ele><time>2026-04-18T08:24:04.103Z</time></trkpt><trkpt lat="43.5343086" lon="11.338062"><ele>556.0</ele><time>2026-04-18T08:24:06.104Z</time></trkpt><trkpt lat="43.5343541" lon="11.3379097"><ele>556.0</ele><time>2026-04-18T08:24:08.104Z</time></trkpt><trkpt lat="43.5344013" lon="11.337837"><ele>556.0</ele><time>2026-04-18T08:24:09.104Z</time></trkpt><trkpt lat="43.5344574" lon="11.3377661"><ele>556.0</ele><time>2026-04-18T08:24:10.104Z</time></trkpt><trkpt lat="43.5345153" lon="11.3377069"><ele>556.0</ele><time>2026-04-18T08:24:11.103Z</time></trkpt><trkpt lat="43.5345814" lon="11.3376517"><ele>556.5</ele><time>2026-04-18T08:24:12.103Z</time></trkpt><trkpt lat="43.5346534" lon="11.3375931"><ele>557.0</ele><time>2026-04-18T08:24:13.103Z</time></trkpt><trkpt lat="43.534726" lon="11.3375295"><ele>557.5</ele><time>2026-04-18T08:24:14.103Z</time></trkpt><trkpt lat="43.5347996" lon="11.337464"><ele>558.0</ele><time>2026-04-18T08:24:15.104Z</time></trkpt><trkpt lat="43.5348777" lon="11.3373986"><ele>558.5</ele><time>2026-04-18T08:24:16.103Z</time></trkpt><trkpt lat="43.534962" lon="11.3373343"><ele>559.0</ele><time>2026-04-18T08:24:17.104Z</time></trkpt><trkpt lat="43.5350466" lon="11.337272"><ele>556.6666666666667</ele><time>2026-04-18T08:24:18.104Z</time></trkpt><trkpt lat="43.5351289" lon="11.3372117"><ele>554.3333333333334</ele><time>2026-04-18T08:24:19.104Z</time></trkpt><trkpt lat="43.5352078" lon="11.3371519"><ele>552.0</ele><time>2026-04-18T08:24:20.103Z</time></trkpt><trkpt lat="43.5352846" lon="11.3370835"><ele>549.6666666666666</ele><time>2026-04-18T08:24:21.103Z</time></trkpt><trkpt lat="43.5353564" lon="11.3370148"><ele>547.3333333333333</ele><time>2026-04-18T08:24:22.103Z</time></trkpt><trkpt lat="43.5354288" lon="11.3369502"><ele>545.0</ele><time>2026-04-18T08:24:23.104Z</time></trkpt><trkpt lat="43.5355" lon="11.33689"><ele>545.0</ele><time>2026-04-18T08:24:24.103Z</time></trkpt><trkpt lat="43.535565" lon="11.3368317"><ele>545.0</ele><time>2026-04-18T08:24:25.103Z</time></trkpt><trkpt lat="43.53563" lon="11.3367717"><ele>545.0</ele><time>2026-04-18T08:24:26.104Z</time></trkpt><trkpt lat="43.5356833" lon="11.33671"><ele>545.0</ele><time>2026-04-18T08:24:27.104Z</time></trkpt><trkpt lat="43.5357167" lon="11.3366317"><ele>545.0</ele><time>2026-04-18T08:24:28.103Z</time></trkpt><trkpt lat="43.5357383" lon="11.33654"><ele>545.0</ele><time>2026-04-18T08:24:29.104Z</time></trkpt><trkpt lat="43.5357417" lon="11.33644"><ele>545.0</ele><time>2026-04-18T08:24:30.104Z</time></trkpt><trkpt lat="43.53575" lon="11.3363367"><ele>542.3333333333333</ele><time>2026-04-18T08:24:31.103Z</time></trkpt><trkpt lat="43.5357667" lon="11.336245"><ele>539.6666666666666</ele><time>2026-04-18T08:24:32.103Z</time></trkpt><trkpt lat="43.535795" lon="11.3361633"><ele>537.0</ele><time>2026-04-18T08:24:33.103Z</time></trkpt><trkpt lat="43.5358367" lon="11.3360933"><ele>534.3333333333334</ele><time>2026-04-18T08:24:34.103Z</time></trkpt><trkpt lat="43.5359467" lon="11.3360283"><ele>531.6666666666667</ele><time>2026-04-18T08:24:36.103Z</time></trkpt><trkpt lat="43.5360667" lon="11.3360417"><ele>529.0</ele><time>2026-04-18T08:24:38.104Z</time></trkpt><trkpt lat="43.536135" lon="11.3360633"><ele>529.0</ele><time>2026-04-18T08:24:39.103Z</time></trkpt><trkpt lat="43.536215" lon="11.3360783"><ele>529.0</ele><time>2026-04-18T08:24:40.103Z</time></trkpt><trkpt lat="43.536295" lon="11.33608"><ele>529.0</ele><time>2026-04-18T08:24:41.104Z</time></trkpt><trkpt lat="43.5363783" lon="11.3360633"><ele>529.0</ele><time>2026-04-18T08:24:42.103Z</time></trkpt><trkpt lat="43.5364667" lon="11.3360233"><ele>529.0</ele><time>2026-04-18T08:24:43.103Z</time></trkpt><trkpt lat="43.5365517" lon="11.3359817"><ele>529.0</ele><time>2026-04-18T08:24:44.103Z</time></trkpt><trkpt lat="43.5366383" lon="11.3359367"><ele>528.8333333333334</ele><time>2026-04-18T08:24:45.103Z</time></trkpt><trkpt lat="43.5367217" lon="11.3358967"><ele>528.6666666666667</ele><time>2026-04-18T08:24:46.103Z</time></trkpt><trkpt lat="43.5368033" lon="11.33586"><ele>528.5</ele><time>2026-04-18T08:24:47.103Z</time></trkpt><trkpt lat="43.5368783" lon="11.3358133"><ele>528.3333333333334</ele><time>2026-04-18T08:24:48.104Z</time></trkpt><trkpt lat="43.5369483" lon="11.3357583"><ele>528.1666666666666</ele><time>2026-04-18T08:24:49.103Z</time></trkpt><trkpt lat="43.5370133" lon="11.3356833"><ele>528.0</ele><time>2026-04-18T08:24:50.103Z</time></trkpt><trkpt lat="43.53707" lon="11.3355867"><ele>526.0</ele><time>2026-04-18T08:24:51.104Z</time></trkpt><trkpt lat="43.5371183" lon="11.335475"><ele>524.0</ele><time>2026-04-18T08:24:52.103Z</time></trkpt><trkpt lat="43.537155" lon="11.3353633"><ele>522.0</ele><time>2026-04-18T08:24:53.103Z</time></trkpt><trkpt lat="43.537185" lon="11.3352567"><ele>520.0</ele><time>2026-04-18T08:24:54.103Z</time></trkpt><trkpt lat="43.537215" lon="11.335155"><ele>518.0</ele><time>2026-04-18T08:24:55.104Z</time></trkpt><trkpt lat="43.53725" lon="11.3350483"><ele>516.0</ele><time>2026-04-18T08:24:56.103Z</time></trkpt><trkpt lat="43.537275" lon="11.334945"><ele>516.0</ele><time>2026-04-18T08:24:57.103Z</time></trkpt><trkpt lat="43.5372933" lon="11.3348367"><ele>516.0</ele><time>2026-04-18T08:24:58.104Z</time></trkpt><trkpt lat="43.5373217" lon="11.3347167"><ele>516.0</ele><time>2026-04-18T08:24:59.104Z</time></trkpt><trkpt lat="43.5373467" lon="11.3345983"><ele>516.0</ele><time>2026-04-18T08:25:00.104Z</time></trkpt><trkpt lat="43.53737" lon="11.3344767"><ele>516.0</ele><time>2026-04-18T08:25:01.103Z</time></trkpt><trkpt lat="43.5373933" lon="11.334345"><ele>514.8</ele><time>2026-04-18T08:25:02.103Z</time></trkpt><trkpt lat="43.5374067" lon="11.3342117"><ele>513.6</ele><time>2026-04-18T08:25:03.104Z</time></trkpt><trkpt lat="43.5374167" lon="11.3340717"><ele>512.4</ele><time>2026-04-18T08:25:04.104Z</time></trkpt><trkpt lat="43.5374183" lon="11.3339417"><ele>511.2</ele><time>2026-04-18T08:25:05.103Z</time></trkpt><trkpt lat="43.5374133" lon="11.3338083"><ele>510.0</ele><time>2026-04-18T08:25:06.103Z</time></trkpt><trkpt lat="43.5374" lon="11.33367"><ele>509.8</ele><time>2026-04-18T08:25:07.103Z</time></trkpt><trkpt lat="43.5373817" lon="11.33353"><ele>509.6</ele><time>2026-04-18T08:25:08.103Z</time></trkpt><trkpt lat="43.53739" lon="11.3333917"><ele>509.4</ele><time>2026-04-18T08:25:09.103Z</time></trkpt><trkpt lat="43.53741" lon="11.3332483"><ele>509.2</ele><time>2026-04-18T08:25:10.103Z</time></trkpt><trkpt lat="43.537445" lon="11.33309"><ele>509.0</ele><time>2026-04-18T08:25:11.104Z</time></trkpt><trkpt lat="43.5374817" lon="11.3329183"><ele>509.0</ele><time>2026-04-18T08:25:12.103Z</time></trkpt><trkpt lat="43.5375233" lon="11.3327517"><ele>509.0</ele><time>2026-04-18T08:25:13.104Z</time></trkpt><trkpt lat="43.537575" lon="11.33259"><ele>509.0</ele><time>2026-04-18T08:25:14.103Z</time></trkpt><trkpt lat="43.53763" lon="11.33244"><ele>509.0</ele><time>2026-04-18T08:25:15.103Z</time></trkpt><trkpt lat="43.537695" lon="11.3323033"><ele>508.5</ele><time>2026-04-18T08:25:16.103Z</time></trkpt><trkpt lat="43.537765" lon="11.3321733"><ele>508.0</ele><time>2026-04-18T08:25:17.104Z</time></trkpt><trkpt lat="43.5378417" lon="11.33205"><ele>507.5</ele><time>2026-04-18T08:25:18.103Z</time></trkpt><trkpt lat="43.5379167" lon="11.331935"><ele>507.0</ele><time>2026-04-18T08:25:19.104Z</time></trkpt><trkpt lat="43.5379967" lon="11.3318167"><ele>508.75</ele><time>2026-04-18T08:25:20.104Z</time></trkpt><trkpt lat="43.538055" lon="11.331685"><ele>510.5</ele><time>2026-04-18T08:25:21.103Z</time></trkpt><trkpt lat="43.5381017" lon="11.33154"><ele>512.25</ele><time>2026-04-18T08:25:22.103Z</time></trkpt><trkpt lat="43.538135" lon="11.3313883"><ele>514.0</ele><time>2026-04-18T08:25:23.103Z</time></trkpt><trkpt lat="43.53814" lon="11.331215"><ele>515.3333333333334</ele><time>2026-04-18T08:25:24.104Z</time></trkpt><trkpt lat="43.5381333" lon="11.3310233"><ele>516.6666666666666</ele><time>2026-04-18T08:25:25.103Z</time></trkpt><trkpt lat="43.53811" lon="11.330805"><ele>518.0</ele><time>2026-04-18T08:25:26.103Z</time></trkpt><trkpt lat="43.538095" lon="11.3305867"><ele>519.75</ele><time>2026-04-18T08:25:27.104Z</time></trkpt><trkpt lat="43.538075" lon="11.3303717"><ele>521.5</ele><time>2026-04-18T08:25:28.103Z</time></trkpt><trkpt lat="43.538055" lon="11.3301767"><ele>523.25</ele><time>2026-04-18T08:25:29.104Z</time></trkpt><trkpt lat="43.5380333" lon="11.329985"><ele>525.0</ele><time>2026-04-18T08:25:30.104Z</time></trkpt><trkpt lat="43.538015" lon="11.3297933"><ele>525.75</ele><time>2026-04-18T08:25:31.104Z</time></trkpt><trkpt lat="43.5379983" lon="11.3296083"><ele>526.5</ele><time>2026-04-18T08:25:32.103Z</time></trkpt><trkpt lat="43.5379867" lon="11.3294283"><ele>527.25</ele><time>2026-04-18T08:25:33.103Z</time></trkpt><trkpt lat="43.5379833" lon="11.3292467"><ele>528.0</ele><time>2026-04-18T08:25:34.104Z</time></trkpt><trkpt lat="43.537995" lon="11.3290683"><ele>528.0</ele><time>2026-04-18T08:25:35.104Z</time></trkpt><trkpt lat="43.5380117" lon="11.3288933"><ele>528.0</ele><time>2026-04-18T08:25:36.103Z</time></trkpt><trkpt lat="43.5380317" lon="11.3287483"><ele>528.0</ele><time>2026-04-18T08:25:37.103Z</time></trkpt><trkpt lat="43.5380633" lon="11.3286167"><ele>528.0</ele><time>2026-04-18T08:25:38.103Z</time></trkpt><trkpt lat="43.5381067" lon="11.3284917"><ele>528.0</ele><time>2026-04-18T08:25:39.103Z</time></trkpt><trkpt lat="43.538165" lon="11.3283717"><ele>526.8</ele><time>2026-04-18T08:25:40.103Z</time></trkpt><trkpt lat="43.5382367" lon="11.3282567"><ele>525.5999999999999</ele><time>2026-04-18T08:25:41.104Z</time></trkpt><trkpt lat="43.5383017" lon="11.3281583"><ele>524.4000000000001</ele><time>2026-04-18T08:25:42.103Z</time></trkpt><trkpt lat="43.53837" lon="11.328055"><ele>523.2</ele><time>2026-04-18T08:25:43.103Z</time></trkpt><trkpt lat="43.5384417" lon="11.3279517"><ele>522.0</ele><time>2026-04-18T08:25:44.103Z</time></trkpt><trkpt lat="43.5385117" lon="11.3278467"><ele>521.6</ele><time>2026-04-18T08:25:45.103Z</time></trkpt><trkpt lat="43.53858" lon="11.327735"><ele>521.2</ele><time>2026-04-18T08:25:46.103Z</time></trkpt><trkpt lat="43.5386433" lon="11.3276133"><ele>520.8</ele><time>2026-04-18T08:25:47.103Z</time></trkpt><trkpt lat="43.5387033" lon="11.3274833"><ele>520.4</ele><time>2026-04-18T08:25:48.103Z</time></trkpt><trkpt lat="43.5387533" lon="11.3273417"><ele>520.0</ele><time>2026-04-18T08:25:49.103Z</time></trkpt><trkpt lat="43.5387917" lon="11.3272017"><ele>520.0</ele><time>2026-04-18T08:25:50.104Z</time></trkpt><trkpt lat="43.5388133" lon="11.3270517"><ele>520.0</ele><time>2026-04-18T08:25:51.103Z</time></trkpt><trkpt lat="43.53881" lon="11.3269083"><ele>520.0</ele><time>2026-04-18T08:25:52.103Z</time></trkpt><trkpt lat="43.53879" lon="11.3267683"><ele>520.0</ele><time>2026-04-18T08:25:53.104Z</time></trkpt><trkpt lat="43.5387533" lon="11.3266267"><ele>520.0</ele><time>2026-04-18T08:25:54.104Z</time></trkpt><trkpt lat="43.5387183" lon="11.3264783"><ele>516.6</ele><time>2026-04-18T08:25:55.104Z</time></trkpt><trkpt lat="43.53869" lon="11.3263367"><ele>513.2</ele><time>2026-04-18T08:25:56.103Z</time></trkpt><trkpt lat="43.5386717" lon="11.3261883"><ele>509.79999999999995</ele><time>2026-04-18T08:25:57.104Z</time></trkpt><trkpt lat="43.5386617" lon="11.326045"><ele>506.4</ele><time>2026-04-18T08:25:58.104Z</time></trkpt><trkpt lat="43.5386667" lon="11.3259"><ele>503.0</ele><time>2026-04-18T08:25:59.103Z</time></trkpt><trkpt lat="43.5386833" lon="11.3257517"><ele>503.0</ele><time>2026-04-18T08:26:00.104Z</time></trkpt><trkpt lat="43.5387117" lon="11.3255933"><ele>503.0</ele><time>2026-04-18T08:26:01.103Z</time></trkpt><trkpt lat="43.5387583" lon="11.3254317"><ele>503.0</ele><time>2026-04-18T08:26:02.104Z</time></trkpt><trkpt lat="43.5388083" lon="11.325275"><ele>503.0</ele><time>2026-04-18T08:26:03.104Z</time></trkpt><trkpt lat="43.538865" lon="11.3251117"><ele>503.5</ele><time>2026-04-18T08:26:04.103Z</time></trkpt><trkpt lat="43.53892" lon="11.3249517"><ele>504.0</ele><time>2026-04-18T08:26:05.103Z</time></trkpt><trkpt lat="43.5389783" lon="11.324765"><ele>504.5</ele><time>2026-04-18T08:26:06.104Z</time></trkpt><trkpt lat="43.53904" lon="11.3245783"><ele>505.0</ele><time>2026-04-18T08:26:07.104Z</time></trkpt><trkpt lat="43.5391017" lon="11.3244033"><ele>505.0</ele><time>2026-04-18T08:26:08.103Z</time></trkpt><trkpt lat="43.539175" lon="11.3242367"><ele>505.0</ele><time>2026-04-18T08:26:09.103Z</time></trkpt><trkpt lat="43.5392533" lon="11.3240717"><ele>505.0</ele><time>2026-04-18T08:26:10.104Z</time></trkpt><trkpt lat="43.5393267" lon="11.3239167"><ele>505.0</ele><time>2026-04-18T08:26:11.104Z</time></trkpt><trkpt lat="43.5393967" lon="11.3237683"><ele>504.5</ele><time>2026-04-18T08:26:12.104Z</time></trkpt><trkpt lat="43.53947" lon="11.3236183"><ele>504.0</ele><time>2026-04-18T08:26:13.104Z</time></trkpt><trkpt lat="43.5395417" lon="11.3234633"><ele>503.5</ele><time>2026-04-18T08:26:14.104Z</time></trkpt><trkpt lat="43.5396183" lon="11.323315"><ele>503.0</ele><time>2026-04-18T08:26:15.103Z</time></trkpt><trkpt lat="43.5396867" lon="11.32318"><ele>505.75</ele><time>2026-04-18T08:26:16.104Z</time></trkpt><trkpt lat="43.539765" lon="11.3230567"><ele>508.5</ele><time>2026-04-18T08:26:17.104Z</time></trkpt><trkpt lat="43.53985" lon="11.3229467"><ele>511.25</ele><time>2026-04-18T08:26:18.103Z</time></trkpt><trkpt lat="43.5399317" lon="11.3228483"><ele>514.0</ele><time>2026-04-18T08:26:19.103Z</time></trkpt><trkpt lat="43.5400183" lon="11.3227633"><ele>514.0</ele><time>2026-04-18T08:26:20.103Z</time></trkpt><trkpt lat="43.5400917" lon="11.3226783"><ele>514.0</ele><time>2026-04-18T08:26:21.103Z</time></trkpt><trkpt lat="43.54016" lon="11.322565"><ele>514.0</ele><time>2026-04-18T08:26:22.103Z</time></trkpt><trkpt lat="43.54021" lon="11.3224467"><ele>514.0</ele><time>2026-04-18T08:26:23.103Z</time></trkpt><trkpt lat="43.5402533" lon="11.3223"><ele>514.0</ele><time>2026-04-18T08:26:24.103Z</time></trkpt><trkpt lat="43.5402967" lon="11.3221483"><ele>514.0</ele><time>2026-04-18T08:26:25.103Z</time></trkpt><trkpt lat="43.5403433" lon="11.322"><ele>514.0</ele><time>2026-04-18T08:26:26.104Z</time></trkpt><trkpt lat="43.5404083" lon="11.3218483"><ele>514.0</ele><time>2026-04-18T08:26:27.104Z</time></trkpt><trkpt lat="43.540485" lon="11.3216867"><ele>514.0</ele><time>2026-04-18T08:26:28.103Z</time></trkpt><trkpt lat="43.54056" lon="11.321515"><ele>511.75</ele><time>2026-04-18T08:26:29.104Z</time></trkpt><trkpt lat="43.5406367" lon="11.3213483"><ele>509.5</ele><time>2026-04-18T08:26:30.103Z</time></trkpt><trkpt lat="43.540705" lon="11.3211983"><ele>507.25</ele><time>2026-04-18T08:26:31.103Z</time></trkpt><trkpt lat="43.540765" lon="11.321055"><ele>505.0</ele><time>2026-04-18T08:26:32.103Z</time></trkpt><trkpt lat="43.5408233" lon="11.320925"><ele>505.0</ele><time>2026-04-18T08:26:33.103Z</time></trkpt><trkpt lat="43.54088" lon="11.3207867"><ele>505.0</ele><time>2026-04-18T08:26:34.103Z</time></trkpt><trkpt lat="43.5409333" lon="11.3206483"><ele>505.0</ele><time>2026-04-18T08:26:35.103Z</time></trkpt><trkpt lat="43.541" lon="11.32052"><ele>505.0</ele><time>2026-04-18T08:26:36.104Z</time></trkpt><trkpt lat="43.54108" lon="11.320395"><ele>503.75</ele><time>2026-04-18T08:26:37.103Z</time></trkpt><trkpt lat="43.5411733" lon="11.3202717"><ele>502.5</ele><time>2026-04-18T08:26:38.104Z</time></trkpt><trkpt lat="43.5412633" lon="11.32017"><ele>501.25</ele><time>2026-04-18T08:26:39.103Z</time></trkpt><trkpt lat="43.5413533" lon="11.3200867"><ele>500.0</ele><time>2026-04-18T08:26:40.104Z</time></trkpt><trkpt lat="43.5414367" lon="11.32"><ele>499.0</ele><time>2026-04-18T08:26:41.103Z</time></trkpt><trkpt lat="43.5415167" lon="11.31992"><ele>498.0</ele><time>2026-04-18T08:26:42.103Z</time></trkpt><trkpt lat="43.541595" lon="11.3198417"><ele>497.0</ele><time>2026-04-18T08:26:43.103Z</time></trkpt><trkpt lat="43.5416683" lon="11.31976"><ele>496.0</ele><time>2026-04-18T08:26:44.104Z</time></trkpt><trkpt lat="43.5417417" lon="11.3196833"><ele>495.0</ele><time>2026-04-18T08:26:45.104Z</time></trkpt><trkpt lat="43.5418183" lon="11.319605"><ele>494.6</ele><time>2026-04-18T08:26:46.103Z</time></trkpt><trkpt lat="43.5418917" lon="11.3195333"><ele>494.2</ele><time>2026-04-18T08:26:47.103Z</time></trkpt><trkpt lat="43.541965" lon="11.31946"><ele>493.79999999999995</ele><time>2026-04-18T08:26:48.104Z</time></trkpt><trkpt lat="43.5420383" lon="11.3193867"><ele>493.4</ele><time>2026-04-18T08:26:49.103Z</time></trkpt><trkpt lat="43.54211" lon="11.31931"><ele>493.0</ele><time>2026-04-18T08:26:50.103Z</time></trkpt><trkpt lat="43.5421817" lon="11.31923"><ele>492.4</ele><time>2026-04-18T08:26:51.103Z</time></trkpt><trkpt lat="43.5422583" lon="11.3191467"><ele>491.79999999999995</ele><time>2026-04-18T08:26:52.103Z</time></trkpt><trkpt lat="43.5423367" lon="11.319065"><ele>491.2</ele><time>2026-04-18T08:26:53.104Z</time></trkpt><trkpt lat="43.5424133" lon="11.3189867"><ele>490.6</ele><time>2026-04-18T08:26:54.104Z</time></trkpt><trkpt lat="43.542485" lon="11.3189117"><ele>490.0</ele><time>2026-04-18T08:26:55.104Z</time></trkpt><trkpt lat="43.5425633" lon="11.318835"><ele>489.6</ele><time>2026-04-18T08:26:56.104Z</time></trkpt><trkpt lat="43.5426383" lon="11.3187617"><ele>489.2</ele><time>2026-04-18T08:26:57.103Z</time></trkpt><trkpt lat="43.542715" lon="11.3186867"><ele>488.79999999999995</ele><time>2026-04-18T08:26:58.103Z</time></trkpt><trkpt lat="43.5427867" lon="11.3186117"><ele>488.4</ele><time>2026-04-18T08:26:59.103Z</time></trkpt><trkpt lat="43.542855" lon="11.3185283"><ele>488.0</ele><time>2026-04-18T08:27:00.103Z</time></trkpt><trkpt lat="43.54292" lon="11.3184467"><ele>487.99999999999994</ele><time>2026-04-18T08:27:01.103Z</time></trkpt><trkpt lat="43.5429817" lon="11.3183767"><ele>488.0</ele><time>2026-04-18T08:27:02.103Z</time></trkpt><trkpt lat="43.5430367" lon="11.3183067"><ele>488.0</ele><time>2026-04-18T08:27:03.104Z</time></trkpt><trkpt lat="43.5430883" lon="11.3182317"><ele>488.0</ele><time>2026-04-18T08:27:04.103Z</time></trkpt><trkpt lat="43.543135" lon="11.3181617"><ele>487.99999999999994</ele><time>2026-04-18T08:27:05.103Z</time></trkpt><trkpt lat="43.5431767" lon="11.318095"><ele>488.0</ele><time>2026-04-18T08:27:06.104Z</time></trkpt><trkpt lat="43.54325" lon="11.3179767"><ele>488.3333333333333</ele><time>2026-04-18T08:27:08.104Z</time></trkpt><trkpt lat="43.5433083" lon="11.3178917"><ele>488.66666666666663</ele><time>2026-04-18T08:27:10.103Z</time></trkpt><trkpt lat="43.54332" lon="11.317795"><ele>489.0</ele><time>2026-04-18T08:27:38.103Z</time></trkpt><trkpt lat="43.5432583" lon="11.3177267"><ele>489.33333333333337</ele><time>2026-04-18T08:27:40.104Z</time></trkpt><trkpt lat="43.5431533" lon="11.3176967"><ele>489.6666666666667</ele><time>2026-04-18T08:27:42.103Z</time></trkpt><trkpt lat="43.5430917" lon="11.31767"><ele>490.0</ele><time>2026-04-18T08:27:43.103Z</time></trkpt><trkpt lat="43.5429667" lon="11.31763"><ele>490.00000000000006</ele><time>2026-04-18T08:27:45.104Z</time></trkpt><trkpt lat="43.5428917" lon="11.3176283"><ele>490.0</ele><time>2026-04-18T08:27:46.104Z</time></trkpt><trkpt lat="43.542815" lon="11.3176567"><ele>490.0</ele><time>2026-04-18T08:27:47.103Z</time></trkpt><trkpt lat="43.5427367" lon="11.3177117"><ele>490.0</ele><time>2026-04-18T08:27:48.103Z</time></trkpt><trkpt lat="43.5426567" lon="11.317775"><ele>490.00000000000006</ele><time>2026-04-18T08:27:49.104Z</time></trkpt><trkpt lat="43.542575" lon="11.31785"><ele>490.0</ele><time>2026-04-18T08:27:50.103Z</time></trkpt><trkpt lat="43.5425017" lon="11.3179283"><ele>489.6666666666667</ele><time>2026-04-18T08:27:51.104Z</time></trkpt><trkpt lat="43.5424283" lon="11.317995"><ele>489.33333333333337</ele><time>2026-04-18T08:27:52.103Z</time></trkpt><trkpt lat="43.5423617" lon="11.3180633"><ele>489.0</ele><time>2026-04-18T08:27:53.103Z</time></trkpt><trkpt lat="43.5422883" lon="11.318115"><ele>488.66666666666663</ele><time>2026-04-18T08:27:54.104Z</time></trkpt><trkpt lat="43.54221" lon="11.3181283"><ele>488.3333333333333</ele><time>2026-04-18T08:27:55.103Z</time></trkpt><trkpt lat="43.5421233" lon="11.31811"><ele>488.0</ele><time>2026-04-18T08:27:56.103Z</time></trkpt><trkpt lat="43.5420267" lon="11.31806"><ele>485.2</ele><time>2026-04-18T08:27:57.103Z</time></trkpt><trkpt lat="43.54193" lon="11.3179867"><ele>482.4</ele><time>2026-04-18T08:27:58.104Z</time></trkpt><trkpt lat="43.54183" lon="11.317915"><ele>479.59999999999997</ele><time>2026-04-18T08:27:59.103Z</time></trkpt><trkpt lat="43.5417367" lon="11.3178483"><ele>476.79999999999995</ele><time>2026-04-18T08:28:00.103Z</time></trkpt><trkpt lat="43.54164" lon="11.317785"><ele>474.0</ele><time>2026-04-18T08:28:01.103Z</time></trkpt><trkpt lat="43.541545" lon="11.3177333"><ele>474.0</ele><time>2026-04-18T08:28:02.104Z</time></trkpt><trkpt lat="43.5414483" lon="11.31769"><ele>474.0</ele><time>2026-04-18T08:28:03.103Z</time></trkpt><trkpt lat="43.54135" lon="11.3176583"><ele>474.0</ele><time>2026-04-18T08:28:04.104Z</time></trkpt><trkpt lat="43.541245" lon="11.3176367"><ele>474.0</ele><time>2026-04-18T08:28:05.103Z</time></trkpt><trkpt lat="43.541145" lon="11.317625"><ele>474.0</ele><time>2026-04-18T08:28:06.103Z</time></trkpt><trkpt lat="43.5410433" lon="11.3176183"><ele>473.0</ele><time>2026-04-18T08:28:07.104Z</time></trkpt><trkpt lat="43.5409417" lon="11.317615"><ele>472.0</ele><time>2026-04-18T08:28:08.103Z</time></trkpt><trkpt lat="43.5408383" lon="11.3176083"><ele>471.0</ele><time>2026-04-18T08:28:09.103Z</time></trkpt><trkpt lat="43.5407383" lon="11.3176033"><ele>470.0</ele><time>2026-04-18T08:28:10.104Z</time></trkpt><trkpt lat="43.54064" lon="11.317585"><ele>469.0</ele><time>2026-04-18T08:28:11.103Z</time></trkpt><trkpt lat="43.5405467" lon="11.3175667"><ele>469.00000000000006</ele><time>2026-04-18T08:28:12.103Z</time></trkpt><trkpt lat="43.5404667" lon="11.3175567"><ele>469.0</ele><time>2026-04-18T08:28:13.103Z</time></trkpt><trkpt lat="43.5403967" lon="11.31754"><ele>469.0</ele><time>2026-04-18T08:28:14.104Z</time></trkpt><trkpt lat="43.5403083" lon="11.31747"><ele>469.0</ele><time>2026-04-18T08:28:16.104Z</time></trkpt><trkpt lat="43.5402667" lon="11.3173933"><ele>469.00000000000006</ele><time>2026-04-18T08:28:18.103Z</time></trkpt><trkpt lat="43.5402183" lon="11.3173133"><ele>469.0</ele><time>2026-04-18T08:28:21.104Z</time></trkpt><trkpt lat="43.5401317" lon="11.3172633"><ele>467.50000000000006</ele><time>2026-04-18T08:28:26.104Z</time></trkpt><trkpt lat="43.5400683" lon="11.3172683"><ele>466.0</ele><time>2026-04-18T08:28:27.104Z</time></trkpt><trkpt lat="43.5399817" lon="11.3172833"><ele>464.5</ele><time>2026-04-18T08:28:28.104Z</time></trkpt><trkpt lat="43.539885" lon="11.3173067"><ele>463.0</ele><time>2026-04-18T08:28:29.102Z</time></trkpt><trkpt lat="43.5397917" lon="11.3173167"><ele>461.50000000000006</ele><time>2026-04-18T08:28:30.102Z</time></trkpt><trkpt lat="43.53971" lon="11.3172983"><ele>460.0</ele><time>2026-04-18T08:28:31.102Z</time></trkpt><trkpt lat="43.5396283" lon="11.3172617"><ele>457.6666666666667</ele><time>2026-04-18T08:28:32.103Z</time></trkpt><trkpt lat="43.539555" lon="11.31721"><ele>455.33333333333337</ele><time>2026-04-18T08:28:33.102Z</time></trkpt><trkpt lat="43.5394933" lon="11.31716"><ele>453.0</ele><time>2026-04-18T08:28:34.102Z</time></trkpt><trkpt lat="43.5394633" lon="11.3169983"><ele>450.66666666666663</ele><time>2026-04-18T08:28:36.103Z</time></trkpt><trkpt lat="43.5395083" lon="11.31692"><ele>448.3333333333333</ele><time>2026-04-18T08:28:37.103Z</time></trkpt><trkpt lat="43.5395783" lon="11.3168683"><ele>446.0</ele><time>2026-04-18T08:28:38.103Z</time></trkpt><trkpt lat="43.5396733" lon="11.3168383"><ele>446.0</ele><time>2026-04-18T08:28:39.103Z</time></trkpt><trkpt lat="43.5397767" lon="11.31681"><ele>446.0</ele><time>2026-04-18T08:28:40.103Z</time></trkpt><trkpt lat="43.53988" lon="11.3167783"><ele>446.0</ele><time>2026-04-18T08:28:41.102Z</time></trkpt><trkpt lat="43.5399783" lon="11.3167383"><ele>446.0</ele><time>2026-04-18T08:28:42.102Z</time></trkpt><trkpt lat="43.5400767" lon="11.3166833"><ele>446.0</ele><time>2026-04-18T08:28:43.102Z</time></trkpt><trkpt lat="43.540165" lon="11.3166017"><ele>446.0</ele><time>2026-04-18T08:28:44.102Z</time></trkpt><trkpt lat="43.5402483" lon="11.3165"><ele>446.0</ele><time>2026-04-18T08:28:45.102Z</time></trkpt><trkpt lat="43.5403217" lon="11.3163833"><ele>446.0</ele><time>2026-04-18T08:28:46.103Z</time></trkpt><trkpt lat="43.540385" lon="11.31626"><ele>446.0</ele><time>2026-04-18T08:28:47.102Z</time></trkpt><trkpt lat="43.5404533" lon="11.3161467"><ele>446.0</ele><time>2026-04-18T08:28:48.103Z</time></trkpt><trkpt lat="43.5405267" lon="11.316045"><ele>444.4</ele><time>2026-04-18T08:28:49.103Z</time></trkpt><trkpt lat="43.5406083" lon="11.3159517"><ele>442.8</ele><time>2026-04-18T08:28:50.103Z</time></trkpt><trkpt lat="43.5406983" lon="11.3158767"><ele>441.19999999999993</ele><time>2026-04-18T08:28:51.103Z</time></trkpt><trkpt lat="43.5407817" lon="11.315815"><ele>439.59999999999997</ele><time>2026-04-18T08:28:52.102Z</time></trkpt><trkpt lat="43.540865" lon="11.315755"><ele>438.0</ele><time>2026-04-18T08:28:53.102Z</time></trkpt><trkpt lat="43.540955" lon="11.315725"><ele>438.0</ele><time>2026-04-18T08:28:54.102Z</time></trkpt><trkpt lat="43.5410417" lon="11.3157"><ele>438.0</ele><time>2026-04-18T08:28:55.102Z</time></trkpt><trkpt lat="43.5411367" lon="11.315685"><ele>438.0</ele><time>2026-04-18T08:28:56.102Z</time></trkpt><trkpt lat="43.54123" lon="11.3156867"><ele>438.0</ele><time>2026-04-18T08:28:57.102Z</time></trkpt><trkpt lat="43.5413133" lon="11.315705"><ele>438.0</ele><time>2026-04-18T08:28:58.102Z</time></trkpt><trkpt lat="43.5413967" lon="11.31573"><ele>438.0</ele><time>2026-04-18T08:28:59.102Z</time></trkpt><trkpt lat="43.5414883" lon="11.315765"><ele>438.2</ele><time>2026-04-18T08:29:00.102Z</time></trkpt><trkpt lat="43.54158" lon="11.3157983"><ele>438.4</ele><time>2026-04-18T08:29:01.102Z</time></trkpt><trkpt lat="43.54168" lon="11.3158133"><ele>438.59999999999997</ele><time>2026-04-18T08:29:02.103Z</time></trkpt><trkpt lat="43.5417867" lon="11.3158083"><ele>438.79999999999995</ele><time>2026-04-18T08:29:03.103Z</time></trkpt><trkpt lat="43.5418933" lon="11.3157967"><ele>439.0</ele><time>2026-04-18T08:29:04.102Z</time></trkpt><trkpt lat="43.54201" lon="11.315765"><ele>438.0</ele><time>2026-04-18T08:29:05.102Z</time></trkpt><trkpt lat="43.5421333" lon="11.3157183"><ele>437.0</ele><time>2026-04-18T08:29:06.102Z</time></trkpt><trkpt lat="43.5422517" lon="11.3156633"><ele>436.0</ele><time>2026-04-18T08:29:07.102Z</time></trkpt><trkpt lat="43.5423683" lon="11.31561"><ele>435.0</ele><time>2026-04-18T08:29:08.102Z</time></trkpt><trkpt lat="43.5424783" lon="11.3155517"><ele>435.0</ele><time>2026-04-18T08:29:09.103Z</time></trkpt><trkpt lat="43.5425933" lon="11.315495"><ele>435.0</ele><time>2026-04-18T08:29:10.102Z</time></trkpt><trkpt lat="43.5427117" lon="11.3154367"><ele>435.0</ele><time>2026-04-18T08:29:11.102Z</time></trkpt><trkpt lat="43.5428283" lon="11.315375"><ele>435.0</ele><time>2026-04-18T08:29:12.103Z</time></trkpt><trkpt lat="43.542935" lon="11.315325"><ele>438.5</ele><time>2026-04-18T08:29:13.102Z</time></trkpt><trkpt lat="43.5430433" lon="11.3152817"><ele>442.0</ele><time>2026-04-18T08:29:14.102Z</time></trkpt><trkpt lat="43.5431533" lon="11.3152233"><ele>445.5</ele><time>2026-04-18T08:29:15.102Z</time></trkpt><trkpt lat="43.5432567" lon="11.3151617"><ele>449.0</ele><time>2026-04-18T08:29:16.103Z</time></trkpt><trkpt lat="43.54336" lon="11.31509"><ele>449.0</ele><time>2026-04-18T08:29:17.103Z</time></trkpt><trkpt lat="43.5434633" lon="11.315005"><ele>449.0</ele><time>2026-04-18T08:29:18.102Z</time></trkpt><trkpt lat="43.5435667" lon="11.3149133"><ele>449.0</ele><time>2026-04-18T08:29:19.102Z</time></trkpt><trkpt lat="43.5436583" lon="11.3148167"><ele>449.0</ele><time>2026-04-18T08:29:20.102Z</time></trkpt><trkpt lat="43.5437417" lon="11.3147233"><ele>450.2</ele><time>2026-04-18T08:29:21.102Z</time></trkpt><trkpt lat="43.543825" lon="11.3146317"><ele>451.4</ele><time>2026-04-18T08:29:22.102Z</time></trkpt><trkpt lat="43.5439" lon="11.314525"><ele>452.6</ele><time>2026-04-18T08:29:23.103Z</time></trkpt><trkpt lat="43.5439567" lon="11.3144017"><ele>453.8</ele><time>2026-04-18T08:29:24.103Z</time></trkpt><trkpt lat="43.543995" lon="11.314265"><ele>455.0</ele><time>2026-04-18T08:29:25.102Z</time></trkpt><trkpt lat="43.544015" lon="11.314125"><ele>455.0</ele><time>2026-04-18T08:29:26.103Z</time></trkpt><trkpt lat="43.54402" lon="11.313985"><ele>455.0</ele><time>2026-04-18T08:29:27.103Z</time></trkpt><trkpt lat="43.543995" lon="11.3138283"><ele>455.0</ele><time>2026-04-18T08:29:28.102Z</time></trkpt><trkpt lat="43.543945" lon="11.3136667"><ele>455.0</ele><time>2026-04-18T08:29:29.102Z</time></trkpt><trkpt lat="43.5438983" lon="11.31351"><ele>454.6</ele><time>2026-04-18T08:29:30.102Z</time></trkpt><trkpt lat="43.5438517" lon="11.3133717"><ele>454.2</ele><time>2026-04-18T08:29:31.102Z</time></trkpt><trkpt lat="43.5438167" lon="11.3132483"><ele>453.79999999999995</ele><time>2026-04-18T08:29:32.103Z</time></trkpt><trkpt lat="43.5438067" lon="11.31313"><ele>453.4</ele><time>2026-04-18T08:29:33.102Z</time></trkpt><trkpt lat="43.5438217" lon="11.3130083"><ele>453.0</ele><time>2026-04-18T08:29:34.102Z</time></trkpt><trkpt lat="43.543875" lon="11.312895"><ele>451.75</ele><time>2026-04-18T08:29:35.103Z</time></trkpt><trkpt lat="43.5439617" lon="11.3127967"><ele>450.5</ele><time>2026-04-18T08:29:36.102Z</time></trkpt><trkpt lat="43.5440517" lon="11.312715"><ele>449.25</ele><time>2026-04-18T08:29:37.102Z</time></trkpt><trkpt lat="43.5441583" lon="11.3126267"><ele>448.0</ele><time>2026-04-18T08:29:38.102Z</time></trkpt><trkpt lat="43.5442633" lon="11.3125383"><ele>448.0</ele><time>2026-04-18T08:29:39.102Z</time></trkpt><trkpt lat="43.544355" lon="11.3124467"><ele>447.99999999999994</ele><time>2026-04-18T08:29:40.103Z</time></trkpt><trkpt lat="43.544445" lon="11.3123733"><ele>447.99999999999994</ele><time>2026-04-18T08:29:41.102Z</time></trkpt><trkpt lat="43.5445233" lon="11.3123033"><ele>448.0</ele><time>2026-04-18T08:29:42.103Z</time></trkpt><trkpt lat="43.5445817" lon="11.31225"><ele>448.0</ele><time>2026-04-18T08:29:43.103Z</time></trkpt><trkpt lat="43.5446367" lon="11.31217"><ele>448.2857142857143</ele><time>2026-04-18T08:29:44.102Z</time></trkpt><trkpt lat="43.5447" lon="11.31212"><ele>448.57142857142856</ele><time>2026-04-18T08:29:45.102Z</time></trkpt><trkpt lat="43.544755" lon="11.312055"><ele>448.8571428571429</ele><time>2026-04-18T08:29:46.103Z</time></trkpt><trkpt lat="43.544815" lon="11.3120017"><ele>449.14285714285717</ele><time>2026-04-18T08:29:47.102Z</time></trkpt><trkpt lat="43.544865" lon="11.3119433"><ele>449.42857142857144</ele><time>2026-04-18T08:29:48.103Z</time></trkpt><trkpt lat="43.5449217" lon="11.311885"><ele>449.7142857142858</ele><time>2026-04-18T08:29:49.102Z</time></trkpt><trkpt lat="43.5449733" lon="11.3118183"><ele>450.00000000000006</ele><time>2026-04-18T08:29:50.102Z</time></trkpt><trkpt lat="43.545025" lon="11.3117417"><ele>450.0</ele><time>2026-04-18T08:29:51.103Z</time></trkpt><trkpt lat="43.5450767" lon="11.311645"><ele>450.0</ele><time>2026-04-18T08:29:52.102Z</time></trkpt><trkpt lat="43.54512" lon="11.31155"><ele>450.0</ele><time>2026-04-18T08:29:53.102Z</time></trkpt><trkpt lat="43.54515" lon="11.3114417"><ele>450.0</ele><time>2026-04-18T08:29:54.102Z</time></trkpt><trkpt lat="43.5451733" lon="11.3113233"><ele>450.0</ele><time>2026-04-18T08:29:55.102Z</time></trkpt><trkpt lat="43.54519" lon="11.3112017"><ele>450.0</ele><time>2026-04-18T08:29:56.102Z</time></trkpt><trkpt lat="43.5452067" lon="11.31109"><ele>449.6666666666667</ele><time>2026-04-18T08:29:57.103Z</time></trkpt><trkpt lat="43.545215" lon="11.3109867"><ele>449.33333333333337</ele><time>2026-04-18T08:29:58.102Z</time></trkpt><trkpt lat="43.5452317" lon="11.3108917"><ele>449.0</ele><time>2026-04-18T08:29:59.102Z</time></trkpt><trkpt lat="43.54525" lon="11.3107317"><ele>448.6666666666667</ele><time>2026-04-18T08:30:01.102Z</time></trkpt><trkpt lat="43.5452717" lon="11.3106083"><ele>448.33333333333337</ele><time>2026-04-18T08:30:03.103Z</time></trkpt><trkpt lat="43.5453017" lon="11.3105267"><ele>448.0</ele><time>2026-04-18T08:30:05.103Z</time></trkpt><trkpt lat="43.5453567" lon="11.3104783"><ele>450.2</ele><time>2026-04-18T08:30:07.103Z</time></trkpt><trkpt lat="43.54541" lon="11.3104017"><ele>452.4</ele><time>2026-04-18T08:30:09.102Z</time></trkpt><trkpt lat="43.545425" lon="11.3102467"><ele>454.59999999999997</ele><time>2026-04-18T08:30:11.102Z</time></trkpt><trkpt lat="43.5454233" lon="11.310125"><ele>456.79999999999995</ele><time>2026-04-18T08:30:12.102Z</time></trkpt><trkpt lat="43.5454267" lon="11.309995"><ele>459.0</ele><time>2026-04-18T08:30:13.102Z</time></trkpt><trkpt lat="43.54544" lon="11.3098483"><ele>457.75</ele><time>2026-04-18T08:30:14.102Z</time></trkpt><trkpt lat="43.5454633" lon="11.3096883"><ele>456.5</ele><time>2026-04-18T08:30:15.102Z</time></trkpt><trkpt lat="43.5454983" lon="11.3095483"><ele>455.25</ele><time>2026-04-18T08:30:16.102Z</time></trkpt><trkpt lat="43.5455533" lon="11.309415"><ele>454.0</ele><time>2026-04-18T08:30:17.102Z</time></trkpt><trkpt lat="43.5456167" lon="11.3092783"><ele>454.0</ele><time>2026-04-18T08:30:18.102Z</time></trkpt><trkpt lat="43.5456817" lon="11.309145"><ele>454.0</ele><time>2026-04-18T08:30:19.103Z</time></trkpt><trkpt lat="43.54574" lon="11.30902"><ele>454.0</ele><time>2026-04-18T08:30:20.102Z</time></trkpt><trkpt lat="43.545795" lon="11.3088983"><ele>454.0</ele><time>2026-04-18T08:30:21.102Z</time></trkpt><trkpt lat="43.5458517" lon="11.3087717"><ele>454.0</ele><time>2026-04-18T08:30:22.102Z</time></trkpt><trkpt lat="43.5459133" lon="11.30865"><ele>452.6</ele><time>2026-04-18T08:30:23.103Z</time></trkpt><trkpt lat="43.54598" lon="11.3085317"><ele>451.2</ele><time>2026-04-18T08:30:24.102Z</time></trkpt><trkpt lat="43.5460517" lon="11.3084367"><ele>449.80000000000007</ele><time>2026-04-18T08:30:25.102Z</time></trkpt><trkpt lat="43.54613" lon="11.3083333"><ele>448.40000000000003</ele><time>2026-04-18T08:30:26.102Z</time></trkpt><trkpt lat="43.5462067" lon="11.3082183"><ele>447.0</ele><time>2026-04-18T08:30:27.102Z</time></trkpt><trkpt lat="43.5462833" lon="11.3081017"><ele>449.25</ele><time>2026-04-18T08:30:28.102Z</time></trkpt><trkpt lat="43.54637" lon="11.30798"><ele>451.5</ele><time>2026-04-18T08:30:29.102Z</time></trkpt><trkpt lat="43.546465" lon="11.3078733"><ele>453.75</ele><time>2026-04-18T08:30:30.103Z</time></trkpt><trkpt lat="43.5465583" lon="11.307755"><ele>456.0</ele><time>2026-04-18T08:30:31.102Z</time></trkpt><trkpt lat="43.546635" lon="11.3076317"><ele>456.0</ele><time>2026-04-18T08:30:32.102Z</time></trkpt><trkpt lat="43.5466933" lon="11.3074833"><ele>456.0</ele><time>2026-04-18T08:30:33.102Z</time></trkpt><trkpt lat="43.54673" lon="11.3073283"><ele>456.0</ele><time>2026-04-18T08:30:34.103Z</time></trkpt><trkpt lat="43.5467617" lon="11.3071683"><ele>456.0</ele><time>2026-04-18T08:30:35.103Z</time></trkpt><trkpt lat="43.5468017" lon="11.3070317"><ele>455.4</ele><time>2026-04-18T08:30:36.102Z</time></trkpt><trkpt lat="43.5468433" lon="11.3069117"><ele>454.8</ele><time>2026-04-18T08:30:37.103Z</time></trkpt><trkpt lat="43.5469033" lon="11.3068267"><ele>454.19999999999993</ele><time>2026-04-18T08:30:38.102Z</time></trkpt><trkpt lat="43.5469867" lon="11.3067567"><ele>453.59999999999997</ele><time>2026-04-18T08:30:39.102Z</time></trkpt><trkpt lat="43.5470917" lon="11.306685"><ele>453.0</ele><time>2026-04-18T08:30:40.102Z</time></trkpt><trkpt lat="43.54721" lon="11.3066083"><ele>454.75</ele><time>2026-04-18T08:30:41.103Z</time></trkpt><trkpt lat="43.54733" lon="11.3065417"><ele>456.5</ele><time>2026-04-18T08:30:42.103Z</time></trkpt><trkpt lat="43.5474467" lon="11.3064833"><ele>458.25</ele><time>2026-04-18T08:30:43.102Z</time></trkpt><trkpt lat="43.5475617" lon="11.30643"><ele>460.0</ele><time>2026-04-18T08:30:44.102Z</time></trkpt><trkpt lat="43.54768" lon="11.3063917"><ele>460.0</ele><time>2026-04-18T08:30:45.103Z</time></trkpt><trkpt lat="43.54779" lon="11.3063817"><ele>460.0</ele><time>2026-04-18T08:30:46.103Z</time></trkpt><trkpt lat="43.547885" lon="11.3064017"><ele>460.0</ele><time>2026-04-18T08:30:47.102Z</time></trkpt><trkpt lat="43.5479767" lon="11.3064467"><ele>460.0</ele><time>2026-04-18T08:30:48.103Z</time></trkpt><trkpt lat="43.548065" lon="11.3065067"><ele>460.0</ele><time>2026-04-18T08:30:49.102Z</time></trkpt><trkpt lat="43.5481483" lon="11.306565"><ele>461.83333333333337</ele><time>2026-04-18T08:30:50.102Z</time></trkpt><trkpt lat="43.5482267" lon="11.3065933"><ele>463.6666666666667</ele><time>2026-04-18T08:30:51.103Z</time></trkpt><trkpt lat="43.5482967" lon="11.3065883"><ele>465.5</ele><time>2026-04-18T08:30:52.102Z</time></trkpt><trkpt lat="43.5483717" lon="11.3065483"><ele>467.33333333333337</ele><time>2026-04-18T08:30:53.103Z</time></trkpt><trkpt lat="43.5484567" lon="11.3064883"><ele>469.1666666666667</ele><time>2026-04-18T08:30:54.102Z</time></trkpt><trkpt lat="43.5485283" lon="11.3063983"><ele>471.0</ele><time>2026-04-18T08:30:55.102Z</time></trkpt><trkpt lat="43.5486033" lon="11.306295"><ele>471.0</ele><time>2026-04-18T08:30:56.103Z</time></trkpt><trkpt lat="43.54869" lon="11.306185"><ele>471.0</ele><time>2026-04-18T08:30:57.103Z</time></trkpt><trkpt lat="43.5487733" lon="11.30608"><ele>471.0</ele><time>2026-04-18T08:30:58.102Z</time></trkpt><trkpt lat="43.5488583" lon="11.30597"><ele>471.0</ele><time>2026-04-18T08:30:59.102Z</time></trkpt><trkpt lat="43.548945" lon="11.3058433"><ele>470.75</ele><time>2026-04-18T08:31:00.102Z</time></trkpt><trkpt lat="43.5490317" lon="11.30572"><ele>470.5</ele><time>2026-04-18T08:31:01.103Z</time></trkpt><trkpt lat="43.54912" lon="11.3055933"><ele>470.25</ele><time>2026-04-18T08:31:02.103Z</time></trkpt><trkpt lat="43.5492167" lon="11.3054683"><ele>470.0</ele><time>2026-04-18T08:31:03.103Z</time></trkpt><trkpt lat="43.5493167" lon="11.3053367"><ele>472.0</ele><time>2026-04-18T08:31:04.102Z</time></trkpt><trkpt lat="43.5494133" lon="11.3052133"><ele>474.0</ele><time>2026-04-18T08:31:05.103Z</time></trkpt><trkpt lat="43.5495117" lon="11.3050883"><ele>476.0</ele><time>2026-04-18T08:31:06.103Z</time></trkpt><trkpt lat="43.5496167" lon="11.3049583"><ele>478.0</ele><time>2026-04-18T08:31:07.103Z</time></trkpt><trkpt lat="43.5497267" lon="11.3048283"><ele>481.25</ele><time>2026-04-18T08:31:08.102Z</time></trkpt><trkpt lat="43.5498417" lon="11.304705"><ele>484.5</ele><time>2026-04-18T08:31:09.102Z</time></trkpt><trkpt lat="43.5499533" lon="11.30459"><ele>487.75</ele><time>2026-04-18T08:31:10.103Z</time></trkpt><trkpt lat="43.5500683" lon="11.30448"><ele>491.0</ele><time>2026-04-18T08:31:11.102Z</time></trkpt><trkpt lat="43.55019" lon="11.304355"><ele>491.0</ele><time>2026-04-18T08:31:12.103Z</time></trkpt><trkpt lat="43.5503033" lon="11.3042367"><ele>491.0</ele><time>2026-04-18T08:31:13.103Z</time></trkpt><trkpt lat="43.5504167" lon="11.3041133"><ele>491.0</ele><time>2026-04-18T08:31:14.103Z</time></trkpt><trkpt lat="43.5505267" lon="11.3039817"><ele>491.0</ele><time>2026-04-18T08:31:15.103Z</time></trkpt><trkpt lat="43.5506317" lon="11.3038517"><ele>492.5</ele><time>2026-04-18T08:31:16.102Z</time></trkpt><trkpt lat="43.5507383" lon="11.303715"><ele>494.0</ele><time>2026-04-18T08:31:17.102Z</time></trkpt><trkpt lat="43.5508433" lon="11.3035867"><ele>495.5</ele><time>2026-04-18T08:31:18.102Z</time></trkpt><trkpt lat="43.5509467" lon="11.3034683"><ele>497.0</ele><time>2026-04-18T08:31:19.102Z</time></trkpt><trkpt lat="43.5510517" lon="11.30336"><ele>497.0</ele><time>2026-04-18T08:31:20.103Z</time></trkpt><trkpt lat="43.551155" lon="11.3032567"><ele>497.0</ele><time>2026-04-18T08:31:21.102Z</time></trkpt><trkpt lat="43.5512633" lon="11.3031633"><ele>497.0</ele><time>2026-04-18T08:31:22.103Z</time></trkpt><trkpt lat="43.5513567" lon="11.30307"><ele>497.0</ele><time>2026-04-18T08:31:23.103Z</time></trkpt><trkpt lat="43.5514533" lon="11.30299"><ele>497.8</ele><time>2026-04-18T08:31:24.103Z</time></trkpt><trkpt lat="43.551545" lon="11.3029067"><ele>498.6</ele><time>2026-04-18T08:31:25.103Z</time></trkpt><trkpt lat="43.551635" lon="11.302815"><ele>499.40000000000003</ele><time>2026-04-18T08:31:26.102Z</time></trkpt><trkpt lat="43.5517133" lon="11.3027133"><ele>500.20000000000005</ele><time>2026-04-18T08:31:27.102Z</time></trkpt><trkpt lat="43.5517767" lon="11.3025983"><ele>501.0</ele><time>2026-04-18T08:31:28.103Z</time></trkpt><trkpt lat="43.5518483" lon="11.3024683"><ele>501.0</ele><time>2026-04-18T08:31:29.103Z</time></trkpt><trkpt lat="43.5519033" lon="11.3023333"><ele>501.0</ele><time>2026-04-18T08:31:30.102Z</time></trkpt><trkpt lat="43.5519633" lon="11.30218"><ele>501.0</ele><time>2026-04-18T08:31:31.102Z</time></trkpt><trkpt lat="43.5520217" lon="11.3020267"><ele>501.0</ele><time>2026-04-18T08:31:32.102Z</time></trkpt><trkpt lat="43.5520833" lon="11.30187"><ele>501.0</ele><time>2026-04-18T08:31:33.103Z</time></trkpt><trkpt lat="43.5521333" lon="11.3017033"><ele>501.0</ele><time>2026-04-18T08:31:34.103Z</time></trkpt><trkpt lat="43.552185" lon="11.301535"><ele>501.0</ele><time>2026-04-18T08:31:35.103Z</time></trkpt><trkpt lat="43.5522317" lon="11.3013617"><ele>501.0</ele><time>2026-04-18T08:31:36.102Z</time></trkpt><trkpt lat="43.55228" lon="11.3011917"><ele>501.0</ele><time>2026-04-18T08:31:37.102Z</time></trkpt><trkpt lat="43.5523267" lon="11.301025"><ele>501.0</ele><time>2026-04-18T08:31:38.103Z</time></trkpt><trkpt lat="43.55239" lon="11.300855"><ele>501.0</ele><time>2026-04-18T08:31:39.103Z</time></trkpt><trkpt lat="43.5524583" lon="11.300695"><ele>501.0</ele><time>2026-04-18T08:31:40.103Z</time></trkpt><trkpt lat="43.5525333" lon="11.3005333"><ele>501.0</ele><time>2026-04-18T08:31:41.102Z</time></trkpt><trkpt lat="43.5526133" lon="11.300375"><ele>501.0</ele><time>2026-04-18T08:31:42.103Z</time></trkpt><trkpt lat="43.55269" lon="11.3002167"><ele>501.0</ele><time>2026-04-18T08:31:43.102Z</time></trkpt><trkpt lat="43.552765" lon="11.3000583"><ele>501.0</ele><time>2026-04-18T08:31:44.102Z</time></trkpt><trkpt lat="43.5528317" lon="11.2998967"><ele>499.75</ele><time>2026-04-18T08:31:45.103Z</time></trkpt><trkpt lat="43.5528967" lon="11.299735"><ele>498.5</ele><time>2026-04-18T08:31:46.103Z</time></trkpt><trkpt lat="43.5529583" lon="11.299585"><ele>497.25</ele><time>2026-04-18T08:31:47.102Z</time></trkpt><trkpt lat="43.5530183" lon="11.299435"><ele>496.0</ele><time>2026-04-18T08:31:48.102Z</time></trkpt><trkpt lat="43.5530767" lon="11.2992967"><ele>496.0</ele><time>2026-04-18T08:31:49.102Z</time></trkpt><trkpt lat="43.55314" lon="11.29916"><ele>496.0</ele><time>2026-04-18T08:31:50.102Z</time></trkpt><trkpt lat="43.5532133" lon="11.2990367"><ele>496.0</ele><time>2026-04-18T08:31:51.103Z</time></trkpt><trkpt lat="43.5532983" lon="11.298935"><ele>496.0</ele><time>2026-04-18T08:31:52.102Z</time></trkpt><trkpt lat="43.5533917" lon="11.2988733"><ele>496.0</ele><time>2026-04-18T08:31:53.102Z</time></trkpt><trkpt lat="43.5534967" lon="11.2988483"><ele>494.0</ele><time>2026-04-18T08:31:54.103Z</time></trkpt><trkpt lat="43.5535933" lon="11.298825"><ele>492.0</ele><time>2026-04-18T08:31:55.102Z</time></trkpt><trkpt lat="43.5537083" lon="11.2988283"><ele>490.0</ele><time>2026-04-18T08:31:56.102Z</time></trkpt><trkpt lat="43.5538267" lon="11.2988317"><ele>488.0</ele><time>2026-04-18T08:31:57.103Z</time></trkpt><trkpt lat="43.5539433" lon="11.2988417"><ele>486.0</ele><time>2026-04-18T08:31:58.103Z</time></trkpt><trkpt lat="43.5540617" lon="11.2988367"><ele>485.0</ele><time>2026-04-18T08:31:59.102Z</time></trkpt><trkpt lat="43.5541733" lon="11.2988017"><ele>484.0</ele><time>2026-04-18T08:32:00.102Z</time></trkpt><trkpt lat="43.5542817" lon="11.2987433"><ele>483.0</ele><time>2026-04-18T08:32:01.103Z</time></trkpt><trkpt lat="43.5543883" lon="11.2986617"><ele>482.0</ele><time>2026-04-18T08:32:02.102Z</time></trkpt><trkpt lat="43.554485" lon="11.2985583"><ele>482.0</ele><time>2026-04-18T08:32:03.102Z</time></trkpt><trkpt lat="43.5545817" lon="11.2984383"><ele>482.0</ele><time>2026-04-18T08:32:04.102Z</time></trkpt><trkpt lat="43.5546767" lon="11.2983117"><ele>482.0</ele><time>2026-04-18T08:32:05.103Z</time></trkpt><trkpt lat="43.554785" lon="11.2982083"><ele>482.0</ele><time>2026-04-18T08:32:06.102Z</time></trkpt><trkpt lat="43.5548983" lon="11.2981167"><ele>481.75</ele><time>2026-04-18T08:32:07.102Z</time></trkpt><trkpt lat="43.5550133" lon="11.2980333"><ele>481.5</ele><time>2026-04-18T08:32:08.103Z</time></trkpt><trkpt lat="43.55514" lon="11.297975"><ele>481.25</ele><time>2026-04-18T08:32:09.103Z</time></trkpt><trkpt lat="43.5552783" lon="11.2979167"><ele>481.0</ele><time>2026-04-18T08:32:10.102Z</time></trkpt><trkpt lat="43.5554117" lon="11.2978683"><ele>482.5</ele><time>2026-04-18T08:32:11.102Z</time></trkpt><trkpt lat="43.555545" lon="11.29783"><ele>484.0</ele><time>2026-04-18T08:32:12.103Z</time></trkpt><trkpt lat="43.5556733" lon="11.29779"><ele>485.5</ele><time>2026-04-18T08:32:13.102Z</time></trkpt><trkpt lat="43.5557967" lon="11.2977517"><ele>487.0</ele><time>2026-04-18T08:32:14.102Z</time></trkpt><trkpt lat="43.5559267" lon="11.297715"><ele>487.0</ele><time>2026-04-18T08:32:15.102Z</time></trkpt><trkpt lat="43.5560617" lon="11.2976817"><ele>487.0</ele><time>2026-04-18T08:32:16.103Z</time></trkpt><trkpt lat="43.5561883" lon="11.2976567"><ele>487.0</ele><time>2026-04-18T08:32:17.102Z</time></trkpt><trkpt lat="43.55632" lon="11.2976333"><ele>487.0</ele><time>2026-04-18T08:32:18.103Z</time></trkpt><trkpt lat="43.5564483" lon="11.2976117"><ele>488.5</ele><time>2026-04-18T08:32:19.102Z</time></trkpt><trkpt lat="43.5565817" lon="11.29758"><ele>490.0</ele><time>2026-04-18T08:32:20.101Z</time></trkpt><trkpt lat="43.556715" lon="11.2975483"><ele>491.5</ele><time>2026-04-18T08:32:21.101Z</time></trkpt><trkpt lat="43.556845" lon="11.2975083"><ele>493.0</ele><time>2026-04-18T08:32:22.101Z</time></trkpt><trkpt lat="43.556965" lon="11.2974583"><ele>494.5</ele><time>2026-04-18T08:32:23.102Z</time></trkpt><trkpt lat="43.5570817" lon="11.2974283"><ele>496.0</ele><time>2026-04-18T08:32:24.101Z</time></trkpt><trkpt lat="43.5572033" lon="11.2974133"><ele>497.5</ele><time>2026-04-18T08:32:25.102Z</time></trkpt><trkpt lat="43.5573283" lon="11.2974067"><ele>499.0</ele><time>2026-04-18T08:32:26.101Z</time></trkpt><trkpt lat="43.5574583" lon="11.2974267"><ele>499.0</ele><time>2026-04-18T08:32:27.102Z</time></trkpt><trkpt lat="43.5575817" lon="11.2974483"><ele>499.0</ele><time>2026-04-18T08:32:28.101Z</time></trkpt><trkpt lat="43.5577" lon="11.297445"><ele>499.0</ele><time>2026-04-18T08:32:29.102Z</time></trkpt><trkpt lat="43.557815" lon="11.2974033"><ele>499.0</ele><time>2026-04-18T08:32:30.101Z</time></trkpt><trkpt lat="43.5579317" lon="11.2973433"><ele>499.75</ele><time>2026-04-18T08:32:31.102Z</time></trkpt><trkpt lat="43.55806" lon="11.29725"><ele>500.5</ele><time>2026-04-18T08:32:32.102Z</time></trkpt><trkpt lat="43.5581883" lon="11.2971717"><ele>501.25</ele><time>2026-04-18T08:32:33.101Z</time></trkpt><trkpt lat="43.558325" lon="11.2970933"><ele>502.0</ele><time>2026-04-18T08:32:34.101Z</time></trkpt><trkpt lat="43.55846" lon="11.2970333"><ele>502.0</ele><time>2026-04-18T08:32:35.101Z</time></trkpt><trkpt lat="43.5585983" lon="11.2970033"><ele>502.0</ele><time>2026-04-18T08:32:36.102Z</time></trkpt><trkpt lat="43.5587467" lon="11.2969683"><ele>502.0</ele><time>2026-04-18T08:32:37.101Z</time></trkpt><trkpt lat="43.55889" lon="11.2969183"><ele>502.0</ele><time>2026-04-18T08:32:38.101Z</time></trkpt><trkpt lat="43.5590367" lon="11.2968583"><ele>502.0</ele><time>2026-04-18T08:32:39.102Z</time></trkpt><trkpt lat="43.559185" lon="11.2968033"><ele>502.0</ele><time>2026-04-18T08:32:40.102Z</time></trkpt><trkpt lat="43.559345" lon="11.296745"><ele>502.0</ele><time>2026-04-18T08:32:41.102Z</time></trkpt><trkpt lat="43.559495" lon="11.2966983"><ele>501.75</ele><time>2026-04-18T08:32:42.102Z</time></trkpt><trkpt lat="43.559645" lon="11.2966817"><ele>501.5</ele><time>2026-04-18T08:32:43.101Z</time></trkpt><trkpt lat="43.5597817" lon="11.2966983"><ele>501.25</ele><time>2026-04-18T08:32:44.102Z</time></trkpt><trkpt lat="43.559915" lon="11.2967033"><ele>501.0</ele><time>2026-04-18T08:32:45.101Z</time></trkpt><trkpt lat="43.56005" lon="11.2967"><ele>501.0</ele><time>2026-04-18T08:32:46.102Z</time></trkpt><trkpt lat="43.5601867" lon="11.2966567"><ele>501.0</ele><time>2026-04-18T08:32:47.101Z</time></trkpt><trkpt lat="43.56033" lon="11.2965967"><ele>501.0</ele><time>2026-04-18T08:32:48.102Z</time></trkpt><trkpt lat="43.56047" lon="11.2965217"><ele>501.0</ele><time>2026-04-18T08:32:49.101Z</time></trkpt><trkpt lat="43.560605" lon="11.2964483"><ele>500.5</ele><time>2026-04-18T08:32:50.102Z</time></trkpt><trkpt lat="43.5607417" lon="11.29637"><ele>500.0</ele><time>2026-04-18T08:32:51.102Z</time></trkpt><trkpt lat="43.5608767" lon="11.2962867"><ele>499.5</ele><time>2026-04-18T08:32:52.101Z</time></trkpt><trkpt lat="43.5610167" lon="11.2962067"><ele>499.0</ele><time>2026-04-18T08:32:53.101Z</time></trkpt><trkpt lat="43.5611517" lon="11.2961183"><ele>501.5</ele><time>2026-04-18T08:32:54.101Z</time></trkpt><trkpt lat="43.56128" lon="11.2960167"><ele>504.0</ele><time>2026-04-18T08:32:55.101Z</time></trkpt><trkpt lat="43.5614033" lon="11.2959017"><ele>506.5</ele><time>2026-04-18T08:32:56.101Z</time></trkpt><trkpt lat="43.561515" lon="11.2957867"><ele>509.0</ele><time>2026-04-18T08:32:57.101Z</time></trkpt><trkpt lat="43.5616267" lon="11.2956917"><ele>509.0</ele><time>2026-04-18T08:32:58.102Z</time></trkpt><trkpt lat="43.5617333" lon="11.295625"><ele>509.0</ele><time>2026-04-18T08:32:59.101Z</time></trkpt><trkpt lat="43.5618383" lon="11.295585"><ele>509.0</ele><time>2026-04-18T08:33:00.101Z</time></trkpt><trkpt lat="43.5619583" lon="11.2955433"><ele>509.0</ele><time>2026-04-18T08:33:01.101Z</time></trkpt><trkpt lat="43.5620667" lon="11.2955083"><ele>506.2</ele><time>2026-04-18T08:33:02.101Z</time></trkpt><trkpt lat="43.5621617" lon="11.2954583"><ele>503.4</ele><time>2026-04-18T08:33:03.101Z</time></trkpt><trkpt lat="43.56224" lon="11.2953733"><ele>500.6</ele><time>2026-04-18T08:33:04.102Z</time></trkpt><trkpt lat="43.562285" lon="11.2952533"><ele>497.8</ele><time>2026-04-18T08:33:05.101Z</time></trkpt><trkpt lat="43.5623083" lon="11.29509"><ele>495.0</ele><time>2026-04-18T08:33:06.101Z</time></trkpt><trkpt lat="43.5623267" lon="11.2948917"><ele>494.25</ele><time>2026-04-18T08:33:07.102Z</time></trkpt><trkpt lat="43.5623517" lon="11.2946883"><ele>493.5</ele><time>2026-04-18T08:33:08.101Z</time></trkpt><trkpt lat="43.5623833" lon="11.2944917"><ele>492.75</ele><time>2026-04-18T08:33:09.101Z</time></trkpt><trkpt lat="43.562425" lon="11.2943"><ele>492.0</ele><time>2026-04-18T08:33:10.102Z</time></trkpt><trkpt lat="43.5624733" lon="11.2941083"><ele>492.0</ele><time>2026-04-18T08:33:11.102Z</time></trkpt><trkpt lat="43.5625283" lon="11.293925"><ele>492.0</ele><time>2026-04-18T08:33:12.101Z</time></trkpt><trkpt lat="43.56258" lon="11.29374"><ele>492.0</ele><time>2026-04-18T08:33:13.101Z</time></trkpt><trkpt lat="43.56264" lon="11.293565"><ele>492.0</ele><time>2026-04-18T08:33:14.102Z</time></trkpt><trkpt lat="43.562705" lon="11.293395"><ele>491.0</ele><time>2026-04-18T08:33:15.102Z</time></trkpt><trkpt lat="43.562775" lon="11.2932333"><ele>490.0</ele><time>2026-04-18T08:33:16.102Z</time></trkpt><trkpt lat="43.5628533" lon="11.2930767"><ele>489.0</ele><time>2026-04-18T08:33:17.101Z</time></trkpt><trkpt lat="43.5629367" lon="11.2929233"><ele>488.0</ele><time>2026-04-18T08:33:18.102Z</time></trkpt><trkpt lat="43.5630267" lon="11.2927767"><ele>485.0</ele><time>2026-04-18T08:33:19.101Z</time></trkpt><trkpt lat="43.5631183" lon="11.2926317"><ele>482.0</ele><time>2026-04-18T08:33:20.102Z</time></trkpt><trkpt lat="43.563225" lon="11.292495"><ele>479.0</ele><time>2026-04-18T08:33:21.102Z</time></trkpt><trkpt lat="43.5633367" lon="11.29237"><ele>476.0</ele><time>2026-04-18T08:33:22.101Z</time></trkpt><trkpt lat="43.5634533" lon="11.29226"><ele>473.25</ele><time>2026-04-18T08:33:23.101Z</time></trkpt><trkpt lat="43.563575" lon="11.29217"><ele>470.5</ele><time>2026-04-18T08:33:24.102Z</time></trkpt><trkpt lat="43.5636967" lon="11.2920967"><ele>467.75</ele><time>2026-04-18T08:33:25.102Z</time></trkpt><trkpt lat="43.563815" lon="11.2920383"><ele>465.0</ele><time>2026-04-18T08:33:26.102Z</time></trkpt><trkpt lat="43.5639333" lon="11.2920017"><ele>464.6</ele><time>2026-04-18T08:33:27.102Z</time></trkpt><trkpt lat="43.56405" lon="11.2919733"><ele>464.2</ele><time>2026-04-18T08:33:28.102Z</time></trkpt><trkpt lat="43.5641583" lon="11.2919567"><ele>463.79999999999995</ele><time>2026-04-18T08:33:29.101Z</time></trkpt><trkpt lat="43.564245" lon="11.291905"><ele>463.4</ele><time>2026-04-18T08:33:30.102Z</time></trkpt><trkpt lat="43.5643117" lon="11.291815"><ele>463.0</ele><time>2026-04-18T08:33:31.101Z</time></trkpt><trkpt lat="43.5643367" lon="11.2916833"><ele>463.00000000000006</ele><time>2026-04-18T08:33:32.101Z</time></trkpt><trkpt lat="43.564325" lon="11.29154"><ele>463.0</ele><time>2026-04-18T08:33:33.102Z</time></trkpt><trkpt lat="43.5642917" lon="11.29141"><ele>463.0</ele><time>2026-04-18T08:33:34.102Z</time></trkpt><trkpt lat="43.5642733" lon="11.2912967"><ele>463.0</ele><time>2026-04-18T08:33:35.101Z</time></trkpt><trkpt lat="43.5642767" lon="11.2911933"><ele>463.00000000000006</ele><time>2026-04-18T08:33:36.102Z</time></trkpt><trkpt lat="43.5643083" lon="11.2910883"><ele>463.0</ele><time>2026-04-18T08:33:37.102Z</time></trkpt><trkpt lat="43.5644033" lon="11.291"><ele>461.25</ele><time>2026-04-18T08:33:38.102Z</time></trkpt><trkpt lat="43.56451" lon="11.290915"><ele>459.5</ele><time>2026-04-18T08:33:39.102Z</time></trkpt><trkpt lat="43.564635" lon="11.2908267"><ele>457.75</ele><time>2026-04-18T08:33:40.101Z</time></trkpt><trkpt lat="43.5647583" lon="11.2907333"><ele>456.0</ele><time>2026-04-18T08:33:41.102Z</time></trkpt><trkpt lat="43.564885" lon="11.2906267"><ele>456.25</ele><time>2026-04-18T08:33:42.101Z</time></trkpt><trkpt lat="43.5650017" lon="11.29051"><ele>456.5</ele><time>2026-04-18T08:33:43.101Z</time></trkpt><trkpt lat="43.5650983" lon="11.2903883"><ele>456.75</ele><time>2026-04-18T08:33:44.102Z</time></trkpt><trkpt lat="43.56519" lon="11.2902583"><ele>457.0</ele><time>2026-04-18T08:33:45.102Z</time></trkpt><trkpt lat="43.5652583" lon="11.2901467"><ele>457.0</ele><time>2026-04-18T08:33:46.102Z</time></trkpt><trkpt lat="43.5653267" lon="11.2900567"><ele>457.00000000000006</ele><time>2026-04-18T08:33:47.102Z</time></trkpt><trkpt lat="43.5653983" lon="11.290005"><ele>457.00000000000006</ele><time>2026-04-18T08:33:48.102Z</time></trkpt><trkpt lat="43.56549" lon="11.2899783"><ele>457.0</ele><time>2026-04-18T08:33:49.101Z</time></trkpt><trkpt lat="43.5655967" lon="11.2899833"><ele>457.0</ele><time>2026-04-18T08:33:50.101Z</time></trkpt><trkpt lat="43.5657033" lon="11.2900167"><ele>457.20000000000005</ele><time>2026-04-18T08:33:51.101Z</time></trkpt><trkpt lat="43.5658117" lon="11.290085"><ele>457.40000000000003</ele><time>2026-04-18T08:33:52.101Z</time></trkpt><trkpt lat="43.565915" lon="11.29015"><ele>457.59999999999997</ele><time>2026-04-18T08:33:53.101Z</time></trkpt><trkpt lat="43.5660117" lon="11.2902133"><ele>457.79999999999995</ele><time>2026-04-18T08:33:54.101Z</time></trkpt><trkpt lat="43.5660933" lon="11.2902433"><ele>458.0</ele><time>2026-04-18T08:33:55.101Z</time></trkpt><trkpt lat="43.56617" lon="11.2902383"><ele>457.2</ele><time>2026-04-18T08:33:56.101Z</time></trkpt><trkpt lat="43.5662583" lon="11.2902117"><ele>456.4</ele><time>2026-04-18T08:33:57.102Z</time></trkpt><trkpt lat="43.5663633" lon="11.290175"><ele>455.59999999999997</ele><time>2026-04-18T08:33:58.101Z</time></trkpt><trkpt lat="43.5664783" lon="11.2901233"><ele>454.79999999999995</ele><time>2026-04-18T08:33:59.101Z</time></trkpt><trkpt lat="43.5665967" lon="11.2900883"><ele>454.0</ele><time>2026-04-18T08:34:00.102Z</time></trkpt><trkpt lat="43.56671" lon="11.29006"><ele>454.0</ele><time>2026-04-18T08:34:01.101Z</time></trkpt><trkpt lat="43.5668283" lon="11.2900333"><ele>454.0</ele><time>2026-04-18T08:34:02.101Z</time></trkpt><trkpt lat="43.56694" lon="11.290025"><ele>454.0</ele><time>2026-04-18T08:34:03.101Z</time></trkpt><trkpt lat="43.56706" lon="11.2900133"><ele>454.0</ele><time>2026-04-18T08:34:04.101Z</time></trkpt><trkpt lat="43.56716" lon="11.2899767"><ele>453.5</ele><time>2026-04-18T08:34:05.102Z</time></trkpt><trkpt lat="43.5672567" lon="11.289895"><ele>453.0</ele><time>2026-04-18T08:34:06.102Z</time></trkpt><trkpt lat="43.567335" lon="11.2897683"><ele>452.5</ele><time>2026-04-18T08:34:07.101Z</time></trkpt><trkpt lat="43.5674133" lon="11.2896317"><ele>452.0</ele><time>2026-04-18T08:34:08.101Z</time></trkpt><trkpt lat="43.5675017" lon="11.2894917"><ele>452.0</ele><time>2026-04-18T08:34:09.101Z</time></trkpt><trkpt lat="43.5675917" lon="11.2893567"><ele>452.0</ele><time>2026-04-18T08:34:10.101Z</time></trkpt><trkpt lat="43.5676883" lon="11.2892217"><ele>452.0</ele><time>2026-04-18T08:34:11.101Z</time></trkpt><trkpt lat="43.5677767" lon="11.2890783"><ele>452.0</ele><time>2026-04-18T08:34:12.102Z</time></trkpt><trkpt lat="43.5678467" lon="11.2889267"><ele>452.0</ele><time>2026-04-18T08:34:13.102Z</time></trkpt><trkpt lat="43.5679017" lon="11.2887667"><ele>452.0</ele><time>2026-04-18T08:34:14.102Z</time></trkpt><trkpt lat="43.5679633" lon="11.2885883"><ele>452.0</ele><time>2026-04-18T08:34:15.102Z</time></trkpt><trkpt lat="43.568025" lon="11.28842"><ele>452.0</ele><time>2026-04-18T08:34:16.102Z</time></trkpt><trkpt lat="43.56808" lon="11.2882533"><ele>452.0</ele><time>2026-04-18T08:34:17.102Z</time></trkpt><trkpt lat="43.5681467" lon="11.2880967"><ele>452.0</ele><time>2026-04-18T08:34:18.101Z</time></trkpt><trkpt lat="43.5682283" lon="11.2879517"><ele>452.0</ele><time>2026-04-18T08:34:19.102Z</time></trkpt><trkpt lat="43.5683117" lon="11.28783"><ele>452.0</ele><time>2026-04-18T08:34:20.102Z</time></trkpt><trkpt lat="43.5683867" lon="11.2877017"><ele>449.25</ele><time>2026-04-18T08:34:21.101Z</time></trkpt><trkpt lat="43.5684517" lon="11.28757"><ele>446.5</ele><time>2026-04-18T08:34:22.101Z</time></trkpt><trkpt lat="43.5685133" lon="11.2874333"><ele>443.75</ele><time>2026-04-18T08:34:23.101Z</time></trkpt><trkpt lat="43.5685883" lon="11.2873033"><ele>441.0</ele><time>2026-04-18T08:34:24.101Z</time></trkpt><trkpt lat="43.5686717" lon="11.2871783"><ele>438.25</ele><time>2026-04-18T08:34:25.101Z</time></trkpt><trkpt lat="43.5687633" lon="11.2870733"><ele>435.5</ele><time>2026-04-18T08:34:26.102Z</time></trkpt><trkpt lat="43.56888" lon="11.2869917"><ele>432.75</ele><time>2026-04-18T08:34:27.101Z</time></trkpt><trkpt lat="43.5689933" lon="11.2869133"><ele>430.0</ele><time>2026-04-18T08:34:28.101Z</time></trkpt><trkpt lat="43.5691033" lon="11.286835"><ele>430.0</ele><time>2026-04-18T08:34:29.101Z</time></trkpt><trkpt lat="43.569195" lon="11.2867433"><ele>430.0</ele><time>2026-04-18T08:34:30.101Z</time></trkpt><trkpt lat="43.5692683" lon="11.2866467"><ele>430.0</ele><time>2026-04-18T08:34:31.102Z</time></trkpt><trkpt lat="43.5693217" lon="11.2865317"><ele>430.0</ele><time>2026-04-18T08:34:32.101Z</time></trkpt><trkpt lat="43.5693517" lon="11.28639"><ele>430.0</ele><time>2026-04-18T08:34:33.101Z</time></trkpt><trkpt lat="43.56935" lon="11.28623"><ele>428.5</ele><time>2026-04-18T08:34:34.101Z</time></trkpt><trkpt lat="43.56933" lon="11.2860483"><ele>427.0</ele><time>2026-04-18T08:34:35.102Z</time></trkpt><trkpt lat="43.5693133" lon="11.2858717"><ele>425.5</ele><time>2026-04-18T08:34:36.102Z</time></trkpt><trkpt lat="43.5693117" lon="11.2856917"><ele>424.0</ele><time>2026-04-18T08:34:37.101Z</time></trkpt><trkpt lat="43.5693233" lon="11.2855167"><ele>422.75</ele><time>2026-04-18T08:34:38.102Z</time></trkpt><trkpt lat="43.5693467" lon="11.2853517"><ele>421.5</ele><time>2026-04-18T08:34:39.101Z</time></trkpt><trkpt lat="43.5693883" lon="11.2852067"><ele>420.25</ele><time>2026-04-18T08:34:40.102Z</time></trkpt><trkpt lat="43.5694467" lon="11.2850717"><ele>419.0</ele><time>2026-04-18T08:34:41.101Z</time></trkpt><trkpt lat="43.56952" lon="11.284955"><ele>419.75</ele><time>2026-04-18T08:34:42.101Z</time></trkpt><trkpt lat="43.5696117" lon="11.2848467"><ele>420.5</ele><time>2026-04-18T08:34:43.102Z</time></trkpt><trkpt lat="43.5697183" lon="11.2847467"><ele>421.25</ele><time>2026-04-18T08:34:44.101Z</time></trkpt><trkpt lat="43.5698283" lon="11.28465"><ele>422.0</ele><time>2026-04-18T08:34:45.101Z</time></trkpt><trkpt lat="43.56994" lon="11.28455"><ele>425.0</ele><time>2026-04-18T08:34:46.101Z</time></trkpt><trkpt lat="43.5700583" lon="11.2844583"><ele>428.0</ele><time>2026-04-18T08:34:47.101Z</time></trkpt><trkpt lat="43.5701717" lon="11.284385"><ele>431.0</ele><time>2026-04-18T08:34:48.101Z</time></trkpt><trkpt lat="43.57029" lon="11.2843133"><ele>434.0</ele><time>2026-04-18T08:34:49.102Z</time></trkpt><trkpt lat="43.5704083" lon="11.2842383"><ele>435.5</ele><time>2026-04-18T08:34:50.102Z</time></trkpt><trkpt lat="43.5705133" lon="11.2841483"><ele>437.0</ele><time>2026-04-18T08:34:51.101Z</time></trkpt><trkpt lat="43.5705917" lon="11.2840433"><ele>438.5</ele><time>2026-04-18T08:34:52.102Z</time></trkpt><trkpt lat="43.5706533" lon="11.2839133"><ele>440.0</ele><time>2026-04-18T08:34:53.101Z</time></trkpt><trkpt lat="43.57071" lon="11.2837583"><ele>442.0</ele><time>2026-04-18T08:34:54.102Z</time></trkpt><trkpt lat="43.5707733" lon="11.2836033"><ele>444.0</ele><time>2026-04-18T08:34:55.101Z</time></trkpt><trkpt lat="43.5708483" lon="11.283445"><ele>446.0</ele><time>2026-04-18T08:34:56.102Z</time></trkpt><trkpt lat="43.5709267" lon="11.2832817"><ele>448.0</ele><time>2026-04-18T08:34:57.102Z</time></trkpt><trkpt lat="43.5710067" lon="11.2831183"><ele>448.25</ele><time>2026-04-18T08:34:58.101Z</time></trkpt><trkpt lat="43.5710783" lon="11.2829633"><ele>448.5</ele><time>2026-04-18T08:34:59.101Z</time></trkpt><trkpt lat="43.57115" lon="11.2828017"><ele>448.75</ele><time>2026-04-18T08:35:00.101Z</time></trkpt><trkpt lat="43.5712317" lon="11.28265"><ele>449.0</ele><time>2026-04-18T08:35:01.101Z</time></trkpt><trkpt lat="43.5713117" lon="11.2824967"><ele>449.0</ele><time>2026-04-18T08:35:02.102Z</time></trkpt><trkpt lat="43.57139" lon="11.28235"><ele>449.0</ele><time>2026-04-18T08:35:03.101Z</time></trkpt><trkpt lat="43.571455" lon="11.2822117"><ele>449.0</ele><time>2026-04-18T08:35:04.102Z</time></trkpt><trkpt lat="43.5715033" lon="11.282075"><ele>449.0</ele><time>2026-04-18T08:35:05.102Z</time></trkpt><trkpt lat="43.5715317" lon="11.2819283"><ele>450.79999999999995</ele><time>2026-04-18T08:35:06.102Z</time></trkpt><trkpt lat="43.5715367" lon="11.2817717"><ele>452.59999999999997</ele><time>2026-04-18T08:35:07.101Z</time></trkpt><trkpt lat="43.5715217" lon="11.281625"><ele>454.4</ele><time>2026-04-18T08:35:08.101Z</time></trkpt><trkpt lat="43.5714817" lon="11.2815067"><ele>456.2</ele><time>2026-04-18T08:35:09.101Z</time></trkpt><trkpt lat="43.5714317" lon="11.2814217"><ele>458.0</ele><time>2026-04-18T08:35:10.101Z</time></trkpt><trkpt lat="43.571355" lon="11.2813517"><ele>460.25</ele><time>2026-04-18T08:35:11.102Z</time></trkpt><trkpt lat="43.57126" lon="11.2812833"><ele>462.5</ele><time>2026-04-18T08:35:12.102Z</time></trkpt><trkpt lat="43.571155" lon="11.281215"><ele>464.75</ele><time>2026-04-18T08:35:13.101Z</time></trkpt><trkpt lat="43.5710417" lon="11.2811517"><ele>467.0</ele><time>2026-04-18T08:35:14.101Z</time></trkpt><trkpt lat="43.5709317" lon="11.2810817"><ele>467.0</ele><time>2026-04-18T08:35:15.102Z</time></trkpt><trkpt lat="43.5708367" lon="11.28101"><ele>467.00000000000006</ele><time>2026-04-18T08:35:16.102Z</time></trkpt><trkpt lat="43.57074" lon="11.2809333"><ele>467.00000000000006</ele><time>2026-04-18T08:35:17.101Z</time></trkpt><trkpt lat="43.570665" lon="11.280845"><ele>467.0</ele><time>2026-04-18T08:35:18.101Z</time></trkpt><trkpt lat="43.5706217" lon="11.28074"><ele>467.0</ele><time>2026-04-18T08:35:19.102Z</time></trkpt><trkpt lat="43.5705833" lon="11.28063"><ele>468.40000000000003</ele><time>2026-04-18T08:35:20.101Z</time></trkpt><trkpt lat="43.5705567" lon="11.280515"><ele>469.80000000000007</ele><time>2026-04-18T08:35:21.102Z</time></trkpt><trkpt lat="43.570555" lon="11.280385"><ele>471.2</ele><time>2026-04-18T08:35:22.102Z</time></trkpt><trkpt lat="43.5705733" lon="11.2802667"><ele>472.6</ele><time>2026-04-18T08:35:23.101Z</time></trkpt><trkpt lat="43.5705883" lon="11.2801717"><ele>474.0</ele><time>2026-04-18T08:35:24.101Z</time></trkpt><trkpt lat="43.57069" lon="11.280105"><ele>474.0</ele><time>2026-04-18T08:35:26.101Z</time></trkpt><trkpt lat="43.5707683" lon="11.280135"><ele>474.0</ele><time>2026-04-18T08:35:27.102Z</time></trkpt><trkpt lat="43.5708483" lon="11.2801833"><ele>474.0</ele><time>2026-04-18T08:35:28.101Z</time></trkpt><trkpt lat="43.570945" lon="11.2802367"><ele>474.0</ele><time>2026-04-18T08:35:29.102Z</time></trkpt><trkpt lat="43.5710433" lon="11.28028"><ele>474.0</ele><time>2026-04-18T08:35:30.101Z</time></trkpt><trkpt lat="43.5711467" lon="11.2803167"><ele>477.25</ele><time>2026-04-18T08:35:31.101Z</time></trkpt><trkpt lat="43.5712483" lon="11.2803283"><ele>480.5</ele><time>2026-04-18T08:35:32.101Z</time></trkpt><trkpt lat="43.5713717" lon="11.2803033"><ele>483.75</ele><time>2026-04-18T08:35:33.101Z</time></trkpt><trkpt lat="43.5714983" lon="11.28027"><ele>487.0</ele><time>2026-04-18T08:35:34.102Z</time></trkpt><trkpt lat="43.5716283" lon="11.2802283"><ele>487.0</ele><time>2026-04-18T08:35:35.102Z</time></trkpt><trkpt lat="43.5717533" lon="11.2801917"><ele>487.0</ele><time>2026-04-18T08:35:36.102Z</time></trkpt><trkpt lat="43.5718717" lon="11.2801433"><ele>487.0</ele><time>2026-04-18T08:35:37.101Z</time></trkpt><trkpt lat="43.571975" lon="11.2800817"><ele>487.0</ele><time>2026-04-18T08:35:38.101Z</time></trkpt><trkpt lat="43.5720683" lon="11.27999"><ele>486.75</ele><time>2026-04-18T08:35:39.101Z</time></trkpt><trkpt lat="43.5721467" lon="11.2798683"><ele>486.5</ele><time>2026-04-18T08:35:40.101Z</time></trkpt><trkpt lat="43.5722067" lon="11.2797217"><ele>486.25</ele><time>2026-04-18T08:35:41.102Z</time></trkpt><trkpt lat="43.572255" lon="11.27956"><ele>486.0</ele><time>2026-04-18T08:35:42.101Z</time></trkpt><trkpt lat="43.572295" lon="11.2793933"><ele>489.0</ele><time>2026-04-18T08:35:43.101Z</time></trkpt><trkpt lat="43.5723483" lon="11.2792317"><ele>492.0</ele><time>2026-04-18T08:35:44.102Z</time></trkpt><trkpt lat="43.5724217" lon="11.2790783"><ele>495.0</ele><time>2026-04-18T08:35:45.102Z</time></trkpt><trkpt lat="43.5725033" lon="11.2789417"><ele>498.0</ele><time>2026-04-18T08:35:46.101Z</time></trkpt><trkpt lat="43.57259" lon="11.278815"><ele>498.5</ele><time>2026-04-18T08:35:47.102Z</time></trkpt><trkpt lat="43.5726917" lon="11.27869"><ele>499.0</ele><time>2026-04-18T08:35:48.101Z</time></trkpt><trkpt lat="43.57279" lon="11.2785417"><ele>499.5</ele><time>2026-04-18T08:35:49.101Z</time></trkpt><trkpt lat="43.5728967" lon="11.27843"><ele>500.0</ele><time>2026-04-18T08:35:50.101Z</time></trkpt><trkpt lat="43.57302" lon="11.2783433"><ele>501.5</ele><time>2026-04-18T08:35:51.101Z</time></trkpt><trkpt lat="43.5731483" lon="11.27826"><ele>503.0</ele><time>2026-04-18T08:35:52.101Z</time></trkpt><trkpt lat="43.573275" lon="11.2781767"><ele>504.5</ele><time>2026-04-18T08:35:53.102Z</time></trkpt><trkpt lat="43.57339" lon="11.2780733"><ele>506.0</ele><time>2026-04-18T08:35:54.102Z</time></trkpt><trkpt lat="43.5735083" lon="11.2779583"><ele>506.0</ele><time>2026-04-18T08:35:55.101Z</time></trkpt><trkpt lat="43.5736217" lon="11.2778267"><ele>506.0</ele><time>2026-04-18T08:35:56.102Z</time></trkpt><trkpt lat="43.5737183" lon="11.27769"><ele>506.0</ele><time>2026-04-18T08:35:57.101Z</time></trkpt><trkpt lat="43.5738083" lon="11.2775467"><ele>506.0</ele><time>2026-04-18T08:35:58.101Z</time></trkpt><trkpt lat="43.5739033" lon="11.2774067"><ele>508.0</ele><time>2026-04-18T08:35:59.102Z</time></trkpt><trkpt lat="43.5740117" lon="11.2772883"><ele>510.0</ele><time>2026-04-18T08:36:00.101Z</time></trkpt><trkpt lat="43.57412" lon="11.2771817"><ele>512.0</ele><time>2026-04-18T08:36:01.101Z</time></trkpt><trkpt lat="43.57423" lon="11.2770817"><ele>514.0</ele><time>2026-04-18T08:36:02.101Z</time></trkpt><trkpt lat="43.57435" lon="11.2769833"><ele>514.0</ele><time>2026-04-18T08:36:03.102Z</time></trkpt><trkpt lat="43.5744817" lon="11.2768917"><ele>514.0</ele><time>2026-04-18T08:36:04.101Z</time></trkpt><trkpt lat="43.5746083" lon="11.2768183"><ele>514.0</ele><time>2026-04-18T08:36:05.101Z</time></trkpt><trkpt lat="43.5747433" lon="11.2767317"><ele>514.0</ele><time>2026-04-18T08:36:06.102Z</time></trkpt><trkpt lat="43.5748717" lon="11.2766483"><ele>515.25</ele><time>2026-04-18T08:36:07.101Z</time></trkpt><trkpt lat="43.5749967" lon="11.2765717"><ele>516.5</ele><time>2026-04-18T08:36:08.101Z</time></trkpt><trkpt lat="43.575125" lon="11.2765033"><ele>517.75</ele><time>2026-04-18T08:36:09.101Z</time></trkpt><trkpt lat="43.57525" lon="11.2764317"><ele>519.0</ele><time>2026-04-18T08:36:10.1Z</time></trkpt><trkpt lat="43.575375" lon="11.276355"><ele>521.5</ele><time>2026-04-18T08:36:11.1Z</time></trkpt><trkpt lat="43.5755" lon="11.2762867"><ele>524.0</ele><time>2026-04-18T08:36:12.1Z</time></trkpt><trkpt lat="43.5756217" lon="11.276205"><ele>526.5</ele><time>2026-04-18T08:36:13.101Z</time></trkpt><trkpt lat="43.57574" lon="11.2761417"><ele>529.0</ele><time>2026-04-18T08:36:14.1Z</time></trkpt><trkpt lat="43.5758517" lon="11.2760783"><ele>529.0</ele><time>2026-04-18T08:36:15.1Z</time></trkpt><trkpt lat="43.5759633" lon="11.2760067"><ele>529.0</ele><time>2026-04-18T08:36:16.101Z</time></trkpt><trkpt lat="43.57608" lon="11.275935"><ele>529.0</ele><time>2026-04-18T08:36:17.101Z</time></trkpt><trkpt lat="43.5761933" lon="11.2758583"><ele>529.0</ele><time>2026-04-18T08:36:18.1Z</time></trkpt><trkpt lat="43.5763117" lon="11.2757817"><ele>528.25</ele><time>2026-04-18T08:36:19.101Z</time></trkpt><trkpt lat="43.5764333" lon="11.2756833"><ele>527.5</ele><time>2026-04-18T08:36:20.1Z</time></trkpt><trkpt lat="43.5765583" lon="11.2755817"><ele>526.75</ele><time>2026-04-18T08:36:21.101Z</time></trkpt><trkpt lat="43.5766883" lon="11.2754833"><ele>526.0</ele><time>2026-04-18T08:36:22.1Z</time></trkpt><trkpt lat="43.57681" lon="11.27538"><ele>526.0</ele><time>2026-04-18T08:36:23.1Z</time></trkpt><trkpt lat="43.5769167" lon="11.27527"><ele>526.0</ele><time>2026-04-18T08:36:24.101Z</time></trkpt><trkpt lat="43.5770217" lon="11.2751617"><ele>526.0</ele><time>2026-04-18T08:36:25.1Z</time></trkpt><trkpt lat="43.5771283" lon="11.2750583"><ele>526.0</ele><time>2026-04-18T08:36:26.1Z</time></trkpt><trkpt lat="43.57724" lon="11.2749567"><ele>522.25</ele><time>2026-04-18T08:36:27.101Z</time></trkpt><trkpt lat="43.577345" lon="11.2748567"><ele>518.5</ele><time>2026-04-18T08:36:28.101Z</time></trkpt><trkpt lat="43.577445" lon="11.2747583"><ele>514.75</ele><time>2026-04-18T08:36:29.101Z</time></trkpt><trkpt lat="43.5775483" lon="11.2746533"><ele>511.0</ele><time>2026-04-18T08:36:30.1Z</time></trkpt><trkpt lat="43.57765" lon="11.2745533"><ele>510.6</ele><time>2026-04-18T08:36:31.1Z</time></trkpt><trkpt lat="43.577745" lon="11.2744383"><ele>510.20000000000005</ele><time>2026-04-18T08:36:32.101Z</time></trkpt><trkpt lat="43.5778317" lon="11.2743317"><ele>509.79999999999995</ele><time>2026-04-18T08:36:33.1Z</time></trkpt><trkpt lat="43.5779117" lon="11.2742267"><ele>509.4</ele><time>2026-04-18T08:36:34.101Z</time></trkpt><trkpt lat="43.5779767" lon="11.2741333"><ele>509.0</ele><time>2026-04-18T08:36:35.101Z</time></trkpt><trkpt lat="43.5780333" lon="11.2740567"><ele>506.99999999999994</ele><time>2026-04-18T08:36:36.1Z</time></trkpt><trkpt lat="43.57809" lon="11.27399"><ele>505.0</ele><time>2026-04-18T08:36:37.1Z</time></trkpt><trkpt lat="43.5781533" lon="11.2739317"><ele>503.0</ele><time>2026-04-18T08:36:38.1Z</time></trkpt><trkpt lat="43.5782233" lon="11.2738983"><ele>501.0</ele><time>2026-04-18T08:36:39.1Z</time></trkpt><trkpt lat="43.578315" lon="11.2738733"><ele>498.99999999999994</ele><time>2026-04-18T08:36:40.1Z</time></trkpt><trkpt lat="43.5784083" lon="11.27386"><ele>497.0</ele><time>2026-04-18T08:36:41.1Z</time></trkpt><trkpt lat="43.5785033" lon="11.273845"><ele>495.99999999999994</ele><time>2026-04-18T08:36:42.1Z</time></trkpt><trkpt lat="43.578585" lon="11.2738267"><ele>495.0</ele><time>2026-04-18T08:36:43.1Z</time></trkpt><trkpt lat="43.5786617" lon="11.273805"><ele>494.0</ele><time>2026-04-18T08:36:44.1Z</time></trkpt><trkpt lat="43.5787333" lon="11.2737867"><ele>493.0</ele><time>2026-04-18T08:36:45.1Z</time></trkpt><trkpt lat="43.5788417" lon="11.2737183"><ele>491.99999999999994</ele><time>2026-04-18T08:36:47.1Z</time></trkpt><trkpt lat="43.578875" lon="11.2736433"><ele>491.0</ele><time>2026-04-18T08:36:48.101Z</time></trkpt><trkpt lat="43.5789033" lon="11.2735483"><ele>490.99999999999994</ele><time>2026-04-18T08:36:49.1Z</time></trkpt><trkpt lat="43.5789167" lon="11.27344"><ele>491.0</ele><time>2026-04-18T08:36:50.1Z</time></trkpt><trkpt lat="43.5789583" lon="11.27334"><ele>491.0</ele><time>2026-04-18T08:36:51.1Z</time></trkpt><trkpt lat="43.5790133" lon="11.273255"><ele>491.0</ele><time>2026-04-18T08:36:52.1Z</time></trkpt><trkpt lat="43.5790883" lon="11.273185"><ele>490.99999999999994</ele><time>2026-04-18T08:36:53.101Z</time></trkpt><trkpt lat="43.579175" lon="11.273125"><ele>491.0</ele><time>2026-04-18T08:36:54.1Z</time></trkpt><trkpt lat="43.579275" lon="11.2730583"><ele>488.6</ele><time>2026-04-18T08:36:55.1Z</time></trkpt><trkpt lat="43.5793733" lon="11.2729917"><ele>486.20000000000005</ele><time>2026-04-18T08:36:56.1Z</time></trkpt><trkpt lat="43.579465" lon="11.2729167"><ele>483.79999999999995</ele><time>2026-04-18T08:36:57.1Z</time></trkpt><trkpt lat="43.5795533" lon="11.2728383"><ele>481.4</ele><time>2026-04-18T08:36:58.101Z</time></trkpt><trkpt lat="43.57964" lon="11.2727483"><ele>479.0</ele><time>2026-04-18T08:36:59.101Z</time></trkpt><trkpt lat="43.5797267" lon="11.27267"><ele>479.0</ele><time>2026-04-18T08:37:00.1Z</time></trkpt><trkpt lat="43.5798167" lon="11.272575"><ele>479.0</ele><time>2026-04-18T08:37:01.101Z</time></trkpt><trkpt lat="43.57991" lon="11.2724833"><ele>479.0</ele><time>2026-04-18T08:37:02.101Z</time></trkpt><trkpt lat="43.5800017" lon="11.2723933"><ele>479.0</ele><time>2026-04-18T08:37:03.1Z</time></trkpt><trkpt lat="43.5800867" lon="11.2722967"><ele>478.2</ele><time>2026-04-18T08:37:04.101Z</time></trkpt><trkpt lat="43.5801683" lon="11.2722017"><ele>477.4</ele><time>2026-04-18T08:37:05.101Z</time></trkpt><trkpt lat="43.5802467" lon="11.2721"><ele>476.6</ele><time>2026-04-18T08:37:06.101Z</time></trkpt><trkpt lat="43.5803183" lon="11.2719933"><ele>475.8</ele><time>2026-04-18T08:37:07.1Z</time></trkpt><trkpt lat="43.58039" lon="11.2718867"><ele>475.0</ele><time>2026-04-18T08:37:08.1Z</time></trkpt><trkpt lat="43.5804583" lon="11.2717783"><ele>475.0</ele><time>2026-04-18T08:37:09.1Z</time></trkpt><trkpt lat="43.5805133" lon="11.2716633"><ele>475.0</ele><time>2026-04-18T08:37:10.1Z</time></trkpt><trkpt lat="43.5805617" lon="11.2715483"><ele>475.0</ele><time>2026-04-18T08:37:11.1Z</time></trkpt><trkpt lat="43.5805983" lon="11.2714167"><ele>475.0</ele><time>2026-04-18T08:37:12.101Z</time></trkpt><trkpt lat="43.5806083" lon="11.2712767"><ele>475.0</ele><time>2026-04-18T08:37:13.101Z</time></trkpt><trkpt lat="43.58062" lon="11.2711383"><ele>473.0</ele><time>2026-04-18T08:37:14.1Z</time></trkpt><trkpt lat="43.5806217" lon="11.2709917"><ele>471.0</ele><time>2026-04-18T08:37:15.1Z</time></trkpt><trkpt lat="43.580625" lon="11.2708433"><ele>469.0</ele><time>2026-04-18T08:37:16.101Z</time></trkpt><trkpt lat="43.58064" lon="11.2706933"><ele>467.0</ele><time>2026-04-18T08:37:17.1Z</time></trkpt><trkpt lat="43.5806617" lon="11.2705483"><ele>465.0</ele><time>2026-04-18T08:37:18.1Z</time></trkpt><trkpt lat="43.580705" lon="11.2704067"><ele>461.6</ele><time>2026-04-18T08:37:19.1Z</time></trkpt><trkpt lat="43.58076" lon="11.27027"><ele>458.2</ele><time>2026-04-18T08:37:20.1Z</time></trkpt><trkpt lat="43.5808283" lon="11.2701617"><ele>454.79999999999995</ele><time>2026-04-18T08:37:21.1Z</time></trkpt><trkpt lat="43.5809083" lon="11.2700633"><ele>451.4</ele><time>2026-04-18T08:37:22.1Z</time></trkpt><trkpt lat="43.5809917" lon="11.2699667"><ele>448.0</ele><time>2026-04-18T08:37:23.101Z</time></trkpt><trkpt lat="43.5810733" lon="11.2698617"><ele>447.4</ele><time>2026-04-18T08:37:24.101Z</time></trkpt><trkpt lat="43.5811367" lon="11.2697367"><ele>446.79999999999995</ele><time>2026-04-18T08:37:25.101Z</time></trkpt><trkpt lat="43.5811917" lon="11.2695933"><ele>446.2</ele><time>2026-04-18T08:37:26.101Z</time></trkpt><trkpt lat="43.5812467" lon="11.2694483"><ele>445.6</ele><time>2026-04-18T08:37:27.101Z</time></trkpt><trkpt lat="43.581295" lon="11.2693283"><ele>445.0</ele><time>2026-04-18T08:37:28.101Z</time></trkpt><trkpt lat="43.5813517" lon="11.26923"><ele>445.0</ele><time>2026-04-18T08:37:29.101Z</time></trkpt><trkpt lat="43.5814267" lon="11.26917"><ele>445.0</ele><time>2026-04-18T08:37:30.1Z</time></trkpt><trkpt lat="43.5815167" lon="11.2691017"><ele>445.0</ele><time>2026-04-18T08:37:31.1Z</time></trkpt><trkpt lat="43.5816083" lon="11.2690367"><ele>445.0</ele><time>2026-04-18T08:37:32.1Z</time></trkpt><trkpt lat="43.5816933" lon="11.268965"><ele>445.0</ele><time>2026-04-18T08:37:33.101Z</time></trkpt><trkpt lat="43.5817633" lon="11.2689017"><ele>445.0</ele><time>2026-04-18T08:37:34.1Z</time></trkpt><trkpt lat="43.5818317" lon="11.2688133"><ele>445.0</ele><time>2026-04-18T08:37:35.1Z</time></trkpt><trkpt lat="43.5818817" lon="11.2687167"><ele>445.0</ele><time>2026-04-18T08:37:36.101Z</time></trkpt><trkpt lat="43.5819317" lon="11.2685867"><ele>445.0</ele><time>2026-04-18T08:37:37.101Z</time></trkpt><trkpt lat="43.5819883" lon="11.2684367"><ele>445.0</ele><time>2026-04-18T08:37:38.1Z</time></trkpt><trkpt lat="43.5820467" lon="11.2682967"><ele>445.0</ele><time>2026-04-18T08:37:39.1Z</time></trkpt><trkpt lat="43.5821" lon="11.2681567"><ele>445.0</ele><time>2026-04-18T08:37:40.1Z</time></trkpt><trkpt lat="43.5821483" lon="11.2680217"><ele>445.0</ele><time>2026-04-18T08:37:41.1Z</time></trkpt><trkpt lat="43.582185" lon="11.26788"><ele>445.0</ele><time>2026-04-18T08:37:42.101Z</time></trkpt><trkpt lat="43.5822017" lon="11.2677483"><ele>445.0</ele><time>2026-04-18T08:37:43.1Z</time></trkpt><trkpt lat="43.582225" lon="11.2676133"><ele>443.5</ele><time>2026-04-18T08:37:44.1Z</time></trkpt><trkpt lat="43.5822517" lon="11.2674717"><ele>442.0</ele><time>2026-04-18T08:37:45.101Z</time></trkpt><trkpt lat="43.5822867" lon="11.267325"><ele>440.5</ele><time>2026-04-18T08:37:46.1Z</time></trkpt><trkpt lat="43.582325" lon="11.2671717"><ele>439.0</ele><time>2026-04-18T08:37:47.101Z</time></trkpt><trkpt lat="43.58236" lon="11.2670167"><ele>437.75</ele><time>2026-04-18T08:37:48.101Z</time></trkpt><trkpt lat="43.582395" lon="11.26686"><ele>436.5</ele><time>2026-04-18T08:37:49.1Z</time></trkpt><trkpt lat="43.5824267" lon="11.2667033"><ele>435.25</ele><time>2026-04-18T08:37:50.101Z</time></trkpt><trkpt lat="43.5824533" lon="11.26654"><ele>434.0</ele><time>2026-04-18T08:37:51.1Z</time></trkpt><trkpt lat="43.5824883" lon="11.2663833"><ele>432.5</ele><time>2026-04-18T08:37:52.101Z</time></trkpt><trkpt lat="43.5825183" lon="11.26622"><ele>431.0</ele><time>2026-04-18T08:37:53.101Z</time></trkpt><trkpt lat="43.5825517" lon="11.26606"><ele>429.5</ele><time>2026-04-18T08:37:54.101Z</time></trkpt><trkpt lat="43.5825817" lon="11.265895"><ele>428.0</ele><time>2026-04-18T08:37:55.1Z</time></trkpt><trkpt lat="43.5826217" lon="11.2657417"><ele>426.79999999999995</ele><time>2026-04-18T08:37:56.1Z</time></trkpt><trkpt lat="43.5826533" lon="11.2655933"><ele>425.59999999999997</ele><time>2026-04-18T08:37:57.101Z</time></trkpt><trkpt lat="43.5826783" lon="11.2654583"><ele>424.4</ele><time>2026-04-18T08:37:58.1Z</time></trkpt><trkpt lat="43.5826967" lon="11.2653367"><ele>423.20000000000005</ele><time>2026-04-18T08:37:59.1Z</time></trkpt><trkpt lat="43.5827183" lon="11.2652283"><ele>422.0</ele><time>2026-04-18T08:38:00.101Z</time></trkpt><trkpt lat="43.5827383" lon="11.2651367"><ele>421.99999999999994</ele><time>2026-04-18T08:38:01.1Z</time></trkpt><trkpt lat="43.5827683" lon="11.2650417"><ele>422.0</ele><time>2026-04-18T08:38:02.101Z</time></trkpt><trkpt lat="43.5827817" lon="11.26494"><ele>422.0</ele><time>2026-04-18T08:38:03.101Z</time></trkpt><trkpt lat="43.5827867" lon="11.2648283"><ele>422.0</ele><time>2026-04-18T08:38:04.1Z</time></trkpt><trkpt lat="43.5828" lon="11.2647167"><ele>421.99999999999994</ele><time>2026-04-18T08:38:05.1Z</time></trkpt><trkpt lat="43.5828233" lon="11.2646033"><ele>422.0</ele><time>2026-04-18T08:38:06.1Z</time></trkpt><trkpt lat="43.5828533" lon="11.2644983"><ele>422.16666666666663</ele><time>2026-04-18T08:38:07.101Z</time></trkpt><trkpt lat="43.5829" lon="11.2644183"><ele>422.3333333333333</ele><time>2026-04-18T08:38:08.1Z</time></trkpt><trkpt lat="43.5829617" lon="11.264345"><ele>422.5</ele><time>2026-04-18T08:38:09.101Z</time></trkpt><trkpt lat="43.5830317" lon="11.264285"><ele>422.66666666666663</ele><time>2026-04-18T08:38:10.1Z</time></trkpt><trkpt lat="43.5831117" lon="11.2642283"><ele>422.8333333333333</ele><time>2026-04-18T08:38:11.1Z</time></trkpt><trkpt lat="43.5832017" lon="11.26418"><ele>423.0</ele><time>2026-04-18T08:38:12.1Z</time></trkpt><trkpt lat="43.5833067" lon="11.2641367"><ele>423.0</ele><time>2026-04-18T08:38:13.101Z</time></trkpt><trkpt lat="43.58342" lon="11.2640967"><ele>423.0</ele><time>2026-04-18T08:38:14.1Z</time></trkpt><trkpt lat="43.5835317" lon="11.2640733"><ele>423.0</ele><time>2026-04-18T08:38:15.1Z</time></trkpt><trkpt lat="43.5836433" lon="11.2640583"><ele>423.0</ele><time>2026-04-18T08:38:16.1Z</time></trkpt><trkpt lat="43.5837567" lon="11.2640567"><ele>422.59999999999997</ele><time>2026-04-18T08:38:17.1Z</time></trkpt><trkpt lat="43.5838633" lon="11.264075"><ele>422.2</ele><time>2026-04-18T08:38:18.1Z</time></trkpt><trkpt lat="43.5839583" lon="11.2641117"><ele>421.8</ele><time>2026-04-18T08:38:19.1Z</time></trkpt><trkpt lat="43.58405" lon="11.2641583"><ele>421.4</ele><time>2026-04-18T08:38:20.101Z</time></trkpt><trkpt lat="43.584145" lon="11.2641967"><ele>421.0</ele><time>2026-04-18T08:38:21.101Z</time></trkpt><trkpt lat="43.5842267" lon="11.2642317"><ele>421.00000000000006</ele><time>2026-04-18T08:38:22.101Z</time></trkpt><trkpt lat="43.584305" lon="11.2642633"><ele>421.0</ele><time>2026-04-18T08:38:23.1Z</time></trkpt><trkpt lat="43.5844167" lon="11.2642467"><ele>421.0</ele><time>2026-04-18T08:38:25.1Z</time></trkpt><trkpt lat="43.5844683" lon="11.2641867"><ele>421.0</ele><time>2026-04-18T08:38:26.1Z</time></trkpt><trkpt lat="43.584495" lon="11.264105"><ele>421.00000000000006</ele><time>2026-04-18T08:38:27.101Z</time></trkpt><trkpt lat="43.58447" lon="11.264005"><ele>421.0</ele><time>2026-04-18T08:38:28.101Z</time></trkpt><trkpt lat="43.58442" lon="11.2638967"><ele>419.75</ele><time>2026-04-18T08:38:29.1Z</time></trkpt><trkpt lat="43.5843533" lon="11.26379"><ele>418.5</ele><time>2026-04-18T08:38:30.1Z</time></trkpt><trkpt lat="43.5842617" lon="11.2636917"><ele>417.25</ele><time>2026-04-18T08:38:31.1Z</time></trkpt><trkpt lat="43.5841617" lon="11.2636017"><ele>416.0</ele><time>2026-04-18T08:38:32.1Z</time></trkpt><trkpt lat="43.5840567" lon="11.2635033"><ele>416.0</ele><time>2026-04-18T08:38:33.101Z</time></trkpt><trkpt lat="43.5839633" lon="11.2633933"><ele>416.0</ele><time>2026-04-18T08:38:34.1Z</time></trkpt><trkpt lat="43.58387" lon="11.2632817"><ele>416.0</ele><time>2026-04-18T08:38:35.101Z</time></trkpt><trkpt lat="43.5837783" lon="11.2631767"><ele>416.0</ele><time>2026-04-18T08:38:36.1Z</time></trkpt><trkpt lat="43.5836817" lon="11.2630883"><ele>413.20000000000005</ele><time>2026-04-18T08:38:37.101Z</time></trkpt><trkpt lat="43.58358" lon="11.2630133"><ele>410.40000000000003</ele><time>2026-04-18T08:38:38.101Z</time></trkpt><trkpt lat="43.58348" lon="11.2629333"><ele>407.6</ele><time>2026-04-18T08:38:39.1Z</time></trkpt><trkpt lat="43.5834083" lon="11.2628333"><ele>404.8</ele><time>2026-04-18T08:38:40.1Z</time></trkpt><trkpt lat="43.5833417" lon="11.2627133"><ele>402.0</ele><time>2026-04-18T08:38:41.1Z</time></trkpt><trkpt lat="43.5832767" lon="11.2625783"><ele>402.0</ele><time>2026-04-18T08:38:42.101Z</time></trkpt><trkpt lat="43.5832133" lon="11.26243"><ele>402.0</ele><time>2026-04-18T08:38:43.1Z</time></trkpt><trkpt lat="43.5831467" lon="11.26229"><ele>402.0</ele><time>2026-04-18T08:38:44.101Z</time></trkpt><trkpt lat="43.583085" lon="11.262145"><ele>402.0</ele><time>2026-04-18T08:38:45.1Z</time></trkpt><trkpt lat="43.5830367" lon="11.261995"><ele>402.25</ele><time>2026-04-18T08:38:46.1Z</time></trkpt><trkpt lat="43.58298" lon="11.261845"><ele>402.5</ele><time>2026-04-18T08:38:47.1Z</time></trkpt><trkpt lat="43.5829317" lon="11.2616933"><ele>402.75</ele><time>2026-04-18T08:38:48.1Z</time></trkpt><trkpt lat="43.5828883" lon="11.2615533"><ele>403.0</ele><time>2026-04-18T08:38:49.101Z</time></trkpt><trkpt lat="43.5828383" lon="11.2614117"><ele>400.6666666666667</ele><time>2026-04-18T08:38:50.1Z</time></trkpt><trkpt lat="43.58279" lon="11.2612883"><ele>398.33333333333337</ele><time>2026-04-18T08:38:51.1Z</time></trkpt><trkpt lat="43.5827383" lon="11.2611933"><ele>396.0</ele><time>2026-04-18T08:38:52.1Z</time></trkpt><trkpt lat="43.5826867" lon="11.2611233"><ele>393.66666666666663</ele><time>2026-04-18T08:38:53.101Z</time></trkpt><trkpt lat="43.5826283" lon="11.2610567"><ele>391.3333333333333</ele><time>2026-04-18T08:38:54.101Z</time></trkpt><trkpt lat="43.58255" lon="11.2610183"><ele>389.0</ele><time>2026-04-18T08:38:55.1Z</time></trkpt><trkpt lat="43.5824533" lon="11.260995"><ele>389.0</ele><time>2026-04-18T08:38:56.1Z</time></trkpt><trkpt lat="43.5823383" lon="11.260975"><ele>389.0</ele><time>2026-04-18T08:38:57.101Z</time></trkpt><trkpt lat="43.5822367" lon="11.2609567"><ele>389.0</ele><time>2026-04-18T08:38:58.1Z</time></trkpt><trkpt lat="43.582145" lon="11.2609333"><ele>389.0</ele><time>2026-04-18T08:38:59.101Z</time></trkpt><trkpt lat="43.5820533" lon="11.2608967"><ele>389.0</ele><time>2026-04-18T08:39:00.1Z</time></trkpt><trkpt lat="43.5819617" lon="11.2608167"><ele>386.75</ele><time>2026-04-18T08:39:01.101Z</time></trkpt><trkpt lat="43.5818683" lon="11.2607117"><ele>384.5</ele><time>2026-04-18T08:39:02.1Z</time></trkpt><trkpt lat="43.581765" lon="11.2606217"><ele>382.25</ele><time>2026-04-18T08:39:03.101Z</time></trkpt><trkpt lat="43.5816583" lon="11.2605533"><ele>380.0</ele><time>2026-04-18T08:39:04.1Z</time></trkpt><trkpt lat="43.58155" lon="11.260495"><ele>380.0</ele><time>2026-04-18T08:39:05.1Z</time></trkpt><trkpt lat="43.58146" lon="11.26043"><ele>380.0</ele><time>2026-04-18T08:39:06.101Z</time></trkpt><trkpt lat="43.581375" lon="11.2603633"><ele>380.0</ele><time>2026-04-18T08:39:07.1Z</time></trkpt><trkpt lat="43.5812917" lon="11.260295"><ele>380.0</ele><time>2026-04-18T08:39:08.1Z</time></trkpt><trkpt lat="43.581205" lon="11.2602233"><ele>380.0</ele><time>2026-04-18T08:39:09.1Z</time></trkpt><trkpt lat="43.5811283" lon="11.2601467"><ele>378.2</ele><time>2026-04-18T08:39:10.101Z</time></trkpt><trkpt lat="43.5810617" lon="11.2600483"><ele>376.4</ele><time>2026-04-18T08:39:11.101Z</time></trkpt><trkpt lat="43.581005" lon="11.2599317"><ele>374.6</ele><time>2026-04-18T08:39:12.1Z</time></trkpt><trkpt lat="43.5809567" lon="11.2598"><ele>372.8</ele><time>2026-04-18T08:39:13.101Z</time></trkpt><trkpt lat="43.5809167" lon="11.2596617"><ele>371.0</ele><time>2026-04-18T08:39:14.101Z</time></trkpt><trkpt lat="43.58088" lon="11.25951"><ele>371.0</ele><time>2026-04-18T08:39:15.101Z</time></trkpt><trkpt lat="43.58084" lon="11.2593617"><ele>371.0</ele><time>2026-04-18T08:39:16.101Z</time></trkpt><trkpt lat="43.5808167" lon="11.259225"><ele>371.0</ele><time>2026-04-18T08:39:17.1Z</time></trkpt><trkpt lat="43.5807983" lon="11.2590883"><ele>371.0</ele><time>2026-04-18T08:39:18.1Z</time></trkpt><trkpt lat="43.58079" lon="11.2589583"><ele>371.0</ele><time>2026-04-18T08:39:19.1Z</time></trkpt><trkpt lat="43.58079" lon="11.258845"><ele>371.1666666666667</ele><time>2026-04-18T08:39:20.1Z</time></trkpt><trkpt lat="43.5807967" lon="11.2587467"><ele>371.33333333333337</ele><time>2026-04-18T08:39:21.1Z</time></trkpt><trkpt lat="43.58081" lon="11.2586517"><ele>371.5</ele><time>2026-04-18T08:39:22.1Z</time></trkpt><trkpt lat="43.58082" lon="11.2585617"><ele>371.6666666666667</ele><time>2026-04-18T08:39:23.1Z</time></trkpt><trkpt lat="43.5808433" lon="11.2583883"><ele>371.8333333333333</ele><time>2026-04-18T08:39:25.1Z</time></trkpt><trkpt lat="43.5808633" lon="11.258295"><ele>372.0</ele><time>2026-04-18T08:39:26.1Z</time></trkpt><trkpt lat="43.58088" lon="11.258195"><ele>371.1666666666667</ele><time>2026-04-18T08:39:27.101Z</time></trkpt><trkpt lat="43.580905" lon="11.2580883"><ele>370.3333333333333</ele><time>2026-04-18T08:39:28.101Z</time></trkpt><trkpt lat="43.5809283" lon="11.25798"><ele>369.5</ele><time>2026-04-18T08:39:29.1Z</time></trkpt><trkpt lat="43.58096" lon="11.25787"><ele>368.66666666666663</ele><time>2026-04-18T08:39:30.1Z</time></trkpt><trkpt lat="43.580995" lon="11.2577633"><ele>367.8333333333333</ele><time>2026-04-18T08:39:31.1Z</time></trkpt><trkpt lat="43.5810267" lon="11.2576533"><ele>367.0</ele><time>2026-04-18T08:39:32.1Z</time></trkpt><trkpt lat="43.5810683" lon="11.2575383"><ele>367.0</ele><time>2026-04-18T08:39:33.1Z</time></trkpt><trkpt lat="43.5811083" lon="11.2574233"><ele>367.0</ele><time>2026-04-18T08:39:34.101Z</time></trkpt><trkpt lat="43.581155" lon="11.2573167"><ele>367.0</ele><time>2026-04-18T08:39:35.101Z</time></trkpt><trkpt lat="43.5812083" lon="11.2572017"><ele>367.0</ele><time>2026-04-18T08:39:36.101Z</time></trkpt><trkpt lat="43.5812567" lon="11.257085"><ele>367.0</ele><time>2026-04-18T08:39:37.101Z</time></trkpt><trkpt lat="43.5812833" lon="11.2569717"><ele>367.6</ele><time>2026-04-18T08:39:38.101Z</time></trkpt><trkpt lat="43.5812883" lon="11.25686"><ele>368.20000000000005</ele><time>2026-04-18T08:39:39.101Z</time></trkpt><trkpt lat="43.58128" lon="11.256745"><ele>368.8</ele><time>2026-04-18T08:39:40.101Z</time></trkpt><trkpt lat="43.5812683" lon="11.2566167"><ele>369.4</ele><time>2026-04-18T08:39:41.101Z</time></trkpt><trkpt lat="43.581265" lon="11.2564767"><ele>370.0</ele><time>2026-04-18T08:39:42.101Z</time></trkpt><trkpt lat="43.5812817" lon="11.2563417"><ele>370.0</ele><time>2026-04-18T08:39:43.1Z</time></trkpt><trkpt lat="43.58129" lon="11.256215"><ele>370.0</ele><time>2026-04-18T08:39:44.1Z</time></trkpt><trkpt lat="43.5812867" lon="11.2560833"><ele>370.0</ele><time>2026-04-18T08:39:45.101Z</time></trkpt><trkpt lat="43.581265" lon="11.255955"><ele>370.0</ele><time>2026-04-18T08:39:46.1Z</time></trkpt><trkpt lat="43.5812233" lon="11.2558433"><ele>370.0</ele><time>2026-04-18T08:39:47.101Z</time></trkpt><trkpt lat="43.5811533" lon="11.2557267"><ele>366.8</ele><time>2026-04-18T08:39:48.1Z</time></trkpt><trkpt lat="43.5810733" lon="11.2556267"><ele>363.6</ele><time>2026-04-18T08:39:49.101Z</time></trkpt><trkpt lat="43.58101" lon="11.2555117"><ele>360.4</ele><time>2026-04-18T08:39:50.1Z</time></trkpt><trkpt lat="43.58096" lon="11.25539"><ele>357.2</ele><time>2026-04-18T08:39:51.101Z</time></trkpt><trkpt lat="43.5809133" lon="11.2552617"><ele>354.0</ele><time>2026-04-18T08:39:52.1Z</time></trkpt><trkpt lat="43.58087" lon="11.255135"><ele>354.0</ele><time>2026-04-18T08:39:53.1Z</time></trkpt><trkpt lat="43.5808117" lon="11.255015"><ele>354.0</ele><time>2026-04-18T08:39:54.1Z</time></trkpt><trkpt lat="43.58074" lon="11.2549"><ele>354.0</ele><time>2026-04-18T08:39:55.1Z</time></trkpt><trkpt lat="43.5806717" lon="11.2547917"><ele>354.0</ele><time>2026-04-18T08:39:56.1Z</time></trkpt><trkpt lat="43.5806217" lon="11.2546717"><ele>354.0</ele><time>2026-04-18T08:39:57.1Z</time></trkpt><trkpt lat="43.5805867" lon="11.2545483"><ele>354.3333333333333</ele><time>2026-04-18T08:39:58.1Z</time></trkpt><trkpt lat="43.5805567" lon="11.2544383"><ele>354.6666666666667</ele><time>2026-04-18T08:39:59.1Z</time></trkpt><trkpt lat="43.58053" lon="11.2543317"><ele>355.0</ele><time>2026-04-18T08:40:00.1Z</time></trkpt><trkpt lat="43.5805017" lon="11.2542317"><ele>355.33333333333337</ele><time>2026-04-18T08:40:01.101Z</time></trkpt><trkpt lat="43.5804783" lon="11.2541317"><ele>355.6666666666667</ele><time>2026-04-18T08:40:02.101Z</time></trkpt><trkpt lat="43.58046" lon="11.254035"><ele>356.0</ele><time>2026-04-18T08:40:03.1Z</time></trkpt><trkpt lat="43.5804533" lon="11.2539433"><ele>356.0</ele><time>2026-04-18T08:40:04.101Z</time></trkpt><trkpt lat="43.5804483" lon="11.253845"><ele>356.0</ele><time>2026-04-18T08:40:05.1Z</time></trkpt><trkpt lat="43.5804483" lon="11.2537467"><ele>356.0</ele><time>2026-04-18T08:40:06.1Z</time></trkpt><trkpt lat="43.5804633" lon="11.2536533"><ele>356.0</ele><time>2026-04-18T08:40:07.101Z</time></trkpt><trkpt lat="43.58048" lon="11.2535517"><ele>356.0</ele><time>2026-04-18T08:40:08.1Z</time></trkpt><trkpt lat="43.5804783" lon="11.253435"><ele>356.0</ele><time>2026-04-18T08:40:09.1Z</time></trkpt><trkpt lat="43.58046" lon="11.2533183"><ele>356.0</ele><time>2026-04-18T08:40:10.1Z</time></trkpt><trkpt lat="43.5804383" lon="11.2532017"><ele>356.0</ele><time>2026-04-18T08:40:11.099Z</time></trkpt><trkpt lat="43.5804267" lon="11.2530917"><ele>356.0</ele><time>2026-04-18T08:40:12.1Z</time></trkpt><trkpt lat="43.58043" lon="11.2529767"><ele>356.0</ele><time>2026-04-18T08:40:13.099Z</time></trkpt><trkpt lat="43.5804433" lon="11.252865"><ele>356.0</ele><time>2026-04-18T08:40:14.099Z</time></trkpt><trkpt lat="43.5804567" lon="11.2527617"><ele>356.0</ele><time>2026-04-18T08:40:15.099Z</time></trkpt><trkpt lat="43.5804617" lon="11.2526433"><ele>355.8</ele><time>2026-04-18T08:40:16.1Z</time></trkpt><trkpt lat="43.5804483" lon="11.252505"><ele>355.6</ele><time>2026-04-18T08:40:17.099Z</time></trkpt><trkpt lat="43.58042" lon="11.2523567"><ele>355.4</ele><time>2026-04-18T08:40:18.099Z</time></trkpt><trkpt lat="43.5804067" lon="11.2522133"><ele>355.2</ele><time>2026-04-18T08:40:19.1Z</time></trkpt><trkpt lat="43.5804083" lon="11.2520817"><ele>355.0</ele><time>2026-04-18T08:40:20.1Z</time></trkpt><trkpt lat="43.5804133" lon="11.2519467"><ele>354.5</ele><time>2026-04-18T08:40:21.099Z</time></trkpt><trkpt lat="43.580425" lon="11.2518267"><ele>354.0</ele><time>2026-04-18T08:40:22.099Z</time></trkpt><trkpt lat="43.5804367" lon="11.2517083"><ele>353.5</ele><time>2026-04-18T08:40:23.1Z</time></trkpt><trkpt lat="43.5804567" lon="11.2516083"><ele>353.0</ele><time>2026-04-18T08:40:24.099Z</time></trkpt><trkpt lat="43.5804933" lon="11.25152"><ele>352.5</ele><time>2026-04-18T08:40:25.099Z</time></trkpt><trkpt lat="43.5805583" lon="11.2514617"><ele>352.0</ele><time>2026-04-18T08:40:26.099Z</time></trkpt><trkpt lat="43.5806483" lon="11.2514067"><ele>350.8</ele><time>2026-04-18T08:40:27.099Z</time></trkpt><trkpt lat="43.58074" lon="11.2513417"><ele>349.6</ele><time>2026-04-18T08:40:28.099Z</time></trkpt><trkpt lat="43.5808233" lon="11.25127"><ele>348.40000000000003</ele><time>2026-04-18T08:40:29.099Z</time></trkpt><trkpt lat="43.5808933" lon="11.251185"><ele>347.20000000000005</ele><time>2026-04-18T08:40:30.1Z</time></trkpt><trkpt lat="43.5809583" lon="11.251085"><ele>346.0</ele><time>2026-04-18T08:40:31.099Z</time></trkpt><trkpt lat="43.5810183" lon="11.250975"><ele>346.0</ele><time>2026-04-18T08:40:32.099Z</time></trkpt><trkpt lat="43.5810817" lon="11.2508667"><ele>346.0</ele><time>2026-04-18T08:40:33.1Z</time></trkpt><trkpt lat="43.5811383" lon="11.2507667"><ele>346.0</ele><time>2026-04-18T08:40:34.099Z</time></trkpt><trkpt lat="43.5811967" lon="11.25067"><ele>346.0</ele><time>2026-04-18T08:40:35.1Z</time></trkpt><trkpt lat="43.5812533" lon="11.250585"><ele>346.0</ele><time>2026-04-18T08:40:36.099Z</time></trkpt><trkpt lat="43.5813067" lon="11.2505117"><ele>346.0</ele><time>2026-04-18T08:40:37.099Z</time></trkpt><trkpt lat="43.5813883" lon="11.2504033"><ele>347.8</ele><time>2026-04-18T08:40:39.099Z</time></trkpt><trkpt lat="43.5814767" lon="11.2503067"><ele>349.6</ele><time>2026-04-18T08:40:41.1Z</time></trkpt><trkpt lat="43.5815433" lon="11.2502633"><ele>351.4</ele><time>2026-04-18T08:40:42.1Z</time></trkpt><trkpt lat="43.5816217" lon="11.25022"><ele>353.2</ele><time>2026-04-18T08:40:43.099Z</time></trkpt><trkpt lat="43.5817317" lon="11.2501733"><ele>355.0</ele><time>2026-04-18T08:40:44.099Z</time></trkpt><trkpt lat="43.5818717" lon="11.25011"><ele>358.5</ele><time>2026-04-18T08:40:45.099Z</time></trkpt><trkpt lat="43.582015" lon="11.2500483"><ele>362.0</ele><time>2026-04-18T08:40:46.099Z</time></trkpt><trkpt lat="43.5821583" lon="11.2499833"><ele>365.5</ele><time>2026-04-18T08:40:47.1Z</time></trkpt><trkpt lat="43.5822917" lon="11.2499283"><ele>369.0</ele><time>2026-04-18T08:40:48.1Z</time></trkpt><trkpt lat="43.5824183" lon="11.2498733"><ele>369.0</ele><time>2026-04-18T08:40:49.1Z</time></trkpt><trkpt lat="43.5825267" lon="11.249825"><ele>369.0</ele><time>2026-04-18T08:40:50.1Z</time></trkpt><trkpt lat="43.5826233" lon="11.2497867"><ele>369.0</ele><time>2026-04-18T08:40:51.099Z</time></trkpt><trkpt lat="43.5827233" lon="11.2497667"><ele>369.0</ele><time>2026-04-18T08:40:52.1Z</time></trkpt><trkpt lat="43.5828217" lon="11.24978"><ele>369.0</ele><time>2026-04-18T08:40:53.1Z</time></trkpt><trkpt lat="43.58293" lon="11.2498267"><ele>370.0</ele><time>2026-04-18T08:40:54.1Z</time></trkpt><trkpt lat="43.583025" lon="11.2499"><ele>371.0</ele><time>2026-04-18T08:40:55.1Z</time></trkpt><trkpt lat="43.5831017" lon="11.2500067"><ele>372.0</ele><time>2026-04-18T08:40:56.099Z</time></trkpt><trkpt lat="43.5831717" lon="11.2501533"><ele>373.0</ele><time>2026-04-18T08:40:57.1Z</time></trkpt><trkpt lat="43.5832533" lon="11.2503067"><ele>373.0</ele><time>2026-04-18T08:40:58.099Z</time></trkpt><trkpt lat="43.583345" lon="11.2504583"><ele>373.0</ele><time>2026-04-18T08:40:59.1Z</time></trkpt><trkpt lat="43.5834467" lon="11.2506017"><ele>373.0</ele><time>2026-04-18T08:41:00.099Z</time></trkpt><trkpt lat="43.5835467" lon="11.2507383"><ele>373.0</ele><time>2026-04-18T08:41:01.099Z</time></trkpt><trkpt lat="43.5836433" lon="11.250845"><ele>374.2</ele><time>2026-04-18T08:41:02.099Z</time></trkpt><trkpt lat="43.5837317" lon="11.2509417"><ele>375.4</ele><time>2026-04-18T08:41:03.1Z</time></trkpt><trkpt lat="43.5838217" lon="11.2510233"><ele>376.59999999999997</ele><time>2026-04-18T08:41:04.1Z</time></trkpt><trkpt lat="43.583915" lon="11.251105"><ele>377.79999999999995</ele><time>2026-04-18T08:41:05.099Z</time></trkpt><trkpt lat="43.5840033" lon="11.251195"><ele>379.0</ele><time>2026-04-18T08:41:06.099Z</time></trkpt><trkpt lat="43.5840883" lon="11.2512933"><ele>379.0</ele><time>2026-04-18T08:41:07.1Z</time></trkpt><trkpt lat="43.5841733" lon="11.2514"><ele>379.0</ele><time>2026-04-18T08:41:08.099Z</time></trkpt><trkpt lat="43.5842583" lon="11.2514983"><ele>379.0</ele><time>2026-04-18T08:41:09.099Z</time></trkpt><trkpt lat="43.5843533" lon="11.2515817"><ele>379.0</ele><time>2026-04-18T08:41:10.099Z</time></trkpt><trkpt lat="43.58445" lon="11.251655"><ele>379.0</ele><time>2026-04-18T08:41:11.099Z</time></trkpt><trkpt lat="43.5845567" lon="11.2517017"><ele>380.25</ele><time>2026-04-18T08:41:12.099Z</time></trkpt><trkpt lat="43.584675" lon="11.251735"><ele>381.5</ele><time>2026-04-18T08:41:13.1Z</time></trkpt><trkpt lat="43.5847817" lon="11.2517767"><ele>382.75</ele><time>2026-04-18T08:41:14.099Z</time></trkpt><trkpt lat="43.5848883" lon="11.251825"><ele>384.0</ele><time>2026-04-18T08:41:15.099Z</time></trkpt><trkpt lat="43.5849833" lon="11.2519"><ele>384.0</ele><time>2026-04-18T08:41:16.1Z</time></trkpt><trkpt lat="43.5850617" lon="11.252"><ele>384.0</ele><time>2026-04-18T08:41:17.099Z</time></trkpt><trkpt lat="43.5851283" lon="11.25213"><ele>384.0</ele><time>2026-04-18T08:41:18.099Z</time></trkpt><trkpt lat="43.585185" lon="11.25228"><ele>384.0</ele><time>2026-04-18T08:41:19.1Z</time></trkpt><trkpt lat="43.5852417" lon="11.252425"><ele>385.2</ele><time>2026-04-18T08:41:20.1Z</time></trkpt><trkpt lat="43.5853083" lon="11.2525583"><ele>386.4</ele><time>2026-04-18T08:41:21.1Z</time></trkpt><trkpt lat="43.5853783" lon="11.2526783"><ele>387.6</ele><time>2026-04-18T08:41:22.1Z</time></trkpt><trkpt lat="43.585465" lon="11.25276"><ele>388.8</ele><time>2026-04-18T08:41:23.1Z</time></trkpt><trkpt lat="43.58555" lon="11.2528183"><ele>390.0</ele><time>2026-04-18T08:41:24.099Z</time></trkpt><trkpt lat="43.5856483" lon="11.2528567"><ele>390.0</ele><time>2026-04-18T08:41:25.1Z</time></trkpt><trkpt lat="43.585765" lon="11.2528533"><ele>390.0</ele><time>2026-04-18T08:41:26.1Z</time></trkpt><trkpt lat="43.585885" lon="11.252835"><ele>390.0</ele><time>2026-04-18T08:41:27.1Z</time></trkpt><trkpt lat="43.58601" lon="11.25281"><ele>390.0</ele><time>2026-04-18T08:41:28.099Z</time></trkpt><trkpt lat="43.58611" lon="11.25281"><ele>390.4</ele><time>2026-04-18T08:41:29.099Z</time></trkpt><trkpt lat="43.5862033" lon="11.2528383"><ele>390.8</ele><time>2026-04-18T08:41:30.099Z</time></trkpt><trkpt lat="43.5863" lon="11.2528883"><ele>391.20000000000005</ele><time>2026-04-18T08:41:31.099Z</time></trkpt><trkpt lat="43.5864133" lon="11.2529467"><ele>391.6</ele><time>2026-04-18T08:41:32.099Z</time></trkpt><trkpt lat="43.58652" lon="11.25301"><ele>392.0</ele><time>2026-04-18T08:41:33.099Z</time></trkpt><trkpt lat="43.58663" lon="11.253075"><ele>394.40000000000003</ele><time>2026-04-18T08:41:34.1Z</time></trkpt><trkpt lat="43.586735" lon="11.2531317"><ele>396.8</ele><time>2026-04-18T08:41:35.099Z</time></trkpt><trkpt lat="43.586835" lon="11.2531783"><ele>399.2</ele><time>2026-04-18T08:41:36.099Z</time></trkpt><trkpt lat="43.5869267" lon="11.25322"><ele>401.6</ele><time>2026-04-18T08:41:37.1Z</time></trkpt><trkpt lat="43.5870217" lon="11.2532533"><ele>404.0</ele><time>2026-04-18T08:41:38.1Z</time></trkpt><trkpt lat="43.5871183" lon="11.2532883"><ele>404.16666666666663</ele><time>2026-04-18T08:41:39.099Z</time></trkpt><trkpt lat="43.5872117" lon="11.25329"><ele>404.3333333333333</ele><time>2026-04-18T08:41:40.099Z</time></trkpt><trkpt lat="43.5872883" lon="11.2532717"><ele>404.5</ele><time>2026-04-18T08:41:41.099Z</time></trkpt><trkpt lat="43.587365" lon="11.2532267"><ele>404.66666666666663</ele><time>2026-04-18T08:41:42.099Z</time></trkpt><trkpt lat="43.58744" lon="11.25316"><ele>404.8333333333333</ele><time>2026-04-18T08:41:43.1Z</time></trkpt><trkpt lat="43.5875067" lon="11.2530683"><ele>405.0</ele><time>2026-04-18T08:41:44.099Z</time></trkpt><trkpt lat="43.5875533" lon="11.2529517"><ele>404.0</ele><time>2026-04-18T08:41:45.099Z</time></trkpt><trkpt lat="43.5875833" lon="11.25281"><ele>403.0</ele><time>2026-04-18T08:41:46.1Z</time></trkpt><trkpt lat="43.58761" lon="11.25266"><ele>402.0</ele><time>2026-04-18T08:41:47.1Z</time></trkpt><trkpt lat="43.5876467" lon="11.2524967"><ele>401.0</ele><time>2026-04-18T08:41:48.1Z</time></trkpt><trkpt lat="43.5876817" lon="11.2523283"><ele>400.75</ele><time>2026-04-18T08:41:49.099Z</time></trkpt><trkpt lat="43.5877183" lon="11.2521567"><ele>400.5</ele><time>2026-04-18T08:41:50.099Z</time></trkpt><trkpt lat="43.5877617" lon="11.251985"><ele>400.25</ele><time>2026-04-18T08:41:51.1Z</time></trkpt><trkpt lat="43.58781" lon="11.2518167"><ele>400.0</ele><time>2026-04-18T08:41:52.099Z</time></trkpt><trkpt lat="43.5878667" lon="11.25165"><ele>404.25</ele><time>2026-04-18T08:41:53.1Z</time></trkpt><trkpt lat="43.5879283" lon="11.2514933"><ele>408.5</ele><time>2026-04-18T08:41:54.1Z</time></trkpt><trkpt lat="43.5879983" lon="11.2513417"><ele>412.75</ele><time>2026-04-18T08:41:55.099Z</time></trkpt><trkpt lat="43.588065" lon="11.251195"><ele>417.0</ele><time>2026-04-18T08:41:56.099Z</time></trkpt><trkpt lat="43.5881333" lon="11.251075"><ele>417.0</ele><time>2026-04-18T08:41:57.099Z</time></trkpt><trkpt lat="43.588205" lon="11.25098"><ele>417.0</ele><time>2026-04-18T08:41:58.1Z</time></trkpt><trkpt lat="43.588285" lon="11.2509067"><ele>417.0</ele><time>2026-04-18T08:41:59.099Z</time></trkpt><trkpt lat="43.5883817" lon="11.2508567"><ele>417.0</ele><time>2026-04-18T08:42:00.099Z</time></trkpt><trkpt lat="43.58848" lon="11.2508383"><ele>417.0</ele><time>2026-04-18T08:42:01.099Z</time></trkpt><trkpt lat="43.588575" lon="11.2508433"><ele>417.75</ele><time>2026-04-18T08:42:02.099Z</time></trkpt><trkpt lat="43.5886767" lon="11.25087"><ele>418.5</ele><time>2026-04-18T08:42:03.099Z</time></trkpt><trkpt lat="43.588805" lon="11.2509067"><ele>419.25</ele><time>2026-04-18T08:42:04.099Z</time></trkpt><trkpt lat="43.58895" lon="11.2509583"><ele>420.0</ele><time>2026-04-18T08:42:05.1Z</time></trkpt><trkpt lat="43.589095" lon="11.2510233"><ele>420.0</ele><time>2026-04-18T08:42:06.1Z</time></trkpt><trkpt lat="43.5892317" lon="11.2510983"><ele>420.0</ele><time>2026-04-18T08:42:07.1Z</time></trkpt><trkpt lat="43.589365" lon="11.251185"><ele>420.0</ele><time>2026-04-18T08:42:08.099Z</time></trkpt><trkpt lat="43.5894867" lon="11.251305"><ele>420.0</ele><time>2026-04-18T08:42:09.1Z</time></trkpt><trkpt lat="43.5896117" lon="11.2514283"><ele>421.0</ele><time>2026-04-18T08:42:10.1Z</time></trkpt><trkpt lat="43.5897283" lon="11.2515617"><ele>422.0</ele><time>2026-04-18T08:42:11.099Z</time></trkpt><trkpt lat="43.5898383" lon="11.2516967"><ele>423.0</ele><time>2026-04-18T08:42:12.099Z</time></trkpt><trkpt lat="43.5899267" lon="11.251855"><ele>424.0</ele><time>2026-04-18T08:42:13.099Z</time></trkpt><trkpt lat="43.590005" lon="11.25203"><ele>424.0</ele><time>2026-04-18T08:42:14.099Z</time></trkpt><trkpt lat="43.5900883" lon="11.2522017"><ele>424.0</ele><time>2026-04-18T08:42:15.099Z</time></trkpt><trkpt lat="43.590165" lon="11.2523567"><ele>424.0</ele><time>2026-04-18T08:42:16.099Z</time></trkpt><trkpt lat="43.5902617" lon="11.25251"><ele>424.0</ele><time>2026-04-18T08:42:17.1Z</time></trkpt><trkpt lat="43.5903633" lon="11.25265"><ele>424.75</ele><time>2026-04-18T08:42:18.1Z</time></trkpt><trkpt lat="43.59047" lon="11.2527867"><ele>425.5</ele><time>2026-04-18T08:42:19.099Z</time></trkpt><trkpt lat="43.5905817" lon="11.25291"><ele>426.25</ele><time>2026-04-18T08:42:20.099Z</time></trkpt><trkpt lat="43.5906833" lon="11.2530367"><ele>427.0</ele><time>2026-04-18T08:42:21.099Z</time></trkpt><trkpt lat="43.5907817" lon="11.2531683"><ele>428.75</ele><time>2026-04-18T08:42:22.1Z</time></trkpt><trkpt lat="43.5908833" lon="11.2533033"><ele>430.5</ele><time>2026-04-18T08:42:23.099Z</time></trkpt><trkpt lat="43.59099" lon="11.25344"><ele>432.25</ele><time>2026-04-18T08:42:24.1Z</time></trkpt><trkpt lat="43.5910917" lon="11.2535883"><ele>434.0</ele><time>2026-04-18T08:42:25.1Z</time></trkpt><trkpt lat="43.5911883" lon="11.2537417"><ele>434.0</ele><time>2026-04-18T08:42:26.099Z</time></trkpt><trkpt lat="43.5912967" lon="11.25389"><ele>434.0</ele><time>2026-04-18T08:42:27.099Z</time></trkpt><trkpt lat="43.5913883" lon="11.25404"><ele>434.0</ele><time>2026-04-18T08:42:28.099Z</time></trkpt><trkpt lat="43.5914833" lon="11.2541783"><ele>434.0</ele><time>2026-04-18T08:42:29.1Z</time></trkpt><trkpt lat="43.5915767" lon="11.2543083"><ele>436.0</ele><time>2026-04-18T08:42:30.099Z</time></trkpt><trkpt lat="43.5916667" lon="11.254425"><ele>438.0</ele><time>2026-04-18T08:42:31.1Z</time></trkpt><trkpt lat="43.59176" lon="11.25453"><ele>440.0</ele><time>2026-04-18T08:42:32.099Z</time></trkpt><trkpt lat="43.591855" lon="11.2546333"><ele>442.0</ele><time>2026-04-18T08:42:33.1Z</time></trkpt><trkpt lat="43.5919533" lon="11.254715"><ele>443.1666666666667</ele><time>2026-04-18T08:42:34.099Z</time></trkpt><trkpt lat="43.5920433" lon="11.2547817"><ele>444.33333333333337</ele><time>2026-04-18T08:42:35.099Z</time></trkpt><trkpt lat="43.5921233" lon="11.2548383"><ele>445.5</ele><time>2026-04-18T08:42:36.099Z</time></trkpt><trkpt lat="43.5922033" lon="11.2548767"><ele>446.66666666666663</ele><time>2026-04-18T08:42:37.1Z</time></trkpt><trkpt lat="43.5922717" lon="11.2548933"><ele>447.8333333333333</ele><time>2026-04-18T08:42:38.1Z</time></trkpt><trkpt lat="43.5923417" lon="11.25488"><ele>449.0</ele><time>2026-04-18T08:42:39.1Z</time></trkpt><trkpt lat="43.5924033" lon="11.2548267"><ele>449.4</ele><time>2026-04-18T08:42:40.099Z</time></trkpt><trkpt lat="43.5924467" lon="11.2547517"><ele>449.79999999999995</ele><time>2026-04-18T08:42:41.099Z</time></trkpt><trkpt lat="43.5924583" lon="11.25458"><ele>450.20000000000005</ele><time>2026-04-18T08:42:43.1Z</time></trkpt><trkpt lat="43.5924283" lon="11.2544183"><ele>450.6</ele><time>2026-04-18T08:42:45.099Z</time></trkpt><trkpt lat="43.5923967" lon="11.2543183"><ele>451.0</ele><time>2026-04-18T08:42:46.1Z</time></trkpt><trkpt lat="43.5923633" lon="11.25421"><ele>451.0</ele><time>2026-04-18T08:42:47.099Z</time></trkpt><trkpt lat="43.5923217" lon="11.254105"><ele>451.0</ele><time>2026-04-18T08:42:48.099Z</time></trkpt><trkpt lat="43.5922767" lon="11.2539917"><ele>451.0</ele><time>2026-04-18T08:42:49.099Z</time></trkpt><trkpt lat="43.5922417" lon="11.2538583"><ele>451.0</ele><time>2026-04-18T08:42:50.099Z</time></trkpt><trkpt lat="43.5922033" lon="11.2537233"><ele>451.0</ele><time>2026-04-18T08:42:51.099Z</time></trkpt><trkpt lat="43.5921683" lon="11.2536033"><ele>451.4</ele><time>2026-04-18T08:42:52.099Z</time></trkpt><trkpt lat="43.5921317" lon="11.25348"><ele>451.8</ele><time>2026-04-18T08:42:53.1Z</time></trkpt><trkpt lat="43.5920983" lon="11.2533583"><ele>452.19999999999993</ele><time>2026-04-18T08:42:54.099Z</time></trkpt><trkpt lat="43.5920617" lon="11.2532267"><ele>452.59999999999997</ele><time>2026-04-18T08:42:55.099Z</time></trkpt><trkpt lat="43.59202" lon="11.2530917"><ele>453.0</ele><time>2026-04-18T08:42:56.099Z</time></trkpt><trkpt lat="43.5919783" lon="11.25296"><ele>448.79999999999995</ele><time>2026-04-18T08:42:57.099Z</time></trkpt><trkpt lat="43.5919383" lon="11.25283"><ele>444.59999999999997</ele><time>2026-04-18T08:42:58.099Z</time></trkpt><trkpt lat="43.5918917" lon="11.2527133"><ele>440.40000000000003</ele><time>2026-04-18T08:42:59.099Z</time></trkpt><trkpt lat="43.5918433" lon="11.2526"><ele>436.20000000000005</ele><time>2026-04-18T08:43:00.1Z</time></trkpt><trkpt lat="43.5917967" lon="11.2524933"><ele>432.0</ele><time>2026-04-18T08:43:01.1Z</time></trkpt><trkpt lat="43.5917533" lon="11.25239"><ele>432.0</ele><time>2026-04-18T08:43:02.1Z</time></trkpt><trkpt lat="43.591705" lon="11.2523017"><ele>432.0</ele><time>2026-04-18T08:43:03.1Z</time></trkpt><trkpt lat="43.5916667" lon="11.252215"><ele>432.0</ele><time>2026-04-18T08:43:04.099Z</time></trkpt><trkpt lat="43.5916267" lon="11.25213"><ele>432.0</ele><time>2026-04-18T08:43:05.099Z</time></trkpt><trkpt lat="43.591595" lon="11.2520467"><ele>432.0</ele><time>2026-04-18T08:43:06.099Z</time></trkpt><trkpt lat="43.591555" lon="11.2518783"><ele>432.0</ele><time>2026-04-18T08:43:08.1Z</time></trkpt><trkpt lat="43.5915533" lon="11.251775"><ele>431.6</ele><time>2026-04-18T08:43:09.1Z</time></trkpt><trkpt lat="43.59156" lon="11.2516433"><ele>431.20000000000005</ele><time>2026-04-18T08:43:10.1Z</time></trkpt><trkpt lat="43.5915683" lon="11.2515033"><ele>430.8</ele><time>2026-04-18T08:43:11.1Z</time></trkpt><trkpt lat="43.5915833" lon="11.2513667"><ele>430.4</ele><time>2026-04-18T08:43:12.099Z</time></trkpt><trkpt lat="43.5916033" lon="11.2512383"><ele>430.0</ele><time>2026-04-18T08:43:13.099Z</time></trkpt><trkpt lat="43.5916183" lon="11.25112"><ele>429.1666666666667</ele><time>2026-04-18T08:43:14.099Z</time></trkpt><trkpt lat="43.5916317" lon="11.2510167"><ele>428.33333333333337</ele><time>2026-04-18T08:43:15.099Z</time></trkpt><trkpt lat="43.5916383" lon="11.2509167"><ele>427.5</ele><time>2026-04-18T08:43:16.099Z</time></trkpt><trkpt lat="43.5916367" lon="11.2508133"><ele>426.66666666666663</ele><time>2026-04-18T08:43:17.099Z</time></trkpt><trkpt lat="43.5916283" lon="11.2507083"><ele>425.8333333333333</ele><time>2026-04-18T08:43:18.099Z</time></trkpt><trkpt lat="43.59161" lon="11.2505967"><ele>425.0</ele><time>2026-04-18T08:43:19.099Z</time></trkpt><trkpt lat="43.5915917" lon="11.2504983"><ele>423.16666666666663</ele><time>2026-04-18T08:43:20.099Z</time></trkpt><trkpt lat="43.5915533" lon="11.250395"><ele>421.3333333333333</ele><time>2026-04-18T08:43:21.099Z</time></trkpt><trkpt lat="43.5915117" lon="11.2502883"><ele>419.5</ele><time>2026-04-18T08:43:22.099Z</time></trkpt><trkpt lat="43.5914633" lon="11.2501767"><ele>417.66666666666663</ele><time>2026-04-18T08:43:23.099Z</time></trkpt><trkpt lat="43.59142" lon="11.25007"><ele>415.8333333333333</ele><time>2026-04-18T08:43:24.1Z</time></trkpt><trkpt lat="43.59138" lon="11.2499617"><ele>414.0</ele><time>2026-04-18T08:43:25.099Z</time></trkpt><trkpt lat="43.5913367" lon="11.24986"><ele>412.14285714285717</ele><time>2026-04-18T08:43:26.099Z</time></trkpt><trkpt lat="43.5913033" lon="11.2497633"><ele>410.2857142857143</ele><time>2026-04-18T08:43:27.1Z</time></trkpt><trkpt lat="43.5912683" lon="11.2496683"><ele>408.42857142857144</ele><time>2026-04-18T08:43:28.099Z</time></trkpt><trkpt lat="43.591235" lon="11.2495733"><ele>406.57142857142856</ele><time>2026-04-18T08:43:29.099Z</time></trkpt><trkpt lat="43.5912" lon="11.2494867"><ele>404.7142857142857</ele><time>2026-04-18T08:43:30.1Z</time></trkpt><trkpt lat="43.59117" lon="11.249395"><ele>402.8571428571429</ele><time>2026-04-18T08:43:31.099Z</time></trkpt><trkpt lat="43.5911517" lon="11.2493117"><ele>401.0</ele><time>2026-04-18T08:43:32.099Z</time></trkpt><trkpt lat="43.5911717" lon="11.2491567"><ele>400.99999999999994</ele><time>2026-04-18T08:43:34.099Z</time></trkpt><trkpt lat="43.5912567" lon="11.2490467"><ele>401.0</ele><time>2026-04-18T08:43:36.099Z</time></trkpt><trkpt lat="43.5913183" lon="11.2490133"><ele>401.0</ele><time>2026-04-18T08:43:37.099Z</time></trkpt><trkpt lat="43.5913883" lon="11.2489983"><ele>401.0</ele><time>2026-04-18T08:43:38.099Z</time></trkpt><trkpt lat="43.5914733" lon="11.248985"><ele>400.99999999999994</ele><time>2026-04-18T08:43:39.099Z</time></trkpt><trkpt lat="43.5915683" lon="11.2489667"><ele>401.0</ele><time>2026-04-18T08:43:40.099Z</time></trkpt><trkpt lat="43.5916667" lon="11.2489433"><ele>398.0</ele><time>2026-04-18T08:43:41.1Z</time></trkpt><trkpt lat="43.5917733" lon="11.2489083"><ele>395.0</ele><time>2026-04-18T08:43:42.1Z</time></trkpt><trkpt lat="43.59188" lon="11.248865"><ele>392.0</ele><time>2026-04-18T08:43:43.1Z</time></trkpt><trkpt lat="43.591985" lon="11.24882"><ele>389.0</ele><time>2026-04-18T08:43:44.099Z</time></trkpt><trkpt lat="43.5920867" lon="11.2487667"><ele>386.0</ele><time>2026-04-18T08:43:45.1Z</time></trkpt><trkpt lat="43.59219" lon="11.248715"><ele>385.20000000000005</ele><time>2026-04-18T08:43:46.099Z</time></trkpt><trkpt lat="43.5922867" lon="11.2486583"><ele>384.40000000000003</ele><time>2026-04-18T08:43:47.1Z</time></trkpt><trkpt lat="43.59238" lon="11.248605"><ele>383.6</ele><time>2026-04-18T08:43:48.1Z</time></trkpt><trkpt lat="43.592465" lon="11.2485517"><ele>382.8</ele><time>2026-04-18T08:43:49.099Z</time></trkpt><trkpt lat="43.5925433" lon="11.2485033"><ele>382.0</ele><time>2026-04-18T08:43:50.099Z</time></trkpt><trkpt lat="43.5926267" lon="11.248455"><ele>382.0</ele><time>2026-04-18T08:43:51.099Z</time></trkpt><trkpt lat="43.5927" lon="11.2484083"><ele>382.0</ele><time>2026-04-18T08:43:52.1Z</time></trkpt><trkpt lat="43.592775" lon="11.24835"><ele>382.0</ele><time>2026-04-18T08:43:53.099Z</time></trkpt><trkpt lat="43.5928483" lon="11.248285"><ele>382.0</ele><time>2026-04-18T08:43:54.1Z</time></trkpt><trkpt lat="43.5929133" lon="11.2482167"><ele>382.0</ele><time>2026-04-18T08:43:55.1Z</time></trkpt><trkpt lat="43.5929733" lon="11.2481633"><ele>382.0</ele><time>2026-04-18T08:43:56.099Z</time></trkpt><trkpt lat="43.59303" lon="11.2481067"><ele>378.8</ele><time>2026-04-18T08:43:57.1Z</time></trkpt><trkpt lat="43.5931333" lon="11.2480167"><ele>375.6</ele><time>2026-04-18T08:43:59.1Z</time></trkpt><trkpt lat="43.593215" lon="11.2479333"><ele>372.40000000000003</ele><time>2026-04-18T08:44:01.099Z</time></trkpt><trkpt lat="43.5932583" lon="11.2478217"><ele>369.20000000000005</ele><time>2026-04-18T08:44:03.1Z</time></trkpt><trkpt lat="43.5932383" lon="11.2476883"><ele>366.0</ele><time>2026-04-18T08:44:05.099Z</time></trkpt><trkpt lat="43.5931967" lon="11.2475883"><ele>366.0</ele><time>2026-04-18T08:44:07.099Z</time></trkpt><trkpt lat="43.5931283" lon="11.2474883"><ele>366.0</ele><time>2026-04-18T08:44:09.099Z</time></trkpt><trkpt lat="43.5931" lon="11.2473583"><ele>366.0</ele><time>2026-04-18T08:44:11.098Z</time></trkpt><trkpt lat="43.5931617" lon="11.2472267"><ele>366.0</ele><time>2026-04-18T08:44:13.098Z</time></trkpt><trkpt lat="43.59327" lon="11.2471533"><ele>366.0</ele><time>2026-04-18T08:44:15.098Z</time></trkpt><trkpt lat="43.5933433" lon="11.24716"><ele>365.4</ele><time>2026-04-18T08:44:16.098Z</time></trkpt><trkpt lat="43.593425" lon="11.24718"><ele>364.8</ele><time>2026-04-18T08:44:17.098Z</time></trkpt><trkpt lat="43.5935183" lon="11.2472083"><ele>364.2</ele><time>2026-04-18T08:44:18.098Z</time></trkpt><trkpt lat="43.59361" lon="11.2472483"><ele>363.59999999999997</ele><time>2026-04-18T08:44:19.098Z</time></trkpt><trkpt lat="43.5937083" lon="11.24729"><ele>363.0</ele><time>2026-04-18T08:44:20.098Z</time></trkpt><trkpt lat="43.5938133" lon="11.2473383"><ele>363.0</ele><time>2026-04-18T08:44:21.098Z</time></trkpt><trkpt lat="43.593925" lon="11.247395"><ele>363.0</ele><time>2026-04-18T08:44:22.099Z</time></trkpt><trkpt lat="43.59403" lon="11.2474517"><ele>363.0</ele><time>2026-04-18T08:44:23.099Z</time></trkpt><trkpt lat="43.5941317" lon="11.2475"><ele>363.0</ele><time>2026-04-18T08:44:24.098Z</time></trkpt><trkpt lat="43.594225" lon="11.2475467"><ele>363.0</ele><time>2026-04-18T08:44:25.098Z</time></trkpt><trkpt lat="43.5943133" lon="11.24759"><ele>363.0</ele><time>2026-04-18T08:44:26.098Z</time></trkpt><trkpt lat="43.5943933" lon="11.24763"><ele>363.0</ele><time>2026-04-18T08:44:27.099Z</time></trkpt><trkpt lat="43.5944683" lon="11.2476517"><ele>363.0</ele><time>2026-04-18T08:44:28.098Z</time></trkpt><trkpt lat="43.594545" lon="11.24765"><ele>363.0</ele><time>2026-04-18T08:44:29.098Z</time></trkpt><trkpt lat="43.5946283" lon="11.2476233"><ele>363.0</ele><time>2026-04-18T08:44:30.099Z</time></trkpt><trkpt lat="43.5947167" lon="11.2475717"><ele>363.0</ele><time>2026-04-18T08:44:31.098Z</time></trkpt><trkpt lat="43.5948017" lon="11.2475133"><ele>363.0</ele><time>2026-04-18T08:44:32.099Z</time></trkpt><trkpt lat="43.594885" lon="11.2474467"><ele>363.0</ele><time>2026-04-18T08:44:33.098Z</time></trkpt><trkpt lat="43.5949633" lon="11.2473733"><ele>363.0</ele><time>2026-04-18T08:44:34.098Z</time></trkpt><trkpt lat="43.595025" lon="11.2473183"><ele>363.0</ele><time>2026-04-18T08:44:35.098Z</time></trkpt><trkpt lat="43.5950883" lon="11.2472667"><ele>363.0</ele><time>2026-04-18T08:44:36.098Z</time></trkpt><trkpt lat="43.5951467" lon="11.2472133"><ele>363.0</ele><time>2026-04-18T08:44:37.098Z</time></trkpt><trkpt lat="43.5951917" lon="11.247135"><ele>361.59999999999997</ele><time>2026-04-18T08:44:38.099Z</time></trkpt><trkpt lat="43.5952267" lon="11.247045"><ele>360.2</ele><time>2026-04-18T08:44:39.099Z</time></trkpt><trkpt lat="43.59525" lon="11.246925"><ele>358.8</ele><time>2026-04-18T08:44:40.099Z</time></trkpt><trkpt lat="43.595255" lon="11.2467833"><ele>357.4</ele><time>2026-04-18T08:44:41.098Z</time></trkpt><trkpt lat="43.595255" lon="11.246635"><ele>356.0</ele><time>2026-04-18T08:44:42.098Z</time></trkpt><trkpt lat="43.5952583" lon="11.2464767"><ele>356.0</ele><time>2026-04-18T08:44:43.098Z</time></trkpt><trkpt lat="43.5952667" lon="11.2463183"><ele>356.0</ele><time>2026-04-18T08:44:44.099Z</time></trkpt><trkpt lat="43.5952783" lon="11.246165"><ele>356.0</ele><time>2026-04-18T08:44:45.098Z</time></trkpt><trkpt lat="43.5952833" lon="11.246005"><ele>356.0</ele><time>2026-04-18T08:44:46.098Z</time></trkpt><trkpt lat="43.5952833" lon="11.245845"><ele>356.0</ele><time>2026-04-18T08:44:47.098Z</time></trkpt><trkpt lat="43.595265" lon="11.2456967"><ele>356.0</ele><time>2026-04-18T08:44:48.098Z</time></trkpt><trkpt lat="43.595245" lon="11.2455467"><ele>356.0</ele><time>2026-04-18T08:44:49.098Z</time></trkpt><trkpt lat="43.5952133" lon="11.2454033"><ele>356.0</ele><time>2026-04-18T08:44:50.099Z</time></trkpt><trkpt lat="43.5951983" lon="11.24526"><ele>356.0</ele><time>2026-04-18T08:44:51.098Z</time></trkpt><trkpt lat="43.595185" lon="11.2451183"><ele>357.1666666666667</ele><time>2026-04-18T08:44:52.099Z</time></trkpt><trkpt lat="43.595175" lon="11.2449883"><ele>358.33333333333337</ele><time>2026-04-18T08:44:53.099Z</time></trkpt><trkpt lat="43.5951633" lon="11.2448717"><ele>359.5</ele><time>2026-04-18T08:44:54.098Z</time></trkpt><trkpt lat="43.5951417" lon="11.2447767"><ele>360.6666666666667</ele><time>2026-04-18T08:44:55.098Z</time></trkpt><trkpt lat="43.5951067" lon="11.2446867"><ele>361.8333333333333</ele><time>2026-04-18T08:44:56.099Z</time></trkpt><trkpt lat="43.5950483" lon="11.24461"><ele>363.0</ele><time>2026-04-18T08:44:57.098Z</time></trkpt><trkpt lat="43.5949833" lon="11.24454"><ele>363.1666666666667</ele><time>2026-04-18T08:44:58.098Z</time></trkpt><trkpt lat="43.5949133" lon="11.244465"><ele>363.3333333333333</ele><time>2026-04-18T08:44:59.098Z</time></trkpt><trkpt lat="43.5948417" lon="11.244385"><ele>363.5</ele><time>2026-04-18T08:45:00.098Z</time></trkpt><trkpt lat="43.594775" lon="11.244295"><ele>363.66666666666663</ele><time>2026-04-18T08:45:01.098Z</time></trkpt><trkpt lat="43.5947167" lon="11.2442017"><ele>363.8333333333333</ele><time>2026-04-18T08:45:02.099Z</time></trkpt><trkpt lat="43.59467" lon="11.2441133"><ele>364.0</ele><time>2026-04-18T08:45:03.098Z</time></trkpt><trkpt lat="43.5946267" lon="11.2440017"><ele>363.0</ele><time>2026-04-18T08:45:04.099Z</time></trkpt><trkpt lat="43.5945817" lon="11.243895"><ele>362.0</ele><time>2026-04-18T08:45:05.099Z</time></trkpt><trkpt lat="43.594545" lon="11.24378"><ele>361.0</ele><time>2026-04-18T08:45:06.099Z</time></trkpt><trkpt lat="43.5945083" lon="11.2436683"><ele>360.0</ele><time>2026-04-18T08:45:07.098Z</time></trkpt><trkpt lat="43.594475" lon="11.243555"><ele>359.0</ele><time>2026-04-18T08:45:08.098Z</time></trkpt><trkpt lat="43.594455" lon="11.2434317"><ele>358.0</ele><time>2026-04-18T08:45:09.098Z</time></trkpt><trkpt lat="43.5944383" lon="11.2433067"><ele>358.0</ele><time>2026-04-18T08:45:10.098Z</time></trkpt><trkpt lat="43.5944267" lon="11.2431767"><ele>358.0</ele><time>2026-04-18T08:45:11.098Z</time></trkpt><trkpt lat="43.5944333" lon="11.2430367"><ele>358.0</ele><time>2026-04-18T08:45:12.098Z</time></trkpt><trkpt lat="43.59447" lon="11.242895"><ele>358.0</ele><time>2026-04-18T08:45:13.098Z</time></trkpt><trkpt lat="43.5945117" lon="11.24276"><ele>358.0</ele><time>2026-04-18T08:45:14.098Z</time></trkpt><trkpt lat="43.5945633" lon="11.2426183"><ele>354.75</ele><time>2026-04-18T08:45:15.098Z</time></trkpt><trkpt lat="43.5946117" lon="11.242475"><ele>351.5</ele><time>2026-04-18T08:45:16.098Z</time></trkpt><trkpt lat="43.5946617" lon="11.2423317"><ele>348.25</ele><time>2026-04-18T08:45:17.098Z</time></trkpt><trkpt lat="43.5947017" lon="11.2421783"><ele>345.0</ele><time>2026-04-18T08:45:18.099Z</time></trkpt><trkpt lat="43.594745" lon="11.2420433"><ele>343.6</ele><time>2026-04-18T08:45:19.099Z</time></trkpt><trkpt lat="43.5947867" lon="11.2419"><ele>342.2</ele><time>2026-04-18T08:45:20.099Z</time></trkpt><trkpt lat="43.5948283" lon="11.2417583"><ele>340.79999999999995</ele><time>2026-04-18T08:45:21.099Z</time></trkpt><trkpt lat="43.5948683" lon="11.2416217"><ele>339.4</ele><time>2026-04-18T08:45:22.099Z</time></trkpt><trkpt lat="43.5948967" lon="11.241485"><ele>338.0</ele><time>2026-04-18T08:45:23.099Z</time></trkpt><trkpt lat="43.594915" lon="11.2413367"><ele>337.0</ele><time>2026-04-18T08:45:24.098Z</time></trkpt><trkpt lat="43.5949233" lon="11.2411733"><ele>336.0</ele><time>2026-04-18T08:45:25.099Z</time></trkpt><trkpt lat="43.59492" lon="11.241"><ele>335.0</ele><time>2026-04-18T08:45:26.098Z</time></trkpt><trkpt lat="43.594915" lon="11.2408267"><ele>334.0</ele><time>2026-04-18T08:45:27.098Z</time></trkpt><trkpt lat="43.5948983" lon="11.240655"><ele>332.5</ele><time>2026-04-18T08:45:28.099Z</time></trkpt><trkpt lat="43.594885" lon="11.2404867"><ele>331.0</ele><time>2026-04-18T08:45:29.098Z</time></trkpt><trkpt lat="43.5948667" lon="11.2403183"><ele>329.5</ele><time>2026-04-18T08:45:30.098Z</time></trkpt><trkpt lat="43.5948483" lon="11.2401517"><ele>328.0</ele><time>2026-04-18T08:45:31.099Z</time></trkpt><trkpt lat="43.5948317" lon="11.2399833"><ele>328.0</ele><time>2026-04-18T08:45:32.099Z</time></trkpt><trkpt lat="43.5948133" lon="11.2398183"><ele>328.0</ele><time>2026-04-18T08:45:33.098Z</time></trkpt><trkpt lat="43.5947983" lon="11.2396533"><ele>328.0</ele><time>2026-04-18T08:45:34.099Z</time></trkpt><trkpt lat="43.5947867" lon="11.2394867"><ele>328.0</ele><time>2026-04-18T08:45:35.099Z</time></trkpt><trkpt lat="43.594775" lon="11.2393267"><ele>327.25</ele><time>2026-04-18T08:45:36.098Z</time></trkpt><trkpt lat="43.594765" lon="11.2391617"><ele>326.5</ele><time>2026-04-18T08:45:37.098Z</time></trkpt><trkpt lat="43.5947517" lon="11.238995"><ele>325.75</ele><time>2026-04-18T08:45:38.098Z</time></trkpt><trkpt lat="43.5947417" lon="11.2388333"><ele>325.0</ele><time>2026-04-18T08:45:39.098Z</time></trkpt><trkpt lat="43.5947217" lon="11.2386867"><ele>324.25</ele><time>2026-04-18T08:45:40.099Z</time></trkpt><trkpt lat="43.5946867" lon="11.2385467"><ele>323.5</ele><time>2026-04-18T08:45:41.099Z</time></trkpt><trkpt lat="43.594635" lon="11.238405"><ele>322.75</ele><time>2026-04-18T08:45:42.099Z</time></trkpt><trkpt lat="43.5945683" lon="11.238275"><ele>322.0</ele><time>2026-04-18T08:45:43.098Z</time></trkpt><trkpt lat="43.5945067" lon="11.23814"><ele>324.25</ele><time>2026-04-18T08:45:44.098Z</time></trkpt><trkpt lat="43.594455" lon="11.2379983"><ele>326.5</ele><time>2026-04-18T08:45:45.099Z</time></trkpt><trkpt lat="43.5944117" lon="11.2378467"><ele>328.75</ele><time>2026-04-18T08:45:46.099Z</time></trkpt><trkpt lat="43.5943733" lon="11.23769"><ele>331.0</ele><time>2026-04-18T08:45:47.098Z</time></trkpt><trkpt lat="43.5943367" lon="11.2375317"><ele>331.0</ele><time>2026-04-18T08:45:48.098Z</time></trkpt><trkpt lat="43.594305" lon="11.2373717"><ele>331.0</ele><time>2026-04-18T08:45:49.099Z</time></trkpt><trkpt lat="43.594285" lon="11.237205"><ele>331.0</ele><time>2026-04-18T08:45:50.098Z</time></trkpt><trkpt lat="43.5942833" lon="11.23703"><ele>331.0</ele><time>2026-04-18T08:45:51.098Z</time></trkpt><trkpt lat="43.594295" lon="11.2368467"><ele>330.0</ele><time>2026-04-18T08:45:52.099Z</time></trkpt><trkpt lat="43.5943233" lon="11.2366633"><ele>329.0</ele><time>2026-04-18T08:45:53.099Z</time></trkpt><trkpt lat="43.594355" lon="11.2364817"><ele>328.0</ele><time>2026-04-18T08:45:54.098Z</time></trkpt><trkpt lat="43.594385" lon="11.236305"><ele>327.0</ele><time>2026-04-18T08:45:55.098Z</time></trkpt><trkpt lat="43.5944217" lon="11.2361267"><ele>326.25</ele><time>2026-04-18T08:45:56.098Z</time></trkpt><trkpt lat="43.59446" lon="11.2359533"><ele>325.5</ele><time>2026-04-18T08:45:57.098Z</time></trkpt><trkpt lat="43.594495" lon="11.2357833"><ele>324.75</ele><time>2026-04-18T08:45:58.099Z</time></trkpt><trkpt lat="43.5945267" lon="11.23561"><ele>324.0</ele><time>2026-04-18T08:45:59.099Z</time></trkpt><trkpt lat="43.5945533" lon="11.2354333"><ele>323.5</ele><time>2026-04-18T08:46:00.099Z</time></trkpt><trkpt lat="43.5945733" lon="11.235255"><ele>323.0</ele><time>2026-04-18T08:46:01.098Z</time></trkpt><trkpt lat="43.5945983" lon="11.235075"><ele>322.5</ele><time>2026-04-18T08:46:02.099Z</time></trkpt><trkpt lat="43.5946217" lon="11.2348983"><ele>322.0</ele><time>2026-04-18T08:46:03.098Z</time></trkpt><trkpt lat="43.5946517" lon="11.2347333"><ele>321.75</ele><time>2026-04-18T08:46:04.098Z</time></trkpt><trkpt lat="43.59469" lon="11.234565"><ele>321.5</ele><time>2026-04-18T08:46:05.098Z</time></trkpt><trkpt lat="43.59473" lon="11.2344"><ele>321.25</ele><time>2026-04-18T08:46:06.098Z</time></trkpt><trkpt lat="43.594765" lon="11.234235"><ele>321.0</ele><time>2026-04-18T08:46:07.098Z</time></trkpt><trkpt lat="43.5948033" lon="11.234075"><ele>321.0</ele><time>2026-04-18T08:46:08.098Z</time></trkpt><trkpt lat="43.5948383" lon="11.23391"><ele>321.0</ele><time>2026-04-18T08:46:09.099Z</time></trkpt><trkpt lat="43.5948833" lon="11.2337433"><ele>321.0</ele><time>2026-04-18T08:46:10.098Z</time></trkpt><trkpt lat="43.594935" lon="11.2335833"><ele>321.0</ele><time>2026-04-18T08:46:11.098Z</time></trkpt><trkpt lat="43.5949833" lon="11.2334183"><ele>321.0</ele><time>2026-04-18T08:46:12.099Z</time></trkpt><trkpt lat="43.59503" lon="11.2332567"><ele>321.0</ele><time>2026-04-18T08:46:13.098Z</time></trkpt><trkpt lat="43.5950783" lon="11.2330917"><ele>321.0</ele><time>2026-04-18T08:46:14.098Z</time></trkpt><trkpt lat="43.5951267" lon="11.2329317"><ele>321.0</ele><time>2026-04-18T08:46:15.098Z</time></trkpt><trkpt lat="43.5951783" lon="11.2327783"><ele>320.75</ele><time>2026-04-18T08:46:16.098Z</time></trkpt><trkpt lat="43.59523" lon="11.2326283"><ele>320.5</ele><time>2026-04-18T08:46:17.099Z</time></trkpt><trkpt lat="43.5952817" lon="11.232485"><ele>320.25</ele><time>2026-04-18T08:46:18.098Z</time></trkpt><trkpt lat="43.59534" lon="11.2323583"><ele>320.0</ele><time>2026-04-18T08:46:19.098Z</time></trkpt><trkpt lat="43.5954033" lon="11.23223"><ele>320.0</ele><time>2026-04-18T08:46:20.099Z</time></trkpt><trkpt lat="43.5954717" lon="11.2321067"><ele>320.0</ele><time>2026-04-18T08:46:21.099Z</time></trkpt><trkpt lat="43.5955417" lon="11.2319933"><ele>320.0</ele><time>2026-04-18T08:46:22.098Z</time></trkpt><trkpt lat="43.5956083" lon="11.2318733"><ele>320.0</ele><time>2026-04-18T08:46:23.099Z</time></trkpt><trkpt lat="43.5956817" lon="11.231765"><ele>320.0</ele><time>2026-04-18T08:46:24.098Z</time></trkpt><trkpt lat="43.59576" lon="11.231655"><ele>320.0</ele><time>2026-04-18T08:46:25.099Z</time></trkpt><trkpt lat="43.59585" lon="11.231545"><ele>320.0</ele><time>2026-04-18T08:46:26.099Z</time></trkpt><trkpt lat="43.5959417" lon="11.23143"><ele>320.0</ele><time>2026-04-18T08:46:27.098Z</time></trkpt><trkpt lat="43.5960367" lon="11.2313083"><ele>320.0</ele><time>2026-04-18T08:46:28.098Z</time></trkpt><trkpt lat="43.596135" lon="11.2311867"><ele>317.5</ele><time>2026-04-18T08:46:29.098Z</time></trkpt><trkpt lat="43.596225" lon="11.231055"><ele>315.0</ele><time>2026-04-18T08:46:30.098Z</time></trkpt><trkpt lat="43.5963217" lon="11.2309333"><ele>312.5</ele><time>2026-04-18T08:46:31.098Z</time></trkpt><trkpt lat="43.5964183" lon="11.230805"><ele>310.0</ele><time>2026-04-18T08:46:32.098Z</time></trkpt><trkpt lat="43.596505" lon="11.23068"><ele>308.75</ele><time>2026-04-18T08:46:33.098Z</time></trkpt><trkpt lat="43.5966067" lon="11.230555"><ele>307.5</ele><time>2026-04-18T08:46:34.098Z</time></trkpt><trkpt lat="43.59671" lon="11.23043"><ele>306.25</ele><time>2026-04-18T08:46:35.098Z</time></trkpt><trkpt lat="43.5968083" lon="11.2303"><ele>305.0</ele><time>2026-04-18T08:46:36.099Z</time></trkpt><trkpt lat="43.59691" lon="11.230175"><ele>304.5</ele><time>2026-04-18T08:46:37.098Z</time></trkpt><trkpt lat="43.5970083" lon="11.2300567"><ele>304.0</ele><time>2026-04-18T08:46:38.099Z</time></trkpt><trkpt lat="43.5971033" lon="11.2299333"><ele>303.5</ele><time>2026-04-18T08:46:39.098Z</time></trkpt><trkpt lat="43.5972" lon="11.2298167"><ele>303.0</ele><time>2026-04-18T08:46:40.099Z</time></trkpt><trkpt lat="43.59729" lon="11.2297"><ele>303.0</ele><time>2026-04-18T08:46:41.099Z</time></trkpt><trkpt lat="43.5973733" lon="11.2295867"><ele>303.0</ele><time>2026-04-18T08:46:42.098Z</time></trkpt><trkpt lat="43.597455" lon="11.2294733"><ele>303.0</ele><time>2026-04-18T08:46:43.099Z</time></trkpt><trkpt lat="43.5975317" lon="11.22936"><ele>303.0</ele><time>2026-04-18T08:46:44.098Z</time></trkpt><trkpt lat="43.5976067" lon="11.22925"><ele>303.0</ele><time>2026-04-18T08:46:45.098Z</time></trkpt><trkpt lat="43.5976783" lon="11.2291417"><ele>303.0</ele><time>2026-04-18T08:46:46.098Z</time></trkpt><trkpt lat="43.5977417" lon="11.229045"><ele>303.0</ele><time>2026-04-18T08:46:47.099Z</time></trkpt><trkpt lat="43.597795" lon="11.2289567"><ele>303.0</ele><time>2026-04-18T08:46:48.099Z</time></trkpt><trkpt lat="43.597845" lon="11.2288783"><ele>303.0</ele><time>2026-04-18T08:46:49.098Z</time></trkpt><trkpt lat="43.59789" lon="11.2288133"><ele>303.0</ele><time>2026-04-18T08:46:50.098Z</time></trkpt><trkpt lat="43.597935" lon="11.2287433"><ele>302.4</ele><time>2026-04-18T08:46:51.098Z</time></trkpt><trkpt lat="43.59798" lon="11.228675"><ele>301.8</ele><time>2026-04-18T08:46:52.099Z</time></trkpt><trkpt lat="43.5980317" lon="11.2285767"><ele>301.2</ele><time>2026-04-18T08:46:53.098Z</time></trkpt><trkpt lat="43.5981" lon="11.2284567"><ele>300.6</ele><time>2026-04-18T08:46:54.098Z</time></trkpt><trkpt lat="43.5981733" lon="11.22833"><ele>300.0</ele><time>2026-04-18T08:46:55.099Z</time></trkpt><trkpt lat="43.5982417" lon="11.2282117"><ele>300.6</ele><time>2026-04-18T08:46:56.099Z</time></trkpt><trkpt lat="43.5983067" lon="11.2281083"><ele>301.2</ele><time>2026-04-18T08:46:57.098Z</time></trkpt><trkpt lat="43.59836" lon="11.228015"><ele>301.8</ele><time>2026-04-18T08:46:58.098Z</time></trkpt><trkpt lat="43.59842" lon="11.22794"><ele>302.4</ele><time>2026-04-18T08:46:59.098Z</time></trkpt><trkpt lat="43.598465" lon="11.2278667"><ele>303.0</ele><time>2026-04-18T08:47:00.098Z</time></trkpt><trkpt lat="43.5984883" lon="11.2277"><ele>303.0</ele><time>2026-04-18T08:47:02.099Z</time></trkpt><trkpt lat="43.59845" lon="11.2276017"><ele>303.0</ele><time>2026-04-18T08:47:03.099Z</time></trkpt><trkpt lat="43.5984017" lon="11.2274967"><ele>303.0</ele><time>2026-04-18T08:47:04.098Z</time></trkpt><trkpt lat="43.59833" lon="11.2273867"><ele>303.0</ele><time>2026-04-18T08:47:05.099Z</time></trkpt><trkpt lat="43.5982467" lon="11.227275"><ele>303.0</ele><time>2026-04-18T08:47:06.098Z</time></trkpt><trkpt lat="43.59816" lon="11.227155"><ele>302.5</ele><time>2026-04-18T08:47:07.099Z</time></trkpt><trkpt lat="43.5980667" lon="11.22704"><ele>302.0</ele><time>2026-04-18T08:47:08.099Z</time></trkpt><trkpt lat="43.5979733" lon="11.2269217"><ele>301.5</ele><time>2026-04-18T08:47:09.099Z</time></trkpt><trkpt lat="43.5978733" lon="11.22681"><ele>301.0</ele><time>2026-04-18T08:47:10.098Z</time></trkpt><trkpt lat="43.59777" lon="11.226705"><ele>300.0</ele><time>2026-04-18T08:47:11.099Z</time></trkpt><trkpt lat="43.5976667" lon="11.2266"><ele>299.0</ele><time>2026-04-18T08:47:12.098Z</time></trkpt><trkpt lat="43.5975617" lon="11.2265017"><ele>298.0</ele><time>2026-04-18T08:47:13.098Z</time></trkpt><trkpt lat="43.59746" lon="11.226405"><ele>297.0</ele><time>2026-04-18T08:47:14.099Z</time></trkpt><trkpt lat="43.5973733" lon="11.2262967"><ele>296.0</ele><time>2026-04-18T08:47:15.098Z</time></trkpt><trkpt lat="43.597295" lon="11.2261717"><ele>295.0</ele><time>2026-04-18T08:47:16.098Z</time></trkpt><trkpt lat="43.5972433" lon="11.2260167"><ele>294.0</ele><time>2026-04-18T08:47:17.098Z</time></trkpt><trkpt lat="43.5972033" lon="11.22586"><ele>293.0</ele><time>2026-04-18T08:47:18.098Z</time></trkpt><trkpt lat="43.5971667" lon="11.225695"><ele>292.25</ele><time>2026-04-18T08:47:19.099Z</time></trkpt><trkpt lat="43.5971267" lon="11.2255367"><ele>291.5</ele><time>2026-04-18T08:47:20.098Z</time></trkpt><trkpt lat="43.5970767" lon="11.2253833"><ele>290.75</ele><time>2026-04-18T08:47:21.099Z</time></trkpt><trkpt lat="43.5970183" lon="11.2252367"><ele>290.0</ele><time>2026-04-18T08:47:22.099Z</time></trkpt><trkpt lat="43.5969617" lon="11.2250767"><ele>290.0</ele><time>2026-04-18T08:47:23.099Z</time></trkpt><trkpt lat="43.5969183" lon="11.2249033"><ele>290.0</ele><time>2026-04-18T08:47:24.099Z</time></trkpt><trkpt lat="43.5968867" lon="11.224715"><ele>290.0</ele><time>2026-04-18T08:47:25.098Z</time></trkpt><trkpt lat="43.5968683" lon="11.2245233"><ele>290.0</ele><time>2026-04-18T08:47:26.098Z</time></trkpt><trkpt lat="43.5968517" lon="11.22433"><ele>290.0</ele><time>2026-04-18T08:47:27.098Z</time></trkpt><trkpt lat="43.596845" lon="11.224135"><ele>290.0</ele><time>2026-04-18T08:47:28.098Z</time></trkpt><trkpt lat="43.5968333" lon="11.2239433"><ele>290.0</ele><time>2026-04-18T08:47:29.099Z</time></trkpt><trkpt lat="43.596825" lon="11.22375"><ele>290.0</ele><time>2026-04-18T08:47:30.099Z</time></trkpt><trkpt lat="43.5968133" lon="11.2235517"><ele>291.0</ele><time>2026-04-18T08:47:31.098Z</time></trkpt><trkpt lat="43.596795" lon="11.2233517"><ele>292.0</ele><time>2026-04-18T08:47:32.099Z</time></trkpt><trkpt lat="43.5967717" lon="11.223155"><ele>293.0</ele><time>2026-04-18T08:47:33.098Z</time></trkpt><trkpt lat="43.5967433" lon="11.2229517"><ele>294.0</ele><time>2026-04-18T08:47:34.098Z</time></trkpt><trkpt lat="43.5967217" lon="11.2227533"><ele>294.0</ele><time>2026-04-18T08:47:35.099Z</time></trkpt><trkpt lat="43.5967" lon="11.22255"><ele>294.0</ele><time>2026-04-18T08:47:36.098Z</time></trkpt><trkpt lat="43.59668" lon="11.2223483"><ele>294.0</ele><time>2026-04-18T08:47:37.098Z</time></trkpt><trkpt lat="43.5966583" lon="11.222145"><ele>294.0</ele><time>2026-04-18T08:47:38.098Z</time></trkpt><trkpt lat="43.5966233" lon="11.2219467"><ele>294.0</ele><time>2026-04-18T08:47:39.099Z</time></trkpt><trkpt lat="43.59657" lon="11.2217567"><ele>294.0</ele><time>2026-04-18T08:47:40.098Z</time></trkpt><trkpt lat="43.5965017" lon="11.221575"><ele>294.0</ele><time>2026-04-18T08:47:41.098Z</time></trkpt><trkpt lat="43.5964083" lon="11.221395"><ele>293.75</ele><time>2026-04-18T08:47:42.099Z</time></trkpt><trkpt lat="43.596325" lon="11.2212333"><ele>293.5</ele><time>2026-04-18T08:47:43.099Z</time></trkpt><trkpt lat="43.5962483" lon="11.2210867"><ele>293.25</ele><time>2026-04-18T08:47:44.098Z</time></trkpt><trkpt lat="43.5961683" lon="11.2209617"><ele>293.0</ele><time>2026-04-18T08:47:45.099Z</time></trkpt><trkpt lat="43.596075" lon="11.2208583"><ele>293.0</ele><time>2026-04-18T08:47:46.099Z</time></trkpt><trkpt lat="43.59597" lon="11.2207733"><ele>293.0</ele><time>2026-04-18T08:47:47.099Z</time></trkpt><trkpt lat="43.5958467" lon="11.220695"><ele>293.0</ele><time>2026-04-18T08:47:48.099Z</time></trkpt><trkpt lat="43.595705" lon="11.2206233"><ele>293.0</ele><time>2026-04-18T08:47:49.098Z</time></trkpt><trkpt lat="43.595565" lon="11.2205483"><ele>293.25</ele><time>2026-04-18T08:47:50.099Z</time></trkpt><trkpt lat="43.59543" lon="11.220475"><ele>293.5</ele><time>2026-04-18T08:47:51.099Z</time></trkpt><trkpt lat="43.59529" lon="11.22041"><ele>293.75</ele><time>2026-04-18T08:47:52.098Z</time></trkpt><trkpt lat="43.5951517" lon="11.2203467"><ele>294.0</ele><time>2026-04-18T08:47:53.098Z</time></trkpt><trkpt lat="43.59501" lon="11.2202867"><ele>292.0</ele><time>2026-04-18T08:47:54.098Z</time></trkpt><trkpt lat="43.594865" lon="11.2202383"><ele>290.0</ele><time>2026-04-18T08:47:55.099Z</time></trkpt><trkpt lat="43.5947083" lon="11.2202033"><ele>288.0</ele><time>2026-04-18T08:47:56.097Z</time></trkpt><trkpt lat="43.5945517" lon="11.220165"><ele>285.6666666666667</ele><time>2026-04-18T08:47:57.098Z</time></trkpt><trkpt lat="43.5944017" lon="11.2201283"><ele>283.33333333333337</ele><time>2026-04-18T08:47:58.098Z</time></trkpt><trkpt lat="43.5942517" lon="11.2200883"><ele>281.0</ele><time>2026-04-18T08:47:59.097Z</time></trkpt><trkpt lat="43.5941067" lon="11.2200317"><ele>281.0</ele><time>2026-04-18T08:48:00.098Z</time></trkpt><trkpt lat="43.5939717" lon="11.2199633"><ele>281.0</ele><time>2026-04-18T08:48:01.098Z</time></trkpt><trkpt lat="43.5938417" lon="11.219875"><ele>281.0</ele><time>2026-04-18T08:48:02.097Z</time></trkpt><trkpt lat="43.5937183" lon="11.21977"><ele>281.0</ele><time>2026-04-18T08:48:03.098Z</time></trkpt><trkpt lat="43.593615" lon="11.2196317"><ele>280.5</ele><time>2026-04-18T08:48:04.097Z</time></trkpt><trkpt lat="43.5935183" lon="11.2194867"><ele>280.0</ele><time>2026-04-18T08:48:05.098Z</time></trkpt><trkpt lat="43.5934217" lon="11.219335"><ele>279.5</ele><time>2026-04-18T08:48:06.097Z</time></trkpt><trkpt lat="43.5933267" lon="11.21917"><ele>279.0</ele><time>2026-04-18T08:48:07.098Z</time></trkpt><trkpt lat="43.5932367" lon="11.2190183"><ele>279.5</ele><time>2026-04-18T08:48:08.097Z</time></trkpt><trkpt lat="43.5931483" lon="11.2188667"><ele>280.0</ele><time>2026-04-18T08:48:09.097Z</time></trkpt><trkpt lat="43.5930617" lon="11.218715"><ele>280.5</ele><time>2026-04-18T08:48:10.097Z</time></trkpt><trkpt lat="43.5929767" lon="11.218575"><ele>281.0</ele><time>2026-04-18T08:48:11.097Z</time></trkpt><trkpt lat="43.5928917" lon="11.2184467"><ele>278.0</ele><time>2026-04-18T08:48:12.097Z</time></trkpt><trkpt lat="43.5928083" lon="11.2183183"><ele>275.0</ele><time>2026-04-18T08:48:13.098Z</time></trkpt><trkpt lat="43.592745" lon="11.218185"><ele>272.0</ele><time>2026-04-18T08:48:14.098Z</time></trkpt><trkpt lat="43.5926833" lon="11.218055"><ele>269.0</ele><time>2026-04-18T08:48:15.097Z</time></trkpt><trkpt lat="43.5926317" lon="11.217915"><ele>268.2</ele><time>2026-04-18T08:48:16.097Z</time></trkpt><trkpt lat="43.5925883" lon="11.2177883"><ele>267.4</ele><time>2026-04-18T08:48:17.098Z</time></trkpt><trkpt lat="43.592545" lon="11.2176617"><ele>266.6</ele><time>2026-04-18T08:48:18.098Z</time></trkpt><trkpt lat="43.59251" lon="11.2175467"><ele>265.8</ele><time>2026-04-18T08:48:19.097Z</time></trkpt><trkpt lat="43.5924867" lon="11.2174467"><ele>265.0</ele><time>2026-04-18T08:48:20.097Z</time></trkpt><trkpt lat="43.5924617" lon="11.2173117"><ele>265.6</ele><time>2026-04-18T08:48:22.098Z</time></trkpt><trkpt lat="43.592525" lon="11.2172333"><ele>266.2</ele><time>2026-04-18T08:48:24.098Z</time></trkpt><trkpt lat="43.5926367" lon="11.2172133"><ele>266.8</ele><time>2026-04-18T08:48:26.097Z</time></trkpt><trkpt lat="43.592715" lon="11.2172183"><ele>267.4</ele><time>2026-04-18T08:48:27.097Z</time></trkpt><trkpt lat="43.5928133" lon="11.217245"><ele>268.0</ele><time>2026-04-18T08:48:28.098Z</time></trkpt><trkpt lat="43.5929083" lon="11.2172733"><ele>268.0</ele><time>2026-04-18T08:48:29.098Z</time></trkpt><trkpt lat="43.5929983" lon="11.2172867"><ele>268.0</ele><time>2026-04-18T08:48:30.097Z</time></trkpt><trkpt lat="43.5930867" lon="11.21729"><ele>268.0</ele><time>2026-04-18T08:48:31.098Z</time></trkpt><trkpt lat="43.59317" lon="11.217285"><ele>268.0</ele><time>2026-04-18T08:48:32.098Z</time></trkpt><trkpt lat="43.5932483" lon="11.2172683"><ele>268.0</ele><time>2026-04-18T08:48:33.097Z</time></trkpt><trkpt lat="43.5933083" lon="11.2172267"><ele>268.0</ele><time>2026-04-18T08:48:34.097Z</time></trkpt><trkpt lat="43.5933367" lon="11.2171033"><ele>268.0</ele><time>2026-04-18T08:48:36.097Z</time></trkpt><trkpt lat="43.593295" lon="11.2169933"><ele>268.0</ele><time>2026-04-18T08:48:37.097Z</time></trkpt><trkpt lat="43.593225" lon="11.2168917"><ele>268.0</ele><time>2026-04-18T08:48:38.098Z</time></trkpt><trkpt lat="43.5931317" lon="11.2167883"><ele>268.0</ele><time>2026-04-18T08:48:39.098Z</time></trkpt><trkpt lat="43.593015" lon="11.2166983"><ele>268.0</ele><time>2026-04-18T08:48:40.097Z</time></trkpt><trkpt lat="43.5929" lon="11.216605"><ele>265.75</ele><time>2026-04-18T08:48:41.098Z</time></trkpt><trkpt lat="43.5927883" lon="11.2165033"><ele>263.5</ele><time>2026-04-18T08:48:42.097Z</time></trkpt><trkpt lat="43.5926767" lon="11.2164033"><ele>261.25</ele><time>2026-04-18T08:48:43.098Z</time></trkpt><trkpt lat="43.5925717" lon="11.2163"><ele>259.0</ele><time>2026-04-18T08:48:44.098Z</time></trkpt><trkpt lat="43.5924617" lon="11.2161933"><ele>259.0</ele><time>2026-04-18T08:48:45.098Z</time></trkpt><trkpt lat="43.5923567" lon="11.2160783"><ele>259.0</ele><time>2026-04-18T08:48:46.097Z</time></trkpt><trkpt lat="43.5922383" lon="11.2159767"><ele>259.0</ele><time>2026-04-18T08:48:47.097Z</time></trkpt><trkpt lat="43.5921267" lon="11.2158783"><ele>259.0</ele><time>2026-04-18T08:48:48.098Z</time></trkpt><trkpt lat="43.59203" lon="11.215775"><ele>259.25</ele><time>2026-04-18T08:48:49.097Z</time></trkpt><trkpt lat="43.591925" lon="11.2156733"><ele>259.5</ele><time>2026-04-18T08:48:50.097Z</time></trkpt><trkpt lat="43.591815" lon="11.2155717"><ele>259.75</ele><time>2026-04-18T08:48:51.098Z</time></trkpt><trkpt lat="43.5917167" lon="11.21547"><ele>260.0</ele><time>2026-04-18T08:48:52.097Z</time></trkpt><trkpt lat="43.5916267" lon="11.2153633"><ele>257.5</ele><time>2026-04-18T08:48:53.097Z</time></trkpt><trkpt lat="43.5915533" lon="11.2152283"><ele>255.0</ele><time>2026-04-18T08:48:54.098Z</time></trkpt><trkpt lat="43.5915017" lon="11.215085"><ele>252.5</ele><time>2026-04-18T08:48:55.097Z</time></trkpt><trkpt lat="43.591465" lon="11.2149217"><ele>250.0</ele><time>2026-04-18T08:48:56.098Z</time></trkpt><trkpt lat="43.5914333" lon="11.21476"><ele>248.25</ele><time>2026-04-18T08:48:57.098Z</time></trkpt><trkpt lat="43.5914083" lon="11.214585"><ele>246.5</ele><time>2026-04-18T08:48:58.097Z</time></trkpt><trkpt lat="43.5913667" lon="11.2144067"><ele>244.75</ele><time>2026-04-18T08:48:59.097Z</time></trkpt><trkpt lat="43.59133" lon="11.2142233"><ele>243.0</ele><time>2026-04-18T08:49:00.097Z</time></trkpt><trkpt lat="43.591315" lon="11.2140333"><ele>241.75</ele><time>2026-04-18T08:49:01.097Z</time></trkpt><trkpt lat="43.59129" lon="11.2138517"><ele>240.5</ele><time>2026-04-18T08:49:02.097Z</time></trkpt><trkpt lat="43.5912483" lon="11.21366"><ele>239.25</ele><time>2026-04-18T08:49:03.097Z</time></trkpt><trkpt lat="43.5912117" lon="11.21347"><ele>238.0</ele><time>2026-04-18T08:49:04.097Z</time></trkpt><trkpt lat="43.5911683" lon="11.2132867"><ele>235.0</ele><time>2026-04-18T08:49:05.097Z</time></trkpt><trkpt lat="43.5911233" lon="11.2131"><ele>232.0</ele><time>2026-04-18T08:49:06.098Z</time></trkpt><trkpt lat="43.5910817" lon="11.21291"><ele>229.0</ele><time>2026-04-18T08:49:07.097Z</time></trkpt><trkpt lat="43.5910383" lon="11.2127183"><ele>226.0</ele><time>2026-04-18T08:49:08.098Z</time></trkpt><trkpt lat="43.5909933" lon="11.2125417"><ele>226.0</ele><time>2026-04-18T08:49:09.097Z</time></trkpt><trkpt lat="43.5909467" lon="11.2123633"><ele>226.0</ele><time>2026-04-18T08:49:10.097Z</time></trkpt><trkpt lat="43.590905" lon="11.2121883"><ele>226.0</ele><time>2026-04-18T08:49:11.097Z</time></trkpt><trkpt lat="43.5908633" lon="11.212025"><ele>226.0</ele><time>2026-04-18T08:49:12.097Z</time></trkpt><trkpt lat="43.590825" lon="11.211865"><ele>223.0</ele><time>2026-04-18T08:49:13.098Z</time></trkpt><trkpt lat="43.5907867" lon="11.2117183"><ele>220.0</ele><time>2026-04-18T08:49:14.097Z</time></trkpt><trkpt lat="43.5907367" lon="11.2115833"><ele>217.0</ele><time>2026-04-18T08:49:15.098Z</time></trkpt><trkpt lat="43.5906667" lon="11.21145"><ele>214.0</ele><time>2026-04-18T08:49:16.098Z</time></trkpt><trkpt lat="43.5905683" lon="11.2113333"><ele>212.25</ele><time>2026-04-18T08:49:17.097Z</time></trkpt><trkpt lat="43.5904617" lon="11.2112367"><ele>210.5</ele><time>2026-04-18T08:49:18.098Z</time></trkpt><trkpt lat="43.59035" lon="11.21113"><ele>208.75</ele><time>2026-04-18T08:49:19.097Z</time></trkpt><trkpt lat="43.5902233" lon="11.2110333"><ele>207.0</ele><time>2026-04-18T08:49:20.097Z</time></trkpt><trkpt lat="43.5900983" lon="11.21095"><ele>207.0</ele><time>2026-04-18T08:49:21.097Z</time></trkpt><trkpt lat="43.5899733" lon="11.2108567"><ele>207.0</ele><time>2026-04-18T08:49:22.098Z</time></trkpt><trkpt lat="43.5898467" lon="11.210775"><ele>207.0</ele><time>2026-04-18T08:49:23.097Z</time></trkpt><trkpt lat="43.5897233" lon="11.2106883"><ele>207.0</ele><time>2026-04-18T08:49:24.097Z</time></trkpt><trkpt lat="43.5896067" lon="11.2105967"><ele>205.75</ele><time>2026-04-18T08:49:25.097Z</time></trkpt><trkpt lat="43.5894867" lon="11.21051"><ele>204.5</ele><time>2026-04-18T08:49:26.098Z</time></trkpt><trkpt lat="43.5893633" lon="11.2104183"><ele>203.25</ele><time>2026-04-18T08:49:27.097Z</time></trkpt><trkpt lat="43.5892533" lon="11.2103283"><ele>202.0</ele><time>2026-04-18T08:49:28.098Z</time></trkpt><trkpt lat="43.5891467" lon="11.2102233"><ele>202.0</ele><time>2026-04-18T08:49:29.097Z</time></trkpt><trkpt lat="43.5890517" lon="11.210105"><ele>202.0</ele><time>2026-04-18T08:49:30.097Z</time></trkpt><trkpt lat="43.588975" lon="11.2099667"><ele>202.0</ele><time>2026-04-18T08:49:31.097Z</time></trkpt><trkpt lat="43.58892" lon="11.2098133"><ele>202.0</ele><time>2026-04-18T08:49:32.098Z</time></trkpt><trkpt lat="43.5888717" lon="11.20965"><ele>200.5</ele><time>2026-04-18T08:49:33.098Z</time></trkpt><trkpt lat="43.588835" lon="11.2094767"><ele>199.0</ele><time>2026-04-18T08:49:34.097Z</time></trkpt><trkpt lat="43.5888017" lon="11.2093033"><ele>197.5</ele><time>2026-04-18T08:49:35.097Z</time></trkpt><trkpt lat="43.588775" lon="11.2091283"><ele>196.0</ele><time>2026-04-18T08:49:36.098Z</time></trkpt><trkpt lat="43.58874" lon="11.2089633"><ele>194.60000000000002</ele><time>2026-04-18T08:49:37.097Z</time></trkpt><trkpt lat="43.588705" lon="11.2088083"><ele>193.2</ele><time>2026-04-18T08:49:38.097Z</time></trkpt><trkpt lat="43.5886833" lon="11.2086633"><ele>191.8</ele><time>2026-04-18T08:49:39.097Z</time></trkpt><trkpt lat="43.58866" lon="11.20853"><ele>190.39999999999998</ele><time>2026-04-18T08:49:40.097Z</time></trkpt><trkpt lat="43.5886467" lon="11.20841"><ele>189.0</ele><time>2026-04-18T08:49:41.097Z</time></trkpt><trkpt lat="43.58863" lon="11.20831"><ele>186.83333333333334</ele><time>2026-04-18T08:49:42.098Z</time></trkpt><trkpt lat="43.5886117" lon="11.2081583"><ele>184.66666666666666</ele><time>2026-04-18T08:49:44.097Z</time></trkpt><trkpt lat="43.5886" lon="11.208065"><ele>182.5</ele><time>2026-04-18T08:49:46.097Z</time></trkpt><trkpt lat="43.58851" lon="11.207995"><ele>180.33333333333331</ele><time>2026-04-18T08:49:52.097Z</time></trkpt><trkpt lat="43.5884467" lon="11.2080117"><ele>178.16666666666666</ele><time>2026-04-18T08:49:53.098Z</time></trkpt><trkpt lat="43.58837" lon="11.2080433"><ele>176.0</ele><time>2026-04-18T08:49:54.098Z</time></trkpt><trkpt lat="43.58829" lon="11.20809"><ele>176.0</ele><time>2026-04-18T08:49:55.097Z</time></trkpt><trkpt lat="43.5882017" lon="11.2081383"><ele>176.0</ele><time>2026-04-18T08:49:56.098Z</time></trkpt><trkpt lat="43.588105" lon="11.2081833"><ele>176.0</ele><time>2026-04-18T08:49:57.097Z</time></trkpt><trkpt lat="43.58801" lon="11.20823"><ele>176.0</ele><time>2026-04-18T08:49:58.097Z</time></trkpt><trkpt lat="43.587905" lon="11.20829"><ele>176.0</ele><time>2026-04-18T08:49:59.097Z</time></trkpt><trkpt lat="43.5877933" lon="11.2083617"><ele>176.5</ele><time>2026-04-18T08:50:00.097Z</time></trkpt><trkpt lat="43.58769" lon="11.208435"><ele>177.0</ele><time>2026-04-18T08:50:01.097Z</time></trkpt><trkpt lat="43.587575" lon="11.2085117"><ele>177.5</ele><time>2026-04-18T08:50:02.098Z</time></trkpt><trkpt lat="43.5874433" lon="11.2085983"><ele>178.0</ele><time>2026-04-18T08:50:03.098Z</time></trkpt><trkpt lat="43.5873017" lon="11.208685"><ele>178.0</ele><time>2026-04-18T08:50:04.097Z</time></trkpt><trkpt lat="43.587165" lon="11.2087717"><ele>178.0</ele><time>2026-04-18T08:50:05.098Z</time></trkpt><trkpt lat="43.5870267" lon="11.2088633"><ele>178.0</ele><time>2026-04-18T08:50:06.098Z</time></trkpt><trkpt lat="43.5868833" lon="11.2089483"><ele>179.0</ele><time>2026-04-18T08:50:07.097Z</time></trkpt><trkpt lat="43.5867483" lon="11.2090367"><ele>180.0</ele><time>2026-04-18T08:50:08.098Z</time></trkpt><trkpt lat="43.5866083" lon="11.209125"><ele>181.0</ele><time>2026-04-18T08:50:09.097Z</time></trkpt><trkpt lat="43.58647" lon="11.2092117"><ele>181.0</ele><time>2026-04-18T08:50:10.098Z</time></trkpt><trkpt lat="43.5863267" lon="11.2093017"><ele>181.0</ele><time>2026-04-18T08:50:11.097Z</time></trkpt><trkpt lat="43.5861783" lon="11.2093933"><ele>181.0</ele><time>2026-04-18T08:50:12.098Z</time></trkpt><trkpt lat="43.5860333" lon="11.2094817"><ele>179.0</ele><time>2026-04-18T08:50:13.098Z</time></trkpt><trkpt lat="43.5858867" lon="11.2095717"><ele>177.0</ele><time>2026-04-18T08:50:14.098Z</time></trkpt><trkpt lat="43.5857317" lon="11.2096683"><ele>175.0</ele><time>2026-04-18T08:50:15.097Z</time></trkpt><trkpt lat="43.58558" lon="11.2097683"><ele>174.33333333333334</ele><time>2026-04-18T08:50:16.098Z</time></trkpt><trkpt lat="43.5854283" lon="11.2098717"><ele>173.66666666666666</ele><time>2026-04-18T08:50:17.097Z</time></trkpt><trkpt lat="43.5852733" lon="11.2099733"><ele>173.0</ele><time>2026-04-18T08:50:18.097Z</time></trkpt><trkpt lat="43.585115" lon="11.2100667"><ele>173.0</ele><time>2026-04-18T08:50:19.097Z</time></trkpt><trkpt lat="43.5849567" lon="11.2101683"><ele>173.0</ele><time>2026-04-18T08:50:20.097Z</time></trkpt><trkpt lat="43.5847967" lon="11.2102733"><ele>173.0</ele><time>2026-04-18T08:50:21.097Z</time></trkpt><trkpt lat="43.5846417" lon="11.2103683"><ele>173.0</ele><time>2026-04-18T08:50:22.098Z</time></trkpt><trkpt lat="43.584485" lon="11.210465"><ele>173.0</ele><time>2026-04-18T08:50:23.097Z</time></trkpt><trkpt lat="43.584335" lon="11.2105567"><ele>173.0</ele><time>2026-04-18T08:50:24.097Z</time></trkpt><trkpt lat="43.584195" lon="11.210645"><ele>173.33333333333331</ele><time>2026-04-18T08:50:25.097Z</time></trkpt><trkpt lat="43.5840583" lon="11.2107433"><ele>173.66666666666666</ele><time>2026-04-18T08:50:26.097Z</time></trkpt><trkpt lat="43.583925" lon="11.2108467"><ele>174.0</ele><time>2026-04-18T08:50:27.097Z</time></trkpt><trkpt lat="43.5837917" lon="11.2109583"><ele>174.0</ele><time>2026-04-18T08:50:28.097Z</time></trkpt><trkpt lat="43.58366" lon="11.2110717"><ele>174.0</ele><time>2026-04-18T08:50:29.098Z</time></trkpt><trkpt lat="43.5835317" lon="11.2111733"><ele>174.0</ele><time>2026-04-18T08:50:30.098Z</time></trkpt><trkpt lat="43.5833867" lon="11.211265"><ele>174.0</ele><time>2026-04-18T08:50:31.097Z</time></trkpt><trkpt lat="43.5832283" lon="11.2113383"><ele>174.0</ele><time>2026-04-18T08:50:32.098Z</time></trkpt><trkpt lat="43.5830633" lon="11.21141"><ele>174.0</ele><time>2026-04-18T08:50:33.098Z</time></trkpt><trkpt lat="43.5828983" lon="11.2114867"><ele>175.33333333333334</ele><time>2026-04-18T08:50:34.097Z</time></trkpt><trkpt lat="43.5827367" lon="11.2115583"><ele>176.66666666666669</ele><time>2026-04-18T08:50:35.098Z</time></trkpt><trkpt lat="43.582575" lon="11.2116283"><ele>178.0</ele><time>2026-04-18T08:50:36.098Z</time></trkpt><trkpt lat="43.5824133" lon="11.2116983"><ele>178.0</ele><time>2026-04-18T08:50:37.097Z</time></trkpt><trkpt lat="43.5822533" lon="11.2117617"><ele>178.0</ele><time>2026-04-18T08:50:38.098Z</time></trkpt><trkpt lat="43.5820933" lon="11.2118333"><ele>178.0</ele><time>2026-04-18T08:50:39.097Z</time></trkpt><trkpt lat="43.5819367" lon="11.211905"><ele>177.5</ele><time>2026-04-18T08:50:40.097Z</time></trkpt><trkpt lat="43.5817883" lon="11.2119733"><ele>177.0</ele><time>2026-04-18T08:50:41.098Z</time></trkpt><trkpt lat="43.58164" lon="11.2120267"><ele>176.5</ele><time>2026-04-18T08:50:42.098Z</time></trkpt><trkpt lat="43.5815067" lon="11.2120533"><ele>176.0</ele><time>2026-04-18T08:50:43.097Z</time></trkpt><trkpt lat="43.581375" lon="11.2120383"><ele>176.0</ele><time>2026-04-18T08:50:44.097Z</time></trkpt><trkpt lat="43.5812383" lon="11.2120017"><ele>176.0</ele><time>2026-04-18T08:50:45.097Z</time></trkpt><trkpt lat="43.5810967" lon="11.211975"><ele>176.0</ele><time>2026-04-18T08:50:46.097Z</time></trkpt><trkpt lat="43.5809433" lon="11.2119733"><ele>176.0</ele><time>2026-04-18T08:50:47.097Z</time></trkpt><trkpt lat="43.5807817" lon="11.2119833"><ele>175.33333333333331</ele><time>2026-04-18T08:50:48.098Z</time></trkpt><trkpt lat="43.58061" lon="11.2120117"><ele>174.66666666666666</ele><time>2026-04-18T08:50:49.098Z</time></trkpt><trkpt lat="43.5804383" lon="11.2120383"><ele>174.0</ele><time>2026-04-18T08:50:50.098Z</time></trkpt><trkpt lat="43.5802883" lon="11.212065"><ele>174.0</ele><time>2026-04-18T08:50:51.097Z</time></trkpt><trkpt lat="43.580145" lon="11.2120933"><ele>174.0</ele><time>2026-04-18T08:50:52.098Z</time></trkpt><trkpt lat="43.58001" lon="11.212125"><ele>174.0</ele><time>2026-04-18T08:50:53.097Z</time></trkpt><trkpt lat="43.579875" lon="11.2121617"><ele>174.0</ele><time>2026-04-18T08:50:54.097Z</time></trkpt><trkpt lat="43.5797417" lon="11.2122117"><ele>174.0</ele><time>2026-04-18T08:50:55.097Z</time></trkpt><trkpt lat="43.5796067" lon="11.2122683"><ele>174.0</ele><time>2026-04-18T08:50:56.098Z</time></trkpt><trkpt lat="43.5794667" lon="11.2123317"><ele>174.0</ele><time>2026-04-18T08:50:57.098Z</time></trkpt><trkpt lat="43.5793383" lon="11.212395"><ele>174.0</ele><time>2026-04-18T08:50:58.097Z</time></trkpt><trkpt lat="43.5792083" lon="11.2124633"><ele>174.25</ele><time>2026-04-18T08:50:59.097Z</time></trkpt><trkpt lat="43.5790767" lon="11.2125283"><ele>174.5</ele><time>2026-04-18T08:51:00.098Z</time></trkpt><trkpt lat="43.57894" lon="11.2126"><ele>174.75</ele><time>2026-04-18T08:51:01.097Z</time></trkpt><trkpt lat="43.5788067" lon="11.2126767"><ele>175.0</ele><time>2026-04-18T08:51:02.098Z</time></trkpt><trkpt lat="43.5786767" lon="11.2127683"><ele>175.33333333333334</ele><time>2026-04-18T08:51:03.097Z</time></trkpt><trkpt lat="43.5785517" lon="11.2128817"><ele>175.66666666666666</ele><time>2026-04-18T08:51:04.097Z</time></trkpt><trkpt lat="43.57843" lon="11.2130133"><ele>176.0</ele><time>2026-04-18T08:51:05.097Z</time></trkpt><trkpt lat="43.5783133" lon="11.2131567"><ele>176.0</ele><time>2026-04-18T08:51:06.098Z</time></trkpt><trkpt lat="43.5781967" lon="11.2133067"><ele>176.0</ele><time>2026-04-18T08:51:07.098Z</time></trkpt><trkpt lat="43.5780817" lon="11.2134617"><ele>176.0</ele><time>2026-04-18T08:51:08.097Z</time></trkpt><trkpt lat="43.5779633" lon="11.21362"><ele>175.66666666666666</ele><time>2026-04-18T08:51:09.098Z</time></trkpt><trkpt lat="43.5778517" lon="11.213775"><ele>175.33333333333334</ele><time>2026-04-18T08:51:10.097Z</time></trkpt><trkpt lat="43.5777383" lon="11.2139317"><ele>175.0</ele><time>2026-04-18T08:51:11.097Z</time></trkpt><trkpt lat="43.5776267" lon="11.2140717"><ele>175.0</ele><time>2026-04-18T08:51:12.098Z</time></trkpt><trkpt lat="43.5775183" lon="11.2142067"><ele>175.0</ele><time>2026-04-18T08:51:13.098Z</time></trkpt><trkpt lat="43.5774" lon="11.2143217"><ele>175.0</ele><time>2026-04-18T08:51:14.097Z</time></trkpt><trkpt lat="43.57727" lon="11.2144083"><ele>175.0</ele><time>2026-04-18T08:51:15.097Z</time></trkpt><trkpt lat="43.57714" lon="11.21449"><ele>174.33333333333334</ele><time>2026-04-18T08:51:16.097Z</time></trkpt><trkpt lat="43.57699" lon="11.2145567"><ele>173.66666666666666</ele><time>2026-04-18T08:51:17.098Z</time></trkpt><trkpt lat="43.576845" lon="11.2146267"><ele>173.0</ele><time>2026-04-18T08:51:18.097Z</time></trkpt><trkpt lat="43.5767033" lon="11.2146967"><ele>173.0</ele><time>2026-04-18T08:51:19.097Z</time></trkpt><trkpt lat="43.5765533" lon="11.2147633"><ele>173.0</ele><time>2026-04-18T08:51:20.097Z</time></trkpt><trkpt lat="43.5764033" lon="11.2148267"><ele>173.0</ele><time>2026-04-18T08:51:21.097Z</time></trkpt><trkpt lat="43.5762483" lon="11.214895"><ele>174.33333333333331</ele><time>2026-04-18T08:51:22.097Z</time></trkpt><trkpt lat="43.5760967" lon="11.21496"><ele>175.66666666666666</ele><time>2026-04-18T08:51:23.097Z</time></trkpt><trkpt lat="43.5759483" lon="11.215025"><ele>177.0</ele><time>2026-04-18T08:51:24.097Z</time></trkpt><trkpt lat="43.5758033" lon="11.2150917"><ele>177.0</ele><time>2026-04-18T08:51:25.098Z</time></trkpt><trkpt lat="43.5756633" lon="11.2151533"><ele>177.0</ele><time>2026-04-18T08:51:26.097Z</time></trkpt><trkpt lat="43.5755217" lon="11.2152133"><ele>177.0</ele><time>2026-04-18T08:51:27.098Z</time></trkpt><trkpt lat="43.5753867" lon="11.215275"><ele>177.0</ele><time>2026-04-18T08:51:28.097Z</time></trkpt><trkpt lat="43.57525" lon="11.2153383"><ele>176.75</ele><time>2026-04-18T08:51:29.097Z</time></trkpt><trkpt lat="43.5751133" lon="11.2153967"><ele>176.5</ele><time>2026-04-18T08:51:30.098Z</time></trkpt><trkpt lat="43.5749783" lon="11.2154467"><ele>176.25</ele><time>2026-04-18T08:51:31.097Z</time></trkpt><trkpt lat="43.5748433" lon="11.2154883"><ele>176.0</ele><time>2026-04-18T08:51:32.097Z</time></trkpt><trkpt lat="43.57471" lon="11.21554"><ele>176.0</ele><time>2026-04-18T08:51:33.097Z</time></trkpt><trkpt lat="43.57458" lon="11.21559"><ele>176.0</ele><time>2026-04-18T08:51:34.098Z</time></trkpt><trkpt lat="43.5744467" lon="11.21565"><ele>176.0</ele><time>2026-04-18T08:51:35.098Z</time></trkpt><trkpt lat="43.5743083" lon="11.2157133"><ele>176.0</ele><time>2026-04-18T08:51:36.098Z</time></trkpt><trkpt lat="43.5741733" lon="11.2157717"><ele>176.25</ele><time>2026-04-18T08:51:37.098Z</time></trkpt><trkpt lat="43.5740433" lon="11.2158367"><ele>176.5</ele><time>2026-04-18T08:51:38.098Z</time></trkpt><trkpt lat="43.57391" lon="11.2158867"><ele>176.75</ele><time>2026-04-18T08:51:39.098Z</time></trkpt><trkpt lat="43.5737733" lon="11.215955"><ele>177.0</ele><time>2026-04-18T08:51:40.098Z</time></trkpt><trkpt lat="43.57364" lon="11.21604"><ele>177.5</ele><time>2026-04-18T08:51:41.097Z</time></trkpt><trkpt lat="43.573505" lon="11.216135"><ele>178.0</ele><time>2026-04-18T08:51:42.097Z</time></trkpt><trkpt lat="43.57337" lon="11.2162317"><ele>178.5</ele><time>2026-04-18T08:51:43.097Z</time></trkpt><trkpt lat="43.5732467" lon="11.216325"><ele>179.0</ele><time>2026-04-18T08:51:44.098Z</time></trkpt><trkpt lat="43.573125" lon="11.216395"><ele>179.0</ele><time>2026-04-18T08:51:45.097Z</time></trkpt><trkpt lat="43.5729933" lon="11.21646"><ele>179.0</ele><time>2026-04-18T08:51:46.097Z</time></trkpt><trkpt lat="43.5728517" lon="11.2165117"><ele>179.0</ele><time>2026-04-18T08:51:47.097Z</time></trkpt><trkpt lat="43.5727083" lon="11.2165333"><ele>179.0</ele><time>2026-04-18T08:51:48.097Z</time></trkpt><trkpt lat="43.57257" lon="11.2165383"><ele>179.0</ele><time>2026-04-18T08:51:49.098Z</time></trkpt><trkpt lat="43.57243" lon="11.2165083"><ele>179.0</ele><time>2026-04-18T08:51:50.097Z</time></trkpt><trkpt lat="43.57229" lon="11.2164733"><ele>179.0</ele><time>2026-04-18T08:51:51.098Z</time></trkpt><trkpt lat="43.5721533" lon="11.2164133"><ele>179.0</ele><time>2026-04-18T08:51:52.097Z</time></trkpt><trkpt lat="43.5720233" lon="11.2163333"><ele>179.25</ele><time>2026-04-18T08:51:53.097Z</time></trkpt><trkpt lat="43.5718967" lon="11.21623"><ele>179.5</ele><time>2026-04-18T08:51:54.097Z</time></trkpt><trkpt lat="43.571785" lon="11.2161033"><ele>179.75</ele><time>2026-04-18T08:51:55.097Z</time></trkpt><trkpt lat="43.5716783" lon="11.2159683"><ele>180.0</ele><time>2026-04-18T08:51:56.096Z</time></trkpt><trkpt lat="43.5715733" lon="11.2158233"><ele>180.0</ele><time>2026-04-18T08:51:57.096Z</time></trkpt><trkpt lat="43.5714717" lon="11.2156833"><ele>180.0</ele><time>2026-04-18T08:51:58.096Z</time></trkpt><trkpt lat="43.57138" lon="11.2155383"><ele>180.0</ele><time>2026-04-18T08:51:59.097Z</time></trkpt><trkpt lat="43.571285" lon="11.2154067"><ele>180.0</ele><time>2026-04-18T08:52:00.096Z</time></trkpt><trkpt lat="43.5711833" lon="11.2152917"><ele>180.5</ele><time>2026-04-18T08:52:01.096Z</time></trkpt><trkpt lat="43.5710817" lon="11.21519"><ele>181.0</ele><time>2026-04-18T08:52:02.096Z</time></trkpt><trkpt lat="43.570975" lon="11.2150917"><ele>181.5</ele><time>2026-04-18T08:52:03.096Z</time></trkpt><trkpt lat="43.5708533" lon="11.21502"><ele>182.0</ele><time>2026-04-18T08:52:04.097Z</time></trkpt><trkpt lat="43.5707133" lon="11.2149717"><ele>182.0</ele><time>2026-04-18T08:52:05.097Z</time></trkpt><trkpt lat="43.57056" lon="11.2149517"><ele>182.0</ele><time>2026-04-18T08:52:06.096Z</time></trkpt><trkpt lat="43.5704017" lon="11.2149617"><ele>182.0</ele><time>2026-04-18T08:52:07.097Z</time></trkpt><trkpt lat="43.57024" lon="11.2150033"><ele>183.33333333333331</ele><time>2026-04-18T08:52:08.097Z</time></trkpt><trkpt lat="43.5700817" lon="11.2150583"><ele>184.66666666666666</ele><time>2026-04-18T08:52:09.096Z</time></trkpt><trkpt lat="43.5699183" lon="11.2151217"><ele>186.0</ele><time>2026-04-18T08:52:10.096Z</time></trkpt><trkpt lat="43.56975" lon="11.215185"><ele>186.0</ele><time>2026-04-18T08:52:11.096Z</time></trkpt><trkpt lat="43.5695783" lon="11.2152517"><ele>186.0</ele><time>2026-04-18T08:52:12.096Z</time></trkpt><trkpt lat="43.5694083" lon="11.21532"><ele>186.0</ele><time>2026-04-18T08:52:13.097Z</time></trkpt><trkpt lat="43.56924" lon="11.21539"><ele>189.66666666666669</ele><time>2026-04-18T08:52:14.097Z</time></trkpt><trkpt lat="43.5690667" lon="11.21546"><ele>193.33333333333334</ele><time>2026-04-18T08:52:15.096Z</time></trkpt><trkpt lat="43.5689" lon="11.215525"><ele>197.0</ele><time>2026-04-18T08:52:16.097Z</time></trkpt><trkpt lat="43.5687333" lon="11.2155917"><ele>194.33333333333334</ele><time>2026-04-18T08:52:17.097Z</time></trkpt><trkpt lat="43.5685583" lon="11.2156667"><ele>191.66666666666669</ele><time>2026-04-18T08:52:18.096Z</time></trkpt><trkpt lat="43.568385" lon="11.215725"><ele>189.0</ele><time>2026-04-18T08:52:19.097Z</time></trkpt><trkpt lat="43.5682167" lon="11.2157867"><ele>189.0</ele><time>2026-04-18T08:52:20.097Z</time></trkpt><trkpt lat="43.56805" lon="11.2158433"><ele>189.0</ele><time>2026-04-18T08:52:21.096Z</time></trkpt><trkpt lat="43.5679" lon="11.2158967"><ele>189.0</ele><time>2026-04-18T08:52:22.096Z</time></trkpt><trkpt lat="43.5677183" lon="11.215955"><ele>192.0</ele><time>2026-04-18T08:52:23.096Z</time></trkpt><trkpt lat="43.5675367" lon="11.216005"><ele>195.0</ele><time>2026-04-18T08:52:24.096Z</time></trkpt><trkpt lat="43.5673517" lon="11.2160483"><ele>198.0</ele><time>2026-04-18T08:52:25.096Z</time></trkpt><trkpt lat="43.5671767" lon="11.2160917"><ele>201.0</ele><time>2026-04-18T08:52:26.097Z</time></trkpt><trkpt lat="43.5670017" lon="11.216125"><ele>204.0</ele><time>2026-04-18T08:52:27.097Z</time></trkpt><trkpt lat="43.5668233" lon="11.2161583"><ele>207.0</ele><time>2026-04-18T08:52:28.096Z</time></trkpt><trkpt lat="43.56665" lon="11.21619"><ele>207.0</ele><time>2026-04-18T08:52:29.097Z</time></trkpt><trkpt lat="43.5664767" lon="11.2162383"><ele>207.0</ele><time>2026-04-18T08:52:30.096Z</time></trkpt><trkpt lat="43.566315" lon="11.2162883"><ele>207.0</ele><time>2026-04-18T08:52:31.096Z</time></trkpt><trkpt lat="43.5661483" lon="11.2163533"><ele>206.0</ele><time>2026-04-18T08:52:32.097Z</time></trkpt><trkpt lat="43.5659733" lon="11.2164317"><ele>205.0</ele><time>2026-04-18T08:52:33.096Z</time></trkpt><trkpt lat="43.5658117" lon="11.2165067"><ele>204.0</ele><time>2026-04-18T08:52:34.096Z</time></trkpt><trkpt lat="43.5656533" lon="11.2165733"><ele>204.0</ele><time>2026-04-18T08:52:35.096Z</time></trkpt><trkpt lat="43.5654817" lon="11.2166417"><ele>204.0</ele><time>2026-04-18T08:52:36.096Z</time></trkpt><trkpt lat="43.5653183" lon="11.2167083"><ele>204.0</ele><time>2026-04-18T08:52:37.097Z</time></trkpt><trkpt lat="43.56517" lon="11.216775"><ele>204.0</ele><time>2026-04-18T08:52:38.097Z</time></trkpt><trkpt lat="43.565025" lon="11.216855"><ele>204.0</ele><time>2026-04-18T08:52:39.096Z</time></trkpt><trkpt lat="43.56488" lon="11.2169467"><ele>204.0</ele><time>2026-04-18T08:52:40.097Z</time></trkpt><trkpt lat="43.564745" lon="11.2170717"><ele>204.0</ele><time>2026-04-18T08:52:41.096Z</time></trkpt><trkpt lat="43.5646283" lon="11.2172333"><ele>204.0</ele><time>2026-04-18T08:52:42.097Z</time></trkpt><trkpt lat="43.5645367" lon="11.2174317"><ele>204.0</ele><time>2026-04-18T08:52:43.097Z</time></trkpt><trkpt lat="43.5644667" lon="11.217645"><ele>208.66666666666669</ele><time>2026-04-18T08:52:44.096Z</time></trkpt><trkpt lat="43.564405" lon="11.2178767"><ele>213.33333333333334</ele><time>2026-04-18T08:52:45.097Z</time></trkpt><trkpt lat="43.5643417" lon="11.2181017"><ele>218.0</ele><time>2026-04-18T08:52:46.097Z</time></trkpt><trkpt lat="43.5642833" lon="11.2183367"><ele>218.0</ele><time>2026-04-18T08:52:47.096Z</time></trkpt><trkpt lat="43.5642317" lon="11.218565"><ele>218.0</ele><time>2026-04-18T08:52:48.096Z</time></trkpt><trkpt lat="43.56418" lon="11.2187883"><ele>218.0</ele><time>2026-04-18T08:52:49.096Z</time></trkpt><trkpt lat="43.56413" lon="11.2190133"><ele>217.0</ele><time>2026-04-18T08:52:50.096Z</time></trkpt><trkpt lat="43.5640817" lon="11.21923"><ele>216.0</ele><time>2026-04-18T08:52:51.097Z</time></trkpt><trkpt lat="43.5640267" lon="11.2194483"><ele>215.0</ele><time>2026-04-18T08:52:52.097Z</time></trkpt><trkpt lat="43.5639667" lon="11.219665"><ele>214.33333333333334</ele><time>2026-04-18T08:52:53.096Z</time></trkpt><trkpt lat="43.5639117" lon="11.2198733"><ele>213.66666666666669</ele><time>2026-04-18T08:52:54.097Z</time></trkpt><trkpt lat="43.5638567" lon="11.22008"><ele>213.0</ele><time>2026-04-18T08:52:55.097Z</time></trkpt><trkpt lat="43.5638017" lon="11.2202967"><ele>213.0</ele><time>2026-04-18T08:52:56.097Z</time></trkpt><trkpt lat="43.5637383" lon="11.2205117"><ele>213.0</ele><time>2026-04-18T08:52:57.096Z</time></trkpt><trkpt lat="43.56368" lon="11.2207033"><ele>213.0</ele><time>2026-04-18T08:52:58.097Z</time></trkpt><trkpt lat="43.563615" lon="11.22086"><ele>217.75</ele><time>2026-04-18T08:52:59.096Z</time></trkpt><trkpt lat="43.5635067" lon="11.220995"><ele>222.5</ele><time>2026-04-18T08:53:00.096Z</time></trkpt><trkpt lat="43.5633817" lon="11.221095"><ele>227.25</ele><time>2026-04-18T08:53:01.096Z</time></trkpt><trkpt lat="43.5632383" lon="11.2211733"><ele>232.0</ele><time>2026-04-18T08:53:02.096Z</time></trkpt><trkpt lat="43.563065" lon="11.2212183"><ele>232.0</ele><time>2026-04-18T08:53:03.096Z</time></trkpt><trkpt lat="43.5628933" lon="11.22127"><ele>232.0</ele><time>2026-04-18T08:53:04.096Z</time></trkpt><trkpt lat="43.562715" lon="11.22133"><ele>232.0</ele><time>2026-04-18T08:53:05.096Z</time></trkpt><trkpt lat="43.5625383" lon="11.2214033"><ele>231.33333333333331</ele><time>2026-04-18T08:53:06.096Z</time></trkpt><trkpt lat="43.56237" lon="11.2214733"><ele>230.66666666666669</ele><time>2026-04-18T08:53:07.096Z</time></trkpt><trkpt lat="43.5621983" lon="11.2215467"><ele>230.0</ele><time>2026-04-18T08:53:08.096Z</time></trkpt><trkpt lat="43.5620367" lon="11.2216267"><ele>233.66666666666669</ele><time>2026-04-18T08:53:09.097Z</time></trkpt><trkpt lat="43.5618833" lon="11.2217017"><ele>237.33333333333331</ele><time>2026-04-18T08:53:10.097Z</time></trkpt><trkpt lat="43.5617417" lon="11.2217667"><ele>241.0</ele><time>2026-04-18T08:53:11.096Z</time></trkpt><trkpt lat="43.56161" lon="11.2218217"><ele>241.0</ele><time>2026-04-18T08:53:12.096Z</time></trkpt><trkpt lat="43.5614967" lon="11.2218683"><ele>241.00000000000003</ele><time>2026-04-18T08:53:13.096Z</time></trkpt><trkpt lat="43.5613983" lon="11.2219367"><ele>241.00000000000003</ele><time>2026-04-18T08:53:14.097Z</time></trkpt><trkpt lat="43.5613217" lon="11.222025"><ele>241.0</ele><time>2026-04-18T08:53:15.097Z</time></trkpt><trkpt lat="43.5612717" lon="11.2221517"><ele>241.0</ele><time>2026-04-18T08:53:16.096Z</time></trkpt><trkpt lat="43.5612567" lon="11.2223"><ele>240.8</ele><time>2026-04-18T08:53:17.096Z</time></trkpt><trkpt lat="43.5612833" lon="11.2224383"><ele>240.60000000000002</ele><time>2026-04-18T08:53:18.096Z</time></trkpt><trkpt lat="43.5613383" lon="11.2225517"><ele>240.4</ele><time>2026-04-18T08:53:19.097Z</time></trkpt><trkpt lat="43.5614233" lon="11.2226217"><ele>240.2</ele><time>2026-04-18T08:53:20.097Z</time></trkpt><trkpt lat="43.5615467" lon="11.2226483"><ele>240.0</ele><time>2026-04-18T08:53:21.097Z</time></trkpt><trkpt lat="43.561675" lon="11.2226783"><ele>240.0</ele><time>2026-04-18T08:53:22.097Z</time></trkpt><trkpt lat="43.56181" lon="11.2227167"><ele>240.0</ele><time>2026-04-18T08:53:23.096Z</time></trkpt><trkpt lat="43.561935" lon="11.2227733"><ele>240.0</ele><time>2026-04-18T08:53:24.096Z</time></trkpt><trkpt lat="43.562035" lon="11.222865"><ele>240.0</ele><time>2026-04-18T08:53:25.097Z</time></trkpt><trkpt lat="43.5621217" lon="11.2229567"><ele>240.33333333333334</ele><time>2026-04-18T08:53:26.097Z</time></trkpt><trkpt lat="43.5621783" lon="11.2230467"><ele>240.66666666666669</ele><time>2026-04-18T08:53:27.096Z</time></trkpt><trkpt lat="43.5622117" lon="11.223125"><ele>241.0</ele><time>2026-04-18T08:53:28.097Z</time></trkpt><trkpt lat="43.5621667" lon="11.223225"><ele>241.33333333333334</ele><time>2026-04-18T08:53:29.097Z</time></trkpt><trkpt lat="43.562095" lon="11.2233117"><ele>241.66666666666669</ele><time>2026-04-18T08:53:30.097Z</time></trkpt><trkpt lat="43.5619983" lon="11.2233817"><ele>242.0</ele><time>2026-04-18T08:53:31.096Z</time></trkpt><trkpt lat="43.561885" lon="11.2234417"><ele>245.0</ele><time>2026-04-18T08:53:32.096Z</time></trkpt><trkpt lat="43.5617733" lon="11.223515"><ele>248.0</ele><time>2026-04-18T08:53:33.097Z</time></trkpt><trkpt lat="43.5616683" lon="11.2235967"><ele>251.0</ele><time>2026-04-18T08:53:34.097Z</time></trkpt><trkpt lat="43.56156" lon="11.223695"><ele>254.0</ele><time>2026-04-18T08:53:35.096Z</time></trkpt><trkpt lat="43.5614767" lon="11.2238"><ele>254.0</ele><time>2026-04-18T08:53:36.096Z</time></trkpt><trkpt lat="43.5613817" lon="11.22391"><ele>254.0</ele><time>2026-04-18T08:53:37.096Z</time></trkpt><trkpt lat="43.5613017" lon="11.2240217"><ele>254.0</ele><time>2026-04-18T08:53:38.097Z</time></trkpt><trkpt lat="43.5612183" lon="11.2241283"><ele>254.0</ele><time>2026-04-18T08:53:39.096Z</time></trkpt><trkpt lat="43.5611467" lon="11.224225"><ele>257.0</ele><time>2026-04-18T08:53:40.096Z</time></trkpt><trkpt lat="43.5610633" lon="11.2243033"><ele>260.0</ele><time>2026-04-18T08:53:41.097Z</time></trkpt><trkpt lat="43.5609633" lon="11.22437"><ele>263.0</ele><time>2026-04-18T08:53:42.096Z</time></trkpt><trkpt lat="43.560855" lon="11.224425"><ele>266.0</ele><time>2026-04-18T08:53:43.096Z</time></trkpt><trkpt lat="43.560735" lon="11.2244683"><ele>266.0</ele><time>2026-04-18T08:53:44.096Z</time></trkpt><trkpt lat="43.5606333" lon="11.2245183"><ele>266.0</ele><time>2026-04-18T08:53:45.096Z</time></trkpt><trkpt lat="43.5605317" lon="11.2245667"><ele>266.0</ele><time>2026-04-18T08:53:46.097Z</time></trkpt><trkpt lat="43.5604233" lon="11.2246217"><ele>266.0</ele><time>2026-04-18T08:53:47.097Z</time></trkpt><trkpt lat="43.5603033" lon="11.22468"><ele>267.5</ele><time>2026-04-18T08:53:48.096Z</time></trkpt><trkpt lat="43.5601917" lon="11.2247317"><ele>269.0</ele><time>2026-04-18T08:53:49.096Z</time></trkpt><trkpt lat="43.5600783" lon="11.2247883"><ele>270.5</ele><time>2026-04-18T08:53:50.097Z</time></trkpt><trkpt lat="43.5599717" lon="11.224845"><ele>272.0</ele><time>2026-04-18T08:53:51.096Z</time></trkpt><trkpt lat="43.5598717" lon="11.2249"><ele>272.0</ele><time>2026-04-18T08:53:52.097Z</time></trkpt><trkpt lat="43.55977" lon="11.2249483"><ele>272.0</ele><time>2026-04-18T08:53:53.096Z</time></trkpt><trkpt lat="43.5596717" lon="11.225"><ele>272.0</ele><time>2026-04-18T08:53:54.097Z</time></trkpt><trkpt lat="43.5595683" lon="11.225055"><ele>272.0</ele><time>2026-04-18T08:53:55.097Z</time></trkpt><trkpt lat="43.55947" lon="11.2251067"><ele>272.0</ele><time>2026-04-18T08:53:56.096Z</time></trkpt><trkpt lat="43.559375" lon="11.2251383"><ele>273.8</ele><time>2026-04-18T08:53:57.097Z</time></trkpt><trkpt lat="43.5592817" lon="11.22514"><ele>275.6</ele><time>2026-04-18T08:53:58.096Z</time></trkpt><trkpt lat="43.5591883" lon="11.2250967"><ele>277.40000000000003</ele><time>2026-04-18T08:53:59.096Z</time></trkpt><trkpt lat="43.559095" lon="11.22502"><ele>279.2</ele><time>2026-04-18T08:54:00.097Z</time></trkpt><trkpt lat="43.5590067" lon="11.2249217"><ele>281.0</ele><time>2026-04-18T08:54:01.096Z</time></trkpt><trkpt lat="43.558925" lon="11.2248317"><ele>282.40000000000003</ele><time>2026-04-18T08:54:02.096Z</time></trkpt><trkpt lat="43.55885" lon="11.2247467"><ele>283.8</ele><time>2026-04-18T08:54:03.096Z</time></trkpt><trkpt lat="43.55877" lon="11.2246683"><ele>285.20000000000005</ele><time>2026-04-18T08:54:04.096Z</time></trkpt><trkpt lat="43.558685" lon="11.2246067"><ele>286.6</ele><time>2026-04-18T08:54:05.096Z</time></trkpt><trkpt lat="43.558595" lon="11.224565"><ele>288.0</ele><time>2026-04-18T08:54:06.096Z</time></trkpt><trkpt lat="43.5584933" lon="11.2245567"><ele>289.2</ele><time>2026-04-18T08:54:07.097Z</time></trkpt><trkpt lat="43.5583933" lon="11.2245683"><ele>290.4</ele><time>2026-04-18T08:54:08.096Z</time></trkpt><trkpt lat="43.55829" lon="11.2245983"><ele>291.59999999999997</ele><time>2026-04-18T08:54:09.096Z</time></trkpt><trkpt lat="43.55819" lon="11.2246117"><ele>292.8</ele><time>2026-04-18T08:54:10.096Z</time></trkpt><trkpt lat="43.55809" lon="11.2246033"><ele>294.0</ele><time>2026-04-18T08:54:11.096Z</time></trkpt><trkpt lat="43.5580017" lon="11.2245633"><ele>294.0</ele><time>2026-04-18T08:54:12.096Z</time></trkpt><trkpt lat="43.5579283" lon="11.224485"><ele>294.0</ele><time>2026-04-18T08:54:13.097Z</time></trkpt><trkpt lat="43.5578617" lon="11.224375"><ele>294.0</ele><time>2026-04-18T08:54:14.097Z</time></trkpt><trkpt lat="43.5578033" lon="11.224255"><ele>294.0</ele><time>2026-04-18T08:54:15.096Z</time></trkpt><trkpt lat="43.5577417" lon="11.224125"><ele>294.0</ele><time>2026-04-18T08:54:16.096Z</time></trkpt><trkpt lat="43.5576717" lon="11.2240083"><ele>295.2</ele><time>2026-04-18T08:54:17.097Z</time></trkpt><trkpt lat="43.5575967" lon="11.2239067"><ele>296.4</ele><time>2026-04-18T08:54:18.096Z</time></trkpt><trkpt lat="43.557515" lon="11.2238117"><ele>297.6</ele><time>2026-04-18T08:54:19.097Z</time></trkpt><trkpt lat="43.5574283" lon="11.223725"><ele>298.8</ele><time>2026-04-18T08:54:20.096Z</time></trkpt><trkpt lat="43.5573417" lon="11.2236317"><ele>300.0</ele><time>2026-04-18T08:54:21.096Z</time></trkpt><trkpt lat="43.5572633" lon="11.2235417"><ele>300.0</ele><time>2026-04-18T08:54:22.096Z</time></trkpt><trkpt lat="43.5572017" lon="11.2234233"><ele>300.0</ele><time>2026-04-18T08:54:23.096Z</time></trkpt><trkpt lat="43.5571533" lon="11.2232967"><ele>300.0</ele><time>2026-04-18T08:54:24.096Z</time></trkpt><trkpt lat="43.5571233" lon="11.223175"><ele>300.0</ele><time>2026-04-18T08:54:25.096Z</time></trkpt><trkpt lat="43.557085" lon="11.2230483"><ele>300.0</ele><time>2026-04-18T08:54:26.096Z</time></trkpt><trkpt lat="43.557035" lon="11.22293"><ele>301.8</ele><time>2026-04-18T08:54:27.096Z</time></trkpt><trkpt lat="43.5569617" lon="11.2228317"><ele>303.6</ele><time>2026-04-18T08:54:28.096Z</time></trkpt><trkpt lat="43.5568667" lon="11.2227617"><ele>305.4</ele><time>2026-04-18T08:54:29.097Z</time></trkpt><trkpt lat="43.556755" lon="11.2227267"><ele>307.2</ele><time>2026-04-18T08:54:30.096Z</time></trkpt><trkpt lat="43.5566433" lon="11.2227133"><ele>309.0</ele><time>2026-04-18T08:54:31.097Z</time></trkpt><trkpt lat="43.5565283" lon="11.2227417"><ele>309.0</ele><time>2026-04-18T08:54:32.096Z</time></trkpt><trkpt lat="43.55641" lon="11.2227783"><ele>309.0</ele><time>2026-04-18T08:54:33.097Z</time></trkpt><trkpt lat="43.5562983" lon="11.2227983"><ele>309.0</ele><time>2026-04-18T08:54:34.096Z</time></trkpt><trkpt lat="43.5561633" lon="11.2227783"><ele>309.0</ele><time>2026-04-18T08:54:35.097Z</time></trkpt><trkpt lat="43.556045" lon="11.2227367"><ele>310.25</ele><time>2026-04-18T08:54:36.096Z</time></trkpt><trkpt lat="43.555925" lon="11.2227033"><ele>311.5</ele><time>2026-04-18T08:54:37.096Z</time></trkpt><trkpt lat="43.5558033" lon="11.222665"><ele>312.75</ele><time>2026-04-18T08:54:38.097Z</time></trkpt><trkpt lat="43.5556833" lon="11.2226817"><ele>314.0</ele><time>2026-04-18T08:54:39.096Z</time></trkpt><trkpt lat="43.55557" lon="11.2227283"><ele>314.0</ele><time>2026-04-18T08:54:40.096Z</time></trkpt><trkpt lat="43.555455" lon="11.222785"><ele>314.0</ele><time>2026-04-18T08:54:41.096Z</time></trkpt><trkpt lat="43.5553517" lon="11.2228117"><ele>314.0</ele><time>2026-04-18T08:54:42.097Z</time></trkpt><trkpt lat="43.5552417" lon="11.2228083"><ele>314.0</ele><time>2026-04-18T08:54:43.097Z</time></trkpt><trkpt lat="43.5551333" lon="11.2227733"><ele>314.0</ele><time>2026-04-18T08:54:44.096Z</time></trkpt><trkpt lat="43.555015" lon="11.2227267"><ele>314.25</ele><time>2026-04-18T08:54:45.096Z</time></trkpt><trkpt lat="43.5549017" lon="11.222665"><ele>314.5</ele><time>2026-04-18T08:54:46.096Z</time></trkpt><trkpt lat="43.5547883" lon="11.222605"><ele>314.75</ele><time>2026-04-18T08:54:47.096Z</time></trkpt><trkpt lat="43.5546867" lon="11.22254"><ele>315.0</ele><time>2026-04-18T08:54:48.097Z</time></trkpt><trkpt lat="43.554575" lon="11.222475"><ele>317.0</ele><time>2026-04-18T08:54:49.096Z</time></trkpt><trkpt lat="43.554465" lon="11.222405"><ele>319.0</ele><time>2026-04-18T08:54:50.097Z</time></trkpt><trkpt lat="43.554355" lon="11.2223383"><ele>321.0</ele><time>2026-04-18T08:54:51.097Z</time></trkpt><trkpt lat="43.5542433" lon="11.2222583"><ele>323.0</ele><time>2026-04-18T08:54:52.096Z</time></trkpt><trkpt lat="43.5541333" lon="11.2221683"><ele>323.0</ele><time>2026-04-18T08:54:53.096Z</time></trkpt><trkpt lat="43.554035" lon="11.2220617"><ele>323.0</ele><time>2026-04-18T08:54:54.097Z</time></trkpt><trkpt lat="43.5539217" lon="11.22197"><ele>323.0</ele><time>2026-04-18T08:54:55.096Z</time></trkpt><trkpt lat="43.5538217" lon="11.2218867"><ele>323.0</ele><time>2026-04-18T08:54:56.097Z</time></trkpt><trkpt lat="43.5537133" lon="11.22182"><ele>320.75</ele><time>2026-04-18T08:54:57.096Z</time></trkpt><trkpt lat="43.5535833" lon="11.2217617"><ele>318.5</ele><time>2026-04-18T08:54:58.096Z</time></trkpt><trkpt lat="43.5534467" lon="11.22171"><ele>316.25</ele><time>2026-04-18T08:54:59.097Z</time></trkpt><trkpt lat="43.5533033" lon="11.2216583"><ele>314.0</ele><time>2026-04-18T08:55:00.097Z</time></trkpt><trkpt lat="43.5531633" lon="11.22161"><ele>314.0</ele><time>2026-04-18T08:55:01.096Z</time></trkpt><trkpt lat="43.55302" lon="11.221565"><ele>314.0</ele><time>2026-04-18T08:55:02.096Z</time></trkpt><trkpt lat="43.552885" lon="11.2215383"><ele>314.0</ele><time>2026-04-18T08:55:03.096Z</time></trkpt><trkpt lat="43.5527517" lon="11.221545"><ele>314.0</ele><time>2026-04-18T08:55:04.096Z</time></trkpt><trkpt lat="43.552615" lon="11.2215667"><ele>314.75</ele><time>2026-04-18T08:55:05.096Z</time></trkpt><trkpt lat="43.5524717" lon="11.221605"><ele>315.5</ele><time>2026-04-18T08:55:06.096Z</time></trkpt><trkpt lat="43.5523267" lon="11.22164"><ele>316.25</ele><time>2026-04-18T08:55:07.096Z</time></trkpt><trkpt lat="43.5521833" lon="11.2216933"><ele>317.0</ele><time>2026-04-18T08:55:08.097Z</time></trkpt><trkpt lat="43.552055" lon="11.2217633"><ele>319.5</ele><time>2026-04-18T08:55:09.097Z</time></trkpt><trkpt lat="43.5519367" lon="11.2218467"><ele>322.0</ele><time>2026-04-18T08:55:10.096Z</time></trkpt><trkpt lat="43.5518183" lon="11.2219567"><ele>324.5</ele><time>2026-04-18T08:55:11.096Z</time></trkpt><trkpt lat="43.5517033" lon="11.2220933"><ele>327.0</ele><time>2026-04-18T08:55:12.096Z</time></trkpt><trkpt lat="43.551595" lon="11.2222283"><ele>326.25</ele><time>2026-04-18T08:55:13.096Z</time></trkpt><trkpt lat="43.5514833" lon="11.2223583"><ele>325.5</ele><time>2026-04-18T08:55:14.096Z</time></trkpt><trkpt lat="43.5513767" lon="11.2224833"><ele>324.75</ele><time>2026-04-18T08:55:15.096Z</time></trkpt><trkpt lat="43.5512833" lon="11.222585"><ele>324.0</ele><time>2026-04-18T08:55:16.096Z</time></trkpt><trkpt lat="43.551185" lon="11.2227183"><ele>327.25</ele><time>2026-04-18T08:55:17.096Z</time></trkpt><trkpt lat="43.5511" lon="11.22282"><ele>330.5</ele><time>2026-04-18T08:55:18.097Z</time></trkpt><trkpt lat="43.5510067" lon="11.2228933"><ele>333.75</ele><time>2026-04-18T08:55:19.096Z</time></trkpt><trkpt lat="43.5508933" lon="11.2229417"><ele>337.0</ele><time>2026-04-18T08:55:20.096Z</time></trkpt><trkpt lat="43.5507767" lon="11.2229667"><ele>337.0</ele><time>2026-04-18T08:55:21.096Z</time></trkpt><trkpt lat="43.550645" lon="11.222975"><ele>337.0</ele><time>2026-04-18T08:55:22.097Z</time></trkpt><trkpt lat="43.550515" lon="11.2229917"><ele>337.0</ele><time>2026-04-18T08:55:23.096Z</time></trkpt><trkpt lat="43.5503883" lon="11.22303"><ele>337.0</ele><time>2026-04-18T08:55:24.096Z</time></trkpt><trkpt lat="43.55025" lon="11.2230917"><ele>335.75</ele><time>2026-04-18T08:55:25.096Z</time></trkpt><trkpt lat="43.5501183" lon="11.22318"><ele>334.5</ele><time>2026-04-18T08:55:26.097Z</time></trkpt><trkpt lat="43.5499967" lon="11.2232767"><ele>333.25</ele><time>2026-04-18T08:55:27.096Z</time></trkpt><trkpt lat="43.5498767" lon="11.2233683"><ele>332.0</ele><time>2026-04-18T08:55:28.096Z</time></trkpt><trkpt lat="43.5497567" lon="11.22346"><ele>332.0</ele><time>2026-04-18T08:55:29.096Z</time></trkpt><trkpt lat="43.5496317" lon="11.22355"><ele>332.0</ele><time>2026-04-18T08:55:30.096Z</time></trkpt><trkpt lat="43.549515" lon="11.2236317"><ele>332.0</ele><time>2026-04-18T08:55:31.097Z</time></trkpt><trkpt lat="43.549395" lon="11.22373"><ele>332.0</ele><time>2026-04-18T08:55:32.096Z</time></trkpt><trkpt lat="43.5492617" lon="11.2238333"><ele>333.25</ele><time>2026-04-18T08:55:33.096Z</time></trkpt><trkpt lat="43.5491267" lon="11.2239267"><ele>334.5</ele><time>2026-04-18T08:55:34.096Z</time></trkpt><trkpt lat="43.549" lon="11.2240183"><ele>335.75</ele><time>2026-04-18T08:55:35.097Z</time></trkpt><trkpt lat="43.5488633" lon="11.2241"><ele>337.0</ele><time>2026-04-18T08:55:36.097Z</time></trkpt><trkpt lat="43.548725" lon="11.2241917"><ele>339.0</ele><time>2026-04-18T08:55:37.097Z</time></trkpt><trkpt lat="43.5485967" lon="11.2242733"><ele>341.0</ele><time>2026-04-18T08:55:38.096Z</time></trkpt><trkpt lat="43.5484633" lon="11.2243733"><ele>343.0</ele><time>2026-04-18T08:55:39.097Z</time></trkpt><trkpt lat="43.5483417" lon="11.224465"><ele>345.0</ele><time>2026-04-18T08:55:40.097Z</time></trkpt><trkpt lat="43.5482417" lon="11.2245933"><ele>345.0</ele><time>2026-04-18T08:55:41.096Z</time></trkpt><trkpt lat="43.5481567" lon="11.224765"><ele>345.0</ele><time>2026-04-18T08:55:42.096Z</time></trkpt><trkpt lat="43.5481033" lon="11.22495"><ele>345.0</ele><time>2026-04-18T08:55:43.096Z</time></trkpt><trkpt lat="43.5480567" lon="11.2251283"><ele>345.0</ele><time>2026-04-18T08:55:44.096Z</time></trkpt><trkpt lat="43.548005" lon="11.225295"><ele>346.25</ele><time>2026-04-18T08:55:45.097Z</time></trkpt><trkpt lat="43.5479367" lon="11.22545"><ele>347.5</ele><time>2026-04-18T08:55:46.096Z</time></trkpt><trkpt lat="43.54788" lon="11.2256183"><ele>348.75</ele><time>2026-04-18T08:55:47.096Z</time></trkpt><trkpt lat="43.547805" lon="11.2257667"><ele>350.0</ele><time>2026-04-18T08:55:48.096Z</time></trkpt><trkpt lat="43.5477333" lon="11.225915"><ele>350.0</ele><time>2026-04-18T08:55:49.096Z</time></trkpt><trkpt lat="43.5476517" lon="11.22605"><ele>350.0</ele><time>2026-04-18T08:55:50.096Z</time></trkpt><trkpt lat="43.54756" lon="11.2261683"><ele>350.0</ele><time>2026-04-18T08:55:51.096Z</time></trkpt><trkpt lat="43.54747" lon="11.2262733"><ele>350.0</ele><time>2026-04-18T08:55:52.096Z</time></trkpt><trkpt lat="43.5473917" lon="11.2263667"><ele>350.0</ele><time>2026-04-18T08:55:53.097Z</time></trkpt><trkpt lat="43.547325" lon="11.2264417"><ele>350.0</ele><time>2026-04-18T08:55:54.097Z</time></trkpt><trkpt lat="43.5472683" lon="11.2264883"><ele>350.0</ele><time>2026-04-18T08:55:55.097Z</time></trkpt><trkpt lat="43.5472" lon="11.2265483"><ele>350.0</ele><time>2026-04-18T08:55:57.097Z</time></trkpt><trkpt lat="43.5471183" lon="11.22655"><ele>350.0</ele><time>2026-04-18T08:56:06.096Z</time></trkpt><trkpt lat="43.547015" lon="11.2265833"><ele>350.0</ele><time>2026-04-18T08:56:09.096Z</time></trkpt><trkpt lat="43.5469633" lon="11.2266483"><ele>350.0</ele><time>2026-04-18T08:56:10.096Z</time></trkpt><trkpt lat="43.5469083" lon="11.2267333"><ele>350.0</ele><time>2026-04-18T08:56:11.096Z</time></trkpt><trkpt lat="43.5468417" lon="11.22682"><ele>350.0</ele><time>2026-04-18T08:56:12.097Z</time></trkpt><trkpt lat="43.54676" lon="11.22691"><ele>350.0</ele><time>2026-04-18T08:56:13.096Z</time></trkpt><trkpt lat="43.54667" lon="11.22701"><ele>350.0</ele><time>2026-04-18T08:56:14.097Z</time></trkpt><trkpt lat="43.546575" lon="11.2271"><ele>350.0</ele><time>2026-04-18T08:56:15.096Z</time></trkpt><trkpt lat="43.5464883" lon="11.2271667"><ele>350.0</ele><time>2026-04-18T08:56:16.096Z</time></trkpt><trkpt lat="43.5464067" lon="11.2272283"><ele>350.0</ele><time>2026-04-18T08:56:17.096Z</time></trkpt><trkpt lat="43.546335" lon="11.2272833"><ele>350.0</ele><time>2026-04-18T08:56:18.095Z</time></trkpt><trkpt lat="43.5462667" lon="11.2273367"><ele>350.0</ele><time>2026-04-18T08:56:19.095Z</time></trkpt><trkpt lat="43.5462083" lon="11.22738"><ele>350.0</ele><time>2026-04-18T08:56:20.096Z</time></trkpt><trkpt lat="43.5461017" lon="11.2274133"><ele>350.33333333333337</ele><time>2026-04-18T08:56:22.096Z</time></trkpt><trkpt lat="43.5460133" lon="11.227375"><ele>350.6666666666667</ele><time>2026-04-18T08:56:24.096Z</time></trkpt><trkpt lat="43.5459433" lon="11.2273367"><ele>351.0</ele><time>2026-04-18T08:56:26.096Z</time></trkpt><trkpt lat="43.5458783" lon="11.22732"><ele>351.3333333333333</ele><time>2026-04-18T08:56:28.095Z</time></trkpt><trkpt lat="43.5458133" lon="11.2273683"><ele>351.66666666666663</ele><time>2026-04-18T08:56:31.095Z</time></trkpt><trkpt lat="43.5457783" lon="11.2274683"><ele>352.0</ele><time>2026-04-18T08:56:35.096Z</time></trkpt><trkpt lat="43.545725" lon="11.2275517"><ele>352.0</ele><time>2026-04-18T08:56:37.095Z</time></trkpt><trkpt lat="43.545645" lon="11.227575"><ele>352.0</ele><time>2026-04-18T08:56:40.096Z</time></trkpt></trkseg></trk></gpx>